<?xml version="1.0" encoding="UTF-8" standalone="no" ?>
<gpx xmlns="http://www.topografix.com/GPX/1/1" xmlns:xsi="http://www.w3.org/2001/XMLSchema-instance" xsi:schemaLocation="http://www.topografix.com/GPX/1/1 http://www.topografix.com/GPX/1/1/gpx.xsd" version="1.1" creator="VisuGPX - https://www.visugpx.com">
  <metadata>
    <name>XtemLoue2023</name>
  </metadata>
  <trk>
    <name><![CDATA[XtemLoue2023_1]]></name>
    <trkseg>
      <trkpt lat="47.10158" lon="6.16078">
        <ele>339.6</ele>
        <time>2023-10-01T07:15:33Z</time>
      </trkpt>
      <trkpt lat="47.10155" lon="6.16077">
        <ele>339.8</ele>
        <time>2023-10-01T07:15:38Z</time>
      </trkpt>
      <trkpt lat="47.1015" lon="6.16077">
        <ele>339.8</ele>
        <time>2023-10-01T07:15:40Z</time>
      </trkpt>
      <trkpt lat="47.10132" lon="6.1608">
        <ele>339.6</ele>
        <time>2023-10-01T07:15:45Z</time>
      </trkpt>
      <trkpt lat="47.1011" lon="6.16094">
        <ele>340.2</ele>
        <time>2023-10-01T07:15:52Z</time>
      </trkpt>
      <trkpt lat="47.10109" lon="6.16098">
        <ele>340.2</ele>
        <time>2023-10-01T07:15:53Z</time>
      </trkpt>
      <trkpt lat="47.10112" lon="6.16107">
        <ele>339.8</ele>
        <time>2023-10-01T07:15:55Z</time>
      </trkpt>
      <trkpt lat="47.10117" lon="6.1612">
        <ele>339.4</ele>
        <time>2023-10-01T07:15:58Z</time>
      </trkpt>
      <trkpt lat="47.10126" lon="6.16138">
        <ele>339.4</ele>
        <time>2023-10-01T07:16:02Z</time>
      </trkpt>
      <trkpt lat="47.10142" lon="6.16156">
        <ele>340</ele>
        <time>2023-10-01T07:16:08Z</time>
      </trkpt>
      <trkpt lat="47.10154" lon="6.16157">
        <ele>341</ele>
        <time>2023-10-01T07:16:11Z</time>
      </trkpt>
      <trkpt lat="47.10158" lon="6.16159">
        <ele>341.4</ele>
        <time>2023-10-01T07:16:12Z</time>
      </trkpt>
      <trkpt lat="47.10166" lon="6.16163">
        <ele>341.8</ele>
        <time>2023-10-01T07:16:14Z</time>
      </trkpt>
      <trkpt lat="47.10178" lon="6.16172">
        <ele>342</ele>
        <time>2023-10-01T07:16:18Z</time>
      </trkpt>
      <trkpt lat="47.10184" lon="6.16171">
        <ele>342.6</ele>
        <time>2023-10-01T07:16:20Z</time>
      </trkpt>
      <trkpt lat="47.1019" lon="6.16164">
        <ele>343.2</ele>
        <time>2023-10-01T07:16:23Z</time>
      </trkpt>
      <trkpt lat="47.10193" lon="6.16161">
        <ele>343.2</ele>
        <time>2023-10-01T07:16:24Z</time>
      </trkpt>
      <trkpt lat="47.10208" lon="6.16144">
        <ele>344</ele>
        <time>2023-10-01T07:16:29Z</time>
      </trkpt>
      <trkpt lat="47.10231" lon="6.16123">
        <ele>344.4</ele>
        <time>2023-10-01T07:16:36Z</time>
      </trkpt>
      <trkpt lat="47.10234" lon="6.1612">
        <ele>344.4</ele>
        <time>2023-10-01T07:16:37Z</time>
      </trkpt>
      <trkpt lat="47.10259" lon="6.16091">
        <ele>344.6</ele>
        <time>2023-10-01T07:16:46Z</time>
      </trkpt>
      <trkpt lat="47.1028" lon="6.16064">
        <ele>344.8</ele>
        <time>2023-10-01T07:16:53Z</time>
      </trkpt>
      <trkpt lat="47.103" lon="6.16049">
        <ele>344.4</ele>
        <time>2023-10-01T07:16:58Z</time>
      </trkpt>
      <trkpt lat="47.10329" lon="6.16012">
        <ele>345</ele>
        <time>2023-10-01T07:17:06Z</time>
      </trkpt>
      <trkpt lat="47.10348" lon="6.15976">
        <ele>345.2</ele>
        <time>2023-10-01T07:17:12Z</time>
      </trkpt>
      <trkpt lat="47.10351" lon="6.15969">
        <ele>345.4</ele>
        <time>2023-10-01T07:17:13Z</time>
      </trkpt>
      <trkpt lat="47.10369" lon="6.15925">
        <ele>345.6</ele>
        <time>2023-10-01T07:17:20Z</time>
      </trkpt>
      <trkpt lat="47.10384" lon="6.1587">
        <ele>346.2</ele>
        <time>2023-10-01T07:17:28Z</time>
      </trkpt>
      <trkpt lat="47.10389" lon="6.1585">
        <ele>346.4</ele>
        <time>2023-10-01T07:17:31Z</time>
      </trkpt>
      <trkpt lat="47.10394" lon="6.15816">
        <ele>347</ele>
        <time>2023-10-01T07:17:36Z</time>
      </trkpt>
      <trkpt lat="47.10402" lon="6.15763">
        <ele>346.8</ele>
        <time>2023-10-01T07:17:43Z</time>
      </trkpt>
      <trkpt lat="47.10412" lon="6.15685">
        <ele>347</ele>
        <time>2023-10-01T07:17:53Z</time>
      </trkpt>
      <trkpt lat="47.10413" lon="6.15678">
        <ele>347</ele>
        <time>2023-10-01T07:17:54Z</time>
      </trkpt>
      <trkpt lat="47.10421" lon="6.15653">
        <ele>346.6</ele>
        <time>2023-10-01T07:17:58Z</time>
      </trkpt>
      <trkpt lat="47.10425" lon="6.15649">
        <ele>346.2</ele>
        <time>2023-10-01T07:17:59Z</time>
      </trkpt>
      <trkpt lat="47.10435" lon="6.15632">
        <ele>345.6</ele>
        <time>2023-10-01T07:18:02Z</time>
      </trkpt>
      <trkpt lat="47.10436" lon="6.15618">
        <ele>345.6</ele>
        <time>2023-10-01T07:18:04Z</time>
      </trkpt>
      <trkpt lat="47.10435" lon="6.15604">
        <ele>345.6</ele>
        <time>2023-10-01T07:18:06Z</time>
      </trkpt>
      <trkpt lat="47.10436" lon="6.15582">
        <ele>345.6</ele>
        <time>2023-10-01T07:18:09Z</time>
      </trkpt>
      <trkpt lat="47.1044" lon="6.15544">
        <ele>345.4</ele>
        <time>2023-10-01T07:18:14Z</time>
      </trkpt>
      <trkpt lat="47.10443" lon="6.15523">
        <ele>345.4</ele>
        <time>2023-10-01T07:18:17Z</time>
      </trkpt>
      <trkpt lat="47.10447" lon="6.15476">
        <ele>346.4</ele>
        <time>2023-10-01T07:18:24Z</time>
      </trkpt>
      <trkpt lat="47.10449" lon="6.15463">
        <ele>346.4</ele>
        <time>2023-10-01T07:18:26Z</time>
      </trkpt>
      <trkpt lat="47.10453" lon="6.15445">
        <ele>346.6</ele>
        <time>2023-10-01T07:18:29Z</time>
      </trkpt>
      <trkpt lat="47.1046" lon="6.15435">
        <ele>347</ele>
        <time>2023-10-01T07:18:31Z</time>
      </trkpt>
      <trkpt lat="47.10476" lon="6.15431">
        <ele>347.4</ele>
        <time>2023-10-01T07:18:35Z</time>
      </trkpt>
      <trkpt lat="47.10488" lon="6.15436">
        <ele>347.4</ele>
        <time>2023-10-01T07:18:38Z</time>
      </trkpt>
      <trkpt lat="47.10495" lon="6.15439">
        <ele>347.4</ele>
        <time>2023-10-01T07:18:40Z</time>
      </trkpt>
      <trkpt lat="47.10499" lon="6.15441">
        <ele>347.6</ele>
        <time>2023-10-01T07:18:41Z</time>
      </trkpt>
      <trkpt lat="47.10513" lon="6.15449">
        <ele>348.6</ele>
        <time>2023-10-01T07:18:45Z</time>
      </trkpt>
      <trkpt lat="47.10531" lon="6.15458">
        <ele>349.2</ele>
        <time>2023-10-01T07:18:50Z</time>
      </trkpt>
      <trkpt lat="47.10538" lon="6.15463">
        <ele>349.6</ele>
        <time>2023-10-01T07:18:52Z</time>
      </trkpt>
      <trkpt lat="47.10555" lon="6.15474">
        <ele>350.6</ele>
        <time>2023-10-01T07:18:57Z</time>
      </trkpt>
      <trkpt lat="47.10562" lon="6.15478">
        <ele>351</ele>
        <time>2023-10-01T07:18:59Z</time>
      </trkpt>
      <trkpt lat="47.10574" lon="6.15489">
        <ele>351.8</ele>
        <time>2023-10-01T07:19:03Z</time>
      </trkpt>
      <trkpt lat="47.10587" lon="6.15499">
        <ele>352.4</ele>
        <time>2023-10-01T07:19:07Z</time>
      </trkpt>
      <trkpt lat="47.10599" lon="6.15509">
        <ele>352.8</ele>
        <time>2023-10-01T07:19:11Z</time>
      </trkpt>
      <trkpt lat="47.10613" lon="6.15522">
        <ele>353.8</ele>
        <time>2023-10-01T07:19:16Z</time>
      </trkpt>
      <trkpt lat="47.10616" lon="6.15526">
        <ele>354</ele>
        <time>2023-10-01T07:19:17Z</time>
      </trkpt>
      <trkpt lat="47.10633" lon="6.15543">
        <ele>355</ele>
        <time>2023-10-01T07:19:23Z</time>
      </trkpt>
      <trkpt lat="47.10636" lon="6.15545">
        <ele>355.4</ele>
        <time>2023-10-01T07:19:24Z</time>
      </trkpt>
      <trkpt lat="47.10646" lon="6.15555">
        <ele>356.4</ele>
        <time>2023-10-01T07:19:28Z</time>
      </trkpt>
      <trkpt lat="47.10663" lon="6.15567">
        <ele>357.4</ele>
        <time>2023-10-01T07:19:34Z</time>
      </trkpt>
      <trkpt lat="47.10666" lon="6.15568">
        <ele>357.6</ele>
        <time>2023-10-01T07:19:35Z</time>
      </trkpt>
      <trkpt lat="47.10676" lon="6.15576">
        <ele>358.8</ele>
        <time>2023-10-01T07:19:39Z</time>
      </trkpt>
      <trkpt lat="47.10683" lon="6.15581">
        <ele>359.6</ele>
        <time>2023-10-01T07:19:42Z</time>
      </trkpt>
      <trkpt lat="47.10688" lon="6.15584">
        <ele>360.2</ele>
        <time>2023-10-01T07:19:44Z</time>
      </trkpt>
      <trkpt lat="47.107" lon="6.15592">
        <ele>361.2</ele>
        <time>2023-10-01T07:19:49Z</time>
      </trkpt>
      <trkpt lat="47.10704" lon="6.15597">
        <ele>361.6</ele>
        <time>2023-10-01T07:19:51Z</time>
      </trkpt>
      <trkpt lat="47.10711" lon="6.15601">
        <ele>362.4</ele>
        <time>2023-10-01T07:19:54Z</time>
      </trkpt>
      <trkpt lat="47.10723" lon="6.15613">
        <ele>363.2</ele>
        <time>2023-10-01T07:20:00Z</time>
      </trkpt>
      <trkpt lat="47.10727" lon="6.15617">
        <ele>363.4</ele>
        <time>2023-10-01T07:20:02Z</time>
      </trkpt>
      <trkpt lat="47.10746" lon="6.15633">
        <ele>363.8</ele>
        <time>2023-10-01T07:20:10Z</time>
      </trkpt>
      <trkpt lat="47.10753" lon="6.15637">
        <ele>364.4</ele>
        <time>2023-10-01T07:20:13Z</time>
      </trkpt>
      <trkpt lat="47.10761" lon="6.15641">
        <ele>365.4</ele>
        <time>2023-10-01T07:20:16Z</time>
      </trkpt>
      <trkpt lat="47.10765" lon="6.15644">
        <ele>365.8</ele>
        <time>2023-10-01T07:20:18Z</time>
      </trkpt>
      <trkpt lat="47.10772" lon="6.15649">
        <ele>366.4</ele>
        <time>2023-10-01T07:20:21Z</time>
      </trkpt>
      <trkpt lat="47.10786" lon="6.15658">
        <ele>367.6</ele>
        <time>2023-10-01T07:20:27Z</time>
      </trkpt>
      <trkpt lat="47.10794" lon="6.15663">
        <ele>368.2</ele>
        <time>2023-10-01T07:20:30Z</time>
      </trkpt>
      <trkpt lat="47.10799" lon="6.15667">
        <ele>368.6</ele>
        <time>2023-10-01T07:20:32Z</time>
      </trkpt>
      <trkpt lat="47.10812" lon="6.15676">
        <ele>369.8</ele>
        <time>2023-10-01T07:20:37Z</time>
      </trkpt>
      <trkpt lat="47.10821" lon="6.15683">
        <ele>370.4</ele>
        <time>2023-10-01T07:20:41Z</time>
      </trkpt>
      <trkpt lat="47.10828" lon="6.15688">
        <ele>370.8</ele>
        <time>2023-10-01T07:20:44Z</time>
      </trkpt>
      <trkpt lat="47.10839" lon="6.15696">
        <ele>372.2</ele>
        <time>2023-10-01T07:20:49Z</time>
      </trkpt>
      <trkpt lat="47.10842" lon="6.15698">
        <ele>372.4</ele>
        <time>2023-10-01T07:20:50Z</time>
      </trkpt>
      <trkpt lat="47.10852" lon="6.15705">
        <ele>373.2</ele>
        <time>2023-10-01T07:20:55Z</time>
      </trkpt>
      <trkpt lat="47.10863" lon="6.15713">
        <ele>374.2</ele>
        <time>2023-10-01T07:21:00Z</time>
      </trkpt>
      <trkpt lat="47.10865" lon="6.15714">
        <ele>374.6</ele>
        <time>2023-10-01T07:21:01Z</time>
      </trkpt>
      <trkpt lat="47.10875" lon="6.15722">
        <ele>375.6</ele>
        <time>2023-10-01T07:21:06Z</time>
      </trkpt>
      <trkpt lat="47.1088" lon="6.15727">
        <ele>375.8</ele>
        <time>2023-10-01T07:21:09Z</time>
      </trkpt>
      <trkpt lat="47.10892" lon="6.15735">
        <ele>376.6</ele>
        <time>2023-10-01T07:21:15Z</time>
      </trkpt>
      <trkpt lat="47.109" lon="6.15739">
        <ele>377.2</ele>
        <time>2023-10-01T07:21:18Z</time>
      </trkpt>
      <trkpt lat="47.10906" lon="6.15745">
        <ele>377.8</ele>
        <time>2023-10-01T07:21:21Z</time>
      </trkpt>
      <trkpt lat="47.10916" lon="6.15752">
        <ele>378.8</ele>
        <time>2023-10-01T07:21:26Z</time>
      </trkpt>
      <trkpt lat="47.10918" lon="6.15754">
        <ele>379</ele>
        <time>2023-10-01T07:21:27Z</time>
      </trkpt>
      <trkpt lat="47.10932" lon="6.15766">
        <ele>380.2</ele>
        <time>2023-10-01T07:21:33Z</time>
      </trkpt>
      <trkpt lat="47.10934" lon="6.15768">
        <ele>380.4</ele>
        <time>2023-10-01T07:21:34Z</time>
      </trkpt>
      <trkpt lat="47.1094" lon="6.15773">
        <ele>381.4</ele>
        <time>2023-10-01T07:21:37Z</time>
      </trkpt>
      <trkpt lat="47.10947" lon="6.15779">
        <ele>382.4</ele>
        <time>2023-10-01T07:21:40Z</time>
      </trkpt>
      <trkpt lat="47.10954" lon="6.15784">
        <ele>383</ele>
        <time>2023-10-01T07:21:43Z</time>
      </trkpt>
      <trkpt lat="47.10957" lon="6.15789">
        <ele>383.4</ele>
        <time>2023-10-01T07:21:45Z</time>
      </trkpt>
      <trkpt lat="47.10968" lon="6.15799">
        <ele>384.4</ele>
        <time>2023-10-01T07:21:50Z</time>
      </trkpt>
      <trkpt lat="47.1097" lon="6.15801">
        <ele>384.4</ele>
        <time>2023-10-01T07:21:51Z</time>
      </trkpt>
      <trkpt lat="47.10983" lon="6.15812">
        <ele>384.4</ele>
        <time>2023-10-01T07:21:56Z</time>
      </trkpt>
      <trkpt lat="47.10997" lon="6.15828">
        <ele>384.6</ele>
        <time>2023-10-01T07:22:01Z</time>
      </trkpt>
      <trkpt lat="47.11017" lon="6.1585">
        <ele>383.8</ele>
        <time>2023-10-01T07:22:09Z</time>
      </trkpt>
      <trkpt lat="47.11026" lon="6.1586">
        <ele>383.4</ele>
        <time>2023-10-01T07:22:13Z</time>
      </trkpt>
      <trkpt lat="47.11033" lon="6.15868">
        <ele>383.6</ele>
        <time>2023-10-01T07:22:16Z</time>
      </trkpt>
      <trkpt lat="47.11053" lon="6.15885">
        <ele>383.8</ele>
        <time>2023-10-01T07:22:23Z</time>
      </trkpt>
      <trkpt lat="47.1107" lon="6.15901">
        <ele>383.8</ele>
        <time>2023-10-01T07:22:30Z</time>
      </trkpt>
      <trkpt lat="47.11087" lon="6.15917">
        <ele>383.6</ele>
        <time>2023-10-01T07:22:36Z</time>
      </trkpt>
      <trkpt lat="47.11099" lon="6.15928">
        <ele>384.4</ele>
        <time>2023-10-01T07:22:40Z</time>
      </trkpt>
      <trkpt lat="47.11106" lon="6.15934">
        <ele>384.4</ele>
        <time>2023-10-01T07:22:42Z</time>
      </trkpt>
      <trkpt lat="47.11125" lon="6.1595">
        <ele>384.8</ele>
        <time>2023-10-01T07:22:49Z</time>
      </trkpt>
      <trkpt lat="47.11138" lon="6.15971">
        <ele>385.4</ele>
        <time>2023-10-01T07:22:56Z</time>
      </trkpt>
      <trkpt lat="47.11142" lon="6.15974">
        <ele>385.4</ele>
        <time>2023-10-01T07:22:58Z</time>
      </trkpt>
      <trkpt lat="47.11147" lon="6.15982">
        <ele>386.8</ele>
        <time>2023-10-01T07:23:02Z</time>
      </trkpt>
      <trkpt lat="47.11149" lon="6.15984">
        <ele>387.2</ele>
        <time>2023-10-01T07:23:03Z</time>
      </trkpt>
      <trkpt lat="47.11152" lon="6.15987">
        <ele>388.2</ele>
        <time>2023-10-01T07:23:05Z</time>
      </trkpt>
      <trkpt lat="47.11162" lon="6.15994">
        <ele>389.4</ele>
        <time>2023-10-01T07:23:09Z</time>
      </trkpt>
      <trkpt lat="47.11176" lon="6.16007">
        <ele>390</ele>
        <time>2023-10-01T07:23:16Z</time>
      </trkpt>
      <trkpt lat="47.1118" lon="6.16014">
        <ele>390.8</ele>
        <time>2023-10-01T07:23:19Z</time>
      </trkpt>
      <trkpt lat="47.11186" lon="6.16019">
        <ele>392</ele>
        <time>2023-10-01T07:23:22Z</time>
      </trkpt>
      <trkpt lat="47.1119" lon="6.16023">
        <ele>392.6</ele>
        <time>2023-10-01T07:23:24Z</time>
      </trkpt>
      <trkpt lat="47.11193" lon="6.16027">
        <ele>393.2</ele>
        <time>2023-10-01T07:23:26Z</time>
      </trkpt>
      <trkpt lat="47.11199" lon="6.16033">
        <ele>394.4</ele>
        <time>2023-10-01T07:23:29Z</time>
      </trkpt>
      <trkpt lat="47.112" lon="6.16035">
        <ele>394.8</ele>
        <time>2023-10-01T07:23:30Z</time>
      </trkpt>
      <trkpt lat="47.11205" lon="6.16038">
        <ele>395.4</ele>
        <time>2023-10-01T07:23:33Z</time>
      </trkpt>
      <trkpt lat="47.1121" lon="6.16045">
        <ele>395.8</ele>
        <time>2023-10-01T07:23:36Z</time>
      </trkpt>
      <trkpt lat="47.11217" lon="6.16054">
        <ele>395.6</ele>
        <time>2023-10-01T07:23:40Z</time>
      </trkpt>
      <trkpt lat="47.11223" lon="6.16061">
        <ele>395.6</ele>
        <time>2023-10-01T07:23:43Z</time>
      </trkpt>
      <trkpt lat="47.11231" lon="6.16073">
        <ele>396.6</ele>
        <time>2023-10-01T07:23:47Z</time>
      </trkpt>
      <trkpt lat="47.11238" lon="6.16084">
        <ele>397</ele>
        <time>2023-10-01T07:23:51Z</time>
      </trkpt>
      <trkpt lat="47.11244" lon="6.16095">
        <ele>397.6</ele>
        <time>2023-10-01T07:23:55Z</time>
      </trkpt>
      <trkpt lat="47.11249" lon="6.16106">
        <ele>398.8</ele>
        <time>2023-10-01T07:23:59Z</time>
      </trkpt>
      <trkpt lat="47.11259" lon="6.1612">
        <ele>399.8</ele>
        <time>2023-10-01T07:24:05Z</time>
      </trkpt>
      <trkpt lat="47.1126" lon="6.16122">
        <ele>400.2</ele>
        <time>2023-10-01T07:24:06Z</time>
      </trkpt>
      <trkpt lat="47.11265" lon="6.16132">
        <ele>401</ele>
        <time>2023-10-01T07:24:10Z</time>
      </trkpt>
      <trkpt lat="47.1127" lon="6.16137">
        <ele>402</ele>
        <time>2023-10-01T07:24:13Z</time>
      </trkpt>
      <trkpt lat="47.11272" lon="6.16139">
        <ele>402.2</ele>
        <time>2023-10-01T07:24:14Z</time>
      </trkpt>
      <trkpt lat="47.11278" lon="6.16147">
        <ele>403.2</ele>
        <time>2023-10-01T07:24:18Z</time>
      </trkpt>
      <trkpt lat="47.11281" lon="6.16152">
        <ele>405.2</ele>
        <time>2023-10-01T07:24:20Z</time>
      </trkpt>
      <trkpt lat="47.11282" lon="6.16154">
        <ele>405.6</ele>
        <time>2023-10-01T07:24:21Z</time>
      </trkpt>
      <trkpt lat="47.11286" lon="6.16158">
        <ele>406.2</ele>
        <time>2023-10-01T07:24:23Z</time>
      </trkpt>
      <trkpt lat="47.11297" lon="6.16174">
        <ele>407.4</ele>
        <time>2023-10-01T07:24:30Z</time>
      </trkpt>
      <trkpt lat="47.11302" lon="6.1618">
        <ele>408.4</ele>
        <time>2023-10-01T07:24:33Z</time>
      </trkpt>
      <trkpt lat="47.11311" lon="6.1619">
        <ele>409.2</ele>
        <time>2023-10-01T07:24:38Z</time>
      </trkpt>
      <trkpt lat="47.11312" lon="6.16192">
        <ele>409.6</ele>
        <time>2023-10-01T07:24:39Z</time>
      </trkpt>
      <trkpt lat="47.11316" lon="6.16195">
        <ele>410.6</ele>
        <time>2023-10-01T07:24:41Z</time>
      </trkpt>
      <trkpt lat="47.11325" lon="6.16206">
        <ele>411</ele>
        <time>2023-10-01T07:24:47Z</time>
      </trkpt>
      <trkpt lat="47.11331" lon="6.1621">
        <ele>412</ele>
        <time>2023-10-01T07:24:50Z</time>
      </trkpt>
      <trkpt lat="47.11337" lon="6.16214">
        <ele>413.4</ele>
        <time>2023-10-01T07:24:53Z</time>
      </trkpt>
      <trkpt lat="47.11341" lon="6.16218">
        <ele>414.4</ele>
        <time>2023-10-01T07:24:55Z</time>
      </trkpt>
      <trkpt lat="47.11346" lon="6.16222">
        <ele>415.8</ele>
        <time>2023-10-01T07:24:58Z</time>
      </trkpt>
      <trkpt lat="47.11352" lon="6.16226">
        <ele>416.8</ele>
        <time>2023-10-01T07:25:01Z</time>
      </trkpt>
      <trkpt lat="47.11355" lon="6.16229">
        <ele>417.8</ele>
        <time>2023-10-01T07:25:03Z</time>
      </trkpt>
      <trkpt lat="47.11357" lon="6.1623">
        <ele>418.4</ele>
        <time>2023-10-01T07:25:04Z</time>
      </trkpt>
      <trkpt lat="47.11362" lon="6.16234">
        <ele>419.6</ele>
        <time>2023-10-01T07:25:07Z</time>
      </trkpt>
      <trkpt lat="47.11365" lon="6.16236">
        <ele>421</ele>
        <time>2023-10-01T07:25:09Z</time>
      </trkpt>
      <trkpt lat="47.11368" lon="6.16238">
        <ele>422.6</ele>
        <time>2023-10-01T07:25:11Z</time>
      </trkpt>
      <trkpt lat="47.11371" lon="6.16241">
        <ele>424</ele>
        <time>2023-10-01T07:25:13Z</time>
      </trkpt>
      <trkpt lat="47.11374" lon="6.16244">
        <ele>425.2</ele>
        <time>2023-10-01T07:25:15Z</time>
      </trkpt>
      <trkpt lat="47.1138" lon="6.16249">
        <ele>426</ele>
        <time>2023-10-01T07:25:19Z</time>
      </trkpt>
      <trkpt lat="47.11382" lon="6.1625">
        <ele>426.4</ele>
        <time>2023-10-01T07:25:20Z</time>
      </trkpt>
      <trkpt lat="47.11386" lon="6.16252">
        <ele>428</ele>
        <time>2023-10-01T07:25:22Z</time>
      </trkpt>
      <trkpt lat="47.11389" lon="6.16254">
        <ele>429.2</ele>
        <time>2023-10-01T07:25:24Z</time>
      </trkpt>
      <trkpt lat="47.11393" lon="6.16256">
        <ele>430.6</ele>
        <time>2023-10-01T07:25:27Z</time>
      </trkpt>
      <trkpt lat="47.11398" lon="6.16259">
        <ele>431.6</ele>
        <time>2023-10-01T07:25:30Z</time>
      </trkpt>
      <trkpt lat="47.11402" lon="6.16261">
        <ele>432.8</ele>
        <time>2023-10-01T07:25:32Z</time>
      </trkpt>
      <trkpt lat="47.11405" lon="6.16261">
        <ele>433.4</ele>
        <time>2023-10-01T07:25:34Z</time>
      </trkpt>
      <trkpt lat="47.11407" lon="6.16262">
        <ele>433.8</ele>
        <time>2023-10-01T07:25:35Z</time>
      </trkpt>
      <trkpt lat="47.11412" lon="6.16261">
        <ele>435.2</ele>
        <time>2023-10-01T07:25:37Z</time>
      </trkpt>
      <trkpt lat="47.11414" lon="6.16261">
        <ele>435.6</ele>
        <time>2023-10-01T07:25:38Z</time>
      </trkpt>
      <trkpt lat="47.11419" lon="6.16257">
        <ele>436</ele>
        <time>2023-10-01T07:25:41Z</time>
      </trkpt>
      <trkpt lat="47.1142" lon="6.16256">
        <ele>436.4</ele>
        <time>2023-10-01T07:25:42Z</time>
      </trkpt>
      <trkpt lat="47.11422" lon="6.16252">
        <ele>437</ele>
        <time>2023-10-01T07:25:44Z</time>
      </trkpt>
      <trkpt lat="47.11423" lon="6.16246">
        <ele>437.6</ele>
        <time>2023-10-01T07:25:46Z</time>
      </trkpt>
      <trkpt lat="47.11423" lon="6.16244">
        <ele>437.6</ele>
        <time>2023-10-01T07:25:47Z</time>
      </trkpt>
      <trkpt lat="47.11422" lon="6.16233">
        <ele>439</ele>
        <time>2023-10-01T07:25:50Z</time>
      </trkpt>
      <trkpt lat="47.1142" lon="6.16227">
        <ele>439.4</ele>
        <time>2023-10-01T07:25:52Z</time>
      </trkpt>
      <trkpt lat="47.11416" lon="6.16226">
        <ele>440</ele>
        <time>2023-10-01T07:25:54Z</time>
      </trkpt>
      <trkpt lat="47.11409" lon="6.16225">
        <ele>441.2</ele>
        <time>2023-10-01T07:25:58Z</time>
      </trkpt>
      <trkpt lat="47.11396" lon="6.16223">
        <ele>441.6</ele>
        <time>2023-10-01T07:26:05Z</time>
      </trkpt>
      <trkpt lat="47.11391" lon="6.1622">
        <ele>442.2</ele>
        <time>2023-10-01T07:26:08Z</time>
      </trkpt>
      <trkpt lat="47.11382" lon="6.16211">
        <ele>442.6</ele>
        <time>2023-10-01T07:26:12Z</time>
      </trkpt>
      <trkpt lat="47.11369" lon="6.16192">
        <ele>442</ele>
        <time>2023-10-01T07:26:18Z</time>
      </trkpt>
      <trkpt lat="47.11351" lon="6.16167">
        <ele>442.2</ele>
        <time>2023-10-01T07:26:23Z</time>
      </trkpt>
      <trkpt lat="47.11329" lon="6.16138">
        <ele>441.2</ele>
        <time>2023-10-01T07:26:28Z</time>
      </trkpt>
      <trkpt lat="47.11311" lon="6.16115">
        <ele>441.4</ele>
        <time>2023-10-01T07:26:31Z</time>
      </trkpt>
      <trkpt lat="47.113" lon="6.16101">
        <ele>441.4</ele>
        <time>2023-10-01T07:26:33Z</time>
      </trkpt>
      <trkpt lat="47.11275" lon="6.16062">
        <ele>441.8</ele>
        <time>2023-10-01T07:26:39Z</time>
      </trkpt>
      <trkpt lat="47.11252" lon="6.16019">
        <ele>441.6</ele>
        <time>2023-10-01T07:26:46Z</time>
      </trkpt>
      <trkpt lat="47.11229" lon="6.15986">
        <ele>441.8</ele>
        <time>2023-10-01T07:26:52Z</time>
      </trkpt>
      <trkpt lat="47.11207" lon="6.1595">
        <ele>442.4</ele>
        <time>2023-10-01T07:26:59Z</time>
      </trkpt>
      <trkpt lat="47.11193" lon="6.15926">
        <ele>443.2</ele>
        <time>2023-10-01T07:27:04Z</time>
      </trkpt>
      <trkpt lat="47.1119" lon="6.15921">
        <ele>443.2</ele>
        <time>2023-10-01T07:27:05Z</time>
      </trkpt>
      <trkpt lat="47.11178" lon="6.15904">
        <ele>443.6</ele>
        <time>2023-10-01T07:27:08Z</time>
      </trkpt>
      <trkpt lat="47.11162" lon="6.15883">
        <ele>444</ele>
        <time>2023-10-01T07:27:12Z</time>
      </trkpt>
      <trkpt lat="47.11147" lon="6.15862">
        <ele>444.4</ele>
        <time>2023-10-01T07:27:17Z</time>
      </trkpt>
      <trkpt lat="47.11145" lon="6.15858">
        <ele>444.6</ele>
        <time>2023-10-01T07:27:18Z</time>
      </trkpt>
      <trkpt lat="47.11131" lon="6.15837">
        <ele>444.4</ele>
        <time>2023-10-01T07:27:24Z</time>
      </trkpt>
      <trkpt lat="47.1111" lon="6.15807">
        <ele>445</ele>
        <time>2023-10-01T07:27:32Z</time>
      </trkpt>
      <trkpt lat="47.11094" lon="6.15781">
        <ele>445.6</ele>
        <time>2023-10-01T07:27:39Z</time>
      </trkpt>
      <trkpt lat="47.11092" lon="6.15777">
        <ele>445.8</ele>
        <time>2023-10-01T07:27:40Z</time>
      </trkpt>
      <trkpt lat="47.1108" lon="6.15759">
        <ele>446.8</ele>
        <time>2023-10-01T07:27:45Z</time>
      </trkpt>
      <trkpt lat="47.11075" lon="6.15752">
        <ele>447</ele>
        <time>2023-10-01T07:27:47Z</time>
      </trkpt>
      <trkpt lat="47.11057" lon="6.15723">
        <ele>447.6</ele>
        <time>2023-10-01T07:27:54Z</time>
      </trkpt>
      <trkpt lat="47.1105" lon="6.15711">
        <ele>448</ele>
        <time>2023-10-01T07:27:57Z</time>
      </trkpt>
      <trkpt lat="47.11044" lon="6.15698">
        <ele>448.2</ele>
        <time>2023-10-01T07:28:00Z</time>
      </trkpt>
      <trkpt lat="47.11031" lon="6.1567">
        <ele>448.6</ele>
        <time>2023-10-01T07:28:06Z</time>
      </trkpt>
      <trkpt lat="47.11023" lon="6.15654">
        <ele>449.2</ele>
        <time>2023-10-01T07:28:09Z</time>
      </trkpt>
      <trkpt lat="47.1101" lon="6.15633">
        <ele>450</ele>
        <time>2023-10-01T07:28:13Z</time>
      </trkpt>
      <trkpt lat="47.11008" lon="6.15628">
        <ele>450.2</ele>
        <time>2023-10-01T07:28:14Z</time>
      </trkpt>
      <trkpt lat="47.10998" lon="6.15615">
        <ele>451.6</ele>
        <time>2023-10-01T07:28:17Z</time>
      </trkpt>
      <trkpt lat="47.10989" lon="6.15603">
        <ele>452.8</ele>
        <time>2023-10-01T07:28:20Z</time>
      </trkpt>
      <trkpt lat="47.1098" lon="6.15589">
        <ele>454</ele>
        <time>2023-10-01T07:28:23Z</time>
      </trkpt>
      <trkpt lat="47.10971" lon="6.15577">
        <ele>455.2</ele>
        <time>2023-10-01T07:28:26Z</time>
      </trkpt>
      <trkpt lat="47.10964" lon="6.15568">
        <ele>456.2</ele>
        <time>2023-10-01T07:28:28Z</time>
      </trkpt>
      <trkpt lat="47.10954" lon="6.15551">
        <ele>457.4</ele>
        <time>2023-10-01T07:28:32Z</time>
      </trkpt>
      <trkpt lat="47.10948" lon="6.15542">
        <ele>457.8</ele>
        <time>2023-10-01T07:28:34Z</time>
      </trkpt>
      <trkpt lat="47.10936" lon="6.15523">
        <ele>458.8</ele>
        <time>2023-10-01T07:28:38Z</time>
      </trkpt>
      <trkpt lat="47.10928" lon="6.15507">
        <ele>458.6</ele>
        <time>2023-10-01T07:28:41Z</time>
      </trkpt>
      <trkpt lat="47.10906" lon="6.15466">
        <ele>458.6</ele>
        <time>2023-10-01T07:28:50Z</time>
      </trkpt>
      <trkpt lat="47.10895" lon="6.15442">
        <ele>459.2</ele>
        <time>2023-10-01T07:28:56Z</time>
      </trkpt>
      <trkpt lat="47.10891" lon="6.15431">
        <ele>459.8</ele>
        <time>2023-10-01T07:28:59Z</time>
      </trkpt>
      <trkpt lat="47.10882" lon="6.15406">
        <ele>460.8</ele>
        <time>2023-10-01T07:29:05Z</time>
      </trkpt>
      <trkpt lat="47.1087" lon="6.15377">
        <ele>462</ele>
        <time>2023-10-01T07:29:12Z</time>
      </trkpt>
      <trkpt lat="47.10866" lon="6.15367">
        <ele>462.4</ele>
        <time>2023-10-01T07:29:14Z</time>
      </trkpt>
      <trkpt lat="47.10856" lon="6.15339">
        <ele>462.8</ele>
        <time>2023-10-01T07:29:20Z</time>
      </trkpt>
      <trkpt lat="47.10854" lon="6.15329">
        <ele>463.2</ele>
        <time>2023-10-01T07:29:22Z</time>
      </trkpt>
      <trkpt lat="47.1085" lon="6.15305">
        <ele>464.4</ele>
        <time>2023-10-01T07:29:27Z</time>
      </trkpt>
      <trkpt lat="47.10844" lon="6.1527">
        <ele>465.4</ele>
        <time>2023-10-01T07:29:35Z</time>
      </trkpt>
      <trkpt lat="47.1085" lon="6.15252">
        <ele>466</ele>
        <time>2023-10-01T07:29:41Z</time>
      </trkpt>
      <trkpt lat="47.10856" lon="6.15246">
        <ele>466.4</ele>
        <time>2023-10-01T07:29:44Z</time>
      </trkpt>
      <trkpt lat="47.10861" lon="6.15239">
        <ele>467.4</ele>
        <time>2023-10-01T07:29:47Z</time>
      </trkpt>
      <trkpt lat="47.10868" lon="6.15231">
        <ele>468</ele>
        <time>2023-10-01T07:29:51Z</time>
      </trkpt>
      <trkpt lat="47.10876" lon="6.15221">
        <ele>468.6</ele>
        <time>2023-10-01T07:29:56Z</time>
      </trkpt>
      <trkpt lat="47.10879" lon="6.15218">
        <ele>469.2</ele>
        <time>2023-10-01T07:29:58Z</time>
      </trkpt>
      <trkpt lat="47.10881" lon="6.15214">
        <ele>469.6</ele>
        <time>2023-10-01T07:30:00Z</time>
      </trkpt>
      <trkpt lat="47.10889" lon="6.15205">
        <ele>470.2</ele>
        <time>2023-10-01T07:30:06Z</time>
      </trkpt>
      <trkpt lat="47.10893" lon="6.15198">
        <ele>471</ele>
        <time>2023-10-01T07:30:09Z</time>
      </trkpt>
      <trkpt lat="47.10896" lon="6.15193">
        <ele>471.6</ele>
        <time>2023-10-01T07:30:12Z</time>
      </trkpt>
      <trkpt lat="47.10902" lon="6.15183">
        <ele>472</ele>
        <time>2023-10-01T07:30:18Z</time>
      </trkpt>
      <trkpt lat="47.10904" lon="6.1518">
        <ele>472</ele>
        <time>2023-10-01T07:30:20Z</time>
      </trkpt>
      <trkpt lat="47.10909" lon="6.15166">
        <ele>472.4</ele>
        <time>2023-10-01T07:30:27Z</time>
      </trkpt>
      <trkpt lat="47.10914" lon="6.15155">
        <ele>473.2</ele>
        <time>2023-10-01T07:30:32Z</time>
      </trkpt>
      <trkpt lat="47.10917" lon="6.15147">
        <ele>473.6</ele>
        <time>2023-10-01T07:30:35Z</time>
      </trkpt>
      <trkpt lat="47.1092" lon="6.15141">
        <ele>474.4</ele>
        <time>2023-10-01T07:30:38Z</time>
      </trkpt>
      <trkpt lat="47.10925" lon="6.15134">
        <ele>475.4</ele>
        <time>2023-10-01T07:30:42Z</time>
      </trkpt>
      <trkpt lat="47.10926" lon="6.15132">
        <ele>475.8</ele>
        <time>2023-10-01T07:30:43Z</time>
      </trkpt>
      <trkpt lat="47.10929" lon="6.15126">
        <ele>477</ele>
        <time>2023-10-01T07:30:46Z</time>
      </trkpt>
      <trkpt lat="47.10935" lon="6.15119">
        <ele>477.8</ele>
        <time>2023-10-01T07:30:50Z</time>
      </trkpt>
      <trkpt lat="47.10936" lon="6.15117">
        <ele>478</ele>
        <time>2023-10-01T07:30:51Z</time>
      </trkpt>
      <trkpt lat="47.1094" lon="6.15111">
        <ele>479.4</ele>
        <time>2023-10-01T07:30:55Z</time>
      </trkpt>
      <trkpt lat="47.10942" lon="6.15108">
        <ele>479.6</ele>
        <time>2023-10-01T07:30:56Z</time>
      </trkpt>
      <trkpt lat="47.10942" lon="6.15106">
        <ele>479.6</ele>
        <time>2023-10-01T07:30:57Z</time>
      </trkpt>
      <trkpt lat="47.10947" lon="6.15098">
        <ele>480.6</ele>
        <time>2023-10-01T07:31:01Z</time>
      </trkpt>
      <trkpt lat="47.10948" lon="6.15096">
        <ele>481</ele>
        <time>2023-10-01T07:31:02Z</time>
      </trkpt>
      <trkpt lat="47.1095" lon="6.15094">
        <ele>481.6</ele>
        <time>2023-10-01T07:31:04Z</time>
      </trkpt>
      <trkpt lat="47.10956" lon="6.15087">
        <ele>482.8</ele>
        <time>2023-10-01T07:31:09Z</time>
      </trkpt>
      <trkpt lat="47.10961" lon="6.15084">
        <ele>482.6</ele>
        <time>2023-10-01T07:31:12Z</time>
      </trkpt>
      <trkpt lat="47.10969" lon="6.15082">
        <ele>483.8</ele>
        <time>2023-10-01T07:31:17Z</time>
      </trkpt>
      <trkpt lat="47.10974" lon="6.15082">
        <ele>484.6</ele>
        <time>2023-10-01T07:31:20Z</time>
      </trkpt>
      <trkpt lat="47.10976" lon="6.15082">
        <ele>485</ele>
        <time>2023-10-01T07:31:21Z</time>
      </trkpt>
      <trkpt lat="47.10979" lon="6.15083">
        <ele>485</ele>
        <time>2023-10-01T07:31:23Z</time>
      </trkpt>
      <trkpt lat="47.10985" lon="6.15084">
        <ele>484.4</ele>
        <time>2023-10-01T07:31:27Z</time>
      </trkpt>
      <trkpt lat="47.11" lon="6.15091">
        <ele>483.6</ele>
        <time>2023-10-01T07:31:37Z</time>
      </trkpt>
      <trkpt lat="47.11007" lon="6.15097">
        <ele>483.4</ele>
        <time>2023-10-01T07:31:41Z</time>
      </trkpt>
      <trkpt lat="47.11017" lon="6.15109">
        <ele>483.4</ele>
        <time>2023-10-01T07:31:48Z</time>
      </trkpt>
      <trkpt lat="47.11064" lon="6.15194">
        <ele>491.4</ele>
        <time>2023-10-01T07:32:36Z</time>
      </trkpt>
      <trkpt lat="47.11066" lon="6.15199">
        <ele>491.6</ele>
        <time>2023-10-01T07:32:38Z</time>
      </trkpt>
      <trkpt lat="47.11075" lon="6.1521">
        <ele>492.4</ele>
        <time>2023-10-01T07:32:44Z</time>
      </trkpt>
      <trkpt lat="47.11078" lon="6.15212">
        <ele>492.6</ele>
        <time>2023-10-01T07:32:45Z</time>
      </trkpt>
      <trkpt lat="47.11094" lon="6.15223">
        <ele>494</ele>
        <time>2023-10-01T07:33:28Z</time>
      </trkpt>
      <trkpt lat="47.11106" lon="6.15231">
        <ele>495</ele>
        <time>2023-10-01T07:33:33Z</time>
      </trkpt>
      <trkpt lat="47.11108" lon="6.15233">
        <ele>495.2</ele>
        <time>2023-10-01T07:33:34Z</time>
      </trkpt>
      <trkpt lat="47.11115" lon="6.15237">
        <ele>496.2</ele>
        <time>2023-10-01T07:33:49Z</time>
      </trkpt>
      <trkpt lat="47.11118" lon="6.15239">
        <ele>495.8</ele>
        <time>2023-10-01T07:33:51Z</time>
      </trkpt>
      <trkpt lat="47.11125" lon="6.15252">
        <ele>496.8</ele>
        <time>2023-10-01T07:33:58Z</time>
      </trkpt>
      <trkpt lat="47.11126" lon="6.15255">
        <ele>497.4</ele>
        <time>2023-10-01T07:33:59Z</time>
      </trkpt>
      <trkpt lat="47.11125" lon="6.15263">
        <ele>498.8</ele>
        <time>2023-10-01T07:34:02Z</time>
      </trkpt>
      <trkpt lat="47.11125" lon="6.15269">
        <ele>500.2</ele>
        <time>2023-10-01T07:34:04Z</time>
      </trkpt>
      <trkpt lat="47.11125" lon="6.15275">
        <ele>501.6</ele>
        <time>2023-10-01T07:34:06Z</time>
      </trkpt>
      <trkpt lat="47.11124" lon="6.1528">
        <ele>502.8</ele>
        <time>2023-10-01T07:34:08Z</time>
      </trkpt>
      <trkpt lat="47.11123" lon="6.15284">
        <ele>504</ele>
        <time>2023-10-01T07:34:10Z</time>
      </trkpt>
      <trkpt lat="47.11122" lon="6.15291">
        <ele>505.4</ele>
        <time>2023-10-01T07:34:13Z</time>
      </trkpt>
      <trkpt lat="47.11121" lon="6.15296">
        <ele>506.4</ele>
        <time>2023-10-01T07:34:15Z</time>
      </trkpt>
      <trkpt lat="47.11123" lon="6.15304">
        <ele>507.8</ele>
        <time>2023-10-01T07:34:18Z</time>
      </trkpt>
      <trkpt lat="47.11123" lon="6.15307">
        <ele>508.2</ele>
        <time>2023-10-01T07:34:19Z</time>
      </trkpt>
      <trkpt lat="47.11125" lon="6.15313">
        <ele>509.2</ele>
        <time>2023-10-01T07:34:22Z</time>
      </trkpt>
      <trkpt lat="47.11129" lon="6.15321">
        <ele>510</ele>
        <time>2023-10-01T07:34:26Z</time>
      </trkpt>
      <trkpt lat="47.11131" lon="6.15323">
        <ele>510.2</ele>
        <time>2023-10-01T07:34:27Z</time>
      </trkpt>
      <trkpt lat="47.11138" lon="6.1533">
        <ele>511.4</ele>
        <time>2023-10-01T07:34:31Z</time>
      </trkpt>
      <trkpt lat="47.11139" lon="6.15332">
        <ele>511.4</ele>
        <time>2023-10-01T07:34:32Z</time>
      </trkpt>
      <trkpt lat="47.11156" lon="6.15337">
        <ele>512.4</ele>
        <time>2023-10-01T07:34:39Z</time>
      </trkpt>
      <trkpt lat="47.11181" lon="6.15339">
        <ele>512.6</ele>
        <time>2023-10-01T07:34:47Z</time>
      </trkpt>
      <trkpt lat="47.11213" lon="6.15342">
        <ele>513.2</ele>
        <time>2023-10-01T07:34:58Z</time>
      </trkpt>
      <trkpt lat="47.1123" lon="6.15344">
        <ele>513.4</ele>
        <time>2023-10-01T07:35:04Z</time>
      </trkpt>
      <trkpt lat="47.11236" lon="6.15345">
        <ele>513.4</ele>
        <time>2023-10-01T07:35:06Z</time>
      </trkpt>
      <trkpt lat="47.11253" lon="6.15349">
        <ele>514.6</ele>
        <time>2023-10-01T07:35:12Z</time>
      </trkpt>
      <trkpt lat="47.1127" lon="6.15347">
        <ele>515.6</ele>
        <time>2023-10-01T07:35:18Z</time>
      </trkpt>
      <trkpt lat="47.11273" lon="6.15347">
        <ele>516</ele>
        <time>2023-10-01T07:35:19Z</time>
      </trkpt>
      <trkpt lat="47.11297" lon="6.15344">
        <ele>516.8</ele>
        <time>2023-10-01T07:35:27Z</time>
      </trkpt>
      <trkpt lat="47.11305" lon="6.15342">
        <ele>517.4</ele>
        <time>2023-10-01T07:35:30Z</time>
      </trkpt>
      <trkpt lat="47.1132" lon="6.15341">
        <ele>517.8</ele>
        <time>2023-10-01T07:35:35Z</time>
      </trkpt>
      <trkpt lat="47.11327" lon="6.15339">
        <ele>518</ele>
        <time>2023-10-01T07:35:37Z</time>
      </trkpt>
      <trkpt lat="47.11339" lon="6.15337">
        <ele>519</ele>
        <time>2023-10-01T07:35:41Z</time>
      </trkpt>
      <trkpt lat="47.11348" lon="6.15335">
        <ele>519.6</ele>
        <time>2023-10-01T07:35:44Z</time>
      </trkpt>
      <trkpt lat="47.11361" lon="6.15336">
        <ele>520</ele>
        <time>2023-10-01T07:35:48Z</time>
      </trkpt>
      <trkpt lat="47.11369" lon="6.15341">
        <ele>521.2</ele>
        <time>2023-10-01T07:35:51Z</time>
      </trkpt>
      <trkpt lat="47.11377" lon="6.15344">
        <ele>522.4</ele>
        <time>2023-10-01T07:35:54Z</time>
      </trkpt>
      <trkpt lat="47.11383" lon="6.15343">
        <ele>522.8</ele>
        <time>2023-10-01T07:35:56Z</time>
      </trkpt>
      <trkpt lat="47.11391" lon="6.15343">
        <ele>523.4</ele>
        <time>2023-10-01T07:35:59Z</time>
      </trkpt>
      <trkpt lat="47.11402" lon="6.15342">
        <ele>524.2</ele>
        <time>2023-10-01T07:36:03Z</time>
      </trkpt>
      <trkpt lat="47.11407" lon="6.15343">
        <ele>524.4</ele>
        <time>2023-10-01T07:36:05Z</time>
      </trkpt>
      <trkpt lat="47.11423" lon="6.15343">
        <ele>524.2</ele>
        <time>2023-10-01T07:36:11Z</time>
      </trkpt>
      <trkpt lat="47.11447" lon="6.15346">
        <ele>524.8</ele>
        <time>2023-10-01T07:36:20Z</time>
      </trkpt>
      <trkpt lat="47.11459" lon="6.15347">
        <ele>525.4</ele>
        <time>2023-10-01T07:36:25Z</time>
      </trkpt>
      <trkpt lat="47.11466" lon="6.15349">
        <ele>525.6</ele>
        <time>2023-10-01T07:36:28Z</time>
      </trkpt>
      <trkpt lat="47.11478" lon="6.15354">
        <ele>526.2</ele>
        <time>2023-10-01T07:36:35Z</time>
      </trkpt>
      <trkpt lat="47.1148" lon="6.15354">
        <ele>526.6</ele>
        <time>2023-10-01T07:36:36Z</time>
      </trkpt>
      <trkpt lat="47.1149" lon="6.15358">
        <ele>526.8</ele>
        <time>2023-10-01T07:36:42Z</time>
      </trkpt>
      <trkpt lat="47.11494" lon="6.15358">
        <ele>527.8</ele>
        <time>2023-10-01T07:36:45Z</time>
      </trkpt>
      <trkpt lat="47.11501" lon="6.15359">
        <ele>529</ele>
        <time>2023-10-01T07:36:49Z</time>
      </trkpt>
      <trkpt lat="47.11505" lon="6.15358">
        <ele>529.4</ele>
        <time>2023-10-01T07:36:51Z</time>
      </trkpt>
      <trkpt lat="47.11515" lon="6.15358">
        <ele>530.2</ele>
        <time>2023-10-01T07:36:56Z</time>
      </trkpt>
      <trkpt lat="47.11521" lon="6.15358">
        <ele>531</ele>
        <time>2023-10-01T07:36:59Z</time>
      </trkpt>
      <trkpt lat="47.11522" lon="6.15359">
        <ele>531.4</ele>
        <time>2023-10-01T07:37:00Z</time>
      </trkpt>
      <trkpt lat="47.11529" lon="6.1536">
        <ele>532.6</ele>
        <time>2023-10-01T07:37:04Z</time>
      </trkpt>
      <trkpt lat="47.11533" lon="6.15361">
        <ele>533</ele>
        <time>2023-10-01T07:37:06Z</time>
      </trkpt>
      <trkpt lat="47.11536" lon="6.15362">
        <ele>533.6</ele>
        <time>2023-10-01T07:37:08Z</time>
      </trkpt>
      <trkpt lat="47.11542" lon="6.15362">
        <ele>534.6</ele>
        <time>2023-10-01T07:37:11Z</time>
      </trkpt>
      <trkpt lat="47.11548" lon="6.15362">
        <ele>535.2</ele>
        <time>2023-10-01T07:37:14Z</time>
      </trkpt>
      <trkpt lat="47.11553" lon="6.15361">
        <ele>535.8</ele>
        <time>2023-10-01T07:37:17Z</time>
      </trkpt>
      <trkpt lat="47.11559" lon="6.15361">
        <ele>537</ele>
        <time>2023-10-01T07:37:21Z</time>
      </trkpt>
      <trkpt lat="47.11564" lon="6.15363">
        <ele>537.2</ele>
        <time>2023-10-01T07:37:24Z</time>
      </trkpt>
      <trkpt lat="47.1157" lon="6.15365">
        <ele>538.2</ele>
        <time>2023-10-01T07:37:28Z</time>
      </trkpt>
      <trkpt lat="47.11573" lon="6.15365">
        <ele>538.6</ele>
        <time>2023-10-01T07:37:30Z</time>
      </trkpt>
      <trkpt lat="47.11578" lon="6.15366">
        <ele>539.2</ele>
        <time>2023-10-01T07:37:33Z</time>
      </trkpt>
      <trkpt lat="47.1159" lon="6.15369">
        <ele>540.4</ele>
        <time>2023-10-01T07:37:40Z</time>
      </trkpt>
      <trkpt lat="47.11602" lon="6.15371">
        <ele>541.4</ele>
        <time>2023-10-01T07:37:47Z</time>
      </trkpt>
      <trkpt lat="47.11606" lon="6.15372">
        <ele>541.8</ele>
        <time>2023-10-01T07:37:49Z</time>
      </trkpt>
      <trkpt lat="47.11618" lon="6.15373">
        <ele>542.6</ele>
        <time>2023-10-01T07:37:55Z</time>
      </trkpt>
      <trkpt lat="47.11624" lon="6.15374">
        <ele>543.4</ele>
        <time>2023-10-01T07:37:58Z</time>
      </trkpt>
      <trkpt lat="47.11627" lon="6.15375">
        <ele>543.6</ele>
        <time>2023-10-01T07:38:00Z</time>
      </trkpt>
      <trkpt lat="47.11639" lon="6.15379">
        <ele>544.4</ele>
        <time>2023-10-01T07:38:06Z</time>
      </trkpt>
      <trkpt lat="47.11642" lon="6.15382">
        <ele>544.6</ele>
        <time>2023-10-01T07:38:08Z</time>
      </trkpt>
      <trkpt lat="47.11645" lon="6.15391">
        <ele>544.8</ele>
        <time>2023-10-01T07:38:11Z</time>
      </trkpt>
      <trkpt lat="47.11645" lon="6.15406">
        <ele>545.6</ele>
        <time>2023-10-01T07:38:17Z</time>
      </trkpt>
      <trkpt lat="47.11645" lon="6.15409">
        <ele>545.8</ele>
        <time>2023-10-01T07:38:18Z</time>
      </trkpt>
      <trkpt lat="47.11646" lon="6.15419">
        <ele>546.8</ele>
        <time>2023-10-01T07:38:22Z</time>
      </trkpt>
      <trkpt lat="47.11646" lon="6.15428">
        <ele>547.6</ele>
        <time>2023-10-01T07:38:26Z</time>
      </trkpt>
      <trkpt lat="47.11645" lon="6.15431">
        <ele>547.8</ele>
        <time>2023-10-01T07:38:27Z</time>
      </trkpt>
      <trkpt lat="47.11645" lon="6.15441">
        <ele>549</ele>
        <time>2023-10-01T07:38:31Z</time>
      </trkpt>
      <trkpt lat="47.11645" lon="6.15449">
        <ele>550.2</ele>
        <time>2023-10-01T07:38:34Z</time>
      </trkpt>
      <trkpt lat="47.11646" lon="6.15459">
        <ele>551.2</ele>
        <time>2023-10-01T07:38:38Z</time>
      </trkpt>
      <trkpt lat="47.11647" lon="6.15464">
        <ele>552</ele>
        <time>2023-10-01T07:38:40Z</time>
      </trkpt>
      <trkpt lat="47.11648" lon="6.15466">
        <ele>552.6</ele>
        <time>2023-10-01T07:38:41Z</time>
      </trkpt>
      <trkpt lat="47.11651" lon="6.15476">
        <ele>553.6</ele>
        <time>2023-10-01T07:38:44Z</time>
      </trkpt>
      <trkpt lat="47.11655" lon="6.15484">
        <ele>554.2</ele>
        <time>2023-10-01T07:38:46Z</time>
      </trkpt>
      <trkpt lat="47.11658" lon="6.15493">
        <ele>554.8</ele>
        <time>2023-10-01T07:38:48Z</time>
      </trkpt>
      <trkpt lat="47.11659" lon="6.15506">
        <ele>556.2</ele>
        <time>2023-10-01T07:38:51Z</time>
      </trkpt>
      <trkpt lat="47.11659" lon="6.15511">
        <ele>556.6</ele>
        <time>2023-10-01T07:38:52Z</time>
      </trkpt>
      <trkpt lat="47.11658" lon="6.15522">
        <ele>557.2</ele>
        <time>2023-10-01T07:38:54Z</time>
      </trkpt>
      <trkpt lat="47.11655" lon="6.15542">
        <ele>558.2</ele>
        <time>2023-10-01T07:38:58Z</time>
      </trkpt>
      <trkpt lat="47.11654" lon="6.15547">
        <ele>558.2</ele>
        <time>2023-10-01T07:38:59Z</time>
      </trkpt>
      <trkpt lat="47.1165" lon="6.15567">
        <ele>559.4</ele>
        <time>2023-10-01T07:39:03Z</time>
      </trkpt>
      <trkpt lat="47.1165" lon="6.15573">
        <ele>559.6</ele>
        <time>2023-10-01T07:39:04Z</time>
      </trkpt>
      <trkpt lat="47.11655" lon="6.15606">
        <ele>559</ele>
        <time>2023-10-01T07:39:09Z</time>
      </trkpt>
      <trkpt lat="47.11658" lon="6.15614">
        <ele>558.6</ele>
        <time>2023-10-01T07:39:10Z</time>
      </trkpt>
      <trkpt lat="47.1166" lon="6.15621">
        <ele>558.4</ele>
        <time>2023-10-01T07:39:11Z</time>
      </trkpt>
      <trkpt lat="47.11669" lon="6.15645">
        <ele>557.8</ele>
        <time>2023-10-01T07:39:14Z</time>
      </trkpt>
      <trkpt lat="47.11687" lon="6.15682">
        <ele>557</ele>
        <time>2023-10-01T07:39:19Z</time>
      </trkpt>
      <trkpt lat="47.11692" lon="6.15688">
        <ele>556.6</ele>
        <time>2023-10-01T07:39:20Z</time>
      </trkpt>
      <trkpt lat="47.11704" lon="6.15697">
        <ele>555.6</ele>
        <time>2023-10-01T07:39:22Z</time>
      </trkpt>
      <trkpt lat="47.1171" lon="6.15699">
        <ele>555.2</ele>
        <time>2023-10-01T07:39:23Z</time>
      </trkpt>
      <trkpt lat="47.11724" lon="6.157">
        <ele>554.6</ele>
        <time>2023-10-01T07:39:25Z</time>
      </trkpt>
      <trkpt lat="47.11738" lon="6.15697">
        <ele>554</ele>
        <time>2023-10-01T07:39:27Z</time>
      </trkpt>
      <trkpt lat="47.11745" lon="6.15696">
        <ele>553.8</ele>
        <time>2023-10-01T07:39:28Z</time>
      </trkpt>
      <trkpt lat="47.11759" lon="6.15693">
        <ele>553.4</ele>
        <time>2023-10-01T07:39:30Z</time>
      </trkpt>
      <trkpt lat="47.11784" lon="6.15684">
        <ele>552.4</ele>
        <time>2023-10-01T07:39:34Z</time>
      </trkpt>
      <trkpt lat="47.1179" lon="6.15681">
        <ele>552.4</ele>
        <time>2023-10-01T07:39:35Z</time>
      </trkpt>
      <trkpt lat="47.118" lon="6.15676">
        <ele>552</ele>
        <time>2023-10-01T07:39:37Z</time>
      </trkpt>
      <trkpt lat="47.1181" lon="6.15675">
        <ele>551.8</ele>
        <time>2023-10-01T07:39:39Z</time>
      </trkpt>
      <trkpt lat="47.1183" lon="6.15675">
        <ele>551.4</ele>
        <time>2023-10-01T07:39:44Z</time>
      </trkpt>
      <trkpt lat="47.1184" lon="6.15672">
        <ele>551.2</ele>
        <time>2023-10-01T07:39:47Z</time>
      </trkpt>
      <trkpt lat="47.11851" lon="6.15671">
        <ele>551.2</ele>
        <time>2023-10-01T07:39:50Z</time>
      </trkpt>
      <trkpt lat="47.11866" lon="6.15675">
        <ele>551</ele>
        <time>2023-10-01T07:39:55Z</time>
      </trkpt>
      <trkpt lat="47.11885" lon="6.15687">
        <ele>550.8</ele>
        <time>2023-10-01T07:40:01Z</time>
      </trkpt>
      <trkpt lat="47.11906" lon="6.15696">
        <ele>550.8</ele>
        <time>2023-10-01T07:40:07Z</time>
      </trkpt>
      <trkpt lat="47.11931" lon="6.15705">
        <ele>551</ele>
        <time>2023-10-01T07:40:13Z</time>
      </trkpt>
      <trkpt lat="47.1195" lon="6.15702">
        <ele>552</ele>
        <time>2023-10-01T07:40:17Z</time>
      </trkpt>
      <trkpt lat="47.11955" lon="6.157">
        <ele>552.6</ele>
        <time>2023-10-01T07:40:18Z</time>
      </trkpt>
      <trkpt lat="47.11964" lon="6.15696">
        <ele>553.8</ele>
        <time>2023-10-01T07:40:20Z</time>
      </trkpt>
      <trkpt lat="47.11978" lon="6.15689">
        <ele>555.2</ele>
        <time>2023-10-01T07:40:23Z</time>
      </trkpt>
      <trkpt lat="47.11982" lon="6.15686">
        <ele>555.6</ele>
        <time>2023-10-01T07:40:24Z</time>
      </trkpt>
      <trkpt lat="47.11992" lon="6.1568">
        <ele>556.4</ele>
        <time>2023-10-01T07:40:26Z</time>
      </trkpt>
      <trkpt lat="47.12018" lon="6.15663">
        <ele>556.8</ele>
        <time>2023-10-01T07:40:31Z</time>
      </trkpt>
      <trkpt lat="47.12064" lon="6.15632">
        <ele>556.6</ele>
        <time>2023-10-01T07:40:39Z</time>
      </trkpt>
      <trkpt lat="47.12093" lon="6.15607">
        <ele>556.8</ele>
        <time>2023-10-01T07:40:45Z</time>
      </trkpt>
      <trkpt lat="47.12102" lon="6.15598">
        <ele>557.6</ele>
        <time>2023-10-01T07:40:47Z</time>
      </trkpt>
      <trkpt lat="47.12118" lon="6.15583">
        <ele>558.4</ele>
        <time>2023-10-01T07:40:51Z</time>
      </trkpt>
      <trkpt lat="47.12122" lon="6.15579">
        <ele>558.4</ele>
        <time>2023-10-01T07:40:52Z</time>
      </trkpt>
      <trkpt lat="47.12136" lon="6.15567">
        <ele>558.6</ele>
        <time>2023-10-01T07:40:55Z</time>
      </trkpt>
      <trkpt lat="47.12155" lon="6.15551">
        <ele>559</ele>
        <time>2023-10-01T07:40:59Z</time>
      </trkpt>
      <trkpt lat="47.12175" lon="6.15535">
        <ele>558.6</ele>
        <time>2023-10-01T07:41:03Z</time>
      </trkpt>
      <trkpt lat="47.12184" lon="6.15524">
        <ele>558.4</ele>
        <time>2023-10-01T07:41:05Z</time>
      </trkpt>
      <trkpt lat="47.12195" lon="6.15499">
        <ele>557.8</ele>
        <time>2023-10-01T07:41:08Z</time>
      </trkpt>
      <trkpt lat="47.12198" lon="6.15491">
        <ele>557.6</ele>
        <time>2023-10-01T07:41:09Z</time>
      </trkpt>
      <trkpt lat="47.12206" lon="6.15474">
        <ele>557.6</ele>
        <time>2023-10-01T07:41:11Z</time>
      </trkpt>
      <trkpt lat="47.12221" lon="6.15441">
        <ele>556.4</ele>
        <time>2023-10-01T07:41:15Z</time>
      </trkpt>
      <trkpt lat="47.12226" lon="6.15433">
        <ele>556</ele>
        <time>2023-10-01T07:41:16Z</time>
      </trkpt>
      <trkpt lat="47.12236" lon="6.1542">
        <ele>555.4</ele>
        <time>2023-10-01T07:41:18Z</time>
      </trkpt>
      <trkpt lat="47.12246" lon="6.15408">
        <ele>554.8</ele>
        <time>2023-10-01T07:41:20Z</time>
      </trkpt>
      <trkpt lat="47.12259" lon="6.15397">
        <ele>554.4</ele>
        <time>2023-10-01T07:41:22Z</time>
      </trkpt>
      <trkpt lat="47.12273" lon="6.15391">
        <ele>553.4</ele>
        <time>2023-10-01T07:41:24Z</time>
      </trkpt>
      <trkpt lat="47.12281" lon="6.15389">
        <ele>552.8</ele>
        <time>2023-10-01T07:41:25Z</time>
      </trkpt>
      <trkpt lat="47.12288" lon="6.15388">
        <ele>552.2</ele>
        <time>2023-10-01T07:41:26Z</time>
      </trkpt>
      <trkpt lat="47.12295" lon="6.15387">
        <ele>551.8</ele>
        <time>2023-10-01T07:41:27Z</time>
      </trkpt>
      <trkpt lat="47.123" lon="6.15387">
        <ele>551.2</ele>
        <time>2023-10-01T07:41:28Z</time>
      </trkpt>
      <trkpt lat="47.12304" lon="6.15388">
        <ele>550.8</ele>
        <time>2023-10-01T07:41:29Z</time>
      </trkpt>
      <trkpt lat="47.12308" lon="6.15399">
        <ele>549.8</ele>
        <time>2023-10-01T07:41:31Z</time>
      </trkpt>
      <trkpt lat="47.12306" lon="6.15422">
        <ele>548.6</ele>
        <time>2023-10-01T07:41:34Z</time>
      </trkpt>
      <trkpt lat="47.12303" lon="6.15452">
        <ele>547.4</ele>
        <time>2023-10-01T07:41:37Z</time>
      </trkpt>
      <trkpt lat="47.12301" lon="6.15472">
        <ele>546.4</ele>
        <time>2023-10-01T07:41:39Z</time>
      </trkpt>
      <trkpt lat="47.123" lon="6.15482">
        <ele>545.8</ele>
        <time>2023-10-01T07:41:40Z</time>
      </trkpt>
      <trkpt lat="47.12299" lon="6.155">
        <ele>544.8</ele>
        <time>2023-10-01T07:41:42Z</time>
      </trkpt>
      <trkpt lat="47.12296" lon="6.15518">
        <ele>543.8</ele>
        <time>2023-10-01T07:41:44Z</time>
      </trkpt>
      <trkpt lat="47.12296" lon="6.15527">
        <ele>543.4</ele>
        <time>2023-10-01T07:41:45Z</time>
      </trkpt>
      <trkpt lat="47.12296" lon="6.15536">
        <ele>543</ele>
        <time>2023-10-01T07:41:46Z</time>
      </trkpt>
      <trkpt lat="47.12297" lon="6.15547">
        <ele>542.4</ele>
        <time>2023-10-01T07:41:47Z</time>
      </trkpt>
      <trkpt lat="47.12298" lon="6.15557">
        <ele>541.8</ele>
        <time>2023-10-01T07:41:48Z</time>
      </trkpt>
      <trkpt lat="47.123" lon="6.15568">
        <ele>541</ele>
        <time>2023-10-01T07:41:49Z</time>
      </trkpt>
      <trkpt lat="47.12302" lon="6.15587">
        <ele>540</ele>
        <time>2023-10-01T07:41:51Z</time>
      </trkpt>
      <trkpt lat="47.12308" lon="6.15617">
        <ele>539</ele>
        <time>2023-10-01T07:41:54Z</time>
      </trkpt>
      <trkpt lat="47.12328" lon="6.15697">
        <ele>540.2</ele>
        <time>2023-10-01T07:42:03Z</time>
      </trkpt>
      <trkpt lat="47.12337" lon="6.1573">
        <ele>541.2</ele>
        <time>2023-10-01T07:42:07Z</time>
      </trkpt>
      <trkpt lat="47.12348" lon="6.1576">
        <ele>542.4</ele>
        <time>2023-10-01T07:42:11Z</time>
      </trkpt>
      <trkpt lat="47.12358" lon="6.15791">
        <ele>543.6</ele>
        <time>2023-10-01T07:42:15Z</time>
      </trkpt>
      <trkpt lat="47.12369" lon="6.15821">
        <ele>544.6</ele>
        <time>2023-10-01T07:42:19Z</time>
      </trkpt>
      <trkpt lat="47.12371" lon="6.15829">
        <ele>544.8</ele>
        <time>2023-10-01T07:42:20Z</time>
      </trkpt>
      <trkpt lat="47.12387" lon="6.15875">
        <ele>545.8</ele>
        <time>2023-10-01T07:42:26Z</time>
      </trkpt>
      <trkpt lat="47.12402" lon="6.15916">
        <ele>546.4</ele>
        <time>2023-10-01T07:42:31Z</time>
      </trkpt>
      <trkpt lat="47.12425" lon="6.15987">
        <ele>545.6</ele>
        <time>2023-10-01T07:42:39Z</time>
      </trkpt>
      <trkpt lat="47.12429" lon="6.16007">
        <ele>545</ele>
        <time>2023-10-01T07:42:41Z</time>
      </trkpt>
      <trkpt lat="47.12433" lon="6.16015">
        <ele>544.6</ele>
        <time>2023-10-01T07:42:42Z</time>
      </trkpt>
      <trkpt lat="47.12438" lon="6.16024">
        <ele>544</ele>
        <time>2023-10-01T07:42:43Z</time>
      </trkpt>
      <trkpt lat="47.12444" lon="6.16032">
        <ele>543.4</ele>
        <time>2023-10-01T07:42:44Z</time>
      </trkpt>
      <trkpt lat="47.12458" lon="6.16045">
        <ele>542.2</ele>
        <time>2023-10-01T07:42:46Z</time>
      </trkpt>
      <trkpt lat="47.12465" lon="6.1605">
        <ele>541.6</ele>
        <time>2023-10-01T07:42:47Z</time>
      </trkpt>
      <trkpt lat="47.12473" lon="6.16055">
        <ele>541.4</ele>
        <time>2023-10-01T07:42:48Z</time>
      </trkpt>
      <trkpt lat="47.1248" lon="6.1606">
        <ele>541.2</ele>
        <time>2023-10-01T07:42:49Z</time>
      </trkpt>
      <trkpt lat="47.12503" lon="6.16074">
        <ele>539.8</ele>
        <time>2023-10-01T07:42:52Z</time>
      </trkpt>
      <trkpt lat="47.1251" lon="6.16078">
        <ele>539.2</ele>
        <time>2023-10-01T07:42:53Z</time>
      </trkpt>
      <trkpt lat="47.12516" lon="6.16082">
        <ele>538.6</ele>
        <time>2023-10-01T07:42:54Z</time>
      </trkpt>
      <trkpt lat="47.12526" lon="6.16085">
        <ele>537.6</ele>
        <time>2023-10-01T07:42:56Z</time>
      </trkpt>
      <trkpt lat="47.12529" lon="6.16085">
        <ele>537.2</ele>
        <time>2023-10-01T07:42:57Z</time>
      </trkpt>
      <trkpt lat="47.12532" lon="6.16081">
        <ele>536.4</ele>
        <time>2023-10-01T07:42:59Z</time>
      </trkpt>
      <trkpt lat="47.12542" lon="6.16076">
        <ele>534.8</ele>
        <time>2023-10-01T07:43:02Z</time>
      </trkpt>
      <trkpt lat="47.12547" lon="6.16072">
        <ele>534.2</ele>
        <time>2023-10-01T07:43:03Z</time>
      </trkpt>
      <trkpt lat="47.12552" lon="6.16068">
        <ele>533.8</ele>
        <time>2023-10-01T07:43:04Z</time>
      </trkpt>
      <trkpt lat="47.12563" lon="6.1606">
        <ele>532.2</ele>
        <time>2023-10-01T07:43:06Z</time>
      </trkpt>
      <trkpt lat="47.12574" lon="6.16053">
        <ele>530.6</ele>
        <time>2023-10-01T07:43:08Z</time>
      </trkpt>
      <trkpt lat="47.12585" lon="6.16047">
        <ele>529.2</ele>
        <time>2023-10-01T07:43:10Z</time>
      </trkpt>
      <trkpt lat="47.1259" lon="6.16043">
        <ele>528.4</ele>
        <time>2023-10-01T07:43:11Z</time>
      </trkpt>
      <trkpt lat="47.12595" lon="6.16039">
        <ele>527.6</ele>
        <time>2023-10-01T07:43:12Z</time>
      </trkpt>
      <trkpt lat="47.12599" lon="6.16034">
        <ele>527</ele>
        <time>2023-10-01T07:43:13Z</time>
      </trkpt>
      <trkpt lat="47.12603" lon="6.1603">
        <ele>526.4</ele>
        <time>2023-10-01T07:43:14Z</time>
      </trkpt>
      <trkpt lat="47.12607" lon="6.16025">
        <ele>525.6</ele>
        <time>2023-10-01T07:43:15Z</time>
      </trkpt>
      <trkpt lat="47.12611" lon="6.16021">
        <ele>525</ele>
        <time>2023-10-01T07:43:16Z</time>
      </trkpt>
      <trkpt lat="47.12616" lon="6.16013">
        <ele>523.6</ele>
        <time>2023-10-01T07:43:18Z</time>
      </trkpt>
      <trkpt lat="47.12622" lon="6.16009">
        <ele>522.4</ele>
        <time>2023-10-01T07:43:20Z</time>
      </trkpt>
      <trkpt lat="47.12627" lon="6.16008">
        <ele>521.2</ele>
        <time>2023-10-01T07:43:22Z</time>
      </trkpt>
      <trkpt lat="47.12631" lon="6.16008">
        <ele>520</ele>
        <time>2023-10-01T07:43:25Z</time>
      </trkpt>
      <trkpt lat="47.12635" lon="6.16005">
        <ele>518.2</ele>
        <time>2023-10-01T07:43:44Z</time>
      </trkpt>
      <trkpt lat="47.12637" lon="6.16003">
        <ele>517.8</ele>
        <time>2023-10-01T07:43:45Z</time>
      </trkpt>
      <trkpt lat="47.12641" lon="6.15998">
        <ele>517.2</ele>
        <time>2023-10-01T07:43:47Z</time>
      </trkpt>
      <trkpt lat="47.12644" lon="6.15995">
        <ele>517</ele>
        <time>2023-10-01T07:43:49Z</time>
      </trkpt>
      <trkpt lat="47.12646" lon="6.15994">
        <ele>517</ele>
        <time>2023-10-01T07:43:50Z</time>
      </trkpt>
      <trkpt lat="47.12649" lon="6.15992">
        <ele>516.2</ele>
        <time>2023-10-01T07:43:52Z</time>
      </trkpt>
      <trkpt lat="47.12651" lon="6.15991">
        <ele>515.8</ele>
        <time>2023-10-01T07:43:53Z</time>
      </trkpt>
      <trkpt lat="47.12653" lon="6.15986">
        <ele>515</ele>
        <time>2023-10-01T07:43:56Z</time>
      </trkpt>
      <trkpt lat="47.12653" lon="6.15984">
        <ele>514.6</ele>
        <time>2023-10-01T07:43:57Z</time>
      </trkpt>
      <trkpt lat="47.12652" lon="6.15967">
        <ele>511.2</ele>
        <time>2023-10-01T07:44:32Z</time>
      </trkpt>
      <trkpt lat="47.1265" lon="6.1596">
        <ele>510.4</ele>
        <time>2023-10-01T07:44:34Z</time>
      </trkpt>
      <trkpt lat="47.1265" lon="6.15957">
        <ele>510</ele>
        <time>2023-10-01T07:44:35Z</time>
      </trkpt>
      <trkpt lat="47.12647" lon="6.15949">
        <ele>508.8</ele>
        <time>2023-10-01T07:44:38Z</time>
      </trkpt>
      <trkpt lat="47.12646" lon="6.15943">
        <ele>508</ele>
        <time>2023-10-01T07:44:40Z</time>
      </trkpt>
      <trkpt lat="47.12646" lon="6.15941">
        <ele>507.6</ele>
        <time>2023-10-01T07:44:41Z</time>
      </trkpt>
      <trkpt lat="47.12645" lon="6.15934">
        <ele>506.4</ele>
        <time>2023-10-01T07:44:44Z</time>
      </trkpt>
      <trkpt lat="47.12645" lon="6.15926">
        <ele>505.2</ele>
        <time>2023-10-01T07:44:47Z</time>
      </trkpt>
      <trkpt lat="47.12645" lon="6.15923">
        <ele>504.6</ele>
        <time>2023-10-01T07:44:48Z</time>
      </trkpt>
      <trkpt lat="47.12645" lon="6.15921">
        <ele>504</ele>
        <time>2023-10-01T07:44:49Z</time>
      </trkpt>
      <trkpt lat="47.12646" lon="6.15918">
        <ele>503.4</ele>
        <time>2023-10-01T07:44:50Z</time>
      </trkpt>
      <trkpt lat="47.12646" lon="6.15916">
        <ele>503</ele>
        <time>2023-10-01T07:44:51Z</time>
      </trkpt>
      <trkpt lat="47.12646" lon="6.15911">
        <ele>501.6</ele>
        <time>2023-10-01T07:44:53Z</time>
      </trkpt>
      <trkpt lat="47.12645" lon="6.15908">
        <ele>500.8</ele>
        <time>2023-10-01T07:44:54Z</time>
      </trkpt>
      <trkpt lat="47.12645" lon="6.15884">
        <ele>495.4</ele>
        <time>2023-10-01T07:45:04Z</time>
      </trkpt>
      <trkpt lat="47.12648" lon="6.1588">
        <ele>494.4</ele>
        <time>2023-10-01T07:45:06Z</time>
      </trkpt>
      <trkpt lat="47.12647" lon="6.15868">
        <ele>491.8</ele>
        <time>2023-10-01T07:45:32Z</time>
      </trkpt>
      <trkpt lat="47.12645" lon="6.15855">
        <ele>490.2</ele>
        <time>2023-10-01T07:45:36Z</time>
      </trkpt>
      <trkpt lat="47.12639" lon="6.158">
        <ele>483.6</ele>
        <time>2023-10-01T07:46:07Z</time>
      </trkpt>
      <trkpt lat="47.1264" lon="6.15802">
        <ele>482.2</ele>
        <time>2023-10-01T07:46:09Z</time>
      </trkpt>
      <trkpt lat="47.12642" lon="6.15803">
        <ele>480.6</ele>
        <time>2023-10-01T07:46:11Z</time>
      </trkpt>
      <trkpt lat="47.12644" lon="6.15806">
        <ele>479.2</ele>
        <time>2023-10-01T07:46:13Z</time>
      </trkpt>
      <trkpt lat="47.12644" lon="6.15809">
        <ele>478.6</ele>
        <time>2023-10-01T07:46:14Z</time>
      </trkpt>
      <trkpt lat="47.12645" lon="6.15811">
        <ele>478</ele>
        <time>2023-10-01T07:46:15Z</time>
      </trkpt>
      <trkpt lat="47.12647" lon="6.15814">
        <ele>476.6</ele>
        <time>2023-10-01T07:46:17Z</time>
      </trkpt>
      <trkpt lat="47.12648" lon="6.15817">
        <ele>475.2</ele>
        <time>2023-10-01T07:46:19Z</time>
      </trkpt>
      <trkpt lat="47.12651" lon="6.15822">
        <ele>473.8</ele>
        <time>2023-10-01T07:46:21Z</time>
      </trkpt>
      <trkpt lat="47.12655" lon="6.15827">
        <ele>472.4</ele>
        <time>2023-10-01T07:46:23Z</time>
      </trkpt>
      <trkpt lat="47.12669" lon="6.15844">
        <ele>472.4</ele>
        <time>2023-10-01T07:46:27Z</time>
      </trkpt>
      <trkpt lat="47.12692" lon="6.15873">
        <ele>472.2</ele>
        <time>2023-10-01T07:46:32Z</time>
      </trkpt>
      <trkpt lat="47.127" lon="6.15886">
        <ele>472</ele>
        <time>2023-10-01T07:46:34Z</time>
      </trkpt>
      <trkpt lat="47.12705" lon="6.15907">
        <ele>472</ele>
        <time>2023-10-01T07:46:37Z</time>
      </trkpt>
      <trkpt lat="47.12707" lon="6.15914">
        <ele>472</ele>
        <time>2023-10-01T07:46:38Z</time>
      </trkpt>
      <trkpt lat="47.12709" lon="6.15937">
        <ele>471.6</ele>
        <time>2023-10-01T07:46:42Z</time>
      </trkpt>
      <trkpt lat="47.12713" lon="6.15946">
        <ele>471.4</ele>
        <time>2023-10-01T07:46:44Z</time>
      </trkpt>
      <trkpt lat="47.1272" lon="6.15955">
        <ele>470.8</ele>
        <time>2023-10-01T07:46:46Z</time>
      </trkpt>
      <trkpt lat="47.12724" lon="6.1596">
        <ele>470.4</ele>
        <time>2023-10-01T07:46:47Z</time>
      </trkpt>
      <trkpt lat="47.12734" lon="6.1597">
        <ele>469.2</ele>
        <time>2023-10-01T07:46:49Z</time>
      </trkpt>
      <trkpt lat="47.12745" lon="6.1598">
        <ele>468.6</ele>
        <time>2023-10-01T07:46:51Z</time>
      </trkpt>
      <trkpt lat="47.1275" lon="6.15986">
        <ele>468.2</ele>
        <time>2023-10-01T07:46:52Z</time>
      </trkpt>
      <trkpt lat="47.12756" lon="6.15991">
        <ele>467.8</ele>
        <time>2023-10-01T07:46:53Z</time>
      </trkpt>
      <trkpt lat="47.12765" lon="6.15997">
        <ele>467.2</ele>
        <time>2023-10-01T07:46:54Z</time>
      </trkpt>
      <trkpt lat="47.12774" lon="6.16002">
        <ele>466.4</ele>
        <time>2023-10-01T07:46:55Z</time>
      </trkpt>
      <trkpt lat="47.12784" lon="6.16007">
        <ele>466</ele>
        <time>2023-10-01T07:46:56Z</time>
      </trkpt>
      <trkpt lat="47.12806" lon="6.16025">
        <ele>464.8</ele>
        <time>2023-10-01T07:46:59Z</time>
      </trkpt>
      <trkpt lat="47.12819" lon="6.16042">
        <ele>464.2</ele>
        <time>2023-10-01T07:47:02Z</time>
      </trkpt>
      <trkpt lat="47.1285" lon="6.16061">
        <ele>464.2</ele>
        <time>2023-10-01T07:47:07Z</time>
      </trkpt>
      <trkpt lat="47.12867" lon="6.1607">
        <ele>464.2</ele>
        <time>2023-10-01T07:47:10Z</time>
      </trkpt>
      <trkpt lat="47.12878" lon="6.1607">
        <ele>463.8</ele>
        <time>2023-10-01T07:47:12Z</time>
      </trkpt>
      <trkpt lat="47.12888" lon="6.16071">
        <ele>463.6</ele>
        <time>2023-10-01T07:47:14Z</time>
      </trkpt>
      <trkpt lat="47.12893" lon="6.16072">
        <ele>463.4</ele>
        <time>2023-10-01T07:47:15Z</time>
      </trkpt>
      <trkpt lat="47.12907" lon="6.16074">
        <ele>463</ele>
        <time>2023-10-01T07:47:17Z</time>
      </trkpt>
      <trkpt lat="47.12929" lon="6.1608">
        <ele>462.6</ele>
        <time>2023-10-01T07:47:20Z</time>
      </trkpt>
      <trkpt lat="47.12951" lon="6.16087">
        <ele>462</ele>
        <time>2023-10-01T07:47:23Z</time>
      </trkpt>
      <trkpt lat="47.12963" lon="6.16091">
        <ele>461.6</ele>
        <time>2023-10-01T07:47:25Z</time>
      </trkpt>
      <trkpt lat="47.12969" lon="6.16094">
        <ele>461.4</ele>
        <time>2023-10-01T07:47:26Z</time>
      </trkpt>
      <trkpt lat="47.12975" lon="6.16097">
        <ele>461.2</ele>
        <time>2023-10-01T07:47:27Z</time>
      </trkpt>
      <trkpt lat="47.1298" lon="6.16101">
        <ele>460.8</ele>
        <time>2023-10-01T07:47:28Z</time>
      </trkpt>
      <trkpt lat="47.12988" lon="6.16112">
        <ele>460.4</ele>
        <time>2023-10-01T07:47:30Z</time>
      </trkpt>
      <trkpt lat="47.12991" lon="6.16119">
        <ele>460</ele>
        <time>2023-10-01T07:47:31Z</time>
      </trkpt>
      <trkpt lat="47.12993" lon="6.16134">
        <ele>458.8</ele>
        <time>2023-10-01T07:47:33Z</time>
      </trkpt>
      <trkpt lat="47.12993" lon="6.16151">
        <ele>458.4</ele>
        <time>2023-10-01T07:47:35Z</time>
      </trkpt>
      <trkpt lat="47.12991" lon="6.1616">
        <ele>457.8</ele>
        <time>2023-10-01T07:47:36Z</time>
      </trkpt>
      <trkpt lat="47.12985" lon="6.16186">
        <ele>457</ele>
        <time>2023-10-01T07:47:39Z</time>
      </trkpt>
      <trkpt lat="47.12982" lon="6.16195">
        <ele>457</ele>
        <time>2023-10-01T07:47:40Z</time>
      </trkpt>
      <trkpt lat="47.12978" lon="6.16205">
        <ele>456.6</ele>
        <time>2023-10-01T07:47:41Z</time>
      </trkpt>
      <trkpt lat="47.12963" lon="6.16247">
        <ele>455.8</ele>
        <time>2023-10-01T07:47:46Z</time>
      </trkpt>
      <trkpt lat="47.1296" lon="6.16255">
        <ele>455.6</ele>
        <time>2023-10-01T07:47:47Z</time>
      </trkpt>
      <trkpt lat="47.12943" lon="6.16293">
        <ele>455.2</ele>
        <time>2023-10-01T07:47:52Z</time>
      </trkpt>
      <trkpt lat="47.12915" lon="6.1635">
        <ele>454.8</ele>
        <time>2023-10-01T07:48:00Z</time>
      </trkpt>
      <trkpt lat="47.12908" lon="6.16365">
        <ele>454.6</ele>
        <time>2023-10-01T07:48:02Z</time>
      </trkpt>
      <trkpt lat="47.12896" lon="6.16387">
        <ele>453.4</ele>
        <time>2023-10-01T07:48:05Z</time>
      </trkpt>
      <trkpt lat="47.12888" lon="6.16404">
        <ele>452.6</ele>
        <time>2023-10-01T07:48:07Z</time>
      </trkpt>
      <trkpt lat="47.12884" lon="6.16413">
        <ele>452.4</ele>
        <time>2023-10-01T07:48:08Z</time>
      </trkpt>
      <trkpt lat="47.12877" lon="6.16431">
        <ele>451.2</ele>
        <time>2023-10-01T07:48:10Z</time>
      </trkpt>
      <trkpt lat="47.12868" lon="6.16461">
        <ele>450</ele>
        <time>2023-10-01T07:48:13Z</time>
      </trkpt>
      <trkpt lat="47.12857" lon="6.1649">
        <ele>449</ele>
        <time>2023-10-01T07:48:16Z</time>
      </trkpt>
      <trkpt lat="47.12843" lon="6.16528">
        <ele>447.8</ele>
        <time>2023-10-01T07:48:20Z</time>
      </trkpt>
      <trkpt lat="47.12822" lon="6.16573">
        <ele>446.8</ele>
        <time>2023-10-01T07:48:26Z</time>
      </trkpt>
      <trkpt lat="47.12819" lon="6.1658">
        <ele>446.8</ele>
        <time>2023-10-01T07:48:27Z</time>
      </trkpt>
      <trkpt lat="47.12813" lon="6.16609">
        <ele>446.6</ele>
        <time>2023-10-01T07:48:31Z</time>
      </trkpt>
      <trkpt lat="47.12812" lon="6.16618">
        <ele>446.6</ele>
        <time>2023-10-01T07:48:32Z</time>
      </trkpt>
      <trkpt lat="47.12807" lon="6.16655">
        <ele>446.4</ele>
        <time>2023-10-01T07:48:36Z</time>
      </trkpt>
      <trkpt lat="47.12799" lon="6.16712">
        <ele>446.8</ele>
        <time>2023-10-01T07:48:42Z</time>
      </trkpt>
      <trkpt lat="47.12794" lon="6.16751">
        <ele>447.2</ele>
        <time>2023-10-01T07:48:46Z</time>
      </trkpt>
      <trkpt lat="47.12792" lon="6.16772">
        <ele>447.6</ele>
        <time>2023-10-01T07:48:48Z</time>
      </trkpt>
      <trkpt lat="47.12791" lon="6.16783">
        <ele>447.8</ele>
        <time>2023-10-01T07:48:49Z</time>
      </trkpt>
      <trkpt lat="47.12782" lon="6.16836">
        <ele>448</ele>
        <time>2023-10-01T07:48:54Z</time>
      </trkpt>
      <trkpt lat="47.12773" lon="6.16853">
        <ele>448.2</ele>
        <time>2023-10-01T07:48:57Z</time>
      </trkpt>
      <trkpt lat="47.12768" lon="6.16855">
        <ele>447</ele>
        <time>2023-10-01T07:48:58Z</time>
      </trkpt>
      <trkpt lat="47.12761" lon="6.16856">
        <ele>445.2</ele>
        <time>2023-10-01T07:48:59Z</time>
      </trkpt>
      <trkpt lat="47.12754" lon="6.16855">
        <ele>443.6</ele>
        <time>2023-10-01T07:49:00Z</time>
      </trkpt>
      <trkpt lat="47.12748" lon="6.16853">
        <ele>442.4</ele>
        <time>2023-10-01T07:49:01Z</time>
      </trkpt>
      <trkpt lat="47.12731" lon="6.16851">
        <ele>441</ele>
        <time>2023-10-01T07:49:04Z</time>
      </trkpt>
      <trkpt lat="47.12721" lon="6.1685">
        <ele>440.8</ele>
        <time>2023-10-01T07:49:06Z</time>
      </trkpt>
      <trkpt lat="47.12696" lon="6.16847">
        <ele>439.8</ele>
        <time>2023-10-01T07:49:11Z</time>
      </trkpt>
      <trkpt lat="47.12685" lon="6.16846">
        <ele>439</ele>
        <time>2023-10-01T07:49:13Z</time>
      </trkpt>
      <trkpt lat="47.1268" lon="6.16845">
        <ele>438.8</ele>
        <time>2023-10-01T07:49:14Z</time>
      </trkpt>
      <trkpt lat="47.12672" lon="6.1685">
        <ele>437.2</ele>
        <time>2023-10-01T07:49:17Z</time>
      </trkpt>
      <trkpt lat="47.12673" lon="6.16854">
        <ele>436.6</ele>
        <time>2023-10-01T07:49:18Z</time>
      </trkpt>
      <trkpt lat="47.12675" lon="6.16859">
        <ele>435.8</ele>
        <time>2023-10-01T07:49:19Z</time>
      </trkpt>
      <trkpt lat="47.12676" lon="6.16863">
        <ele>435</ele>
        <time>2023-10-01T07:49:20Z</time>
      </trkpt>
      <trkpt lat="47.12679" lon="6.16867">
        <ele>434.4</ele>
        <time>2023-10-01T07:49:21Z</time>
      </trkpt>
      <trkpt lat="47.12689" lon="6.16878">
        <ele>432.8</ele>
        <time>2023-10-01T07:49:24Z</time>
      </trkpt>
      <trkpt lat="47.12694" lon="6.16883">
        <ele>431.8</ele>
        <time>2023-10-01T07:49:25Z</time>
      </trkpt>
      <trkpt lat="47.12702" lon="6.1689">
        <ele>430.6</ele>
        <time>2023-10-01T07:49:26Z</time>
      </trkpt>
      <trkpt lat="47.1272" lon="6.16905">
        <ele>428.8</ele>
        <time>2023-10-01T07:49:28Z</time>
      </trkpt>
      <trkpt lat="47.12729" lon="6.16912">
        <ele>427.6</ele>
        <time>2023-10-01T07:49:29Z</time>
      </trkpt>
      <trkpt lat="47.12739" lon="6.16917">
        <ele>426.4</ele>
        <time>2023-10-01T07:49:30Z</time>
      </trkpt>
      <trkpt lat="47.12748" lon="6.16922">
        <ele>425.2</ele>
        <time>2023-10-01T07:49:31Z</time>
      </trkpt>
      <trkpt lat="47.12757" lon="6.16927">
        <ele>424</ele>
        <time>2023-10-01T07:49:32Z</time>
      </trkpt>
      <trkpt lat="47.12774" lon="6.16937">
        <ele>423.4</ele>
        <time>2023-10-01T07:49:34Z</time>
      </trkpt>
      <trkpt lat="47.12792" lon="6.16949">
        <ele>422.8</ele>
        <time>2023-10-01T07:49:36Z</time>
      </trkpt>
      <trkpt lat="47.12799" lon="6.16954">
        <ele>422.6</ele>
        <time>2023-10-01T07:49:37Z</time>
      </trkpt>
      <trkpt lat="47.12815" lon="6.16971">
        <ele>422</ele>
        <time>2023-10-01T07:49:40Z</time>
      </trkpt>
      <trkpt lat="47.12823" lon="6.16983">
        <ele>421.6</ele>
        <time>2023-10-01T07:49:42Z</time>
      </trkpt>
      <trkpt lat="47.12835" lon="6.16996">
        <ele>420</ele>
        <time>2023-10-01T07:49:45Z</time>
      </trkpt>
      <trkpt lat="47.1284" lon="6.17001">
        <ele>419.8</ele>
        <time>2023-10-01T07:49:46Z</time>
      </trkpt>
      <trkpt lat="47.12847" lon="6.17004">
        <ele>419.4</ele>
        <time>2023-10-01T07:49:47Z</time>
      </trkpt>
      <trkpt lat="47.12853" lon="6.17003">
        <ele>418.6</ele>
        <time>2023-10-01T07:49:48Z</time>
      </trkpt>
      <trkpt lat="47.12859" lon="6.17">
        <ele>416.8</ele>
        <time>2023-10-01T07:49:49Z</time>
      </trkpt>
      <trkpt lat="47.12863" lon="6.16996">
        <ele>414.4</ele>
        <time>2023-10-01T07:49:50Z</time>
      </trkpt>
      <trkpt lat="47.12866" lon="6.16992">
        <ele>410.8</ele>
        <time>2023-10-01T07:49:51Z</time>
      </trkpt>
      <trkpt lat="47.12866" lon="6.16989">
        <ele>406.8</ele>
        <time>2023-10-01T07:49:52Z</time>
      </trkpt>
      <trkpt lat="47.12868" lon="6.16989">
        <ele>404.6</ele>
        <time>2023-10-01T07:49:53Z</time>
      </trkpt>
      <trkpt lat="47.12869" lon="6.16992">
        <ele>403</ele>
        <time>2023-10-01T07:49:54Z</time>
      </trkpt>
      <trkpt lat="47.1287" lon="6.16995">
        <ele>401.8</ele>
        <time>2023-10-01T07:49:55Z</time>
      </trkpt>
      <trkpt lat="47.12871" lon="6.17">
        <ele>401</ele>
        <time>2023-10-01T07:49:56Z</time>
      </trkpt>
      <trkpt lat="47.12871" lon="6.17006">
        <ele>400.2</ele>
        <time>2023-10-01T07:49:57Z</time>
      </trkpt>
      <trkpt lat="47.12869" lon="6.17018">
        <ele>398.2</ele>
        <time>2023-10-01T07:49:59Z</time>
      </trkpt>
      <trkpt lat="47.12867" lon="6.17025">
        <ele>397</ele>
        <time>2023-10-01T07:50:00Z</time>
      </trkpt>
      <trkpt lat="47.12864" lon="6.1704">
        <ele>395</ele>
        <time>2023-10-01T07:50:02Z</time>
      </trkpt>
      <trkpt lat="47.12862" lon="6.17046">
        <ele>393.6</ele>
        <time>2023-10-01T07:50:03Z</time>
      </trkpt>
      <trkpt lat="47.12859" lon="6.17061">
        <ele>392</ele>
        <time>2023-10-01T07:50:05Z</time>
      </trkpt>
      <trkpt lat="47.12856" lon="6.17084">
        <ele>390.6</ele>
        <time>2023-10-01T07:50:08Z</time>
      </trkpt>
      <trkpt lat="47.12853" lon="6.17115">
        <ele>389.8</ele>
        <time>2023-10-01T07:50:13Z</time>
      </trkpt>
      <trkpt lat="47.12855" lon="6.17127">
        <ele>389.4</ele>
        <time>2023-10-01T07:50:15Z</time>
      </trkpt>
      <trkpt lat="47.12858" lon="6.17142">
        <ele>388.8</ele>
        <time>2023-10-01T07:50:17Z</time>
      </trkpt>
      <trkpt lat="47.12858" lon="6.1715">
        <ele>388.4</ele>
        <time>2023-10-01T07:50:18Z</time>
      </trkpt>
      <trkpt lat="47.12858" lon="6.17157">
        <ele>388.4</ele>
        <time>2023-10-01T07:50:19Z</time>
      </trkpt>
      <trkpt lat="47.12856" lon="6.17186">
        <ele>388.6</ele>
        <time>2023-10-01T07:50:23Z</time>
      </trkpt>
      <trkpt lat="47.12855" lon="6.17194">
        <ele>388.8</ele>
        <time>2023-10-01T07:50:24Z</time>
      </trkpt>
      <trkpt lat="47.12846" lon="6.17258">
        <ele>388.6</ele>
        <time>2023-10-01T07:50:32Z</time>
      </trkpt>
      <trkpt lat="47.12846" lon="6.17272">
        <ele>388.6</ele>
        <time>2023-10-01T07:50:34Z</time>
      </trkpt>
      <trkpt lat="47.12849" lon="6.17291">
        <ele>388.6</ele>
        <time>2023-10-01T07:50:37Z</time>
      </trkpt>
      <trkpt lat="47.12854" lon="6.17308">
        <ele>388.6</ele>
        <time>2023-10-01T07:50:40Z</time>
      </trkpt>
      <trkpt lat="47.12859" lon="6.17326">
        <ele>388.4</ele>
        <time>2023-10-01T07:50:43Z</time>
      </trkpt>
      <trkpt lat="47.1287" lon="6.17373">
        <ele>388.4</ele>
        <time>2023-10-01T07:50:50Z</time>
      </trkpt>
      <trkpt lat="47.1288" lon="6.17431">
        <ele>388.8</ele>
        <time>2023-10-01T07:50:58Z</time>
      </trkpt>
      <trkpt lat="47.12888" lon="6.17459">
        <ele>388.8</ele>
        <time>2023-10-01T07:51:02Z</time>
      </trkpt>
      <trkpt lat="47.12891" lon="6.17478">
        <ele>388.8</ele>
        <time>2023-10-01T07:51:05Z</time>
      </trkpt>
      <trkpt lat="47.12885" lon="6.17497">
        <ele>388.4</ele>
        <time>2023-10-01T07:51:09Z</time>
      </trkpt>
      <trkpt lat="47.12879" lon="6.17506">
        <ele>388.4</ele>
        <time>2023-10-01T07:51:11Z</time>
      </trkpt>
      <trkpt lat="47.1287" lon="6.17517">
        <ele>388.2</ele>
        <time>2023-10-01T07:51:14Z</time>
      </trkpt>
      <trkpt lat="47.12862" lon="6.17524">
        <ele>388</ele>
        <time>2023-10-01T07:51:18Z</time>
      </trkpt>
      <trkpt lat="47.12849" lon="6.17535">
        <ele>387.4</ele>
        <time>2023-10-01T07:51:26Z</time>
      </trkpt>
      <trkpt lat="47.12848" lon="6.17538">
        <ele>387.2</ele>
        <time>2023-10-01T07:51:27Z</time>
      </trkpt>
      <trkpt lat="47.12839" lon="6.17555">
        <ele>386.2</ele>
        <time>2023-10-01T07:51:33Z</time>
      </trkpt>
      <trkpt lat="47.12839" lon="6.17558">
        <ele>386</ele>
        <time>2023-10-01T07:51:34Z</time>
      </trkpt>
      <trkpt lat="47.12836" lon="6.17569">
        <ele>385</ele>
        <time>2023-10-01T07:51:38Z</time>
      </trkpt>
      <trkpt lat="47.12836" lon="6.17571">
        <ele>384.6</ele>
        <time>2023-10-01T07:51:39Z</time>
      </trkpt>
      <trkpt lat="47.12837" lon="6.1758">
        <ele>383.8</ele>
        <time>2023-10-01T07:51:43Z</time>
      </trkpt>
      <trkpt lat="47.12836" lon="6.17586">
        <ele>382.6</ele>
        <time>2023-10-01T07:51:46Z</time>
      </trkpt>
      <trkpt lat="47.12837" lon="6.17591">
        <ele>382</ele>
        <time>2023-10-01T07:51:48Z</time>
      </trkpt>
      <trkpt lat="47.12926" lon="6.1784">
        <ele>431.4</ele>
        <time>2023-10-01T07:54:01Z</time>
      </trkpt>
      <trkpt lat="47.12928" lon="6.17844">
        <ele>431.6</ele>
        <time>2023-10-01T07:54:03Z</time>
      </trkpt>
      <trkpt lat="47.12934" lon="6.17855">
        <ele>432.6</ele>
        <time>2023-10-01T07:54:08Z</time>
      </trkpt>
      <trkpt lat="47.12935" lon="6.1786">
        <ele>433</ele>
        <time>2023-10-01T07:54:10Z</time>
      </trkpt>
      <trkpt lat="47.12941" lon="6.17875">
        <ele>433.6</ele>
        <time>2023-10-01T07:54:17Z</time>
      </trkpt>
      <trkpt lat="47.12943" lon="6.17879">
        <ele>433.6</ele>
        <time>2023-10-01T07:54:19Z</time>
      </trkpt>
      <trkpt lat="47.12949" lon="6.17889">
        <ele>433.4</ele>
        <time>2023-10-01T07:54:24Z</time>
      </trkpt>
      <trkpt lat="47.12951" lon="6.17895">
        <ele>433.6</ele>
        <time>2023-10-01T07:54:27Z</time>
      </trkpt>
      <trkpt lat="47.12956" lon="6.17902">
        <ele>435</ele>
        <time>2023-10-01T07:54:30Z</time>
      </trkpt>
      <trkpt lat="47.12958" lon="6.17904">
        <ele>435.8</ele>
        <time>2023-10-01T07:54:31Z</time>
      </trkpt>
      <trkpt lat="47.12959" lon="6.17906">
        <ele>436.4</ele>
        <time>2023-10-01T07:54:32Z</time>
      </trkpt>
      <trkpt lat="47.12964" lon="6.17911">
        <ele>437.4</ele>
        <time>2023-10-01T07:54:35Z</time>
      </trkpt>
      <trkpt lat="47.12968" lon="6.17917">
        <ele>438.2</ele>
        <time>2023-10-01T07:54:38Z</time>
      </trkpt>
      <trkpt lat="47.12971" lon="6.17922">
        <ele>438.6</ele>
        <time>2023-10-01T07:54:40Z</time>
      </trkpt>
      <trkpt lat="47.12986" lon="6.17943">
        <ele>440</ele>
        <time>2023-10-01T07:54:52Z</time>
      </trkpt>
      <trkpt lat="47.12993" lon="6.17951">
        <ele>440.4</ele>
        <time>2023-10-01T07:54:56Z</time>
      </trkpt>
      <trkpt lat="47.12997" lon="6.17957">
        <ele>440.2</ele>
        <time>2023-10-01T07:54:58Z</time>
      </trkpt>
      <trkpt lat="47.13004" lon="6.17966">
        <ele>440.2</ele>
        <time>2023-10-01T07:55:02Z</time>
      </trkpt>
      <trkpt lat="47.13011" lon="6.17977">
        <ele>441.2</ele>
        <time>2023-10-01T07:55:06Z</time>
      </trkpt>
      <trkpt lat="47.1302" lon="6.1799">
        <ele>441.2</ele>
        <time>2023-10-01T07:55:12Z</time>
      </trkpt>
      <trkpt lat="47.13027" lon="6.18001">
        <ele>442</ele>
        <time>2023-10-01T07:55:18Z</time>
      </trkpt>
      <trkpt lat="47.13028" lon="6.18003">
        <ele>442</ele>
        <time>2023-10-01T07:55:19Z</time>
      </trkpt>
      <trkpt lat="47.13035" lon="6.18017">
        <ele>441</ele>
        <time>2023-10-01T07:55:24Z</time>
      </trkpt>
      <trkpt lat="47.1304" lon="6.18029">
        <ele>440</ele>
        <time>2023-10-01T07:55:28Z</time>
      </trkpt>
      <trkpt lat="47.13044" lon="6.18036">
        <ele>439.4</ele>
        <time>2023-10-01T07:55:30Z</time>
      </trkpt>
      <trkpt lat="47.13047" lon="6.18043">
        <ele>439</ele>
        <time>2023-10-01T07:55:32Z</time>
      </trkpt>
      <trkpt lat="47.13053" lon="6.18058">
        <ele>438</ele>
        <time>2023-10-01T07:55:36Z</time>
      </trkpt>
      <trkpt lat="47.13066" lon="6.18083">
        <ele>438</ele>
        <time>2023-10-01T07:55:43Z</time>
      </trkpt>
      <trkpt lat="47.13068" lon="6.18085">
        <ele>437.8</ele>
        <time>2023-10-01T07:55:44Z</time>
      </trkpt>
      <trkpt lat="47.13076" lon="6.181">
        <ele>438.2</ele>
        <time>2023-10-01T07:55:49Z</time>
      </trkpt>
      <trkpt lat="47.13082" lon="6.18108">
        <ele>439</ele>
        <time>2023-10-01T07:55:51Z</time>
      </trkpt>
      <trkpt lat="47.13089" lon="6.18119">
        <ele>439.8</ele>
        <time>2023-10-01T07:55:54Z</time>
      </trkpt>
      <trkpt lat="47.13091" lon="6.18121">
        <ele>440</ele>
        <time>2023-10-01T07:55:55Z</time>
      </trkpt>
      <trkpt lat="47.13103" lon="6.18136">
        <ele>440.4</ele>
        <time>2023-10-01T07:56:00Z</time>
      </trkpt>
      <trkpt lat="47.13114" lon="6.18142">
        <ele>440.2</ele>
        <time>2023-10-01T07:56:06Z</time>
      </trkpt>
      <trkpt lat="47.13129" lon="6.18158">
        <ele>441.2</ele>
        <time>2023-10-01T07:56:12Z</time>
      </trkpt>
      <trkpt lat="47.13131" lon="6.18161">
        <ele>441.6</ele>
        <time>2023-10-01T07:56:13Z</time>
      </trkpt>
      <trkpt lat="47.13145" lon="6.18177">
        <ele>442.2</ele>
        <time>2023-10-01T07:56:19Z</time>
      </trkpt>
      <trkpt lat="47.13158" lon="6.18193">
        <ele>441.6</ele>
        <time>2023-10-01T07:56:25Z</time>
      </trkpt>
      <trkpt lat="47.13164" lon="6.18205">
        <ele>440.8</ele>
        <time>2023-10-01T07:56:29Z</time>
      </trkpt>
      <trkpt lat="47.13169" lon="6.18212">
        <ele>441.4</ele>
        <time>2023-10-01T07:56:31Z</time>
      </trkpt>
      <trkpt lat="47.13171" lon="6.18216">
        <ele>441.8</ele>
        <time>2023-10-01T07:56:32Z</time>
      </trkpt>
      <trkpt lat="47.13176" lon="6.18224">
        <ele>443.2</ele>
        <time>2023-10-01T07:56:34Z</time>
      </trkpt>
      <trkpt lat="47.13182" lon="6.18232">
        <ele>444.8</ele>
        <time>2023-10-01T07:56:37Z</time>
      </trkpt>
      <trkpt lat="47.13185" lon="6.18237">
        <ele>445.6</ele>
        <time>2023-10-01T07:56:39Z</time>
      </trkpt>
      <trkpt lat="47.13187" lon="6.18238">
        <ele>446</ele>
        <time>2023-10-01T07:56:40Z</time>
      </trkpt>
      <trkpt lat="47.1319" lon="6.18243">
        <ele>447.2</ele>
        <time>2023-10-01T07:56:42Z</time>
      </trkpt>
      <trkpt lat="47.13192" lon="6.18248">
        <ele>448.4</ele>
        <time>2023-10-01T07:56:44Z</time>
      </trkpt>
      <trkpt lat="47.13194" lon="6.18253">
        <ele>449.8</ele>
        <time>2023-10-01T07:56:46Z</time>
      </trkpt>
      <trkpt lat="47.13197" lon="6.18258">
        <ele>450.8</ele>
        <time>2023-10-01T07:56:48Z</time>
      </trkpt>
      <trkpt lat="47.13209" lon="6.18284">
        <ele>453.6</ele>
        <time>2023-10-01T07:57:00Z</time>
      </trkpt>
      <trkpt lat="47.13212" lon="6.18288">
        <ele>454</ele>
        <time>2023-10-01T07:57:02Z</time>
      </trkpt>
      <trkpt lat="47.13215" lon="6.18302">
        <ele>454.8</ele>
        <time>2023-10-01T07:57:07Z</time>
      </trkpt>
      <trkpt lat="47.13217" lon="6.18307">
        <ele>455.4</ele>
        <time>2023-10-01T07:57:09Z</time>
      </trkpt>
      <trkpt lat="47.13218" lon="6.18312">
        <ele>456</ele>
        <time>2023-10-01T07:57:11Z</time>
      </trkpt>
      <trkpt lat="47.1322" lon="6.1832">
        <ele>457</ele>
        <time>2023-10-01T07:57:14Z</time>
      </trkpt>
      <trkpt lat="47.13234" lon="6.18364">
        <ele>462</ele>
        <time>2023-10-01T07:57:33Z</time>
      </trkpt>
      <trkpt lat="47.13234" lon="6.18366">
        <ele>462.4</ele>
        <time>2023-10-01T07:57:34Z</time>
      </trkpt>
      <trkpt lat="47.1319" lon="6.18483">
        <ele>522.8</ele>
        <time>2023-10-01T08:01:57Z</time>
      </trkpt>
      <trkpt lat="47.13189" lon="6.1848">
        <ele>522.6</ele>
        <time>2023-10-01T08:01:59Z</time>
      </trkpt>
      <trkpt lat="47.13165" lon="6.18434">
        <ele>527.4</ele>
        <time>2023-10-01T08:02:43Z</time>
      </trkpt>
      <trkpt lat="47.13162" lon="6.18428">
        <ele>527.2</ele>
        <time>2023-10-01T08:02:47Z</time>
      </trkpt>
      <trkpt lat="47.13159" lon="6.1842">
        <ele>526.8</ele>
        <time>2023-10-01T08:02:52Z</time>
      </trkpt>
      <trkpt lat="47.13155" lon="6.18411">
        <ele>526.6</ele>
        <time>2023-10-01T08:02:56Z</time>
      </trkpt>
      <trkpt lat="47.13145" lon="6.18396">
        <ele>526.6</ele>
        <time>2023-10-01T08:03:02Z</time>
      </trkpt>
      <trkpt lat="47.13134" lon="6.18378">
        <ele>528.2</ele>
        <time>2023-10-01T08:03:10Z</time>
      </trkpt>
      <trkpt lat="47.1313" lon="6.18375">
        <ele>528.6</ele>
        <time>2023-10-01T08:03:13Z</time>
      </trkpt>
      <trkpt lat="47.13126" lon="6.18368">
        <ele>529.2</ele>
        <time>2023-10-01T08:03:16Z</time>
      </trkpt>
      <trkpt lat="47.13124" lon="6.18364">
        <ele>529.8</ele>
        <time>2023-10-01T08:03:18Z</time>
      </trkpt>
      <trkpt lat="47.13099" lon="6.18331">
        <ele>534</ele>
        <time>2023-10-01T08:03:38Z</time>
      </trkpt>
      <trkpt lat="47.13098" lon="6.18329">
        <ele>534.4</ele>
        <time>2023-10-01T08:03:39Z</time>
      </trkpt>
      <trkpt lat="47.13095" lon="6.18325">
        <ele>535.4</ele>
        <time>2023-10-01T08:03:41Z</time>
      </trkpt>
      <trkpt lat="47.13091" lon="6.18322">
        <ele>536.8</ele>
        <time>2023-10-01T08:03:44Z</time>
      </trkpt>
      <trkpt lat="47.13054" lon="6.18291">
        <ele>543.6</ele>
        <time>2023-10-01T08:04:16Z</time>
      </trkpt>
      <trkpt lat="47.13041" lon="6.18278">
        <ele>544.8</ele>
        <time>2023-10-01T08:04:25Z</time>
      </trkpt>
      <trkpt lat="47.13039" lon="6.18276">
        <ele>544.8</ele>
        <time>2023-10-01T08:04:26Z</time>
      </trkpt>
      <trkpt lat="47.13022" lon="6.18262">
        <ele>544.8</ele>
        <time>2023-10-01T08:04:34Z</time>
      </trkpt>
      <trkpt lat="47.1301" lon="6.18254">
        <ele>545.8</ele>
        <time>2023-10-01T08:04:38Z</time>
      </trkpt>
      <trkpt lat="47.13006" lon="6.18252">
        <ele>546.2</ele>
        <time>2023-10-01T08:04:40Z</time>
      </trkpt>
      <trkpt lat="47.12989" lon="6.18244">
        <ele>546.2</ele>
        <time>2023-10-01T08:04:46Z</time>
      </trkpt>
      <trkpt lat="47.12975" lon="6.1823">
        <ele>545.2</ele>
        <time>2023-10-01T08:04:52Z</time>
      </trkpt>
      <trkpt lat="47.12956" lon="6.1821">
        <ele>544.8</ele>
        <time>2023-10-01T08:04:58Z</time>
      </trkpt>
      <trkpt lat="47.12953" lon="6.18206">
        <ele>544.6</ele>
        <time>2023-10-01T08:04:59Z</time>
      </trkpt>
      <trkpt lat="47.12939" lon="6.18193">
        <ele>543.6</ele>
        <time>2023-10-01T08:05:03Z</time>
      </trkpt>
      <trkpt lat="47.12935" lon="6.18193">
        <ele>543.2</ele>
        <time>2023-10-01T08:05:04Z</time>
      </trkpt>
      <trkpt lat="47.12931" lon="6.18195">
        <ele>543.2</ele>
        <time>2023-10-01T08:05:05Z</time>
      </trkpt>
      <trkpt lat="47.1292" lon="6.18202">
        <ele>542.6</ele>
        <time>2023-10-01T08:05:08Z</time>
      </trkpt>
      <trkpt lat="47.12912" lon="6.18209">
        <ele>542</ele>
        <time>2023-10-01T08:05:10Z</time>
      </trkpt>
      <trkpt lat="47.12903" lon="6.18215">
        <ele>541.4</ele>
        <time>2023-10-01T08:05:12Z</time>
      </trkpt>
      <trkpt lat="47.12898" lon="6.18217">
        <ele>541</ele>
        <time>2023-10-01T08:05:13Z</time>
      </trkpt>
      <trkpt lat="47.12888" lon="6.18218">
        <ele>540.4</ele>
        <time>2023-10-01T08:05:15Z</time>
      </trkpt>
      <trkpt lat="47.12885" lon="6.18219">
        <ele>540.2</ele>
        <time>2023-10-01T08:05:16Z</time>
      </trkpt>
      <trkpt lat="47.12883" lon="6.18219">
        <ele>540</ele>
        <time>2023-10-01T08:05:17Z</time>
      </trkpt>
      <trkpt lat="47.12881" lon="6.18221">
        <ele>539.6</ele>
        <time>2023-10-01T08:05:18Z</time>
      </trkpt>
      <trkpt lat="47.12881" lon="6.18224">
        <ele>539</ele>
        <time>2023-10-01T08:05:20Z</time>
      </trkpt>
      <trkpt lat="47.12876" lon="6.18239">
        <ele>539.8</ele>
        <time>2023-10-01T08:07:09Z</time>
      </trkpt>
      <trkpt lat="47.12876" lon="6.18243">
        <ele>540.2</ele>
        <time>2023-10-01T08:07:10Z</time>
      </trkpt>
      <trkpt lat="47.12877" lon="6.18252">
        <ele>541.2</ele>
        <time>2023-10-01T08:07:12Z</time>
      </trkpt>
      <trkpt lat="47.12878" lon="6.18257">
        <ele>541.6</ele>
        <time>2023-10-01T08:07:13Z</time>
      </trkpt>
      <trkpt lat="47.12881" lon="6.18285">
        <ele>541.8</ele>
        <time>2023-10-01T08:07:17Z</time>
      </trkpt>
      <trkpt lat="47.12878" lon="6.18321">
        <ele>540.6</ele>
        <time>2023-10-01T08:07:21Z</time>
      </trkpt>
      <trkpt lat="47.12877" lon="6.1833">
        <ele>540.2</ele>
        <time>2023-10-01T08:07:22Z</time>
      </trkpt>
      <trkpt lat="47.12875" lon="6.18351">
        <ele>539.4</ele>
        <time>2023-10-01T08:07:24Z</time>
      </trkpt>
      <trkpt lat="47.12868" lon="6.18409">
        <ele>538.2</ele>
        <time>2023-10-01T08:07:30Z</time>
      </trkpt>
      <trkpt lat="47.12865" lon="6.18425">
        <ele>537.8</ele>
        <time>2023-10-01T08:07:32Z</time>
      </trkpt>
      <trkpt lat="47.12856" lon="6.18446">
        <ele>537.4</ele>
        <time>2023-10-01T08:07:35Z</time>
      </trkpt>
      <trkpt lat="47.12839" lon="6.18476">
        <ele>537.6</ele>
        <time>2023-10-01T08:07:40Z</time>
      </trkpt>
      <trkpt lat="47.12818" lon="6.18516">
        <ele>537.6</ele>
        <time>2023-10-01T08:07:48Z</time>
      </trkpt>
      <trkpt lat="47.12818" lon="6.18521">
        <ele>537.8</ele>
        <time>2023-10-01T08:07:49Z</time>
      </trkpt>
      <trkpt lat="47.12824" lon="6.18525">
        <ele>537.8</ele>
        <time>2023-10-01T08:07:51Z</time>
      </trkpt>
      <trkpt lat="47.1283" lon="6.18528">
        <ele>538</ele>
        <time>2023-10-01T08:07:53Z</time>
      </trkpt>
      <trkpt lat="47.12846" lon="6.18537">
        <ele>538.2</ele>
        <time>2023-10-01T08:07:57Z</time>
      </trkpt>
      <trkpt lat="47.12868" lon="6.18548">
        <ele>539.2</ele>
        <time>2023-10-01T08:08:02Z</time>
      </trkpt>
      <trkpt lat="47.12881" lon="6.18555">
        <ele>540</ele>
        <time>2023-10-01T08:08:05Z</time>
      </trkpt>
      <trkpt lat="47.1289" lon="6.18558">
        <ele>540.4</ele>
        <time>2023-10-01T08:08:07Z</time>
      </trkpt>
      <trkpt lat="47.12899" lon="6.18563">
        <ele>541.6</ele>
        <time>2023-10-01T08:08:09Z</time>
      </trkpt>
      <trkpt lat="47.12911" lon="6.18573">
        <ele>542</ele>
        <time>2023-10-01T08:08:12Z</time>
      </trkpt>
      <trkpt lat="47.12914" lon="6.18577">
        <ele>542.2</ele>
        <time>2023-10-01T08:08:13Z</time>
      </trkpt>
      <trkpt lat="47.12926" lon="6.18595">
        <ele>542.6</ele>
        <time>2023-10-01T08:08:17Z</time>
      </trkpt>
      <trkpt lat="47.12929" lon="6.186">
        <ele>542.8</ele>
        <time>2023-10-01T08:08:18Z</time>
      </trkpt>
      <trkpt lat="47.1293" lon="6.18606">
        <ele>542.8</ele>
        <time>2023-10-01T08:08:19Z</time>
      </trkpt>
      <trkpt lat="47.12935" lon="6.18628">
        <ele>543</ele>
        <time>2023-10-01T08:08:22Z</time>
      </trkpt>
      <trkpt lat="47.12937" lon="6.18636">
        <ele>543</ele>
        <time>2023-10-01T08:08:23Z</time>
      </trkpt>
      <trkpt lat="47.12946" lon="6.18668">
        <ele>542.8</ele>
        <time>2023-10-01T08:08:27Z</time>
      </trkpt>
      <trkpt lat="47.12955" lon="6.18683">
        <ele>542.4</ele>
        <time>2023-10-01T08:08:29Z</time>
      </trkpt>
      <trkpt lat="47.12963" lon="6.18697">
        <ele>542.2</ele>
        <time>2023-10-01T08:08:31Z</time>
      </trkpt>
      <trkpt lat="47.12982" lon="6.18731">
        <ele>541.6</ele>
        <time>2023-10-01T08:08:36Z</time>
      </trkpt>
      <trkpt lat="47.13004" lon="6.18775">
        <ele>541.2</ele>
        <time>2023-10-01T08:08:43Z</time>
      </trkpt>
      <trkpt lat="47.13005" lon="6.18781">
        <ele>541.2</ele>
        <time>2023-10-01T08:08:44Z</time>
      </trkpt>
      <trkpt lat="47.13009" lon="6.18805">
        <ele>541</ele>
        <time>2023-10-01T08:08:48Z</time>
      </trkpt>
      <trkpt lat="47.1301" lon="6.1883">
        <ele>542.6</ele>
        <time>2023-10-01T08:08:52Z</time>
      </trkpt>
      <trkpt lat="47.13011" lon="6.18848">
        <ele>543.6</ele>
        <time>2023-10-01T08:08:55Z</time>
      </trkpt>
      <trkpt lat="47.1301" lon="6.18862">
        <ele>543.6</ele>
        <time>2023-10-01T08:08:57Z</time>
      </trkpt>
      <trkpt lat="47.13004" lon="6.18882">
        <ele>543.4</ele>
        <time>2023-10-01T08:09:00Z</time>
      </trkpt>
      <trkpt lat="47.12999" lon="6.18901">
        <ele>542.6</ele>
        <time>2023-10-01T08:09:05Z</time>
      </trkpt>
      <trkpt lat="47.13002" lon="6.18906">
        <ele>542</ele>
        <time>2023-10-01T08:09:08Z</time>
      </trkpt>
      <trkpt lat="47.13003" lon="6.18909">
        <ele>541.2</ele>
        <time>2023-10-01T08:09:09Z</time>
      </trkpt>
      <trkpt lat="47.13006" lon="6.18919">
        <ele>540.2</ele>
        <time>2023-10-01T08:09:11Z</time>
      </trkpt>
      <trkpt lat="47.13008" lon="6.18925">
        <ele>539.6</ele>
        <time>2023-10-01T08:09:12Z</time>
      </trkpt>
      <trkpt lat="47.13009" lon="6.18933">
        <ele>538.8</ele>
        <time>2023-10-01T08:09:13Z</time>
      </trkpt>
      <trkpt lat="47.1301" lon="6.18949">
        <ele>537.4</ele>
        <time>2023-10-01T08:09:15Z</time>
      </trkpt>
      <trkpt lat="47.13006" lon="6.18965">
        <ele>536.4</ele>
        <time>2023-10-01T08:09:17Z</time>
      </trkpt>
      <trkpt lat="47.13003" lon="6.18972">
        <ele>536.4</ele>
        <time>2023-10-01T08:09:18Z</time>
      </trkpt>
      <trkpt lat="47.12999" lon="6.18978">
        <ele>535.4</ele>
        <time>2023-10-01T08:09:19Z</time>
      </trkpt>
      <trkpt lat="47.1299" lon="6.18987">
        <ele>535</ele>
        <time>2023-10-01T08:09:21Z</time>
      </trkpt>
      <trkpt lat="47.12987" lon="6.18989">
        <ele>534.8</ele>
        <time>2023-10-01T08:09:22Z</time>
      </trkpt>
      <trkpt lat="47.12981" lon="6.18994">
        <ele>534</ele>
        <time>2023-10-01T08:09:24Z</time>
      </trkpt>
      <trkpt lat="47.12981" lon="6.18996">
        <ele>531.6</ele>
        <time>2023-10-01T08:09:29Z</time>
      </trkpt>
      <trkpt lat="47.12985" lon="6.18992">
        <ele>530.2</ele>
        <time>2023-10-01T08:09:31Z</time>
      </trkpt>
      <trkpt lat="47.1299" lon="6.18989">
        <ele>528.4</ele>
        <time>2023-10-01T08:09:33Z</time>
      </trkpt>
      <trkpt lat="47.12995" lon="6.18985">
        <ele>526.4</ele>
        <time>2023-10-01T08:09:35Z</time>
      </trkpt>
      <trkpt lat="47.12999" lon="6.18982">
        <ele>525.4</ele>
        <time>2023-10-01T08:09:36Z</time>
      </trkpt>
      <trkpt lat="47.13002" lon="6.18979">
        <ele>525.4</ele>
        <time>2023-10-01T08:09:37Z</time>
      </trkpt>
      <trkpt lat="47.13006" lon="6.18975">
        <ele>524.2</ele>
        <time>2023-10-01T08:09:38Z</time>
      </trkpt>
      <trkpt lat="47.13009" lon="6.18971">
        <ele>523</ele>
        <time>2023-10-01T08:09:39Z</time>
      </trkpt>
      <trkpt lat="47.13011" lon="6.18968">
        <ele>522</ele>
        <time>2023-10-01T08:09:40Z</time>
      </trkpt>
      <trkpt lat="47.13013" lon="6.18963">
        <ele>520.8</ele>
        <time>2023-10-01T08:09:41Z</time>
      </trkpt>
      <trkpt lat="47.13014" lon="6.18957">
        <ele>518.4</ele>
        <time>2023-10-01T08:09:42Z</time>
      </trkpt>
      <trkpt lat="47.13015" lon="6.18954">
        <ele>517.4</ele>
        <time>2023-10-01T08:09:43Z</time>
      </trkpt>
      <trkpt lat="47.13021" lon="6.18952">
        <ele>515.6</ele>
        <time>2023-10-01T08:09:45Z</time>
      </trkpt>
      <trkpt lat="47.13032" lon="6.18953">
        <ele>513.4</ele>
        <time>2023-10-01T08:09:47Z</time>
      </trkpt>
      <trkpt lat="47.13037" lon="6.18954">
        <ele>512.4</ele>
        <time>2023-10-01T08:09:48Z</time>
      </trkpt>
      <trkpt lat="47.13041" lon="6.18956">
        <ele>511</ele>
        <time>2023-10-01T08:09:49Z</time>
      </trkpt>
      <trkpt lat="47.13045" lon="6.18958">
        <ele>509.8</ele>
        <time>2023-10-01T08:09:50Z</time>
      </trkpt>
      <trkpt lat="47.13049" lon="6.1896">
        <ele>508.6</ele>
        <time>2023-10-01T08:09:51Z</time>
      </trkpt>
      <trkpt lat="47.13055" lon="6.18965">
        <ele>506.8</ele>
        <time>2023-10-01T08:09:53Z</time>
      </trkpt>
      <trkpt lat="47.13058" lon="6.18972">
        <ele>505.8</ele>
        <time>2023-10-01T08:09:55Z</time>
      </trkpt>
      <trkpt lat="47.13061" lon="6.18975">
        <ele>505.4</ele>
        <time>2023-10-01T08:09:56Z</time>
      </trkpt>
      <trkpt lat="47.13066" lon="6.18981">
        <ele>504</ele>
        <time>2023-10-01T08:09:58Z</time>
      </trkpt>
      <trkpt lat="47.13069" lon="6.18988">
        <ele>503.2</ele>
        <time>2023-10-01T08:10:00Z</time>
      </trkpt>
      <trkpt lat="47.1307" lon="6.18991">
        <ele>502.8</ele>
        <time>2023-10-01T08:10:01Z</time>
      </trkpt>
      <trkpt lat="47.13075" lon="6.19001">
        <ele>501.4</ele>
        <time>2023-10-01T08:10:04Z</time>
      </trkpt>
      <trkpt lat="47.13077" lon="6.19009">
        <ele>500.4</ele>
        <time>2023-10-01T08:10:06Z</time>
      </trkpt>
      <trkpt lat="47.13079" lon="6.19023">
        <ele>499.2</ele>
        <time>2023-10-01T08:10:09Z</time>
      </trkpt>
      <trkpt lat="47.13082" lon="6.19036">
        <ele>497.8</ele>
        <time>2023-10-01T08:10:12Z</time>
      </trkpt>
      <trkpt lat="47.13084" lon="6.19045">
        <ele>496.8</ele>
        <time>2023-10-01T08:10:14Z</time>
      </trkpt>
      <trkpt lat="47.13085" lon="6.19054">
        <ele>495.4</ele>
        <time>2023-10-01T08:10:16Z</time>
      </trkpt>
      <trkpt lat="47.13086" lon="6.19058">
        <ele>494.8</ele>
        <time>2023-10-01T08:10:17Z</time>
      </trkpt>
      <trkpt lat="47.13087" lon="6.19062">
        <ele>494</ele>
        <time>2023-10-01T08:10:18Z</time>
      </trkpt>
      <trkpt lat="47.13091" lon="6.19084">
        <ele>494.4</ele>
        <time>2023-10-01T08:10:23Z</time>
      </trkpt>
      <trkpt lat="47.13093" lon="6.19099">
        <ele>495.2</ele>
        <time>2023-10-01T08:10:28Z</time>
      </trkpt>
      <trkpt lat="47.13096" lon="6.19112">
        <ele>496.2</ele>
        <time>2023-10-01T08:10:33Z</time>
      </trkpt>
      <trkpt lat="47.13097" lon="6.1912">
        <ele>497.6</ele>
        <time>2023-10-01T08:10:36Z</time>
      </trkpt>
      <trkpt lat="47.13097" lon="6.19122">
        <ele>497.8</ele>
        <time>2023-10-01T08:10:37Z</time>
      </trkpt>
      <trkpt lat="47.13099" lon="6.19129">
        <ele>498.2</ele>
        <time>2023-10-01T08:10:40Z</time>
      </trkpt>
      <trkpt lat="47.13099" lon="6.19135">
        <ele>499</ele>
        <time>2023-10-01T08:10:42Z</time>
      </trkpt>
      <trkpt lat="47.131" lon="6.19142">
        <ele>500.8</ele>
        <time>2023-10-01T08:10:44Z</time>
      </trkpt>
      <trkpt lat="47.13102" lon="6.19149">
        <ele>502.6</ele>
        <time>2023-10-01T08:10:46Z</time>
      </trkpt>
      <trkpt lat="47.13103" lon="6.19156">
        <ele>504.2</ele>
        <time>2023-10-01T08:10:48Z</time>
      </trkpt>
      <trkpt lat="47.13105" lon="6.19163">
        <ele>505.2</ele>
        <time>2023-10-01T08:10:50Z</time>
      </trkpt>
      <trkpt lat="47.13106" lon="6.19169">
        <ele>506.4</ele>
        <time>2023-10-01T08:10:52Z</time>
      </trkpt>
      <trkpt lat="47.13108" lon="6.19178">
        <ele>507.8</ele>
        <time>2023-10-01T08:10:56Z</time>
      </trkpt>
      <trkpt lat="47.1311" lon="6.19182">
        <ele>509</ele>
        <time>2023-10-01T08:10:58Z</time>
      </trkpt>
      <trkpt lat="47.13111" lon="6.19187">
        <ele>510</ele>
        <time>2023-10-01T08:11:00Z</time>
      </trkpt>
      <trkpt lat="47.13111" lon="6.19193">
        <ele>511.8</ele>
        <time>2023-10-01T08:11:02Z</time>
      </trkpt>
      <trkpt lat="47.13112" lon="6.19199">
        <ele>513.4</ele>
        <time>2023-10-01T08:11:04Z</time>
      </trkpt>
      <trkpt lat="47.13113" lon="6.19202">
        <ele>515.2</ele>
        <time>2023-10-01T08:11:05Z</time>
      </trkpt>
      <trkpt lat="47.13113" lon="6.19206">
        <ele>517</ele>
        <time>2023-10-01T08:11:06Z</time>
      </trkpt>
      <trkpt lat="47.13114" lon="6.19209">
        <ele>518.6</ele>
        <time>2023-10-01T08:11:07Z</time>
      </trkpt>
      <trkpt lat="47.13115" lon="6.19213">
        <ele>520.4</ele>
        <time>2023-10-01T08:11:08Z</time>
      </trkpt>
      <trkpt lat="47.13115" lon="6.19216">
        <ele>521.8</ele>
        <time>2023-10-01T08:11:09Z</time>
      </trkpt>
      <trkpt lat="47.13121" lon="6.19245">
        <ele>528</ele>
        <time>2023-10-01T08:11:24Z</time>
      </trkpt>
      <trkpt lat="47.13123" lon="6.19254">
        <ele>528.4</ele>
        <time>2023-10-01T08:11:28Z</time>
      </trkpt>
      <trkpt lat="47.13125" lon="6.19261">
        <ele>529</ele>
        <time>2023-10-01T08:11:31Z</time>
      </trkpt>
      <trkpt lat="47.13131" lon="6.19273">
        <ele>529.8</ele>
        <time>2023-10-01T08:11:37Z</time>
      </trkpt>
      <trkpt lat="47.13134" lon="6.19277">
        <ele>530.2</ele>
        <time>2023-10-01T08:11:40Z</time>
      </trkpt>
      <trkpt lat="47.13136" lon="6.19282">
        <ele>531.4</ele>
        <time>2023-10-01T08:11:43Z</time>
      </trkpt>
      <trkpt lat="47.13137" lon="6.19284">
        <ele>532</ele>
        <time>2023-10-01T08:11:44Z</time>
      </trkpt>
      <trkpt lat="47.13139" lon="6.19288">
        <ele>532.6</ele>
        <time>2023-10-01T08:11:46Z</time>
      </trkpt>
      <trkpt lat="47.13144" lon="6.19303">
        <ele>532.4</ele>
        <time>2023-10-01T08:11:53Z</time>
      </trkpt>
      <trkpt lat="47.1315" lon="6.1932">
        <ele>531.6</ele>
        <time>2023-10-01T08:12:01Z</time>
      </trkpt>
      <trkpt lat="47.13151" lon="6.19324">
        <ele>531.6</ele>
        <time>2023-10-01T08:12:03Z</time>
      </trkpt>
      <trkpt lat="47.13155" lon="6.19342">
        <ele>532.2</ele>
        <time>2023-10-01T08:12:11Z</time>
      </trkpt>
      <trkpt lat="47.13156" lon="6.19345">
        <ele>533</ele>
        <time>2023-10-01T08:12:12Z</time>
      </trkpt>
      <trkpt lat="47.13162" lon="6.19371">
        <ele>542.8</ele>
        <time>2023-10-01T08:12:21Z</time>
      </trkpt>
      <trkpt lat="47.13163" lon="6.19378">
        <ele>544.4</ele>
        <time>2023-10-01T08:12:23Z</time>
      </trkpt>
      <trkpt lat="47.13164" lon="6.19384">
        <ele>545.2</ele>
        <time>2023-10-01T08:12:25Z</time>
      </trkpt>
      <trkpt lat="47.13165" lon="6.19386">
        <ele>546</ele>
        <time>2023-10-01T08:12:26Z</time>
      </trkpt>
      <trkpt lat="47.13165" lon="6.19396">
        <ele>547.2</ele>
        <time>2023-10-01T08:12:29Z</time>
      </trkpt>
      <trkpt lat="47.13165" lon="6.19409">
        <ele>548.6</ele>
        <time>2023-10-01T08:12:32Z</time>
      </trkpt>
      <trkpt lat="47.13165" lon="6.19427">
        <ele>549.6</ele>
        <time>2023-10-01T08:12:38Z</time>
      </trkpt>
      <trkpt lat="47.13165" lon="6.19429">
        <ele>549.6</ele>
        <time>2023-10-01T08:12:39Z</time>
      </trkpt>
      <trkpt lat="47.13161" lon="6.19448">
        <ele>549.4</ele>
        <time>2023-10-01T08:12:45Z</time>
      </trkpt>
      <trkpt lat="47.13159" lon="6.19457">
        <ele>548.6</ele>
        <time>2023-10-01T08:12:49Z</time>
      </trkpt>
      <trkpt lat="47.13159" lon="6.1946">
        <ele>548.2</ele>
        <time>2023-10-01T08:12:50Z</time>
      </trkpt>
      <trkpt lat="47.13157" lon="6.19469">
        <ele>547.4</ele>
        <time>2023-10-01T08:12:53Z</time>
      </trkpt>
      <trkpt lat="47.13155" lon="6.19485">
        <ele>547.4</ele>
        <time>2023-10-01T08:12:57Z</time>
      </trkpt>
      <trkpt lat="47.13153" lon="6.19511">
        <ele>548.2</ele>
        <time>2023-10-01T08:13:04Z</time>
      </trkpt>
      <trkpt lat="47.13152" lon="6.19519">
        <ele>548.6</ele>
        <time>2023-10-01T08:13:06Z</time>
      </trkpt>
      <trkpt lat="47.13152" lon="6.19528">
        <ele>549.8</ele>
        <time>2023-10-01T08:13:08Z</time>
      </trkpt>
      <trkpt lat="47.13151" lon="6.19537">
        <ele>550.4</ele>
        <time>2023-10-01T08:13:11Z</time>
      </trkpt>
      <trkpt lat="47.13151" lon="6.19558">
        <ele>551</ele>
        <time>2023-10-01T08:13:17Z</time>
      </trkpt>
      <trkpt lat="47.13151" lon="6.19562">
        <ele>551.2</ele>
        <time>2023-10-01T08:13:18Z</time>
      </trkpt>
      <trkpt lat="47.13151" lon="6.19574">
        <ele>552</ele>
        <time>2023-10-01T08:13:21Z</time>
      </trkpt>
      <trkpt lat="47.1315" lon="6.19597">
        <ele>552.4</ele>
        <time>2023-10-01T08:13:26Z</time>
      </trkpt>
      <trkpt lat="47.13153" lon="6.19621">
        <ele>552.4</ele>
        <time>2023-10-01T08:13:32Z</time>
      </trkpt>
      <trkpt lat="47.13157" lon="6.19642">
        <ele>551.2</ele>
        <time>2023-10-01T08:13:38Z</time>
      </trkpt>
      <trkpt lat="47.13159" lon="6.19647">
        <ele>550.8</ele>
        <time>2023-10-01T08:13:39Z</time>
      </trkpt>
      <trkpt lat="47.13166" lon="6.19664">
        <ele>549.8</ele>
        <time>2023-10-01T08:13:42Z</time>
      </trkpt>
      <trkpt lat="47.13171" lon="6.19675">
        <ele>548.8</ele>
        <time>2023-10-01T08:13:44Z</time>
      </trkpt>
      <trkpt lat="47.13173" lon="6.19681">
        <ele>548.4</ele>
        <time>2023-10-01T08:13:45Z</time>
      </trkpt>
      <trkpt lat="47.13177" lon="6.19692">
        <ele>547.2</ele>
        <time>2023-10-01T08:13:47Z</time>
      </trkpt>
      <trkpt lat="47.13183" lon="6.19707">
        <ele>545.8</ele>
        <time>2023-10-01T08:13:50Z</time>
      </trkpt>
      <trkpt lat="47.13187" lon="6.1972">
        <ele>544.4</ele>
        <time>2023-10-01T08:13:53Z</time>
      </trkpt>
      <trkpt lat="47.13192" lon="6.19734">
        <ele>542.8</ele>
        <time>2023-10-01T08:13:56Z</time>
      </trkpt>
      <trkpt lat="47.13194" lon="6.19744">
        <ele>541.8</ele>
        <time>2023-10-01T08:13:58Z</time>
      </trkpt>
      <trkpt lat="47.13196" lon="6.19755">
        <ele>541</ele>
        <time>2023-10-01T08:14:00Z</time>
      </trkpt>
      <trkpt lat="47.13203" lon="6.19794">
        <ele>542.6</ele>
        <time>2023-10-01T08:14:05Z</time>
      </trkpt>
      <trkpt lat="47.13203" lon="6.19803">
        <ele>543.4</ele>
        <time>2023-10-01T08:14:06Z</time>
      </trkpt>
      <trkpt lat="47.13203" lon="6.19821">
        <ele>544.8</ele>
        <time>2023-10-01T08:14:08Z</time>
      </trkpt>
      <trkpt lat="47.13203" lon="6.19837">
        <ele>546.4</ele>
        <time>2023-10-01T08:14:10Z</time>
      </trkpt>
      <trkpt lat="47.13203" lon="6.19846">
        <ele>548</ele>
        <time>2023-10-01T08:14:11Z</time>
      </trkpt>
      <trkpt lat="47.13202" lon="6.19855">
        <ele>549.6</ele>
        <time>2023-10-01T08:14:12Z</time>
      </trkpt>
      <trkpt lat="47.13202" lon="6.19863">
        <ele>550.8</ele>
        <time>2023-10-01T08:14:13Z</time>
      </trkpt>
      <trkpt lat="47.132" lon="6.19878">
        <ele>552.6</ele>
        <time>2023-10-01T08:14:15Z</time>
      </trkpt>
      <trkpt lat="47.13199" lon="6.19892">
        <ele>554.2</ele>
        <time>2023-10-01T08:14:17Z</time>
      </trkpt>
      <trkpt lat="47.13197" lon="6.19912">
        <ele>555.8</ele>
        <time>2023-10-01T08:14:20Z</time>
      </trkpt>
      <trkpt lat="47.13201" lon="6.19929">
        <ele>557</ele>
        <time>2023-10-01T08:14:23Z</time>
      </trkpt>
      <trkpt lat="47.13204" lon="6.19934">
        <ele>557</ele>
        <time>2023-10-01T08:14:24Z</time>
      </trkpt>
      <trkpt lat="47.13213" lon="6.19946">
        <ele>558</ele>
        <time>2023-10-01T08:14:27Z</time>
      </trkpt>
      <trkpt lat="47.1322" lon="6.19953">
        <ele>558.6</ele>
        <time>2023-10-01T08:14:29Z</time>
      </trkpt>
      <trkpt lat="47.13225" lon="6.19961">
        <ele>559.4</ele>
        <time>2023-10-01T08:14:31Z</time>
      </trkpt>
      <trkpt lat="47.13231" lon="6.19975">
        <ele>560</ele>
        <time>2023-10-01T08:14:34Z</time>
      </trkpt>
      <trkpt lat="47.13232" lon="6.19987">
        <ele>560.8</ele>
        <time>2023-10-01T08:14:36Z</time>
      </trkpt>
      <trkpt lat="47.13232" lon="6.19999">
        <ele>561.8</ele>
        <time>2023-10-01T08:14:38Z</time>
      </trkpt>
      <trkpt lat="47.13232" lon="6.20013">
        <ele>562.6</ele>
        <time>2023-10-01T08:14:40Z</time>
      </trkpt>
      <trkpt lat="47.13224" lon="6.20028">
        <ele>562.6</ele>
        <time>2023-10-01T08:14:43Z</time>
      </trkpt>
      <trkpt lat="47.13216" lon="6.20035">
        <ele>562.6</ele>
        <time>2023-10-01T08:14:45Z</time>
      </trkpt>
      <trkpt lat="47.13212" lon="6.20038">
        <ele>562.6</ele>
        <time>2023-10-01T08:14:46Z</time>
      </trkpt>
      <trkpt lat="47.132" lon="6.20047">
        <ele>562.8</ele>
        <time>2023-10-01T08:14:49Z</time>
      </trkpt>
      <trkpt lat="47.13196" lon="6.20051">
        <ele>563</ele>
        <time>2023-10-01T08:14:50Z</time>
      </trkpt>
      <trkpt lat="47.13179" lon="6.20064">
        <ele>563.2</ele>
        <time>2023-10-01T08:14:54Z</time>
      </trkpt>
      <trkpt lat="47.1317" lon="6.20071">
        <ele>563.2</ele>
        <time>2023-10-01T08:14:56Z</time>
      </trkpt>
      <trkpt lat="47.13132" lon="6.20109">
        <ele>563.6</ele>
        <time>2023-10-01T08:15:05Z</time>
      </trkpt>
      <trkpt lat="47.13093" lon="6.2015">
        <ele>564</ele>
        <time>2023-10-01T08:15:14Z</time>
      </trkpt>
      <trkpt lat="47.13076" lon="6.20166">
        <ele>564</ele>
        <time>2023-10-01T08:15:18Z</time>
      </trkpt>
      <trkpt lat="47.13061" lon="6.2018">
        <ele>564.6</ele>
        <time>2023-10-01T08:15:22Z</time>
      </trkpt>
      <trkpt lat="47.13053" lon="6.20186">
        <ele>565</ele>
        <time>2023-10-01T08:15:24Z</time>
      </trkpt>
      <trkpt lat="47.13042" lon="6.20194">
        <ele>565.4</ele>
        <time>2023-10-01T08:15:27Z</time>
      </trkpt>
      <trkpt lat="47.13034" lon="6.20197">
        <ele>565.8</ele>
        <time>2023-10-01T08:15:29Z</time>
      </trkpt>
      <trkpt lat="47.13026" lon="6.20199">
        <ele>566.2</ele>
        <time>2023-10-01T08:15:31Z</time>
      </trkpt>
      <trkpt lat="47.13014" lon="6.20197">
        <ele>567.2</ele>
        <time>2023-10-01T08:15:34Z</time>
      </trkpt>
      <trkpt lat="47.1301" lon="6.20195">
        <ele>567.4</ele>
        <time>2023-10-01T08:15:35Z</time>
      </trkpt>
      <trkpt lat="47.13003" lon="6.2019">
        <ele>568</ele>
        <time>2023-10-01T08:15:37Z</time>
      </trkpt>
      <trkpt lat="47.12993" lon="6.20183">
        <ele>568.6</ele>
        <time>2023-10-01T08:15:40Z</time>
      </trkpt>
      <trkpt lat="47.12981" lon="6.20173">
        <ele>569.6</ele>
        <time>2023-10-01T08:15:44Z</time>
      </trkpt>
      <trkpt lat="47.1297" lon="6.20163">
        <ele>570.6</ele>
        <time>2023-10-01T08:15:48Z</time>
      </trkpt>
      <trkpt lat="47.12967" lon="6.20161">
        <ele>570.8</ele>
        <time>2023-10-01T08:15:49Z</time>
      </trkpt>
      <trkpt lat="47.12948" lon="6.20147">
        <ele>571.8</ele>
        <time>2023-10-01T08:15:55Z</time>
      </trkpt>
      <trkpt lat="47.12945" lon="6.20145">
        <ele>572</ele>
        <time>2023-10-01T08:15:56Z</time>
      </trkpt>
      <trkpt lat="47.12922" lon="6.20138">
        <ele>572.4</ele>
        <time>2023-10-01T08:16:02Z</time>
      </trkpt>
      <trkpt lat="47.12885" lon="6.2013">
        <ele>572.8</ele>
        <time>2023-10-01T08:16:10Z</time>
      </trkpt>
      <trkpt lat="47.1286" lon="6.20125">
        <ele>572.8</ele>
        <time>2023-10-01T08:16:15Z</time>
      </trkpt>
      <trkpt lat="47.12844" lon="6.20122">
        <ele>572.8</ele>
        <time>2023-10-01T08:16:18Z</time>
      </trkpt>
      <trkpt lat="47.12808" lon="6.20114">
        <ele>572</ele>
        <time>2023-10-01T08:16:24Z</time>
      </trkpt>
      <trkpt lat="47.12802" lon="6.20113">
        <ele>571.8</ele>
        <time>2023-10-01T08:16:25Z</time>
      </trkpt>
      <trkpt lat="47.12773" lon="6.20106">
        <ele>571.2</ele>
        <time>2023-10-01T08:16:30Z</time>
      </trkpt>
      <trkpt lat="47.12759" lon="6.20103">
        <ele>570.8</ele>
        <time>2023-10-01T08:16:32Z</time>
      </trkpt>
      <trkpt lat="47.12726" lon="6.20091">
        <ele>570</ele>
        <time>2023-10-01T08:16:37Z</time>
      </trkpt>
      <trkpt lat="47.12719" lon="6.20086">
        <ele>569.8</ele>
        <time>2023-10-01T08:16:38Z</time>
      </trkpt>
      <trkpt lat="47.12704" lon="6.20068">
        <ele>569.6</ele>
        <time>2023-10-01T08:16:41Z</time>
      </trkpt>
      <trkpt lat="47.12695" lon="6.20058">
        <ele>569.8</ele>
        <time>2023-10-01T08:16:43Z</time>
      </trkpt>
      <trkpt lat="47.12687" lon="6.20053">
        <ele>570.6</ele>
        <time>2023-10-01T08:16:45Z</time>
      </trkpt>
      <trkpt lat="47.12682" lon="6.20052">
        <ele>570.8</ele>
        <time>2023-10-01T08:16:46Z</time>
      </trkpt>
      <trkpt lat="47.12678" lon="6.20051">
        <ele>571.2</ele>
        <time>2023-10-01T08:16:47Z</time>
      </trkpt>
      <trkpt lat="47.12666" lon="6.20048">
        <ele>572.2</ele>
        <time>2023-10-01T08:16:50Z</time>
      </trkpt>
      <trkpt lat="47.12662" lon="6.20048">
        <ele>572.4</ele>
        <time>2023-10-01T08:16:51Z</time>
      </trkpt>
      <trkpt lat="47.1265" lon="6.20049">
        <ele>573.4</ele>
        <time>2023-10-01T08:16:54Z</time>
      </trkpt>
      <trkpt lat="47.12637" lon="6.20052">
        <ele>574.6</ele>
        <time>2023-10-01T08:16:57Z</time>
      </trkpt>
      <trkpt lat="47.1262" lon="6.20054">
        <ele>575.8</ele>
        <time>2023-10-01T08:17:01Z</time>
      </trkpt>
      <trkpt lat="47.12602" lon="6.20056">
        <ele>576.8</ele>
        <time>2023-10-01T08:17:05Z</time>
      </trkpt>
      <trkpt lat="47.12597" lon="6.20056">
        <ele>577</ele>
        <time>2023-10-01T08:17:06Z</time>
      </trkpt>
      <trkpt lat="47.12579" lon="6.20056">
        <ele>577.6</ele>
        <time>2023-10-01T08:17:10Z</time>
      </trkpt>
      <trkpt lat="47.12565" lon="6.20058">
        <ele>577.8</ele>
        <time>2023-10-01T08:17:13Z</time>
      </trkpt>
      <trkpt lat="47.1256" lon="6.2006">
        <ele>577.8</ele>
        <time>2023-10-01T08:17:14Z</time>
      </trkpt>
      <trkpt lat="47.12547" lon="6.20069">
        <ele>578</ele>
        <time>2023-10-01T08:17:17Z</time>
      </trkpt>
      <trkpt lat="47.12543" lon="6.20073">
        <ele>578.2</ele>
        <time>2023-10-01T08:17:18Z</time>
      </trkpt>
      <trkpt lat="47.12531" lon="6.20092">
        <ele>579</ele>
        <time>2023-10-01T08:17:22Z</time>
      </trkpt>
      <trkpt lat="47.12525" lon="6.20102">
        <ele>579.4</ele>
        <time>2023-10-01T08:17:24Z</time>
      </trkpt>
      <trkpt lat="47.12511" lon="6.20119">
        <ele>580.2</ele>
        <time>2023-10-01T08:17:28Z</time>
      </trkpt>
      <trkpt lat="47.12496" lon="6.20132">
        <ele>581.2</ele>
        <time>2023-10-01T08:17:32Z</time>
      </trkpt>
      <trkpt lat="47.1248" lon="6.20143">
        <ele>582.4</ele>
        <time>2023-10-01T08:17:36Z</time>
      </trkpt>
      <trkpt lat="47.12465" lon="6.20152">
        <ele>583.2</ele>
        <time>2023-10-01T08:17:40Z</time>
      </trkpt>
      <trkpt lat="47.12461" lon="6.20153">
        <ele>583.6</ele>
        <time>2023-10-01T08:17:41Z</time>
      </trkpt>
      <trkpt lat="47.12446" lon="6.20153">
        <ele>584.2</ele>
        <time>2023-10-01T08:17:45Z</time>
      </trkpt>
      <trkpt lat="47.12437" lon="6.20152">
        <ele>584.6</ele>
        <time>2023-10-01T08:17:47Z</time>
      </trkpt>
      <trkpt lat="47.12421" lon="6.20157">
        <ele>585</ele>
        <time>2023-10-01T08:17:51Z</time>
      </trkpt>
      <trkpt lat="47.12413" lon="6.20162">
        <ele>585</ele>
        <time>2023-10-01T08:17:53Z</time>
      </trkpt>
      <trkpt lat="47.12407" lon="6.2017">
        <ele>585</ele>
        <time>2023-10-01T08:17:55Z</time>
      </trkpt>
      <trkpt lat="47.12402" lon="6.20192">
        <ele>585.6</ele>
        <time>2023-10-01T08:17:59Z</time>
      </trkpt>
      <trkpt lat="47.12401" lon="6.20233">
        <ele>586.8</ele>
        <time>2023-10-01T08:18:06Z</time>
      </trkpt>
      <trkpt lat="47.12401" lon="6.20239">
        <ele>587</ele>
        <time>2023-10-01T08:18:07Z</time>
      </trkpt>
      <trkpt lat="47.124" lon="6.20264">
        <ele>587.8</ele>
        <time>2023-10-01T08:18:11Z</time>
      </trkpt>
      <trkpt lat="47.124" lon="6.20301">
        <ele>588.8</ele>
        <time>2023-10-01T08:18:17Z</time>
      </trkpt>
      <trkpt lat="47.124" lon="6.20326">
        <ele>590</ele>
        <time>2023-10-01T08:18:21Z</time>
      </trkpt>
      <trkpt lat="47.12402" lon="6.20351">
        <ele>590.8</ele>
        <time>2023-10-01T08:18:25Z</time>
      </trkpt>
      <trkpt lat="47.12403" lon="6.20364">
        <ele>591.2</ele>
        <time>2023-10-01T08:18:27Z</time>
      </trkpt>
      <trkpt lat="47.12405" lon="6.20389">
        <ele>592.4</ele>
        <time>2023-10-01T08:18:31Z</time>
      </trkpt>
      <trkpt lat="47.12407" lon="6.20408">
        <ele>593</ele>
        <time>2023-10-01T08:18:34Z</time>
      </trkpt>
      <trkpt lat="47.12409" lon="6.20433">
        <ele>593.4</ele>
        <time>2023-10-01T08:18:38Z</time>
      </trkpt>
      <trkpt lat="47.12411" lon="6.20458">
        <ele>594.6</ele>
        <time>2023-10-01T08:18:42Z</time>
      </trkpt>
      <trkpt lat="47.12416" lon="6.20502">
        <ele>595.6</ele>
        <time>2023-10-01T08:18:49Z</time>
      </trkpt>
      <trkpt lat="47.12418" lon="6.20514">
        <ele>596</ele>
        <time>2023-10-01T08:18:51Z</time>
      </trkpt>
      <trkpt lat="47.1242" lon="6.20532">
        <ele>596.6</ele>
        <time>2023-10-01T08:18:54Z</time>
      </trkpt>
      <trkpt lat="47.12423" lon="6.20567">
        <ele>596.4</ele>
        <time>2023-10-01T08:18:59Z</time>
      </trkpt>
      <trkpt lat="47.12422" lon="6.20601">
        <ele>595.6</ele>
        <time>2023-10-01T08:19:03Z</time>
      </trkpt>
      <trkpt lat="47.12422" lon="6.20611">
        <ele>595.2</ele>
        <time>2023-10-01T08:19:04Z</time>
      </trkpt>
      <trkpt lat="47.1242" lon="6.20632">
        <ele>594.4</ele>
        <time>2023-10-01T08:19:06Z</time>
      </trkpt>
      <trkpt lat="47.12419" lon="6.20652">
        <ele>593.4</ele>
        <time>2023-10-01T08:19:08Z</time>
      </trkpt>
      <trkpt lat="47.12418" lon="6.20674">
        <ele>592.2</ele>
        <time>2023-10-01T08:19:10Z</time>
      </trkpt>
      <trkpt lat="47.12417" lon="6.20685">
        <ele>591.4</ele>
        <time>2023-10-01T08:19:11Z</time>
      </trkpt>
      <trkpt lat="47.12417" lon="6.20697">
        <ele>590.8</ele>
        <time>2023-10-01T08:19:12Z</time>
      </trkpt>
      <trkpt lat="47.12415" lon="6.20731">
        <ele>589.6</ele>
        <time>2023-10-01T08:19:15Z</time>
      </trkpt>
      <trkpt lat="47.12414" lon="6.20754">
        <ele>588.6</ele>
        <time>2023-10-01T08:19:17Z</time>
      </trkpt>
      <trkpt lat="47.12412" lon="6.20766">
        <ele>588</ele>
        <time>2023-10-01T08:19:18Z</time>
      </trkpt>
      <trkpt lat="47.12411" lon="6.2079">
        <ele>586.8</ele>
        <time>2023-10-01T08:19:20Z</time>
      </trkpt>
      <trkpt lat="47.12409" lon="6.20825">
        <ele>585.6</ele>
        <time>2023-10-01T08:19:23Z</time>
      </trkpt>
      <trkpt lat="47.12409" lon="6.20836">
        <ele>585.4</ele>
        <time>2023-10-01T08:19:24Z</time>
      </trkpt>
      <trkpt lat="47.12413" lon="6.20883">
        <ele>585.6</ele>
        <time>2023-10-01T08:19:29Z</time>
      </trkpt>
      <trkpt lat="47.12422" lon="6.20919">
        <ele>586.6</ele>
        <time>2023-10-01T08:19:34Z</time>
      </trkpt>
      <trkpt lat="47.12432" lon="6.20937">
        <ele>587.8</ele>
        <time>2023-10-01T08:19:37Z</time>
      </trkpt>
      <trkpt lat="47.12438" lon="6.20948">
        <ele>588.4</ele>
        <time>2023-10-01T08:19:39Z</time>
      </trkpt>
      <trkpt lat="47.12441" lon="6.20955">
        <ele>588.6</ele>
        <time>2023-10-01T08:19:40Z</time>
      </trkpt>
      <trkpt lat="47.12443" lon="6.20961">
        <ele>588.8</ele>
        <time>2023-10-01T08:19:41Z</time>
      </trkpt>
      <trkpt lat="47.12453" lon="6.20979">
        <ele>589.4</ele>
        <time>2023-10-01T08:19:44Z</time>
      </trkpt>
      <trkpt lat="47.12456" lon="6.20984">
        <ele>589.8</ele>
        <time>2023-10-01T08:19:45Z</time>
      </trkpt>
      <trkpt lat="47.12468" lon="6.21006">
        <ele>591.2</ele>
        <time>2023-10-01T08:19:49Z</time>
      </trkpt>
      <trkpt lat="47.12475" lon="6.21014">
        <ele>591.6</ele>
        <time>2023-10-01T08:19:51Z</time>
      </trkpt>
      <trkpt lat="47.1249" lon="6.21027">
        <ele>592.2</ele>
        <time>2023-10-01T08:19:55Z</time>
      </trkpt>
      <trkpt lat="47.12505" lon="6.2104">
        <ele>593</ele>
        <time>2023-10-01T08:19:59Z</time>
      </trkpt>
      <trkpt lat="47.12522" lon="6.21055">
        <ele>593.2</ele>
        <time>2023-10-01T08:20:03Z</time>
      </trkpt>
      <trkpt lat="47.12549" lon="6.21076">
        <ele>593.6</ele>
        <time>2023-10-01T08:20:09Z</time>
      </trkpt>
      <trkpt lat="47.12586" lon="6.21106">
        <ele>594.2</ele>
        <time>2023-10-01T08:20:17Z</time>
      </trkpt>
      <trkpt lat="47.1259" lon="6.2111">
        <ele>594.2</ele>
        <time>2023-10-01T08:20:18Z</time>
      </trkpt>
      <trkpt lat="47.12625" lon="6.21141">
        <ele>595.4</ele>
        <time>2023-10-01T08:20:26Z</time>
      </trkpt>
      <trkpt lat="47.12668" lon="6.21175">
        <ele>595.6</ele>
        <time>2023-10-01T08:20:35Z</time>
      </trkpt>
      <trkpt lat="47.12714" lon="6.2121">
        <ele>594.8</ele>
        <time>2023-10-01T08:20:44Z</time>
      </trkpt>
      <trkpt lat="47.1273" lon="6.21223">
        <ele>594.2</ele>
        <time>2023-10-01T08:20:47Z</time>
      </trkpt>
      <trkpt lat="47.12747" lon="6.21236">
        <ele>593</ele>
        <time>2023-10-01T08:20:50Z</time>
      </trkpt>
      <trkpt lat="47.12753" lon="6.21241">
        <ele>592.8</ele>
        <time>2023-10-01T08:20:51Z</time>
      </trkpt>
      <trkpt lat="47.12771" lon="6.21256">
        <ele>591.8</ele>
        <time>2023-10-01T08:20:54Z</time>
      </trkpt>
      <trkpt lat="47.12785" lon="6.21269">
        <ele>590.6</ele>
        <time>2023-10-01T08:20:56Z</time>
      </trkpt>
      <trkpt lat="47.12792" lon="6.21276">
        <ele>589.6</ele>
        <time>2023-10-01T08:20:57Z</time>
      </trkpt>
      <trkpt lat="47.128" lon="6.21284">
        <ele>588.4</ele>
        <time>2023-10-01T08:20:58Z</time>
      </trkpt>
      <trkpt lat="47.12808" lon="6.21291">
        <ele>587.4</ele>
        <time>2023-10-01T08:20:59Z</time>
      </trkpt>
      <trkpt lat="47.12816" lon="6.21299">
        <ele>586.2</ele>
        <time>2023-10-01T08:21:00Z</time>
      </trkpt>
      <trkpt lat="47.12824" lon="6.21307">
        <ele>585.2</ele>
        <time>2023-10-01T08:21:01Z</time>
      </trkpt>
      <trkpt lat="47.12831" lon="6.21316">
        <ele>584.2</ele>
        <time>2023-10-01T08:21:02Z</time>
      </trkpt>
      <trkpt lat="47.12837" lon="6.21326">
        <ele>583.4</ele>
        <time>2023-10-01T08:21:03Z</time>
      </trkpt>
      <trkpt lat="47.12849" lon="6.21346">
        <ele>581.6</ele>
        <time>2023-10-01T08:21:05Z</time>
      </trkpt>
      <trkpt lat="47.12855" lon="6.21355">
        <ele>580.8</ele>
        <time>2023-10-01T08:21:06Z</time>
      </trkpt>
      <trkpt lat="47.12863" lon="6.21362">
        <ele>580</ele>
        <time>2023-10-01T08:21:07Z</time>
      </trkpt>
      <trkpt lat="47.12871" lon="6.2137">
        <ele>579.2</ele>
        <time>2023-10-01T08:21:08Z</time>
      </trkpt>
      <trkpt lat="47.12879" lon="6.21377">
        <ele>578.4</ele>
        <time>2023-10-01T08:21:09Z</time>
      </trkpt>
      <trkpt lat="47.12894" lon="6.21393">
        <ele>577.2</ele>
        <time>2023-10-01T08:21:11Z</time>
      </trkpt>
      <trkpt lat="47.12908" lon="6.21407">
        <ele>576.2</ele>
        <time>2023-10-01T08:21:13Z</time>
      </trkpt>
      <trkpt lat="47.12915" lon="6.21416">
        <ele>575.6</ele>
        <time>2023-10-01T08:21:14Z</time>
      </trkpt>
      <trkpt lat="47.1292" lon="6.21423">
        <ele>575</ele>
        <time>2023-10-01T08:21:15Z</time>
      </trkpt>
      <trkpt lat="47.12934" lon="6.21438">
        <ele>573.6</ele>
        <time>2023-10-01T08:21:18Z</time>
      </trkpt>
      <trkpt lat="47.12941" lon="6.21445">
        <ele>572.4</ele>
        <time>2023-10-01T08:21:20Z</time>
      </trkpt>
      <trkpt lat="47.12947" lon="6.21452">
        <ele>571.4</ele>
        <time>2023-10-01T08:21:22Z</time>
      </trkpt>
      <trkpt lat="47.12948" lon="6.21455">
        <ele>570.6</ele>
        <time>2023-10-01T08:21:23Z</time>
      </trkpt>
      <trkpt lat="47.1295" lon="6.21459">
        <ele>570</ele>
        <time>2023-10-01T08:21:24Z</time>
      </trkpt>
      <trkpt lat="47.12953" lon="6.2147">
        <ele>568.6</ele>
        <time>2023-10-01T08:21:26Z</time>
      </trkpt>
      <trkpt lat="47.12954" lon="6.21475">
        <ele>567.8</ele>
        <time>2023-10-01T08:21:27Z</time>
      </trkpt>
      <trkpt lat="47.12956" lon="6.2148">
        <ele>567</ele>
        <time>2023-10-01T08:21:28Z</time>
      </trkpt>
      <trkpt lat="47.12959" lon="6.21488">
        <ele>565.4</ele>
        <time>2023-10-01T08:21:30Z</time>
      </trkpt>
      <trkpt lat="47.12966" lon="6.21498">
        <ele>563.4</ele>
        <time>2023-10-01T08:21:32Z</time>
      </trkpt>
      <trkpt lat="47.12974" lon="6.21507">
        <ele>561.8</ele>
        <time>2023-10-01T08:21:34Z</time>
      </trkpt>
      <trkpt lat="47.12983" lon="6.21516">
        <ele>560.4</ele>
        <time>2023-10-01T08:21:36Z</time>
      </trkpt>
      <trkpt lat="47.12989" lon="6.2152">
        <ele>559.8</ele>
        <time>2023-10-01T08:21:37Z</time>
      </trkpt>
      <trkpt lat="47.13001" lon="6.21528">
        <ele>559.2</ele>
        <time>2023-10-01T08:21:39Z</time>
      </trkpt>
      <trkpt lat="47.13019" lon="6.21541">
        <ele>558.4</ele>
        <time>2023-10-01T08:21:42Z</time>
      </trkpt>
      <trkpt lat="47.13024" lon="6.21545">
        <ele>558.2</ele>
        <time>2023-10-01T08:21:43Z</time>
      </trkpt>
      <trkpt lat="47.13032" lon="6.21556">
        <ele>558</ele>
        <time>2023-10-01T08:21:45Z</time>
      </trkpt>
      <trkpt lat="47.13034" lon="6.21563">
        <ele>557.6</ele>
        <time>2023-10-01T08:21:46Z</time>
      </trkpt>
      <trkpt lat="47.13038" lon="6.21576">
        <ele>556.8</ele>
        <time>2023-10-01T08:21:48Z</time>
      </trkpt>
      <trkpt lat="47.1304" lon="6.21583">
        <ele>556.2</ele>
        <time>2023-10-01T08:21:49Z</time>
      </trkpt>
      <trkpt lat="47.13045" lon="6.21596">
        <ele>555.4</ele>
        <time>2023-10-01T08:21:51Z</time>
      </trkpt>
      <trkpt lat="47.13047" lon="6.21603">
        <ele>555</ele>
        <time>2023-10-01T08:21:52Z</time>
      </trkpt>
      <trkpt lat="47.13049" lon="6.2161">
        <ele>554.6</ele>
        <time>2023-10-01T08:21:53Z</time>
      </trkpt>
      <trkpt lat="47.13051" lon="6.21617">
        <ele>554.2</ele>
        <time>2023-10-01T08:21:54Z</time>
      </trkpt>
      <trkpt lat="47.1306" lon="6.2164">
        <ele>552.8</ele>
        <time>2023-10-01T08:21:57Z</time>
      </trkpt>
      <trkpt lat="47.13063" lon="6.21647">
        <ele>552.4</ele>
        <time>2023-10-01T08:21:58Z</time>
      </trkpt>
      <trkpt lat="47.13067" lon="6.21662">
        <ele>551.6</ele>
        <time>2023-10-01T08:22:00Z</time>
      </trkpt>
      <trkpt lat="47.13075" lon="6.21683">
        <ele>550.6</ele>
        <time>2023-10-01T08:22:03Z</time>
      </trkpt>
      <trkpt lat="47.13077" lon="6.2169">
        <ele>550</ele>
        <time>2023-10-01T08:22:04Z</time>
      </trkpt>
      <trkpt lat="47.13079" lon="6.21698">
        <ele>549.4</ele>
        <time>2023-10-01T08:22:05Z</time>
      </trkpt>
      <trkpt lat="47.13081" lon="6.21705">
        <ele>548.8</ele>
        <time>2023-10-01T08:22:06Z</time>
      </trkpt>
      <trkpt lat="47.13083" lon="6.21713">
        <ele>548.2</ele>
        <time>2023-10-01T08:22:07Z</time>
      </trkpt>
      <trkpt lat="47.13087" lon="6.21728">
        <ele>547</ele>
        <time>2023-10-01T08:22:09Z</time>
      </trkpt>
      <trkpt lat="47.13089" lon="6.21734">
        <ele>546.4</ele>
        <time>2023-10-01T08:22:10Z</time>
      </trkpt>
      <trkpt lat="47.13092" lon="6.21742">
        <ele>546</ele>
        <time>2023-10-01T08:22:11Z</time>
      </trkpt>
      <trkpt lat="47.13098" lon="6.21755">
        <ele>544.4</ele>
        <time>2023-10-01T08:22:13Z</time>
      </trkpt>
      <trkpt lat="47.13101" lon="6.21763">
        <ele>543.6</ele>
        <time>2023-10-01T08:22:14Z</time>
      </trkpt>
      <trkpt lat="47.13104" lon="6.2177">
        <ele>542.6</ele>
        <time>2023-10-01T08:22:15Z</time>
      </trkpt>
      <trkpt lat="47.13112" lon="6.21791">
        <ele>541.2</ele>
        <time>2023-10-01T08:22:18Z</time>
      </trkpt>
      <trkpt lat="47.13118" lon="6.21802">
        <ele>541</ele>
        <time>2023-10-01T08:22:20Z</time>
      </trkpt>
      <trkpt lat="47.13119" lon="6.21817">
        <ele>540</ele>
        <time>2023-10-01T08:22:24Z</time>
      </trkpt>
      <trkpt lat="47.1312" lon="6.21822">
        <ele>539.8</ele>
        <time>2023-10-01T08:22:25Z</time>
      </trkpt>
      <trkpt lat="47.13122" lon="6.21827">
        <ele>539.4</ele>
        <time>2023-10-01T08:22:26Z</time>
      </trkpt>
      <trkpt lat="47.13123" lon="6.2183">
        <ele>538.8</ele>
        <time>2023-10-01T08:22:27Z</time>
      </trkpt>
      <trkpt lat="47.13124" lon="6.21832">
        <ele>537.8</ele>
        <time>2023-10-01T08:22:28Z</time>
      </trkpt>
      <trkpt lat="47.13129" lon="6.21841">
        <ele>536.6</ele>
        <time>2023-10-01T08:22:32Z</time>
      </trkpt>
      <trkpt lat="47.13132" lon="6.21843">
        <ele>536.2</ele>
        <time>2023-10-01T08:22:33Z</time>
      </trkpt>
      <trkpt lat="47.13133" lon="6.21845">
        <ele>535.8</ele>
        <time>2023-10-01T08:22:34Z</time>
      </trkpt>
      <trkpt lat="47.1314" lon="6.21853">
        <ele>535</ele>
        <time>2023-10-01T08:22:38Z</time>
      </trkpt>
      <trkpt lat="47.1314" lon="6.21857">
        <ele>534.4</ele>
        <time>2023-10-01T08:22:39Z</time>
      </trkpt>
      <trkpt lat="47.1314" lon="6.2186">
        <ele>533.6</ele>
        <time>2023-10-01T08:22:40Z</time>
      </trkpt>
      <trkpt lat="47.13141" lon="6.21867">
        <ele>531.8</ele>
        <time>2023-10-01T08:22:42Z</time>
      </trkpt>
      <trkpt lat="47.13145" lon="6.21877">
        <ele>530.4</ele>
        <time>2023-10-01T08:22:44Z</time>
      </trkpt>
      <trkpt lat="47.13149" lon="6.21885">
        <ele>528.8</ele>
        <time>2023-10-01T08:22:46Z</time>
      </trkpt>
      <trkpt lat="47.13152" lon="6.21892">
        <ele>527.6</ele>
        <time>2023-10-01T08:22:48Z</time>
      </trkpt>
      <trkpt lat="47.13153" lon="6.21896">
        <ele>527.2</ele>
        <time>2023-10-01T08:22:49Z</time>
      </trkpt>
      <trkpt lat="47.13152" lon="6.21897">
        <ele>526.6</ele>
        <time>2023-10-01T08:22:50Z</time>
      </trkpt>
      <trkpt lat="47.13151" lon="6.21898">
        <ele>525.4</ele>
        <time>2023-10-01T08:22:52Z</time>
      </trkpt>
      <trkpt lat="47.13149" lon="6.21899">
        <ele>524.6</ele>
        <time>2023-10-01T08:22:54Z</time>
      </trkpt>
      <trkpt lat="47.13148" lon="6.21899">
        <ele>524.2</ele>
        <time>2023-10-01T08:22:55Z</time>
      </trkpt>
      <trkpt lat="47.13137" lon="6.21899">
        <ele>522.8</ele>
        <time>2023-10-01T08:23:00Z</time>
      </trkpt>
      <trkpt lat="47.13134" lon="6.21898">
        <ele>522.6</ele>
        <time>2023-10-01T08:23:01Z</time>
      </trkpt>
      <trkpt lat="47.13124" lon="6.21899">
        <ele>524.2</ele>
        <time>2023-10-01T08:23:04Z</time>
      </trkpt>
      <trkpt lat="47.13113" lon="6.21898">
        <ele>525.8</ele>
        <time>2023-10-01T08:23:07Z</time>
      </trkpt>
      <trkpt lat="47.13101" lon="6.21896">
        <ele>527</ele>
        <time>2023-10-01T08:23:10Z</time>
      </trkpt>
      <trkpt lat="47.1309" lon="6.21895">
        <ele>527.6</ele>
        <time>2023-10-01T08:23:13Z</time>
      </trkpt>
      <trkpt lat="47.13086" lon="6.21895">
        <ele>528</ele>
        <time>2023-10-01T08:23:14Z</time>
      </trkpt>
      <trkpt lat="47.13076" lon="6.21892">
        <ele>529.6</ele>
        <time>2023-10-01T08:23:17Z</time>
      </trkpt>
      <trkpt lat="47.13065" lon="6.21887">
        <ele>530.6</ele>
        <time>2023-10-01T08:23:20Z</time>
      </trkpt>
      <trkpt lat="47.13042" lon="6.21873">
        <ele>531.6</ele>
        <time>2023-10-01T08:23:27Z</time>
      </trkpt>
      <trkpt lat="47.13039" lon="6.2187">
        <ele>531.8</ele>
        <time>2023-10-01T08:23:28Z</time>
      </trkpt>
      <trkpt lat="47.1303" lon="6.21862">
        <ele>532.8</ele>
        <time>2023-10-01T08:23:31Z</time>
      </trkpt>
      <trkpt lat="47.13021" lon="6.21857">
        <ele>533.4</ele>
        <time>2023-10-01T08:23:34Z</time>
      </trkpt>
      <trkpt lat="47.13015" lon="6.21855">
        <ele>533.8</ele>
        <time>2023-10-01T08:23:36Z</time>
      </trkpt>
      <trkpt lat="47.1301" lon="6.21853">
        <ele>535</ele>
        <time>2023-10-01T08:23:39Z</time>
      </trkpt>
      <trkpt lat="47.13003" lon="6.21852">
        <ele>536.4</ele>
        <time>2023-10-01T08:23:42Z</time>
      </trkpt>
      <trkpt lat="47.12995" lon="6.2185">
        <ele>537.4</ele>
        <time>2023-10-01T08:23:45Z</time>
      </trkpt>
      <trkpt lat="47.12988" lon="6.2185">
        <ele>538.8</ele>
        <time>2023-10-01T08:23:47Z</time>
      </trkpt>
      <trkpt lat="47.12982" lon="6.2185">
        <ele>540.2</ele>
        <time>2023-10-01T08:23:49Z</time>
      </trkpt>
      <trkpt lat="47.12975" lon="6.21851">
        <ele>541.4</ele>
        <time>2023-10-01T08:23:51Z</time>
      </trkpt>
      <trkpt lat="47.12972" lon="6.21853">
        <ele>542</ele>
        <time>2023-10-01T08:23:52Z</time>
      </trkpt>
      <trkpt lat="47.12967" lon="6.21855">
        <ele>542.6</ele>
        <time>2023-10-01T08:23:54Z</time>
      </trkpt>
      <trkpt lat="47.1296" lon="6.21859">
        <ele>542.8</ele>
        <time>2023-10-01T08:23:56Z</time>
      </trkpt>
      <trkpt lat="47.12955" lon="6.21863">
        <ele>543.6</ele>
        <time>2023-10-01T08:23:58Z</time>
      </trkpt>
      <trkpt lat="47.1295" lon="6.21865">
        <ele>544.6</ele>
        <time>2023-10-01T08:24:00Z</time>
      </trkpt>
      <trkpt lat="47.12947" lon="6.21865">
        <ele>545</ele>
        <time>2023-10-01T08:24:01Z</time>
      </trkpt>
      <trkpt lat="47.12941" lon="6.21864">
        <ele>546.4</ele>
        <time>2023-10-01T08:24:03Z</time>
      </trkpt>
      <trkpt lat="47.12932" lon="6.2186">
        <ele>547</ele>
        <time>2023-10-01T08:24:06Z</time>
      </trkpt>
      <trkpt lat="47.12927" lon="6.21858">
        <ele>547.6</ele>
        <time>2023-10-01T08:24:08Z</time>
      </trkpt>
      <trkpt lat="47.12916" lon="6.21853">
        <ele>548.6</ele>
        <time>2023-10-01T08:24:13Z</time>
      </trkpt>
      <trkpt lat="47.12899" lon="6.21853">
        <ele>549.6</ele>
        <time>2023-10-01T08:24:20Z</time>
      </trkpt>
      <trkpt lat="47.12894" lon="6.21857">
        <ele>550.6</ele>
        <time>2023-10-01T08:24:23Z</time>
      </trkpt>
      <trkpt lat="47.12886" lon="6.21861">
        <ele>551.8</ele>
        <time>2023-10-01T08:24:27Z</time>
      </trkpt>
      <trkpt lat="47.12877" lon="6.21867">
        <ele>552</ele>
        <time>2023-10-01T08:24:33Z</time>
      </trkpt>
      <trkpt lat="47.1287" lon="6.21872">
        <ele>553.8</ele>
        <time>2023-10-01T08:24:36Z</time>
      </trkpt>
      <trkpt lat="47.12865" lon="6.21875">
        <ele>555.6</ele>
        <time>2023-10-01T08:24:38Z</time>
      </trkpt>
      <trkpt lat="47.12862" lon="6.21876">
        <ele>556.4</ele>
        <time>2023-10-01T08:24:39Z</time>
      </trkpt>
      <trkpt lat="47.1286" lon="6.21876">
        <ele>557</ele>
        <time>2023-10-01T08:24:40Z</time>
      </trkpt>
      <trkpt lat="47.12853" lon="6.21882">
        <ele>558.2</ele>
        <time>2023-10-01T08:24:43Z</time>
      </trkpt>
      <trkpt lat="47.12851" lon="6.21885">
        <ele>558.4</ele>
        <time>2023-10-01T08:24:44Z</time>
      </trkpt>
      <trkpt lat="47.12845" lon="6.21904">
        <ele>558.8</ele>
        <time>2023-10-01T08:24:51Z</time>
      </trkpt>
      <trkpt lat="47.12846" lon="6.21909">
        <ele>559.2</ele>
        <time>2023-10-01T08:24:53Z</time>
      </trkpt>
      <trkpt lat="47.12847" lon="6.21914">
        <ele>560.2</ele>
        <time>2023-10-01T08:24:55Z</time>
      </trkpt>
      <trkpt lat="47.12848" lon="6.21919">
        <ele>561.6</ele>
        <time>2023-10-01T08:24:57Z</time>
      </trkpt>
      <trkpt lat="47.12849" lon="6.21921">
        <ele>562.2</ele>
        <time>2023-10-01T08:24:58Z</time>
      </trkpt>
      <trkpt lat="47.12851" lon="6.21925">
        <ele>562.8</ele>
        <time>2023-10-01T08:25:00Z</time>
      </trkpt>
      <trkpt lat="47.12856" lon="6.21934">
        <ele>563.6</ele>
        <time>2023-10-01T08:25:04Z</time>
      </trkpt>
      <trkpt lat="47.12857" lon="6.21937">
        <ele>563.8</ele>
        <time>2023-10-01T08:25:05Z</time>
      </trkpt>
      <trkpt lat="47.12862" lon="6.21946">
        <ele>565</ele>
        <time>2023-10-01T08:25:08Z</time>
      </trkpt>
      <trkpt lat="47.12864" lon="6.21955">
        <ele>566.4</ele>
        <time>2023-10-01T08:25:10Z</time>
      </trkpt>
      <trkpt lat="47.12864" lon="6.2196">
        <ele>567</ele>
        <time>2023-10-01T08:25:11Z</time>
      </trkpt>
      <trkpt lat="47.12866" lon="6.2197">
        <ele>568.6</ele>
        <time>2023-10-01T08:25:13Z</time>
      </trkpt>
      <trkpt lat="47.12867" lon="6.21977">
        <ele>569.6</ele>
        <time>2023-10-01T08:25:15Z</time>
      </trkpt>
      <trkpt lat="47.12866" lon="6.21981">
        <ele>570</ele>
        <time>2023-10-01T08:25:17Z</time>
      </trkpt>
      <trkpt lat="47.12866" lon="6.21985">
        <ele>570.8</ele>
        <time>2023-10-01T08:25:18Z</time>
      </trkpt>
      <trkpt lat="47.12865" lon="6.21987">
        <ele>571.6</ele>
        <time>2023-10-01T08:25:19Z</time>
      </trkpt>
      <trkpt lat="47.12864" lon="6.21991">
        <ele>572.4</ele>
        <time>2023-10-01T08:25:20Z</time>
      </trkpt>
      <trkpt lat="47.12863" lon="6.21998">
        <ele>573.4</ele>
        <time>2023-10-01T08:25:23Z</time>
      </trkpt>
      <trkpt lat="47.12861" lon="6.22003">
        <ele>574</ele>
        <time>2023-10-01T08:25:25Z</time>
      </trkpt>
      <trkpt lat="47.12861" lon="6.22006">
        <ele>575</ele>
        <time>2023-10-01T08:25:26Z</time>
      </trkpt>
      <trkpt lat="47.12859" lon="6.22013">
        <ele>576.4</ele>
        <time>2023-10-01T08:25:28Z</time>
      </trkpt>
      <trkpt lat="47.12858" lon="6.22019">
        <ele>577.6</ele>
        <time>2023-10-01T08:25:30Z</time>
      </trkpt>
      <trkpt lat="47.12859" lon="6.22023">
        <ele>577.6</ele>
        <time>2023-10-01T08:25:31Z</time>
      </trkpt>
      <trkpt lat="47.12857" lon="6.22033">
        <ele>578.8</ele>
        <time>2023-10-01T08:25:34Z</time>
      </trkpt>
      <trkpt lat="47.12854" lon="6.2204">
        <ele>580</ele>
        <time>2023-10-01T08:25:36Z</time>
      </trkpt>
      <trkpt lat="47.12851" lon="6.22048">
        <ele>580.4</ele>
        <time>2023-10-01T08:25:38Z</time>
      </trkpt>
      <trkpt lat="47.12848" lon="6.22055">
        <ele>581</ele>
        <time>2023-10-01T08:25:40Z</time>
      </trkpt>
      <trkpt lat="47.12846" lon="6.22062">
        <ele>582.4</ele>
        <time>2023-10-01T08:25:42Z</time>
      </trkpt>
      <trkpt lat="47.12843" lon="6.22073">
        <ele>583.6</ele>
        <time>2023-10-01T08:25:45Z</time>
      </trkpt>
      <trkpt lat="47.12841" lon="6.22081">
        <ele>585.4</ele>
        <time>2023-10-01T08:25:47Z</time>
      </trkpt>
      <trkpt lat="47.12838" lon="6.22091">
        <ele>586.6</ele>
        <time>2023-10-01T08:25:50Z</time>
      </trkpt>
      <trkpt lat="47.12835" lon="6.22098">
        <ele>587.4</ele>
        <time>2023-10-01T08:25:52Z</time>
      </trkpt>
      <trkpt lat="47.12833" lon="6.22105">
        <ele>587.8</ele>
        <time>2023-10-01T08:25:54Z</time>
      </trkpt>
      <trkpt lat="47.12824" lon="6.22121">
        <ele>588.8</ele>
        <time>2023-10-01T08:26:00Z</time>
      </trkpt>
      <trkpt lat="47.12822" lon="6.22124">
        <ele>589</ele>
        <time>2023-10-01T08:26:01Z</time>
      </trkpt>
      <trkpt lat="47.12816" lon="6.22143">
        <ele>589.6</ele>
        <time>2023-10-01T08:26:08Z</time>
      </trkpt>
      <trkpt lat="47.12813" lon="6.22161">
        <ele>589.4</ele>
        <time>2023-10-01T08:26:14Z</time>
      </trkpt>
      <trkpt lat="47.1281" lon="6.22177">
        <ele>589.4</ele>
        <time>2023-10-01T08:26:20Z</time>
      </trkpt>
      <trkpt lat="47.12807" lon="6.2219">
        <ele>590</ele>
        <time>2023-10-01T08:26:23Z</time>
      </trkpt>
      <trkpt lat="47.12804" lon="6.22206">
        <ele>590.8</ele>
        <time>2023-10-01T08:26:26Z</time>
      </trkpt>
      <trkpt lat="47.12803" lon="6.22212">
        <ele>591.2</ele>
        <time>2023-10-01T08:26:27Z</time>
      </trkpt>
      <trkpt lat="47.12798" lon="6.22234">
        <ele>590.8</ele>
        <time>2023-10-01T08:26:33Z</time>
      </trkpt>
      <trkpt lat="47.12793" lon="6.22253">
        <ele>592.4</ele>
        <time>2023-10-01T08:26:38Z</time>
      </trkpt>
      <trkpt lat="47.12783" lon="6.22277">
        <ele>592</ele>
        <time>2023-10-01T08:26:44Z</time>
      </trkpt>
      <trkpt lat="47.1277" lon="6.22301">
        <ele>593.8</ele>
        <time>2023-10-01T08:26:50Z</time>
      </trkpt>
      <trkpt lat="47.12767" lon="6.22309">
        <ele>594</ele>
        <time>2023-10-01T08:26:52Z</time>
      </trkpt>
      <trkpt lat="47.12758" lon="6.22334">
        <ele>594.8</ele>
        <time>2023-10-01T08:26:58Z</time>
      </trkpt>
      <trkpt lat="47.12756" lon="6.22343">
        <ele>595.2</ele>
        <time>2023-10-01T08:27:00Z</time>
      </trkpt>
      <trkpt lat="47.1275" lon="6.22374">
        <ele>595.8</ele>
        <time>2023-10-01T08:27:06Z</time>
      </trkpt>
      <trkpt lat="47.12748" lon="6.22384">
        <ele>596</ele>
        <time>2023-10-01T08:27:08Z</time>
      </trkpt>
      <trkpt lat="47.12739" lon="6.22418">
        <ele>596</ele>
        <time>2023-10-01T08:27:15Z</time>
      </trkpt>
      <trkpt lat="47.12727" lon="6.22442">
        <ele>596.4</ele>
        <time>2023-10-01T08:27:21Z</time>
      </trkpt>
      <trkpt lat="47.12709" lon="6.22453">
        <ele>596.6</ele>
        <time>2023-10-01T08:27:27Z</time>
      </trkpt>
      <trkpt lat="47.1268" lon="6.22461">
        <ele>596.4</ele>
        <time>2023-10-01T08:27:36Z</time>
      </trkpt>
      <trkpt lat="47.1267" lon="6.22462">
        <ele>597</ele>
        <time>2023-10-01T08:27:39Z</time>
      </trkpt>
      <trkpt lat="47.12658" lon="6.22464">
        <ele>598</ele>
        <time>2023-10-01T08:27:43Z</time>
      </trkpt>
      <trkpt lat="47.12648" lon="6.22465">
        <ele>598.4</ele>
        <time>2023-10-01T08:27:46Z</time>
      </trkpt>
      <trkpt lat="47.1262" lon="6.22461">
        <ele>598.8</ele>
        <time>2023-10-01T08:27:54Z</time>
      </trkpt>
      <trkpt lat="47.12607" lon="6.22462">
        <ele>599.2</ele>
        <time>2023-10-01T08:27:58Z</time>
      </trkpt>
      <trkpt lat="47.12598" lon="6.22464">
        <ele>599.4</ele>
        <time>2023-10-01T08:28:01Z</time>
      </trkpt>
      <trkpt lat="47.12573" lon="6.22477">
        <ele>599.6</ele>
        <time>2023-10-01T08:28:08Z</time>
      </trkpt>
      <trkpt lat="47.12556" lon="6.2249">
        <ele>600.2</ele>
        <time>2023-10-01T08:28:13Z</time>
      </trkpt>
      <trkpt lat="47.1255" lon="6.22495">
        <ele>600.6</ele>
        <time>2023-10-01T08:28:15Z</time>
      </trkpt>
      <trkpt lat="47.12545" lon="6.22501">
        <ele>601.4</ele>
        <time>2023-10-01T08:28:17Z</time>
      </trkpt>
      <trkpt lat="47.12534" lon="6.22511">
        <ele>602.4</ele>
        <time>2023-10-01T08:28:21Z</time>
      </trkpt>
      <trkpt lat="47.12528" lon="6.22518">
        <ele>603.2</ele>
        <time>2023-10-01T08:28:23Z</time>
      </trkpt>
      <trkpt lat="47.12525" lon="6.22522">
        <ele>603.8</ele>
        <time>2023-10-01T08:28:24Z</time>
      </trkpt>
      <trkpt lat="47.1252" lon="6.22531">
        <ele>604.8</ele>
        <time>2023-10-01T08:28:26Z</time>
      </trkpt>
      <trkpt lat="47.12515" lon="6.2254">
        <ele>606</ele>
        <time>2023-10-01T08:28:28Z</time>
      </trkpt>
      <trkpt lat="47.12505" lon="6.22559">
        <ele>607</ele>
        <time>2023-10-01T08:28:32Z</time>
      </trkpt>
      <trkpt lat="47.12495" lon="6.22577">
        <ele>608.2</ele>
        <time>2023-10-01T08:28:36Z</time>
      </trkpt>
      <trkpt lat="47.12488" lon="6.22591">
        <ele>609</ele>
        <time>2023-10-01T08:28:39Z</time>
      </trkpt>
      <trkpt lat="47.1247" lon="6.2262">
        <ele>609.4</ele>
        <time>2023-10-01T08:28:45Z</time>
      </trkpt>
      <trkpt lat="47.12467" lon="6.22625">
        <ele>609.4</ele>
        <time>2023-10-01T08:28:46Z</time>
      </trkpt>
      <trkpt lat="47.12443" lon="6.22665">
        <ele>610.2</ele>
        <time>2023-10-01T08:28:53Z</time>
      </trkpt>
      <trkpt lat="47.12418" lon="6.227">
        <ele>610</ele>
        <time>2023-10-01T08:28:59Z</time>
      </trkpt>
      <trkpt lat="47.12397" lon="6.2274">
        <ele>609.2</ele>
        <time>2023-10-01T08:29:05Z</time>
      </trkpt>
      <trkpt lat="47.12377" lon="6.22787">
        <ele>609.2</ele>
        <time>2023-10-01T08:29:11Z</time>
      </trkpt>
      <trkpt lat="47.12354" lon="6.22856">
        <ele>608.8</ele>
        <time>2023-10-01T08:29:19Z</time>
      </trkpt>
      <trkpt lat="47.12329" lon="6.22913">
        <ele>609</ele>
        <time>2023-10-01T08:29:26Z</time>
      </trkpt>
      <trkpt lat="47.12297" lon="6.22959">
        <ele>609.6</ele>
        <time>2023-10-01T08:29:33Z</time>
      </trkpt>
      <trkpt lat="47.12268" lon="6.2299">
        <ele>609.8</ele>
        <time>2023-10-01T08:29:39Z</time>
      </trkpt>
      <trkpt lat="47.1226" lon="6.22997">
        <ele>609.8</ele>
        <time>2023-10-01T08:29:41Z</time>
      </trkpt>
      <trkpt lat="47.12253" lon="6.22998">
        <ele>610</ele>
        <time>2023-10-01T08:29:43Z</time>
      </trkpt>
      <trkpt lat="47.12245" lon="6.22997">
        <ele>609.8</ele>
        <time>2023-10-01T08:29:45Z</time>
      </trkpt>
      <trkpt lat="47.12228" lon="6.22995">
        <ele>609.4</ele>
        <time>2023-10-01T08:29:49Z</time>
      </trkpt>
      <trkpt lat="47.12184" lon="6.22992">
        <ele>608.4</ele>
        <time>2023-10-01T08:29:58Z</time>
      </trkpt>
      <trkpt lat="47.12179" lon="6.22991">
        <ele>608</ele>
        <time>2023-10-01T08:29:59Z</time>
      </trkpt>
      <trkpt lat="47.12165" lon="6.2298">
        <ele>607</ele>
        <time>2023-10-01T08:30:02Z</time>
      </trkpt>
      <trkpt lat="47.1216" lon="6.22975">
        <ele>606.4</ele>
        <time>2023-10-01T08:30:03Z</time>
      </trkpt>
      <trkpt lat="47.12149" lon="6.22964">
        <ele>605.4</ele>
        <time>2023-10-01T08:30:05Z</time>
      </trkpt>
      <trkpt lat="47.12143" lon="6.22957">
        <ele>605</ele>
        <time>2023-10-01T08:30:06Z</time>
      </trkpt>
      <trkpt lat="47.12134" lon="6.22941">
        <ele>604</ele>
        <time>2023-10-01T08:30:08Z</time>
      </trkpt>
      <trkpt lat="47.12127" lon="6.22926">
        <ele>603</ele>
        <time>2023-10-01T08:30:10Z</time>
      </trkpt>
      <trkpt lat="47.12124" lon="6.22921">
        <ele>602.4</ele>
        <time>2023-10-01T08:30:11Z</time>
      </trkpt>
      <trkpt lat="47.12121" lon="6.22917">
        <ele>601.8</ele>
        <time>2023-10-01T08:30:12Z</time>
      </trkpt>
      <trkpt lat="47.12119" lon="6.22914">
        <ele>601.2</ele>
        <time>2023-10-01T08:30:13Z</time>
      </trkpt>
      <trkpt lat="47.12116" lon="6.22912">
        <ele>600.6</ele>
        <time>2023-10-01T08:30:14Z</time>
      </trkpt>
      <trkpt lat="47.12112" lon="6.22905">
        <ele>599.2</ele>
        <time>2023-10-01T08:30:16Z</time>
      </trkpt>
      <trkpt lat="47.12111" lon="6.22897">
        <ele>598</ele>
        <time>2023-10-01T08:30:18Z</time>
      </trkpt>
      <trkpt lat="47.12109" lon="6.22892">
        <ele>597.2</ele>
        <time>2023-10-01T08:30:19Z</time>
      </trkpt>
      <trkpt lat="47.12108" lon="6.22886">
        <ele>596.4</ele>
        <time>2023-10-01T08:30:20Z</time>
      </trkpt>
      <trkpt lat="47.12106" lon="6.22877">
        <ele>595</ele>
        <time>2023-10-01T08:30:22Z</time>
      </trkpt>
      <trkpt lat="47.12104" lon="6.2287">
        <ele>593.4</ele>
        <time>2023-10-01T08:30:24Z</time>
      </trkpt>
      <trkpt lat="47.12103" lon="6.22865">
        <ele>592.6</ele>
        <time>2023-10-01T08:30:25Z</time>
      </trkpt>
      <trkpt lat="47.12102" lon="6.22861">
        <ele>592</ele>
        <time>2023-10-01T08:30:26Z</time>
      </trkpt>
      <trkpt lat="47.121" lon="6.22853">
        <ele>590.6</ele>
        <time>2023-10-01T08:30:28Z</time>
      </trkpt>
      <trkpt lat="47.12096" lon="6.22844">
        <ele>589.4</ele>
        <time>2023-10-01T08:30:30Z</time>
      </trkpt>
      <trkpt lat="47.12093" lon="6.2284">
        <ele>589</ele>
        <time>2023-10-01T08:30:31Z</time>
      </trkpt>
      <trkpt lat="47.12091" lon="6.22835">
        <ele>588.4</ele>
        <time>2023-10-01T08:30:32Z</time>
      </trkpt>
      <trkpt lat="47.12087" lon="6.22827">
        <ele>587</ele>
        <time>2023-10-01T08:30:34Z</time>
      </trkpt>
      <trkpt lat="47.12082" lon="6.22818">
        <ele>585.8</ele>
        <time>2023-10-01T08:30:36Z</time>
      </trkpt>
      <trkpt lat="47.12075" lon="6.22806">
        <ele>584.4</ele>
        <time>2023-10-01T08:30:39Z</time>
      </trkpt>
      <trkpt lat="47.12072" lon="6.22803">
        <ele>583.8</ele>
        <time>2023-10-01T08:30:40Z</time>
      </trkpt>
      <trkpt lat="47.1207" lon="6.22799">
        <ele>583.4</ele>
        <time>2023-10-01T08:30:41Z</time>
      </trkpt>
      <trkpt lat="47.12064" lon="6.22792">
        <ele>582.2</ele>
        <time>2023-10-01T08:30:43Z</time>
      </trkpt>
      <trkpt lat="47.12059" lon="6.22784">
        <ele>581</ele>
        <time>2023-10-01T08:30:45Z</time>
      </trkpt>
      <trkpt lat="47.12053" lon="6.22774">
        <ele>580</ele>
        <time>2023-10-01T08:30:47Z</time>
      </trkpt>
      <trkpt lat="47.12048" lon="6.22769">
        <ele>579.6</ele>
        <time>2023-10-01T08:30:48Z</time>
      </trkpt>
      <trkpt lat="47.12035" lon="6.2275">
        <ele>578.8</ele>
        <time>2023-10-01T08:30:52Z</time>
      </trkpt>
      <trkpt lat="47.1203" lon="6.22742">
        <ele>578.4</ele>
        <time>2023-10-01T08:30:53Z</time>
      </trkpt>
      <trkpt lat="47.12022" lon="6.22727">
        <ele>577.6</ele>
        <time>2023-10-01T08:30:55Z</time>
      </trkpt>
      <trkpt lat="47.12013" lon="6.22706">
        <ele>576.2</ele>
        <time>2023-10-01T08:30:58Z</time>
      </trkpt>
      <trkpt lat="47.12002" lon="6.22686">
        <ele>575</ele>
        <time>2023-10-01T08:31:01Z</time>
      </trkpt>
      <trkpt lat="47.11991" lon="6.22667">
        <ele>573.6</ele>
        <time>2023-10-01T08:31:04Z</time>
      </trkpt>
      <trkpt lat="47.1198" lon="6.22646">
        <ele>572.4</ele>
        <time>2023-10-01T08:31:07Z</time>
      </trkpt>
      <trkpt lat="47.11973" lon="6.22632">
        <ele>571.2</ele>
        <time>2023-10-01T08:31:09Z</time>
      </trkpt>
      <trkpt lat="47.1197" lon="6.22624">
        <ele>570.8</ele>
        <time>2023-10-01T08:31:10Z</time>
      </trkpt>
      <trkpt lat="47.11963" lon="6.22609">
        <ele>569.8</ele>
        <time>2023-10-01T08:31:12Z</time>
      </trkpt>
      <trkpt lat="47.11954" lon="6.22588">
        <ele>568.6</ele>
        <time>2023-10-01T08:31:15Z</time>
      </trkpt>
      <trkpt lat="47.1195" lon="6.2258">
        <ele>568.4</ele>
        <time>2023-10-01T08:31:16Z</time>
      </trkpt>
      <trkpt lat="47.11936" lon="6.22558">
        <ele>567.6</ele>
        <time>2023-10-01T08:31:19Z</time>
      </trkpt>
      <trkpt lat="47.11922" lon="6.22538">
        <ele>566.6</ele>
        <time>2023-10-01T08:31:22Z</time>
      </trkpt>
      <trkpt lat="47.119" lon="6.22505">
        <ele>569.4</ele>
        <time>2023-10-01T08:31:26Z</time>
      </trkpt>
      <trkpt lat="47.11896" lon="6.22496">
        <ele>570.4</ele>
        <time>2023-10-01T08:31:27Z</time>
      </trkpt>
      <trkpt lat="47.11891" lon="6.22489">
        <ele>571.2</ele>
        <time>2023-10-01T08:31:28Z</time>
      </trkpt>
      <trkpt lat="47.11881" lon="6.22472">
        <ele>572.4</ele>
        <time>2023-10-01T08:31:31Z</time>
      </trkpt>
      <trkpt lat="47.11877" lon="6.22468">
        <ele>572.8</ele>
        <time>2023-10-01T08:31:32Z</time>
      </trkpt>
      <trkpt lat="47.11869" lon="6.2246">
        <ele>573.6</ele>
        <time>2023-10-01T08:31:34Z</time>
      </trkpt>
      <trkpt lat="47.11856" lon="6.22447">
        <ele>574.6</ele>
        <time>2023-10-01T08:31:38Z</time>
      </trkpt>
      <trkpt lat="47.11847" lon="6.22439">
        <ele>575</ele>
        <time>2023-10-01T08:31:40Z</time>
      </trkpt>
      <trkpt lat="47.11835" lon="6.22428">
        <ele>575.8</ele>
        <time>2023-10-01T08:31:43Z</time>
      </trkpt>
      <trkpt lat="47.11827" lon="6.22421">
        <ele>576.4</ele>
        <time>2023-10-01T08:31:45Z</time>
      </trkpt>
      <trkpt lat="47.11819" lon="6.22416">
        <ele>577.2</ele>
        <time>2023-10-01T08:31:47Z</time>
      </trkpt>
      <trkpt lat="47.11807" lon="6.22409">
        <ele>578.6</ele>
        <time>2023-10-01T08:31:50Z</time>
      </trkpt>
      <trkpt lat="47.11798" lon="6.22402">
        <ele>579.8</ele>
        <time>2023-10-01T08:31:53Z</time>
      </trkpt>
      <trkpt lat="47.11795" lon="6.224">
        <ele>580.2</ele>
        <time>2023-10-01T08:31:54Z</time>
      </trkpt>
      <trkpt lat="47.11789" lon="6.22397">
        <ele>581</ele>
        <time>2023-10-01T08:31:56Z</time>
      </trkpt>
      <trkpt lat="47.11776" lon="6.2239">
        <ele>582.4</ele>
        <time>2023-10-01T08:32:00Z</time>
      </trkpt>
      <trkpt lat="47.11769" lon="6.22386">
        <ele>583.4</ele>
        <time>2023-10-01T08:32:03Z</time>
      </trkpt>
      <trkpt lat="47.11764" lon="6.22384">
        <ele>584.2</ele>
        <time>2023-10-01T08:32:05Z</time>
      </trkpt>
      <trkpt lat="47.11762" lon="6.22383">
        <ele>584.6</ele>
        <time>2023-10-01T08:32:06Z</time>
      </trkpt>
      <trkpt lat="47.11758" lon="6.22381">
        <ele>585.6</ele>
        <time>2023-10-01T08:32:08Z</time>
      </trkpt>
      <trkpt lat="47.11751" lon="6.22377">
        <ele>587</ele>
        <time>2023-10-01T08:32:11Z</time>
      </trkpt>
      <trkpt lat="47.11748" lon="6.22376">
        <ele>587.4</ele>
        <time>2023-10-01T08:32:12Z</time>
      </trkpt>
      <trkpt lat="47.11744" lon="6.22374">
        <ele>588.4</ele>
        <time>2023-10-01T08:32:14Z</time>
      </trkpt>
      <trkpt lat="47.11737" lon="6.22372">
        <ele>589.6</ele>
        <time>2023-10-01T08:32:17Z</time>
      </trkpt>
      <trkpt lat="47.11733" lon="6.22369">
        <ele>590.6</ele>
        <time>2023-10-01T08:32:19Z</time>
      </trkpt>
      <trkpt lat="47.11731" lon="6.22369">
        <ele>591.2</ele>
        <time>2023-10-01T08:32:20Z</time>
      </trkpt>
      <trkpt lat="47.11727" lon="6.22366">
        <ele>592.2</ele>
        <time>2023-10-01T08:32:22Z</time>
      </trkpt>
      <trkpt lat="47.11723" lon="6.22364">
        <ele>593.8</ele>
        <time>2023-10-01T08:32:24Z</time>
      </trkpt>
      <trkpt lat="47.11718" lon="6.22363">
        <ele>595</ele>
        <time>2023-10-01T08:32:26Z</time>
      </trkpt>
      <trkpt lat="47.11716" lon="6.22362">
        <ele>595.8</ele>
        <time>2023-10-01T08:32:27Z</time>
      </trkpt>
      <trkpt lat="47.11714" lon="6.22361">
        <ele>596.6</ele>
        <time>2023-10-01T08:32:28Z</time>
      </trkpt>
      <trkpt lat="47.1171" lon="6.22361">
        <ele>597.8</ele>
        <time>2023-10-01T08:32:30Z</time>
      </trkpt>
      <trkpt lat="47.11706" lon="6.22361">
        <ele>599</ele>
        <time>2023-10-01T08:32:32Z</time>
      </trkpt>
      <trkpt lat="47.11702" lon="6.22362">
        <ele>600</ele>
        <time>2023-10-01T08:32:34Z</time>
      </trkpt>
      <trkpt lat="47.11695" lon="6.22365">
        <ele>601.4</ele>
        <time>2023-10-01T08:32:37Z</time>
      </trkpt>
      <trkpt lat="47.11689" lon="6.22372">
        <ele>602.4</ele>
        <time>2023-10-01T08:32:40Z</time>
      </trkpt>
      <trkpt lat="47.11685" lon="6.22378">
        <ele>603.6</ele>
        <time>2023-10-01T08:32:42Z</time>
      </trkpt>
      <trkpt lat="47.11679" lon="6.22392">
        <ele>604.6</ele>
        <time>2023-10-01T08:32:46Z</time>
      </trkpt>
      <trkpt lat="47.11677" lon="6.22395">
        <ele>604.8</ele>
        <time>2023-10-01T08:32:47Z</time>
      </trkpt>
      <trkpt lat="47.11673" lon="6.22403">
        <ele>605.8</ele>
        <time>2023-10-01T08:32:49Z</time>
      </trkpt>
      <trkpt lat="47.11666" lon="6.2242">
        <ele>607</ele>
        <time>2023-10-01T08:32:53Z</time>
      </trkpt>
      <trkpt lat="47.11663" lon="6.22429">
        <ele>607</ele>
        <time>2023-10-01T08:32:55Z</time>
      </trkpt>
      <trkpt lat="47.11649" lon="6.22468">
        <ele>607.6</ele>
        <time>2023-10-01T08:33:03Z</time>
      </trkpt>
      <trkpt lat="47.11633" lon="6.22515">
        <ele>607.8</ele>
        <time>2023-10-01T08:33:12Z</time>
      </trkpt>
      <trkpt lat="47.11625" lon="6.22536">
        <ele>607.4</ele>
        <time>2023-10-01T08:33:16Z</time>
      </trkpt>
      <trkpt lat="47.1162" lon="6.22548">
        <ele>607.2</ele>
        <time>2023-10-01T08:33:18Z</time>
      </trkpt>
      <trkpt lat="47.11607" lon="6.22581">
        <ele>606.6</ele>
        <time>2023-10-01T08:33:23Z</time>
      </trkpt>
      <trkpt lat="47.11603" lon="6.22596">
        <ele>606.4</ele>
        <time>2023-10-01T08:33:25Z</time>
      </trkpt>
      <trkpt lat="47.11598" lon="6.2262">
        <ele>606</ele>
        <time>2023-10-01T08:33:28Z</time>
      </trkpt>
      <trkpt lat="47.11593" lon="6.22651">
        <ele>605.4</ele>
        <time>2023-10-01T08:33:32Z</time>
      </trkpt>
      <trkpt lat="47.1159" lon="6.22674">
        <ele>604.8</ele>
        <time>2023-10-01T08:33:35Z</time>
      </trkpt>
      <trkpt lat="47.11583" lon="6.22713">
        <ele>604</ele>
        <time>2023-10-01T08:33:40Z</time>
      </trkpt>
      <trkpt lat="47.11581" lon="6.22727">
        <ele>603.8</ele>
        <time>2023-10-01T08:33:42Z</time>
      </trkpt>
      <trkpt lat="47.11575" lon="6.22772">
        <ele>603.6</ele>
        <time>2023-10-01T08:33:48Z</time>
      </trkpt>
      <trkpt lat="47.11569" lon="6.22794">
        <ele>603.4</ele>
        <time>2023-10-01T08:33:51Z</time>
      </trkpt>
      <trkpt lat="47.11562" lon="6.22809">
        <ele>603.4</ele>
        <time>2023-10-01T08:33:53Z</time>
      </trkpt>
      <trkpt lat="47.11545" lon="6.22826">
        <ele>604</ele>
        <time>2023-10-01T08:33:57Z</time>
      </trkpt>
      <trkpt lat="47.11532" lon="6.22836">
        <ele>604.8</ele>
        <time>2023-10-01T08:34:00Z</time>
      </trkpt>
      <trkpt lat="47.11528" lon="6.2284">
        <ele>605</ele>
        <time>2023-10-01T08:34:01Z</time>
      </trkpt>
      <trkpt lat="47.11519" lon="6.22844">
        <ele>605.2</ele>
        <time>2023-10-01T08:34:03Z</time>
      </trkpt>
      <trkpt lat="47.11509" lon="6.22846">
        <ele>605.4</ele>
        <time>2023-10-01T08:34:05Z</time>
      </trkpt>
      <trkpt lat="47.11504" lon="6.22848">
        <ele>605.6</ele>
        <time>2023-10-01T08:34:06Z</time>
      </trkpt>
      <trkpt lat="47.11493" lon="6.22852">
        <ele>605.8</ele>
        <time>2023-10-01T08:34:08Z</time>
      </trkpt>
      <trkpt lat="47.11488" lon="6.22854">
        <ele>605.8</ele>
        <time>2023-10-01T08:34:09Z</time>
      </trkpt>
      <trkpt lat="47.11472" lon="6.22863">
        <ele>606.2</ele>
        <time>2023-10-01T08:34:12Z</time>
      </trkpt>
      <trkpt lat="47.11458" lon="6.22873">
        <ele>606.4</ele>
        <time>2023-10-01T08:34:15Z</time>
      </trkpt>
      <trkpt lat="47.11448" lon="6.22879">
        <ele>607</ele>
        <time>2023-10-01T08:34:17Z</time>
      </trkpt>
      <trkpt lat="47.11424" lon="6.22894">
        <ele>608.2</ele>
        <time>2023-10-01T08:34:22Z</time>
      </trkpt>
      <trkpt lat="47.11395" lon="6.22913">
        <ele>608.8</ele>
        <time>2023-10-01T08:34:28Z</time>
      </trkpt>
      <trkpt lat="47.1138" lon="6.22919">
        <ele>609.2</ele>
        <time>2023-10-01T08:34:31Z</time>
      </trkpt>
      <trkpt lat="47.11369" lon="6.2292">
        <ele>609.4</ele>
        <time>2023-10-01T08:34:33Z</time>
      </trkpt>
      <trkpt lat="47.11364" lon="6.2292">
        <ele>609.4</ele>
        <time>2023-10-01T08:34:34Z</time>
      </trkpt>
      <trkpt lat="47.11322" lon="6.2292">
        <ele>609.2</ele>
        <time>2023-10-01T08:34:41Z</time>
      </trkpt>
      <trkpt lat="47.11288" lon="6.22919">
        <ele>608</ele>
        <time>2023-10-01T08:34:46Z</time>
      </trkpt>
      <trkpt lat="47.11273" lon="6.22919">
        <ele>607.4</ele>
        <time>2023-10-01T08:34:48Z</time>
      </trkpt>
      <trkpt lat="47.11258" lon="6.22921">
        <ele>606.8</ele>
        <time>2023-10-01T08:34:50Z</time>
      </trkpt>
      <trkpt lat="47.1123" lon="6.22928">
        <ele>606</ele>
        <time>2023-10-01T08:34:54Z</time>
      </trkpt>
      <trkpt lat="47.11224" lon="6.22931">
        <ele>605.8</ele>
        <time>2023-10-01T08:34:55Z</time>
      </trkpt>
      <trkpt lat="47.11217" lon="6.22935">
        <ele>605.4</ele>
        <time>2023-10-01T08:34:56Z</time>
      </trkpt>
      <trkpt lat="47.11201" lon="6.22948">
        <ele>604.8</ele>
        <time>2023-10-01T08:34:59Z</time>
      </trkpt>
      <trkpt lat="47.11195" lon="6.22952">
        <ele>604.6</ele>
        <time>2023-10-01T08:35:00Z</time>
      </trkpt>
      <trkpt lat="47.11162" lon="6.22979">
        <ele>604.2</ele>
        <time>2023-10-01T08:35:06Z</time>
      </trkpt>
      <trkpt lat="47.1115" lon="6.22988">
        <ele>603.6</ele>
        <time>2023-10-01T08:35:08Z</time>
      </trkpt>
      <trkpt lat="47.111" lon="6.23025">
        <ele>602.6</ele>
        <time>2023-10-01T08:35:16Z</time>
      </trkpt>
      <trkpt lat="47.11094" lon="6.23029">
        <ele>602.4</ele>
        <time>2023-10-01T08:35:17Z</time>
      </trkpt>
      <trkpt lat="47.11067" lon="6.23044">
        <ele>601.2</ele>
        <time>2023-10-01T08:35:21Z</time>
      </trkpt>
      <trkpt lat="47.11054" lon="6.23049">
        <ele>601</ele>
        <time>2023-10-01T08:35:23Z</time>
      </trkpt>
      <trkpt lat="47.11041" lon="6.23053">
        <ele>600.8</ele>
        <time>2023-10-01T08:35:25Z</time>
      </trkpt>
      <trkpt lat="47.11031" lon="6.23051">
        <ele>601</ele>
        <time>2023-10-01T08:35:27Z</time>
      </trkpt>
      <trkpt lat="47.11019" lon="6.2304">
        <ele>600.4</ele>
        <time>2023-10-01T08:35:31Z</time>
      </trkpt>
      <trkpt lat="47.11017" lon="6.23039">
        <ele>600.2</ele>
        <time>2023-10-01T08:35:32Z</time>
      </trkpt>
      <trkpt lat="47.11011" lon="6.23042">
        <ele>599.8</ele>
        <time>2023-10-01T08:35:35Z</time>
      </trkpt>
      <trkpt lat="47.11001" lon="6.23041">
        <ele>599.2</ele>
        <time>2023-10-01T08:35:39Z</time>
      </trkpt>
      <trkpt lat="47.10999" lon="6.23042">
        <ele>599</ele>
        <time>2023-10-01T08:35:40Z</time>
      </trkpt>
      <trkpt lat="47.10997" lon="6.23042">
        <ele>598.8</ele>
        <time>2023-10-01T08:35:42Z</time>
      </trkpt>
      <trkpt lat="47.10993" lon="6.23045">
        <ele>594.8</ele>
        <time>2023-10-01T08:47:10Z</time>
      </trkpt>
      <trkpt lat="47.10989" lon="6.23046">
        <ele>595</ele>
        <time>2023-10-01T08:47:12Z</time>
      </trkpt>
      <trkpt lat="47.10975" lon="6.23061">
        <ele>595.6</ele>
        <time>2023-10-01T08:47:18Z</time>
      </trkpt>
      <trkpt lat="47.10962" lon="6.23071">
        <ele>596</ele>
        <time>2023-10-01T08:47:23Z</time>
      </trkpt>
      <trkpt lat="47.10955" lon="6.23076">
        <ele>596.6</ele>
        <time>2023-10-01T08:47:25Z</time>
      </trkpt>
      <trkpt lat="47.10948" lon="6.23078">
        <ele>597</ele>
        <time>2023-10-01T08:47:27Z</time>
      </trkpt>
      <trkpt lat="47.10936" lon="6.23082">
        <ele>598</ele>
        <time>2023-10-01T08:47:31Z</time>
      </trkpt>
      <trkpt lat="47.10933" lon="6.23082">
        <ele>598</ele>
        <time>2023-10-01T08:47:32Z</time>
      </trkpt>
      <trkpt lat="47.10911" lon="6.23088">
        <ele>598.8</ele>
        <time>2023-10-01T08:47:39Z</time>
      </trkpt>
      <trkpt lat="47.10907" lon="6.23088">
        <ele>599.2</ele>
        <time>2023-10-01T08:47:40Z</time>
      </trkpt>
      <trkpt lat="47.10882" lon="6.2309">
        <ele>599.2</ele>
        <time>2023-10-01T08:47:47Z</time>
      </trkpt>
      <trkpt lat="47.10853" lon="6.23092">
        <ele>598.2</ele>
        <time>2023-10-01T08:47:53Z</time>
      </trkpt>
      <trkpt lat="47.10848" lon="6.23094">
        <ele>598</ele>
        <time>2023-10-01T08:47:54Z</time>
      </trkpt>
      <trkpt lat="47.10843" lon="6.23097">
        <ele>597.8</ele>
        <time>2023-10-01T08:47:55Z</time>
      </trkpt>
      <trkpt lat="47.10829" lon="6.2311">
        <ele>597.6</ele>
        <time>2023-10-01T08:47:58Z</time>
      </trkpt>
      <trkpt lat="47.10825" lon="6.23116">
        <ele>597.6</ele>
        <time>2023-10-01T08:47:59Z</time>
      </trkpt>
      <trkpt lat="47.10817" lon="6.23135">
        <ele>597.8</ele>
        <time>2023-10-01T08:48:02Z</time>
      </trkpt>
      <trkpt lat="47.10792" lon="6.2318">
        <ele>597.6</ele>
        <time>2023-10-01T08:48:10Z</time>
      </trkpt>
      <trkpt lat="47.10777" lon="6.23204">
        <ele>597.4</ele>
        <time>2023-10-01T08:48:14Z</time>
      </trkpt>
      <trkpt lat="47.10768" lon="6.23216">
        <ele>597.2</ele>
        <time>2023-10-01T08:48:16Z</time>
      </trkpt>
      <trkpt lat="47.10754" lon="6.23233">
        <ele>597</ele>
        <time>2023-10-01T08:48:19Z</time>
      </trkpt>
      <trkpt lat="47.10729" lon="6.23264">
        <ele>596.6</ele>
        <time>2023-10-01T08:48:25Z</time>
      </trkpt>
      <trkpt lat="47.10721" lon="6.23273">
        <ele>596.4</ele>
        <time>2023-10-01T08:48:27Z</time>
      </trkpt>
      <trkpt lat="47.10708" lon="6.23292">
        <ele>596.6</ele>
        <time>2023-10-01T08:48:31Z</time>
      </trkpt>
      <trkpt lat="47.10711" lon="6.2331">
        <ele>596.6</ele>
        <time>2023-10-01T08:48:34Z</time>
      </trkpt>
      <trkpt lat="47.10722" lon="6.23332">
        <ele>597.6</ele>
        <time>2023-10-01T08:48:39Z</time>
      </trkpt>
      <trkpt lat="47.10726" lon="6.23342">
        <ele>598.2</ele>
        <time>2023-10-01T08:48:41Z</time>
      </trkpt>
      <trkpt lat="47.10736" lon="6.23371">
        <ele>599</ele>
        <time>2023-10-01T08:48:47Z</time>
      </trkpt>
      <trkpt lat="47.10738" lon="6.23376">
        <ele>599.2</ele>
        <time>2023-10-01T08:48:48Z</time>
      </trkpt>
      <trkpt lat="47.10746" lon="6.23402">
        <ele>600.4</ele>
        <time>2023-10-01T08:48:53Z</time>
      </trkpt>
      <trkpt lat="47.10748" lon="6.23407">
        <ele>600.8</ele>
        <time>2023-10-01T08:48:54Z</time>
      </trkpt>
      <trkpt lat="47.10758" lon="6.23445">
        <ele>601.4</ele>
        <time>2023-10-01T08:49:01Z</time>
      </trkpt>
      <trkpt lat="47.10768" lon="6.23482">
        <ele>602.6</ele>
        <time>2023-10-01T08:49:08Z</time>
      </trkpt>
      <trkpt lat="47.10772" lon="6.23499">
        <ele>602.8</ele>
        <time>2023-10-01T08:49:11Z</time>
      </trkpt>
      <trkpt lat="47.10779" lon="6.23519">
        <ele>603.6</ele>
        <time>2023-10-01T08:49:15Z</time>
      </trkpt>
      <trkpt lat="47.10787" lon="6.23547">
        <ele>604</ele>
        <time>2023-10-01T08:49:20Z</time>
      </trkpt>
      <trkpt lat="47.1079" lon="6.23559">
        <ele>604.2</ele>
        <time>2023-10-01T08:49:22Z</time>
      </trkpt>
      <trkpt lat="47.10792" lon="6.23571">
        <ele>604.4</ele>
        <time>2023-10-01T08:49:24Z</time>
      </trkpt>
      <trkpt lat="47.10794" lon="6.2359">
        <ele>604.6</ele>
        <time>2023-10-01T08:49:27Z</time>
      </trkpt>
      <trkpt lat="47.10794" lon="6.23612">
        <ele>604.6</ele>
        <time>2023-10-01T08:49:30Z</time>
      </trkpt>
      <trkpt lat="47.10793" lon="6.23634">
        <ele>604.4</ele>
        <time>2023-10-01T08:49:33Z</time>
      </trkpt>
      <trkpt lat="47.10792" lon="6.23656">
        <ele>604.8</ele>
        <time>2023-10-01T08:49:36Z</time>
      </trkpt>
      <trkpt lat="47.10788" lon="6.23683">
        <ele>605.6</ele>
        <time>2023-10-01T08:49:40Z</time>
      </trkpt>
      <trkpt lat="47.10784" lon="6.23696">
        <ele>606</ele>
        <time>2023-10-01T08:49:42Z</time>
      </trkpt>
      <trkpt lat="47.10774" lon="6.23727">
        <ele>607.2</ele>
        <time>2023-10-01T08:49:47Z</time>
      </trkpt>
      <trkpt lat="47.10756" lon="6.23779">
        <ele>607.6</ele>
        <time>2023-10-01T08:49:55Z</time>
      </trkpt>
      <trkpt lat="47.10736" lon="6.23834">
        <ele>608</ele>
        <time>2023-10-01T08:50:04Z</time>
      </trkpt>
      <trkpt lat="47.10724" lon="6.23872">
        <ele>608.2</ele>
        <time>2023-10-01T08:50:09Z</time>
      </trkpt>
      <trkpt lat="47.10719" lon="6.23889">
        <ele>608.2</ele>
        <time>2023-10-01T08:50:11Z</time>
      </trkpt>
      <trkpt lat="47.10697" lon="6.23968">
        <ele>607.6</ele>
        <time>2023-10-01T08:50:20Z</time>
      </trkpt>
      <trkpt lat="47.10686" lon="6.24004">
        <ele>607.2</ele>
        <time>2023-10-01T08:50:24Z</time>
      </trkpt>
      <trkpt lat="47.10679" lon="6.24031">
        <ele>606.8</ele>
        <time>2023-10-01T08:50:27Z</time>
      </trkpt>
      <trkpt lat="47.10662" lon="6.241">
        <ele>607.8</ele>
        <time>2023-10-01T08:50:35Z</time>
      </trkpt>
      <trkpt lat="47.10657" lon="6.24132">
        <ele>608.2</ele>
        <time>2023-10-01T08:50:39Z</time>
      </trkpt>
      <trkpt lat="47.10651" lon="6.24166">
        <ele>608.6</ele>
        <time>2023-10-01T08:50:43Z</time>
      </trkpt>
      <trkpt lat="47.10639" lon="6.24221">
        <ele>608.2</ele>
        <time>2023-10-01T08:50:50Z</time>
      </trkpt>
      <trkpt lat="47.10631" lon="6.24263">
        <ele>608.8</ele>
        <time>2023-10-01T08:50:56Z</time>
      </trkpt>
      <trkpt lat="47.10626" lon="6.24291">
        <ele>608.4</ele>
        <time>2023-10-01T08:51:00Z</time>
      </trkpt>
      <trkpt lat="47.10622" lon="6.24294">
        <ele>608.2</ele>
        <time>2023-10-01T08:51:01Z</time>
      </trkpt>
      <trkpt lat="47.10609" lon="6.24292">
        <ele>608.2</ele>
        <time>2023-10-01T08:51:04Z</time>
      </trkpt>
      <trkpt lat="47.10605" lon="6.24291">
        <ele>608.2</ele>
        <time>2023-10-01T08:51:05Z</time>
      </trkpt>
      <trkpt lat="47.10597" lon="6.24289">
        <ele>608</ele>
        <time>2023-10-01T08:51:07Z</time>
      </trkpt>
      <trkpt lat="47.10581" lon="6.24281">
        <ele>607.4</ele>
        <time>2023-10-01T08:51:11Z</time>
      </trkpt>
      <trkpt lat="47.10553" lon="6.24269">
        <ele>608.2</ele>
        <time>2023-10-01T08:51:19Z</time>
      </trkpt>
      <trkpt lat="47.10516" lon="6.24253">
        <ele>609.2</ele>
        <time>2023-10-01T08:51:29Z</time>
      </trkpt>
      <trkpt lat="47.10512" lon="6.24251">
        <ele>609.2</ele>
        <time>2023-10-01T08:51:30Z</time>
      </trkpt>
      <trkpt lat="47.10488" lon="6.24243">
        <ele>609.6</ele>
        <time>2023-10-01T08:51:36Z</time>
      </trkpt>
      <trkpt lat="47.10484" lon="6.24242">
        <ele>609.4</ele>
        <time>2023-10-01T08:51:37Z</time>
      </trkpt>
      <trkpt lat="47.10469" lon="6.2424">
        <ele>609</ele>
        <time>2023-10-01T08:51:40Z</time>
      </trkpt>
      <trkpt lat="47.10455" lon="6.24242">
        <ele>609</ele>
        <time>2023-10-01T08:51:43Z</time>
      </trkpt>
      <trkpt lat="47.10429" lon="6.24256">
        <ele>608.8</ele>
        <time>2023-10-01T08:51:49Z</time>
      </trkpt>
      <trkpt lat="47.10392" lon="6.24284">
        <ele>608.4</ele>
        <time>2023-10-01T08:51:58Z</time>
      </trkpt>
      <trkpt lat="47.1036" lon="6.24309">
        <ele>608.8</ele>
        <time>2023-10-01T08:52:07Z</time>
      </trkpt>
      <trkpt lat="47.10352" lon="6.24312">
        <ele>609</ele>
        <time>2023-10-01T08:52:09Z</time>
      </trkpt>
      <trkpt lat="47.1034" lon="6.24314">
        <ele>609.2</ele>
        <time>2023-10-01T08:52:12Z</time>
      </trkpt>
      <trkpt lat="47.10306" lon="6.24321">
        <ele>610</ele>
        <time>2023-10-01T08:52:21Z</time>
      </trkpt>
      <trkpt lat="47.10279" lon="6.24329">
        <ele>609.8</ele>
        <time>2023-10-01T08:52:28Z</time>
      </trkpt>
      <trkpt lat="47.10249" lon="6.24341">
        <ele>609.4</ele>
        <time>2023-10-01T08:52:36Z</time>
      </trkpt>
      <trkpt lat="47.10231" lon="6.24354">
        <ele>610</ele>
        <time>2023-10-01T08:52:42Z</time>
      </trkpt>
      <trkpt lat="47.10212" lon="6.24379">
        <ele>610</ele>
        <time>2023-10-01T08:52:48Z</time>
      </trkpt>
      <trkpt lat="47.10206" lon="6.24388">
        <ele>610.4</ele>
        <time>2023-10-01T08:52:50Z</time>
      </trkpt>
      <trkpt lat="47.10198" lon="6.24408">
        <ele>610.8</ele>
        <time>2023-10-01T08:52:54Z</time>
      </trkpt>
      <trkpt lat="47.10185" lon="6.24437">
        <ele>611.4</ele>
        <time>2023-10-01T08:53:00Z</time>
      </trkpt>
      <trkpt lat="47.1018" lon="6.24447">
        <ele>612</ele>
        <time>2023-10-01T08:53:02Z</time>
      </trkpt>
      <trkpt lat="47.10174" lon="6.24458">
        <ele>612.6</ele>
        <time>2023-10-01T08:53:04Z</time>
      </trkpt>
      <trkpt lat="47.10154" lon="6.24488">
        <ele>613.4</ele>
        <time>2023-10-01T08:53:10Z</time>
      </trkpt>
      <trkpt lat="47.10151" lon="6.24493">
        <ele>613.6</ele>
        <time>2023-10-01T08:53:11Z</time>
      </trkpt>
      <trkpt lat="47.10129" lon="6.24525">
        <ele>614.8</ele>
        <time>2023-10-01T08:53:17Z</time>
      </trkpt>
      <trkpt lat="47.10125" lon="6.2453">
        <ele>615</ele>
        <time>2023-10-01T08:53:18Z</time>
      </trkpt>
      <trkpt lat="47.10101" lon="6.24568">
        <ele>615.8</ele>
        <time>2023-10-01T08:53:25Z</time>
      </trkpt>
      <trkpt lat="47.10097" lon="6.24573">
        <ele>615.8</ele>
        <time>2023-10-01T08:53:26Z</time>
      </trkpt>
      <trkpt lat="47.10069" lon="6.24616">
        <ele>616</ele>
        <time>2023-10-01T08:53:34Z</time>
      </trkpt>
      <trkpt lat="47.1005" lon="6.24647">
        <ele>615.8</ele>
        <time>2023-10-01T08:53:40Z</time>
      </trkpt>
      <trkpt lat="47.10027" lon="6.24696">
        <ele>616.2</ele>
        <time>2023-10-01T08:53:48Z</time>
      </trkpt>
      <trkpt lat="47.10006" lon="6.24747">
        <ele>617</ele>
        <time>2023-10-01T08:53:56Z</time>
      </trkpt>
      <trkpt lat="47.10003" lon="6.24753">
        <ele>617.2</ele>
        <time>2023-10-01T08:53:57Z</time>
      </trkpt>
      <trkpt lat="47.09993" lon="6.24771">
        <ele>617.6</ele>
        <time>2023-10-01T08:54:00Z</time>
      </trkpt>
      <trkpt lat="47.09961" lon="6.24817">
        <ele>618</ele>
        <time>2023-10-01T08:54:08Z</time>
      </trkpt>
      <trkpt lat="47.09947" lon="6.24831">
        <ele>618.2</ele>
        <time>2023-10-01T08:54:11Z</time>
      </trkpt>
      <trkpt lat="47.09932" lon="6.24841">
        <ele>618.2</ele>
        <time>2023-10-01T08:54:14Z</time>
      </trkpt>
      <trkpt lat="47.09907" lon="6.24855">
        <ele>618.4</ele>
        <time>2023-10-01T08:54:19Z</time>
      </trkpt>
      <trkpt lat="47.09902" lon="6.24859">
        <ele>618.4</ele>
        <time>2023-10-01T08:54:20Z</time>
      </trkpt>
      <trkpt lat="47.0989" lon="6.24875">
        <ele>618.4</ele>
        <time>2023-10-01T08:54:23Z</time>
      </trkpt>
      <trkpt lat="47.09883" lon="6.24887">
        <ele>618.2</ele>
        <time>2023-10-01T08:54:25Z</time>
      </trkpt>
      <trkpt lat="47.09872" lon="6.24903">
        <ele>618.4</ele>
        <time>2023-10-01T08:54:28Z</time>
      </trkpt>
      <trkpt lat="47.09857" lon="6.24924">
        <ele>618.4</ele>
        <time>2023-10-01T08:54:32Z</time>
      </trkpt>
      <trkpt lat="47.09852" lon="6.24938">
        <ele>618.4</ele>
        <time>2023-10-01T08:54:35Z</time>
      </trkpt>
      <trkpt lat="47.09854" lon="6.24943">
        <ele>618.2</ele>
        <time>2023-10-01T08:54:36Z</time>
      </trkpt>
      <trkpt lat="47.0986" lon="6.24948">
        <ele>619.4</ele>
        <time>2023-10-01T08:54:39Z</time>
      </trkpt>
      <trkpt lat="47.09863" lon="6.24946">
        <ele>619.6</ele>
        <time>2023-10-01T08:54:40Z</time>
      </trkpt>
      <trkpt lat="47.09865" lon="6.24945">
        <ele>619.8</ele>
        <time>2023-10-01T08:54:41Z</time>
      </trkpt>
      <trkpt lat="47.09876" lon="6.24946">
        <ele>620.4</ele>
        <time>2023-10-01T08:54:45Z</time>
      </trkpt>
      <trkpt lat="47.09879" lon="6.24947">
        <ele>620.6</ele>
        <time>2023-10-01T08:54:46Z</time>
      </trkpt>
      <trkpt lat="47.09884" lon="6.24945">
        <ele>621</ele>
        <time>2023-10-01T08:54:48Z</time>
      </trkpt>
      <trkpt lat="47.09882" lon="6.24943">
        <ele>621.4</ele>
        <time>2023-10-01T08:54:50Z</time>
      </trkpt>
      <trkpt lat="47.0988" lon="6.24944">
        <ele>621.4</ele>
        <time>2023-10-01T08:54:51Z</time>
      </trkpt>
      <trkpt lat="47.09882" lon="6.24947">
        <ele>622</ele>
        <time>2023-10-01T08:54:54Z</time>
      </trkpt>
      <trkpt lat="47.09886" lon="6.24945">
        <ele>622.2</ele>
        <time>2023-10-01T08:54:56Z</time>
      </trkpt>
      <trkpt lat="47.09892" lon="6.24945">
        <ele>622.6</ele>
        <time>2023-10-01T08:54:58Z</time>
      </trkpt>
      <trkpt lat="47.09907" lon="6.24944">
        <ele>623.8</ele>
        <time>2023-10-01T08:55:03Z</time>
      </trkpt>
      <trkpt lat="47.09919" lon="6.24943">
        <ele>624.4</ele>
        <time>2023-10-01T08:55:07Z</time>
      </trkpt>
      <trkpt lat="47.09922" lon="6.24944">
        <ele>624.8</ele>
        <time>2023-10-01T08:55:08Z</time>
      </trkpt>
      <trkpt lat="47.09935" lon="6.24942">
        <ele>626</ele>
        <time>2023-10-01T08:55:12Z</time>
      </trkpt>
      <trkpt lat="47.09944" lon="6.24941">
        <ele>627.2</ele>
        <time>2023-10-01T08:55:15Z</time>
      </trkpt>
      <trkpt lat="47.09956" lon="6.2494">
        <ele>628.4</ele>
        <time>2023-10-01T08:55:19Z</time>
      </trkpt>
      <trkpt lat="47.09965" lon="6.24939">
        <ele>629.4</ele>
        <time>2023-10-01T08:55:22Z</time>
      </trkpt>
      <trkpt lat="47.09973" lon="6.24941">
        <ele>630.8</ele>
        <time>2023-10-01T08:55:25Z</time>
      </trkpt>
      <trkpt lat="47.0999" lon="6.24945">
        <ele>631.8</ele>
        <time>2023-10-01T08:55:31Z</time>
      </trkpt>
      <trkpt lat="47.09993" lon="6.24945">
        <ele>632</ele>
        <time>2023-10-01T08:55:32Z</time>
      </trkpt>
      <trkpt lat="47.10002" lon="6.24944">
        <ele>633</ele>
        <time>2023-10-01T08:55:35Z</time>
      </trkpt>
      <trkpt lat="47.10014" lon="6.24945">
        <ele>634</ele>
        <time>2023-10-01T08:55:39Z</time>
      </trkpt>
      <trkpt lat="47.1002" lon="6.24946">
        <ele>634.6</ele>
        <time>2023-10-01T08:55:41Z</time>
      </trkpt>
      <trkpt lat="47.10033" lon="6.24948">
        <ele>635</ele>
        <time>2023-10-01T08:55:45Z</time>
      </trkpt>
      <trkpt lat="47.10049" lon="6.24951">
        <ele>635.2</ele>
        <time>2023-10-01T08:55:50Z</time>
      </trkpt>
      <trkpt lat="47.10071" lon="6.24956">
        <ele>636.2</ele>
        <time>2023-10-01T08:55:57Z</time>
      </trkpt>
      <trkpt lat="47.10074" lon="6.24957">
        <ele>636.4</ele>
        <time>2023-10-01T08:55:58Z</time>
      </trkpt>
      <trkpt lat="47.10102" lon="6.2496">
        <ele>637.4</ele>
        <time>2023-10-01T08:56:06Z</time>
      </trkpt>
      <trkpt lat="47.10133" lon="6.24965">
        <ele>637.6</ele>
        <time>2023-10-01T08:56:14Z</time>
      </trkpt>
      <trkpt lat="47.10163" lon="6.24969">
        <ele>638.4</ele>
        <time>2023-10-01T08:56:22Z</time>
      </trkpt>
      <trkpt lat="47.10178" lon="6.24982">
        <ele>638.6</ele>
        <time>2023-10-01T08:56:27Z</time>
      </trkpt>
      <trkpt lat="47.10183" lon="6.24989">
        <ele>639.4</ele>
        <time>2023-10-01T08:56:30Z</time>
      </trkpt>
      <trkpt lat="47.10187" lon="6.24995">
        <ele>640</ele>
        <time>2023-10-01T08:56:32Z</time>
      </trkpt>
      <trkpt lat="47.1019" lon="6.25">
        <ele>640.6</ele>
        <time>2023-10-01T08:56:34Z</time>
      </trkpt>
      <trkpt lat="47.10199" lon="6.25013">
        <ele>641.8</ele>
        <time>2023-10-01T08:56:39Z</time>
      </trkpt>
      <trkpt lat="47.10204" lon="6.25021">
        <ele>642.6</ele>
        <time>2023-10-01T08:56:42Z</time>
      </trkpt>
      <trkpt lat="47.10206" lon="6.25024">
        <ele>643</ele>
        <time>2023-10-01T08:56:43Z</time>
      </trkpt>
      <trkpt lat="47.10211" lon="6.25032">
        <ele>644.2</ele>
        <time>2023-10-01T08:56:46Z</time>
      </trkpt>
      <trkpt lat="47.10215" lon="6.25038">
        <ele>644.6</ele>
        <time>2023-10-01T08:56:48Z</time>
      </trkpt>
      <trkpt lat="47.10219" lon="6.25044">
        <ele>645.4</ele>
        <time>2023-10-01T08:56:50Z</time>
      </trkpt>
      <trkpt lat="47.10229" lon="6.25059">
        <ele>646.4</ele>
        <time>2023-10-01T08:56:55Z</time>
      </trkpt>
      <trkpt lat="47.10233" lon="6.25068">
        <ele>647.2</ele>
        <time>2023-10-01T08:56:58Z</time>
      </trkpt>
      <trkpt lat="47.10235" lon="6.2507">
        <ele>647.6</ele>
        <time>2023-10-01T08:56:59Z</time>
      </trkpt>
      <trkpt lat="47.10238" lon="6.25076">
        <ele>648.8</ele>
        <time>2023-10-01T08:57:01Z</time>
      </trkpt>
      <trkpt lat="47.10246" lon="6.2509">
        <ele>650</ele>
        <time>2023-10-01T08:57:05Z</time>
      </trkpt>
      <trkpt lat="47.10265" lon="6.2512">
        <ele>651</ele>
        <time>2023-10-01T08:57:13Z</time>
      </trkpt>
      <trkpt lat="47.10286" lon="6.25151">
        <ele>650.4</ele>
        <time>2023-10-01T08:57:20Z</time>
      </trkpt>
      <trkpt lat="47.10304" lon="6.25182">
        <ele>650</ele>
        <time>2023-10-01T08:57:27Z</time>
      </trkpt>
      <trkpt lat="47.10317" lon="6.25219">
        <ele>650.4</ele>
        <time>2023-10-01T08:57:34Z</time>
      </trkpt>
      <trkpt lat="47.10323" lon="6.25256">
        <ele>650.8</ele>
        <time>2023-10-01T08:57:41Z</time>
      </trkpt>
      <trkpt lat="47.1033" lon="6.25292">
        <ele>650.2</ele>
        <time>2023-10-01T08:57:48Z</time>
      </trkpt>
      <trkpt lat="47.10335" lon="6.2533">
        <ele>649.4</ele>
        <time>2023-10-01T08:57:55Z</time>
      </trkpt>
      <trkpt lat="47.10335" lon="6.25348">
        <ele>648.8</ele>
        <time>2023-10-01T08:57:59Z</time>
      </trkpt>
      <trkpt lat="47.10334" lon="6.25361">
        <ele>649.2</ele>
        <time>2023-10-01T08:58:02Z</time>
      </trkpt>
      <trkpt lat="47.10333" lon="6.25375">
        <ele>650.2</ele>
        <time>2023-10-01T08:58:05Z</time>
      </trkpt>
      <trkpt lat="47.10332" lon="6.25389">
        <ele>651.4</ele>
        <time>2023-10-01T08:58:08Z</time>
      </trkpt>
      <trkpt lat="47.10332" lon="6.25404">
        <ele>652.4</ele>
        <time>2023-10-01T08:58:11Z</time>
      </trkpt>
      <trkpt lat="47.10332" lon="6.25409">
        <ele>652.8</ele>
        <time>2023-10-01T08:58:12Z</time>
      </trkpt>
      <trkpt lat="47.10331" lon="6.25418">
        <ele>653.6</ele>
        <time>2023-10-01T08:58:14Z</time>
      </trkpt>
      <trkpt lat="47.1033" lon="6.25431">
        <ele>654.6</ele>
        <time>2023-10-01T08:58:17Z</time>
      </trkpt>
      <trkpt lat="47.10329" lon="6.25445">
        <ele>655.4</ele>
        <time>2023-10-01T08:58:20Z</time>
      </trkpt>
      <trkpt lat="47.10327" lon="6.25457">
        <ele>655.6</ele>
        <time>2023-10-01T08:58:23Z</time>
      </trkpt>
      <trkpt lat="47.10327" lon="6.2546">
        <ele>655.8</ele>
        <time>2023-10-01T08:58:24Z</time>
      </trkpt>
      <trkpt lat="47.10327" lon="6.25462">
        <ele>655.8</ele>
        <time>2023-10-01T08:58:25Z</time>
      </trkpt>
      <trkpt lat="47.10329" lon="6.2546">
        <ele>656.4</ele>
        <time>2023-10-01T08:58:28Z</time>
      </trkpt>
      <trkpt lat="47.1033" lon="6.25456">
        <ele>656.6</ele>
        <time>2023-10-01T08:58:29Z</time>
      </trkpt>
      <trkpt lat="47.10332" lon="6.25437">
        <ele>656.4</ele>
        <time>2023-10-01T08:58:33Z</time>
      </trkpt>
      <trkpt lat="47.10334" lon="6.25401">
        <ele>655.8</ele>
        <time>2023-10-01T08:58:38Z</time>
      </trkpt>
      <trkpt lat="47.10336" lon="6.25361">
        <ele>654.4</ele>
        <time>2023-10-01T08:58:42Z</time>
      </trkpt>
      <trkpt lat="47.10337" lon="6.2535">
        <ele>654</ele>
        <time>2023-10-01T08:58:43Z</time>
      </trkpt>
      <trkpt lat="47.10337" lon="6.25327">
        <ele>653.2</ele>
        <time>2023-10-01T08:58:45Z</time>
      </trkpt>
      <trkpt lat="47.10336" lon="6.25317">
        <ele>653</ele>
        <time>2023-10-01T08:58:46Z</time>
      </trkpt>
      <trkpt lat="47.10335" lon="6.25307">
        <ele>652.6</ele>
        <time>2023-10-01T08:58:47Z</time>
      </trkpt>
      <trkpt lat="47.10332" lon="6.25291">
        <ele>652</ele>
        <time>2023-10-01T08:58:49Z</time>
      </trkpt>
      <trkpt lat="47.10331" lon="6.25286">
        <ele>651.6</ele>
        <time>2023-10-01T08:58:50Z</time>
      </trkpt>
      <trkpt lat="47.10329" lon="6.2528">
        <ele>650.8</ele>
        <time>2023-10-01T08:58:52Z</time>
      </trkpt>
      <trkpt lat="47.10329" lon="6.25282">
        <ele>649.6</ele>
        <time>2023-10-01T08:59:12Z</time>
      </trkpt>
      <trkpt lat="47.1033" lon="6.25288">
        <ele>648.8</ele>
        <time>2023-10-01T08:59:14Z</time>
      </trkpt>
      <trkpt lat="47.10332" lon="6.25296">
        <ele>648.4</ele>
        <time>2023-10-01T08:59:16Z</time>
      </trkpt>
      <trkpt lat="47.10335" lon="6.25314">
        <ele>647.4</ele>
        <time>2023-10-01T08:59:21Z</time>
      </trkpt>
      <trkpt lat="47.10336" lon="6.25318">
        <ele>647.2</ele>
        <time>2023-10-01T08:59:22Z</time>
      </trkpt>
      <trkpt lat="47.10336" lon="6.25329">
        <ele>646.2</ele>
        <time>2023-10-01T08:59:25Z</time>
      </trkpt>
      <trkpt lat="47.10336" lon="6.25343">
        <ele>645.4</ele>
        <time>2023-10-01T08:59:28Z</time>
      </trkpt>
      <trkpt lat="47.10334" lon="6.25375">
        <ele>647.2</ele>
        <time>2023-10-01T08:59:35Z</time>
      </trkpt>
      <trkpt lat="47.10334" lon="6.25379">
        <ele>647.6</ele>
        <time>2023-10-01T08:59:36Z</time>
      </trkpt>
      <trkpt lat="47.10334" lon="6.25391">
        <ele>648.8</ele>
        <time>2023-10-01T08:59:39Z</time>
      </trkpt>
      <trkpt lat="47.10334" lon="6.254">
        <ele>649.8</ele>
        <time>2023-10-01T08:59:41Z</time>
      </trkpt>
      <trkpt lat="47.10334" lon="6.25404">
        <ele>650.4</ele>
        <time>2023-10-01T08:59:42Z</time>
      </trkpt>
      <trkpt lat="47.10334" lon="6.25413">
        <ele>651.4</ele>
        <time>2023-10-01T08:59:44Z</time>
      </trkpt>
      <trkpt lat="47.10332" lon="6.25429">
        <ele>652.6</ele>
        <time>2023-10-01T08:59:48Z</time>
      </trkpt>
      <trkpt lat="47.10332" lon="6.25433">
        <ele>653</ele>
        <time>2023-10-01T08:59:49Z</time>
      </trkpt>
      <trkpt lat="47.10332" lon="6.25442">
        <ele>653.6</ele>
        <time>2023-10-01T08:59:51Z</time>
      </trkpt>
      <trkpt lat="47.1033" lon="6.25456">
        <ele>654.8</ele>
        <time>2023-10-01T08:59:55Z</time>
      </trkpt>
      <trkpt lat="47.1033" lon="6.25459">
        <ele>655</ele>
        <time>2023-10-01T08:59:56Z</time>
      </trkpt>
      <trkpt lat="47.10328" lon="6.25474">
        <ele>655.8</ele>
        <time>2023-10-01T09:00:02Z</time>
      </trkpt>
      <trkpt lat="47.10328" lon="6.25476">
        <ele>655.8</ele>
        <time>2023-10-01T09:00:03Z</time>
      </trkpt>
      <trkpt lat="47.10329" lon="6.25478">
        <ele>654.8</ele>
        <time>2023-10-01T09:01:22Z</time>
      </trkpt>
      <trkpt lat="47.10329" lon="6.25475">
        <ele>654.2</ele>
        <time>2023-10-01T09:01:23Z</time>
      </trkpt>
      <trkpt lat="47.1033" lon="6.25467">
        <ele>652.6</ele>
        <time>2023-10-01T09:01:25Z</time>
      </trkpt>
      <trkpt lat="47.10331" lon="6.25462">
        <ele>651.8</ele>
        <time>2023-10-01T09:01:26Z</time>
      </trkpt>
      <trkpt lat="47.10332" lon="6.25457">
        <ele>651.2</ele>
        <time>2023-10-01T09:01:27Z</time>
      </trkpt>
      <trkpt lat="47.10333" lon="6.25445">
        <ele>650</ele>
        <time>2023-10-01T09:01:29Z</time>
      </trkpt>
      <trkpt lat="47.10334" lon="6.25431">
        <ele>648.2</ele>
        <time>2023-10-01T09:01:31Z</time>
      </trkpt>
      <trkpt lat="47.10335" lon="6.25423">
        <ele>647.4</ele>
        <time>2023-10-01T09:01:32Z</time>
      </trkpt>
      <trkpt lat="47.10335" lon="6.25414">
        <ele>646.6</ele>
        <time>2023-10-01T09:01:33Z</time>
      </trkpt>
      <trkpt lat="47.10336" lon="6.25395">
        <ele>645</ele>
        <time>2023-10-01T09:01:35Z</time>
      </trkpt>
      <trkpt lat="47.10336" lon="6.25373">
        <ele>643.4</ele>
        <time>2023-10-01T09:01:37Z</time>
      </trkpt>
      <trkpt lat="47.10338" lon="6.25348">
        <ele>641.8</ele>
        <time>2023-10-01T09:01:39Z</time>
      </trkpt>
      <trkpt lat="47.10337" lon="6.25321">
        <ele>640.2</ele>
        <time>2023-10-01T09:01:41Z</time>
      </trkpt>
      <trkpt lat="47.10332" lon="6.25295">
        <ele>639</ele>
        <time>2023-10-01T09:01:43Z</time>
      </trkpt>
      <trkpt lat="47.10327" lon="6.25269">
        <ele>637.6</ele>
        <time>2023-10-01T09:01:45Z</time>
      </trkpt>
      <trkpt lat="47.10325" lon="6.25257">
        <ele>636.8</ele>
        <time>2023-10-01T09:01:46Z</time>
      </trkpt>
      <trkpt lat="47.10323" lon="6.25243">
        <ele>636.2</ele>
        <time>2023-10-01T09:01:47Z</time>
      </trkpt>
      <trkpt lat="47.10318" lon="6.25218">
        <ele>635</ele>
        <time>2023-10-01T09:01:49Z</time>
      </trkpt>
      <trkpt lat="47.10311" lon="6.25195">
        <ele>634.2</ele>
        <time>2023-10-01T09:01:51Z</time>
      </trkpt>
      <trkpt lat="47.10306" lon="6.25184">
        <ele>633.6</ele>
        <time>2023-10-01T09:01:52Z</time>
      </trkpt>
      <trkpt lat="47.10292" lon="6.25154">
        <ele>632.4</ele>
        <time>2023-10-01T09:01:55Z</time>
      </trkpt>
      <trkpt lat="47.10287" lon="6.25145">
        <ele>632</ele>
        <time>2023-10-01T09:01:56Z</time>
      </trkpt>
      <trkpt lat="47.10258" lon="6.25103">
        <ele>631.4</ele>
        <time>2023-10-01T09:02:01Z</time>
      </trkpt>
      <trkpt lat="47.10244" lon="6.25076">
        <ele>631.4</ele>
        <time>2023-10-01T09:02:04Z</time>
      </trkpt>
      <trkpt lat="47.10233" lon="6.25058">
        <ele>630.8</ele>
        <time>2023-10-01T09:02:06Z</time>
      </trkpt>
      <trkpt lat="47.10221" lon="6.25041">
        <ele>630.2</ele>
        <time>2023-10-01T09:02:08Z</time>
      </trkpt>
      <trkpt lat="47.10195" lon="6.25005">
        <ele>629.2</ele>
        <time>2023-10-01T09:02:12Z</time>
      </trkpt>
      <trkpt lat="47.10184" lon="6.2499">
        <ele>628.6</ele>
        <time>2023-10-01T09:02:14Z</time>
      </trkpt>
      <trkpt lat="47.1018" lon="6.24984">
        <ele>628.4</ele>
        <time>2023-10-01T09:02:15Z</time>
      </trkpt>
      <trkpt lat="47.10177" lon="6.24979">
        <ele>628</ele>
        <time>2023-10-01T09:02:16Z</time>
      </trkpt>
      <trkpt lat="47.1017" lon="6.24968">
        <ele>627.2</ele>
        <time>2023-10-01T09:02:19Z</time>
      </trkpt>
      <trkpt lat="47.10163" lon="6.24963">
        <ele>627.2</ele>
        <time>2023-10-01T09:02:21Z</time>
      </trkpt>
      <trkpt lat="47.10154" lon="6.24962">
        <ele>627.4</ele>
        <time>2023-10-01T09:02:23Z</time>
      </trkpt>
      <trkpt lat="47.10141" lon="6.2496">
        <ele>628</ele>
        <time>2023-10-01T09:02:27Z</time>
      </trkpt>
      <trkpt lat="47.10122" lon="6.24957">
        <ele>628.2</ele>
        <time>2023-10-01T09:02:32Z</time>
      </trkpt>
      <trkpt lat="47.10099" lon="6.24952">
        <ele>629</ele>
        <time>2023-10-01T09:02:36Z</time>
      </trkpt>
      <trkpt lat="47.10087" lon="6.2495">
        <ele>628.8</ele>
        <time>2023-10-01T09:02:38Z</time>
      </trkpt>
      <trkpt lat="47.10058" lon="6.24944">
        <ele>628</ele>
        <time>2023-10-01T09:02:42Z</time>
      </trkpt>
      <trkpt lat="47.10042" lon="6.24942">
        <ele>627.6</ele>
        <time>2023-10-01T09:02:44Z</time>
      </trkpt>
      <trkpt lat="47.10018" lon="6.24938">
        <ele>626.8</ele>
        <time>2023-10-01T09:02:47Z</time>
      </trkpt>
      <trkpt lat="47.09993" lon="6.24936">
        <ele>625.8</ele>
        <time>2023-10-01T09:02:50Z</time>
      </trkpt>
      <trkpt lat="47.09985" lon="6.24936">
        <ele>625.4</ele>
        <time>2023-10-01T09:02:51Z</time>
      </trkpt>
      <trkpt lat="47.0997" lon="6.24935">
        <ele>624.6</ele>
        <time>2023-10-01T09:02:53Z</time>
      </trkpt>
      <trkpt lat="47.09947" lon="6.24936">
        <ele>623.2</ele>
        <time>2023-10-01T09:02:56Z</time>
      </trkpt>
      <trkpt lat="47.09939" lon="6.24937">
        <ele>622.8</ele>
        <time>2023-10-01T09:02:57Z</time>
      </trkpt>
      <trkpt lat="47.09924" lon="6.24939">
        <ele>621.8</ele>
        <time>2023-10-01T09:02:59Z</time>
      </trkpt>
      <trkpt lat="47.09908" lon="6.24941">
        <ele>620.8</ele>
        <time>2023-10-01T09:03:01Z</time>
      </trkpt>
      <trkpt lat="47.09891" lon="6.24942">
        <ele>619.4</ele>
        <time>2023-10-01T09:03:03Z</time>
      </trkpt>
      <trkpt lat="47.09874" lon="6.24944">
        <ele>618.2</ele>
        <time>2023-10-01T09:03:05Z</time>
      </trkpt>
      <trkpt lat="47.0986" lon="6.24945">
        <ele>617.2</ele>
        <time>2023-10-01T09:03:07Z</time>
      </trkpt>
      <trkpt lat="47.09855" lon="6.24945">
        <ele>616.6</ele>
        <time>2023-10-01T09:03:08Z</time>
      </trkpt>
      <trkpt lat="47.09851" lon="6.24944">
        <ele>616</ele>
        <time>2023-10-01T09:03:09Z</time>
      </trkpt>
      <trkpt lat="47.09847" lon="6.24943">
        <ele>615</ele>
        <time>2023-10-01T09:03:11Z</time>
      </trkpt>
      <trkpt lat="47.09845" lon="6.24943">
        <ele>614.6</ele>
        <time>2023-10-01T09:03:12Z</time>
      </trkpt>
      <trkpt lat="47.09839" lon="6.24943">
        <ele>613.8</ele>
        <time>2023-10-01T09:03:16Z</time>
      </trkpt>
      <trkpt lat="47.09839" lon="6.24945">
        <ele>613.8</ele>
        <time>2023-10-01T09:03:17Z</time>
      </trkpt>
      <trkpt lat="47.09843" lon="6.24947">
        <ele>613.8</ele>
        <time>2023-10-01T09:03:20Z</time>
      </trkpt>
      <trkpt lat="47.09853" lon="6.24933">
        <ele>613.6</ele>
        <time>2023-10-01T09:03:24Z</time>
      </trkpt>
      <trkpt lat="47.09876" lon="6.24901">
        <ele>613.8</ele>
        <time>2023-10-01T09:03:30Z</time>
      </trkpt>
      <trkpt lat="47.09905" lon="6.24859">
        <ele>614.2</ele>
        <time>2023-10-01T09:03:37Z</time>
      </trkpt>
      <trkpt lat="47.0993" lon="6.24845">
        <ele>614.6</ele>
        <time>2023-10-01T09:03:41Z</time>
      </trkpt>
      <trkpt lat="47.09948" lon="6.24834">
        <ele>615</ele>
        <time>2023-10-01T09:03:44Z</time>
      </trkpt>
      <trkpt lat="47.09959" lon="6.24824">
        <ele>615.2</ele>
        <time>2023-10-01T09:03:46Z</time>
      </trkpt>
      <trkpt lat="47.09964" lon="6.24818">
        <ele>615.4</ele>
        <time>2023-10-01T09:03:47Z</time>
      </trkpt>
      <trkpt lat="47.09978" lon="6.24798">
        <ele>615.8</ele>
        <time>2023-10-01T09:03:50Z</time>
      </trkpt>
      <trkpt lat="47.09983" lon="6.24791">
        <ele>616</ele>
        <time>2023-10-01T09:03:51Z</time>
      </trkpt>
      <trkpt lat="47.10008" lon="6.24748">
        <ele>616.8</ele>
        <time>2023-10-01T09:03:57Z</time>
      </trkpt>
      <trkpt lat="47.10011" lon="6.2474">
        <ele>617</ele>
        <time>2023-10-01T09:03:58Z</time>
      </trkpt>
      <trkpt lat="47.10035" lon="6.24678">
        <ele>617.2</ele>
        <time>2023-10-01T09:04:05Z</time>
      </trkpt>
      <trkpt lat="47.1006" lon="6.24631">
        <ele>616.8</ele>
        <time>2023-10-01T09:04:11Z</time>
      </trkpt>
      <trkpt lat="47.10098" lon="6.24572">
        <ele>616</ele>
        <time>2023-10-01T09:04:19Z</time>
      </trkpt>
      <trkpt lat="47.10108" lon="6.24557">
        <ele>615.8</ele>
        <time>2023-10-01T09:04:21Z</time>
      </trkpt>
      <trkpt lat="47.10144" lon="6.24504">
        <ele>614.8</ele>
        <time>2023-10-01T09:04:28Z</time>
      </trkpt>
      <trkpt lat="47.10149" lon="6.24496">
        <ele>614.6</ele>
        <time>2023-10-01T09:04:29Z</time>
      </trkpt>
      <trkpt lat="47.10189" lon="6.24432">
        <ele>613.8</ele>
        <time>2023-10-01T09:04:37Z</time>
      </trkpt>
      <trkpt lat="47.10193" lon="6.24422">
        <ele>613.6</ele>
        <time>2023-10-01T09:04:38Z</time>
      </trkpt>
      <trkpt lat="47.1021" lon="6.24385">
        <ele>613.2</ele>
        <time>2023-10-01T09:04:42Z</time>
      </trkpt>
      <trkpt lat="47.10215" lon="6.24376">
        <ele>613</ele>
        <time>2023-10-01T09:04:43Z</time>
      </trkpt>
      <trkpt lat="47.10238" lon="6.24347">
        <ele>612.6</ele>
        <time>2023-10-01T09:04:47Z</time>
      </trkpt>
      <trkpt lat="47.10249" lon="6.24335">
        <ele>612.2</ele>
        <time>2023-10-01T09:04:49Z</time>
      </trkpt>
      <trkpt lat="47.1026" lon="6.24325">
        <ele>612</ele>
        <time>2023-10-01T09:04:51Z</time>
      </trkpt>
      <trkpt lat="47.10269" lon="6.24321">
        <ele>611.6</ele>
        <time>2023-10-01T09:04:53Z</time>
      </trkpt>
      <trkpt lat="47.10274" lon="6.24321">
        <ele>611.4</ele>
        <time>2023-10-01T09:04:54Z</time>
      </trkpt>
      <trkpt lat="47.10281" lon="6.24324">
        <ele>611.6</ele>
        <time>2023-10-01T09:04:56Z</time>
      </trkpt>
      <trkpt lat="47.103" lon="6.24324">
        <ele>611.6</ele>
        <time>2023-10-01T09:05:01Z</time>
      </trkpt>
      <trkpt lat="47.10331" lon="6.24318">
        <ele>611.4</ele>
        <time>2023-10-01T09:05:09Z</time>
      </trkpt>
      <trkpt lat="47.10358" lon="6.24311">
        <ele>611</ele>
        <time>2023-10-01T09:05:15Z</time>
      </trkpt>
      <trkpt lat="47.10367" lon="6.24306">
        <ele>610.8</ele>
        <time>2023-10-01T09:05:17Z</time>
      </trkpt>
      <trkpt lat="47.10379" lon="6.24296">
        <ele>610.6</ele>
        <time>2023-10-01T09:05:20Z</time>
      </trkpt>
      <trkpt lat="47.10387" lon="6.24289">
        <ele>610.4</ele>
        <time>2023-10-01T09:05:22Z</time>
      </trkpt>
      <trkpt lat="47.10392" lon="6.24285">
        <ele>610.2</ele>
        <time>2023-10-01T09:05:23Z</time>
      </trkpt>
      <trkpt lat="47.10432" lon="6.24255">
        <ele>609.6</ele>
        <time>2023-10-01T09:05:32Z</time>
      </trkpt>
      <trkpt lat="47.10461" lon="6.24242">
        <ele>609.6</ele>
        <time>2023-10-01T09:05:39Z</time>
      </trkpt>
      <trkpt lat="47.10466" lon="6.24241">
        <ele>609.6</ele>
        <time>2023-10-01T09:05:40Z</time>
      </trkpt>
      <trkpt lat="47.10487" lon="6.24242">
        <ele>609.4</ele>
        <time>2023-10-01T09:05:45Z</time>
      </trkpt>
      <trkpt lat="47.10518" lon="6.24254">
        <ele>610</ele>
        <time>2023-10-01T09:05:53Z</time>
      </trkpt>
      <trkpt lat="47.10551" lon="6.2427">
        <ele>610</ele>
        <time>2023-10-01T09:06:01Z</time>
      </trkpt>
      <trkpt lat="47.10574" lon="6.24279">
        <ele>609.2</ele>
        <time>2023-10-01T09:06:06Z</time>
      </trkpt>
      <trkpt lat="47.10588" lon="6.24286">
        <ele>608.8</ele>
        <time>2023-10-01T09:06:09Z</time>
      </trkpt>
      <trkpt lat="47.10609" lon="6.24292">
        <ele>608.4</ele>
        <time>2023-10-01T09:06:14Z</time>
      </trkpt>
      <trkpt lat="47.10613" lon="6.24292">
        <ele>608.4</ele>
        <time>2023-10-01T09:06:15Z</time>
      </trkpt>
      <trkpt lat="47.10621" lon="6.24292">
        <ele>608</ele>
        <time>2023-10-01T09:06:17Z</time>
      </trkpt>
      <trkpt lat="47.10626" lon="6.24288">
        <ele>608.2</ele>
        <time>2023-10-01T09:06:19Z</time>
      </trkpt>
      <trkpt lat="47.10628" lon="6.24284">
        <ele>608.2</ele>
        <time>2023-10-01T09:06:20Z</time>
      </trkpt>
      <trkpt lat="47.10632" lon="6.24259">
        <ele>608.4</ele>
        <time>2023-10-01T09:06:26Z</time>
      </trkpt>
      <trkpt lat="47.10639" lon="6.24229">
        <ele>608</ele>
        <time>2023-10-01T09:06:32Z</time>
      </trkpt>
      <trkpt lat="47.10648" lon="6.24184">
        <ele>608</ele>
        <time>2023-10-01T09:06:38Z</time>
      </trkpt>
      <trkpt lat="47.1066" lon="6.24123">
        <ele>608</ele>
        <time>2023-10-01T09:06:46Z</time>
      </trkpt>
      <trkpt lat="47.10672" lon="6.24067">
        <ele>607.6</ele>
        <time>2023-10-01T09:06:53Z</time>
      </trkpt>
      <trkpt lat="47.10679" lon="6.2404">
        <ele>607</ele>
        <time>2023-10-01T09:06:56Z</time>
      </trkpt>
      <trkpt lat="47.1069" lon="6.23997">
        <ele>607</ele>
        <time>2023-10-01T09:07:01Z</time>
      </trkpt>
      <trkpt lat="47.10712" lon="6.23922">
        <ele>606.8</ele>
        <time>2023-10-01T09:07:10Z</time>
      </trkpt>
      <trkpt lat="47.10715" lon="6.23914">
        <ele>606.8</ele>
        <time>2023-10-01T09:07:11Z</time>
      </trkpt>
      <trkpt lat="47.10735" lon="6.2384">
        <ele>606.8</ele>
        <time>2023-10-01T09:07:20Z</time>
      </trkpt>
      <trkpt lat="47.10738" lon="6.23833">
        <ele>606.8</ele>
        <time>2023-10-01T09:07:21Z</time>
      </trkpt>
      <trkpt lat="47.10761" lon="6.23768">
        <ele>606.8</ele>
        <time>2023-10-01T09:07:29Z</time>
      </trkpt>
      <trkpt lat="47.10783" lon="6.23706">
        <ele>606</ele>
        <time>2023-10-01T09:07:36Z</time>
      </trkpt>
      <trkpt lat="47.10791" lon="6.23679">
        <ele>605.4</ele>
        <time>2023-10-01T09:07:39Z</time>
      </trkpt>
      <trkpt lat="47.10794" lon="6.23659">
        <ele>604.8</ele>
        <time>2023-10-01T09:07:41Z</time>
      </trkpt>
      <trkpt lat="47.10797" lon="6.23593">
        <ele>603.6</ele>
        <time>2023-10-01T09:07:47Z</time>
      </trkpt>
      <trkpt lat="47.10794" lon="6.23561">
        <ele>603</ele>
        <time>2023-10-01T09:07:50Z</time>
      </trkpt>
      <trkpt lat="47.10789" lon="6.23541">
        <ele>603</ele>
        <time>2023-10-01T09:07:52Z</time>
      </trkpt>
      <trkpt lat="47.10769" lon="6.23472">
        <ele>602.4</ele>
        <time>2023-10-01T09:07:59Z</time>
      </trkpt>
      <trkpt lat="47.10763" lon="6.23451">
        <ele>601.8</ele>
        <time>2023-10-01T09:08:01Z</time>
      </trkpt>
      <trkpt lat="47.10755" lon="6.23418">
        <ele>601.2</ele>
        <time>2023-10-01T09:08:04Z</time>
      </trkpt>
      <trkpt lat="47.10739" lon="6.23366">
        <ele>600.6</ele>
        <time>2023-10-01T09:08:09Z</time>
      </trkpt>
      <trkpt lat="47.10735" lon="6.23356">
        <ele>600.2</ele>
        <time>2023-10-01T09:08:10Z</time>
      </trkpt>
      <trkpt lat="47.1072" lon="6.23321">
        <ele>598.8</ele>
        <time>2023-10-01T09:08:14Z</time>
      </trkpt>
      <trkpt lat="47.1071" lon="6.23297">
        <ele>597.8</ele>
        <time>2023-10-01T09:08:18Z</time>
      </trkpt>
      <trkpt lat="47.1071" lon="6.23293">
        <ele>597.4</ele>
        <time>2023-10-01T09:08:19Z</time>
      </trkpt>
      <trkpt lat="47.10712" lon="6.23284">
        <ele>596.8</ele>
        <time>2023-10-01T09:08:21Z</time>
      </trkpt>
      <trkpt lat="47.10715" lon="6.2328">
        <ele>596.6</ele>
        <time>2023-10-01T09:08:22Z</time>
      </trkpt>
      <trkpt lat="47.10723" lon="6.23273">
        <ele>596</ele>
        <time>2023-10-01T09:08:24Z</time>
      </trkpt>
      <trkpt lat="47.10727" lon="6.23269">
        <ele>595.8</ele>
        <time>2023-10-01T09:08:25Z</time>
      </trkpt>
      <trkpt lat="47.10731" lon="6.23265">
        <ele>595.6</ele>
        <time>2023-10-01T09:08:26Z</time>
      </trkpt>
      <trkpt lat="47.10753" lon="6.23241">
        <ele>595.6</ele>
        <time>2023-10-01T09:08:31Z</time>
      </trkpt>
      <trkpt lat="47.10787" lon="6.23196">
        <ele>596</ele>
        <time>2023-10-01T09:08:39Z</time>
      </trkpt>
      <trkpt lat="47.10798" lon="6.2318">
        <ele>596.6</ele>
        <time>2023-10-01T09:08:42Z</time>
      </trkpt>
      <trkpt lat="47.10814" lon="6.23152">
        <ele>597</ele>
        <time>2023-10-01T09:08:47Z</time>
      </trkpt>
      <trkpt lat="47.10836" lon="6.23113">
        <ele>597.8</ele>
        <time>2023-10-01T09:08:54Z</time>
      </trkpt>
      <trkpt lat="47.10843" lon="6.23104">
        <ele>597.8</ele>
        <time>2023-10-01T09:08:56Z</time>
      </trkpt>
      <trkpt lat="47.10855" lon="6.23095">
        <ele>597.8</ele>
        <time>2023-10-01T09:08:59Z</time>
      </trkpt>
      <trkpt lat="47.10878" lon="6.23094">
        <ele>598.4</ele>
        <time>2023-10-01T09:09:04Z</time>
      </trkpt>
      <trkpt lat="47.10893" lon="6.23094">
        <ele>598.8</ele>
        <time>2023-10-01T09:09:07Z</time>
      </trkpt>
      <trkpt lat="47.10921" lon="6.23091">
        <ele>599.8</ele>
        <time>2023-10-01T09:09:13Z</time>
      </trkpt>
      <trkpt lat="47.10949" lon="6.23085">
        <ele>601</ele>
        <time>2023-10-01T09:09:19Z</time>
      </trkpt>
      <trkpt lat="47.10957" lon="6.23082">
        <ele>601.2</ele>
        <time>2023-10-01T09:09:21Z</time>
      </trkpt>
      <trkpt lat="47.10982" lon="6.23076">
        <ele>602.2</ele>
        <time>2023-10-01T09:09:27Z</time>
      </trkpt>
      <trkpt lat="47.10991" lon="6.23075">
        <ele>602.6</ele>
        <time>2023-10-01T09:09:29Z</time>
      </trkpt>
      <trkpt lat="47.11014" lon="6.23072">
        <ele>602.8</ele>
        <time>2023-10-01T09:09:34Z</time>
      </trkpt>
      <trkpt lat="47.11023" lon="6.23074">
        <ele>602.8</ele>
        <time>2023-10-01T09:09:36Z</time>
      </trkpt>
      <trkpt lat="47.11027" lon="6.23073">
        <ele>603</ele>
        <time>2023-10-01T09:09:37Z</time>
      </trkpt>
      <trkpt lat="47.11032" lon="6.23064">
        <ele>603</ele>
        <time>2023-10-01T09:09:39Z</time>
      </trkpt>
      <trkpt lat="47.11029" lon="6.23052">
        <ele>603</ele>
        <time>2023-10-01T09:09:42Z</time>
      </trkpt>
      <trkpt lat="47.11023" lon="6.23039">
        <ele>602.6</ele>
        <time>2023-10-01T09:09:47Z</time>
      </trkpt>
      <trkpt lat="47.11023" lon="6.23028">
        <ele>602.2</ele>
        <time>2023-10-01T09:09:51Z</time>
      </trkpt>
      <trkpt lat="47.11022" lon="6.23021">
        <ele>601</ele>
        <time>2023-10-01T09:09:54Z</time>
      </trkpt>
      <trkpt lat="47.11022" lon="6.23019">
        <ele>600.6</ele>
        <time>2023-10-01T09:09:55Z</time>
      </trkpt>
      <trkpt lat="47.11023" lon="6.23016">
        <ele>600.4</ele>
        <time>2023-10-01T09:09:56Z</time>
      </trkpt>
      <trkpt lat="47.11027" lon="6.22999">
        <ele>600.2</ele>
        <time>2023-10-01T09:10:00Z</time>
      </trkpt>
      <trkpt lat="47.11029" lon="6.22979">
        <ele>599.8</ele>
        <time>2023-10-01T09:10:04Z</time>
      </trkpt>
      <trkpt lat="47.1103" lon="6.22973">
        <ele>599.6</ele>
        <time>2023-10-01T09:10:06Z</time>
      </trkpt>
      <trkpt lat="47.11032" lon="6.22958">
        <ele>599.6</ele>
        <time>2023-10-01T09:10:12Z</time>
      </trkpt>
      <trkpt lat="47.11031" lon="6.22932">
        <ele>599.4</ele>
        <time>2023-10-01T09:10:17Z</time>
      </trkpt>
      <trkpt lat="47.11022" lon="6.22879">
        <ele>599.8</ele>
        <time>2023-10-01T09:10:25Z</time>
      </trkpt>
      <trkpt lat="47.11007" lon="6.22829">
        <ele>599.8</ele>
        <time>2023-10-01T09:10:32Z</time>
      </trkpt>
      <trkpt lat="47.10985" lon="6.22779">
        <ele>599.8</ele>
        <time>2023-10-01T09:10:40Z</time>
      </trkpt>
      <trkpt lat="47.10984" lon="6.22772">
        <ele>599</ele>
        <time>2023-10-01T09:10:43Z</time>
      </trkpt>
      <trkpt lat="47.10984" lon="6.22771">
        <ele>598.8</ele>
        <time>2023-10-01T09:10:44Z</time>
      </trkpt>
      <trkpt lat="47.10982" lon="6.22764">
        <ele>598.6</ele>
        <time>2023-10-01T09:10:49Z</time>
      </trkpt>
      <trkpt lat="47.10976" lon="6.22744">
        <ele>598.2</ele>
        <time>2023-10-01T09:10:54Z</time>
      </trkpt>
      <trkpt lat="47.10965" lon="6.22707">
        <ele>598.4</ele>
        <time>2023-10-01T09:11:00Z</time>
      </trkpt>
      <trkpt lat="47.10944" lon="6.22654">
        <ele>599.2</ele>
        <time>2023-10-01T09:11:08Z</time>
      </trkpt>
      <trkpt lat="47.1092" lon="6.22607">
        <ele>599.8</ele>
        <time>2023-10-01T09:11:15Z</time>
      </trkpt>
      <trkpt lat="47.10913" lon="6.22592">
        <ele>600</ele>
        <time>2023-10-01T09:11:17Z</time>
      </trkpt>
      <trkpt lat="47.10892" lon="6.2254">
        <ele>600.8</ele>
        <time>2023-10-01T09:11:24Z</time>
      </trkpt>
      <trkpt lat="47.10872" lon="6.22473">
        <ele>600</ele>
        <time>2023-10-01T09:11:32Z</time>
      </trkpt>
      <trkpt lat="47.10851" lon="6.22439">
        <ele>599.2</ele>
        <time>2023-10-01T09:11:37Z</time>
      </trkpt>
      <trkpt lat="47.10837" lon="6.22419">
        <ele>598.8</ele>
        <time>2023-10-01T09:11:41Z</time>
      </trkpt>
      <trkpt lat="47.10819" lon="6.22387">
        <ele>598.6</ele>
        <time>2023-10-01T09:11:46Z</time>
      </trkpt>
      <trkpt lat="47.10804" lon="6.22357">
        <ele>597.8</ele>
        <time>2023-10-01T09:11:50Z</time>
      </trkpt>
      <trkpt lat="47.10795" lon="6.22341">
        <ele>597.4</ele>
        <time>2023-10-01T09:11:52Z</time>
      </trkpt>
      <trkpt lat="47.10764" lon="6.22302">
        <ele>596.6</ele>
        <time>2023-10-01T09:11:58Z</time>
      </trkpt>
      <trkpt lat="47.10726" lon="6.22273">
        <ele>596.2</ele>
        <time>2023-10-01T09:12:04Z</time>
      </trkpt>
      <trkpt lat="47.10678" lon="6.22236">
        <ele>595.8</ele>
        <time>2023-10-01T09:12:12Z</time>
      </trkpt>
      <trkpt lat="47.10672" lon="6.22231">
        <ele>595.8</ele>
        <time>2023-10-01T09:12:13Z</time>
      </trkpt>
      <trkpt lat="47.10625" lon="6.22189">
        <ele>595.6</ele>
        <time>2023-10-01T09:12:21Z</time>
      </trkpt>
      <trkpt lat="47.10619" lon="6.22184">
        <ele>595.6</ele>
        <time>2023-10-01T09:12:22Z</time>
      </trkpt>
      <trkpt lat="47.1058" lon="6.2215">
        <ele>595.6</ele>
        <time>2023-10-01T09:12:29Z</time>
      </trkpt>
      <trkpt lat="47.10543" lon="6.22103">
        <ele>594.6</ele>
        <time>2023-10-01T09:12:36Z</time>
      </trkpt>
      <trkpt lat="47.10509" lon="6.22051">
        <ele>594.8</ele>
        <time>2023-10-01T09:12:43Z</time>
      </trkpt>
      <trkpt lat="47.10492" lon="6.22016">
        <ele>595</ele>
        <time>2023-10-01T09:12:48Z</time>
      </trkpt>
      <trkpt lat="47.10459" lon="6.21957">
        <ele>594.8</ele>
        <time>2023-10-01T09:12:57Z</time>
      </trkpt>
      <trkpt lat="47.1043" lon="6.21925">
        <ele>595.2</ele>
        <time>2023-10-01T09:13:03Z</time>
      </trkpt>
      <trkpt lat="47.10386" lon="6.21891">
        <ele>595.6</ele>
        <time>2023-10-01T09:13:11Z</time>
      </trkpt>
      <trkpt lat="47.1038" lon="6.21887">
        <ele>595.6</ele>
        <time>2023-10-01T09:13:12Z</time>
      </trkpt>
      <trkpt lat="47.10346" lon="6.21852">
        <ele>596.2</ele>
        <time>2023-10-01T09:13:19Z</time>
      </trkpt>
      <trkpt lat="47.10319" lon="6.2183">
        <ele>596.6</ele>
        <time>2023-10-01T09:13:24Z</time>
      </trkpt>
      <trkpt lat="47.10313" lon="6.21827">
        <ele>596.6</ele>
        <time>2023-10-01T09:13:25Z</time>
      </trkpt>
      <trkpt lat="47.10265" lon="6.21797">
        <ele>597.8</ele>
        <time>2023-10-01T09:13:34Z</time>
      </trkpt>
      <trkpt lat="47.10246" lon="6.21784">
        <ele>599</ele>
        <time>2023-10-01T09:13:38Z</time>
      </trkpt>
      <trkpt lat="47.10229" lon="6.21771">
        <ele>599.8</ele>
        <time>2023-10-01T09:13:42Z</time>
      </trkpt>
      <trkpt lat="47.1022" lon="6.21765">
        <ele>600</ele>
        <time>2023-10-01T09:13:44Z</time>
      </trkpt>
      <trkpt lat="47.10216" lon="6.2176">
        <ele>600.4</ele>
        <time>2023-10-01T09:13:45Z</time>
      </trkpt>
      <trkpt lat="47.10213" lon="6.21747">
        <ele>600.6</ele>
        <time>2023-10-01T09:13:47Z</time>
      </trkpt>
      <trkpt lat="47.10219" lon="6.21727">
        <ele>601</ele>
        <time>2023-10-01T09:13:50Z</time>
      </trkpt>
      <trkpt lat="47.10246" lon="6.21687">
        <ele>600.8</ele>
        <time>2023-10-01T09:13:57Z</time>
      </trkpt>
      <trkpt lat="47.10261" lon="6.21665">
        <ele>601.2</ele>
        <time>2023-10-01T09:14:01Z</time>
      </trkpt>
      <trkpt lat="47.10268" lon="6.21648">
        <ele>601.6</ele>
        <time>2023-10-01T09:14:04Z</time>
      </trkpt>
      <trkpt lat="47.10276" lon="6.21617">
        <ele>602.4</ele>
        <time>2023-10-01T09:14:09Z</time>
      </trkpt>
      <trkpt lat="47.10277" lon="6.21611">
        <ele>602.6</ele>
        <time>2023-10-01T09:14:10Z</time>
      </trkpt>
      <trkpt lat="47.10277" lon="6.21591">
        <ele>603.2</ele>
        <time>2023-10-01T09:14:13Z</time>
      </trkpt>
      <trkpt lat="47.10274" lon="6.2157">
        <ele>603.2</ele>
        <time>2023-10-01T09:14:16Z</time>
      </trkpt>
      <trkpt lat="47.10264" lon="6.2152">
        <ele>603.2</ele>
        <time>2023-10-01T09:14:23Z</time>
      </trkpt>
      <trkpt lat="47.10254" lon="6.21465">
        <ele>602.6</ele>
        <time>2023-10-01T09:14:31Z</time>
      </trkpt>
      <trkpt lat="47.10246" lon="6.21414">
        <ele>603</ele>
        <time>2023-10-01T09:14:39Z</time>
      </trkpt>
      <trkpt lat="47.1024" lon="6.21374">
        <ele>602.4</ele>
        <time>2023-10-01T09:14:46Z</time>
      </trkpt>
      <trkpt lat="47.10237" lon="6.21345">
        <ele>601.6</ele>
        <time>2023-10-01T09:14:52Z</time>
      </trkpt>
      <trkpt lat="47.1023" lon="6.21319">
        <ele>601.4</ele>
        <time>2023-10-01T09:14:58Z</time>
      </trkpt>
      <trkpt lat="47.10229" lon="6.2131">
        <ele>601.2</ele>
        <time>2023-10-01T09:15:00Z</time>
      </trkpt>
      <trkpt lat="47.10224" lon="6.21289">
        <ele>601</ele>
        <time>2023-10-01T09:15:05Z</time>
      </trkpt>
      <trkpt lat="47.10218" lon="6.21264">
        <ele>601.2</ele>
        <time>2023-10-01T09:15:11Z</time>
      </trkpt>
      <trkpt lat="47.10213" lon="6.2123">
        <ele>601.6</ele>
        <time>2023-10-01T09:15:18Z</time>
      </trkpt>
      <trkpt lat="47.10205" lon="6.21207">
        <ele>602.2</ele>
        <time>2023-10-01T09:15:22Z</time>
      </trkpt>
      <trkpt lat="47.10203" lon="6.21202">
        <ele>602.6</ele>
        <time>2023-10-01T09:15:23Z</time>
      </trkpt>
      <trkpt lat="47.10193" lon="6.2118">
        <ele>603.4</ele>
        <time>2023-10-01T09:15:27Z</time>
      </trkpt>
      <trkpt lat="47.10185" lon="6.21165">
        <ele>604.6</ele>
        <time>2023-10-01T09:15:30Z</time>
      </trkpt>
      <trkpt lat="47.1018" lon="6.21147">
        <ele>605.8</ele>
        <time>2023-10-01T09:15:33Z</time>
      </trkpt>
      <trkpt lat="47.10177" lon="6.21133">
        <ele>606.2</ele>
        <time>2023-10-01T09:15:35Z</time>
      </trkpt>
      <trkpt lat="47.10167" lon="6.21087">
        <ele>606.8</ele>
        <time>2023-10-01T09:15:41Z</time>
      </trkpt>
      <trkpt lat="47.10165" lon="6.2108">
        <ele>607</ele>
        <time>2023-10-01T09:15:42Z</time>
      </trkpt>
      <trkpt lat="47.10163" lon="6.21072">
        <ele>607.2</ele>
        <time>2023-10-01T09:15:43Z</time>
      </trkpt>
      <trkpt lat="47.10155" lon="6.21053">
        <ele>607.6</ele>
        <time>2023-10-01T09:15:46Z</time>
      </trkpt>
      <trkpt lat="47.10152" lon="6.21047">
        <ele>607.6</ele>
        <time>2023-10-01T09:15:47Z</time>
      </trkpt>
      <trkpt lat="47.10129" lon="6.21013">
        <ele>607.2</ele>
        <time>2023-10-01T09:15:53Z</time>
      </trkpt>
      <trkpt lat="47.10118" lon="6.20997">
        <ele>606.8</ele>
        <time>2023-10-01T09:15:56Z</time>
      </trkpt>
      <trkpt lat="47.10114" lon="6.20995">
        <ele>606.8</ele>
        <time>2023-10-01T09:15:57Z</time>
      </trkpt>
      <trkpt lat="47.1009" lon="6.20986">
        <ele>607.4</ele>
        <time>2023-10-01T09:16:02Z</time>
      </trkpt>
      <trkpt lat="47.1008" lon="6.20982">
        <ele>608.2</ele>
        <time>2023-10-01T09:16:04Z</time>
      </trkpt>
      <trkpt lat="47.10071" lon="6.20979">
        <ele>609.8</ele>
        <time>2023-10-01T09:16:06Z</time>
      </trkpt>
      <trkpt lat="47.10062" lon="6.20976">
        <ele>611.2</ele>
        <time>2023-10-01T09:16:08Z</time>
      </trkpt>
      <trkpt lat="47.10058" lon="6.20975">
        <ele>612</ele>
        <time>2023-10-01T09:16:09Z</time>
      </trkpt>
      <trkpt lat="47.10053" lon="6.20974">
        <ele>612.6</ele>
        <time>2023-10-01T09:16:10Z</time>
      </trkpt>
      <trkpt lat="47.10044" lon="6.20971">
        <ele>614</ele>
        <time>2023-10-01T09:16:12Z</time>
      </trkpt>
      <trkpt lat="47.10035" lon="6.20968">
        <ele>615.8</ele>
        <time>2023-10-01T09:16:14Z</time>
      </trkpt>
      <trkpt lat="47.10027" lon="6.20965">
        <ele>617.4</ele>
        <time>2023-10-01T09:16:16Z</time>
      </trkpt>
      <trkpt lat="47.10019" lon="6.20962">
        <ele>618.8</ele>
        <time>2023-10-01T09:16:18Z</time>
      </trkpt>
      <trkpt lat="47.10011" lon="6.20959">
        <ele>620.4</ele>
        <time>2023-10-01T09:16:20Z</time>
      </trkpt>
      <trkpt lat="47.10002" lon="6.20956">
        <ele>621.6</ele>
        <time>2023-10-01T09:16:22Z</time>
      </trkpt>
      <trkpt lat="47.09998" lon="6.20955">
        <ele>622.4</ele>
        <time>2023-10-01T09:16:23Z</time>
      </trkpt>
      <trkpt lat="47.09994" lon="6.20954">
        <ele>623</ele>
        <time>2023-10-01T09:16:24Z</time>
      </trkpt>
      <trkpt lat="47.09986" lon="6.20952">
        <ele>624.6</ele>
        <time>2023-10-01T09:16:26Z</time>
      </trkpt>
      <trkpt lat="47.09979" lon="6.2095">
        <ele>626</ele>
        <time>2023-10-01T09:16:28Z</time>
      </trkpt>
      <trkpt lat="47.09972" lon="6.20948">
        <ele>627.4</ele>
        <time>2023-10-01T09:16:30Z</time>
      </trkpt>
      <trkpt lat="47.09966" lon="6.20947">
        <ele>629</ele>
        <time>2023-10-01T09:16:32Z</time>
      </trkpt>
      <trkpt lat="47.09959" lon="6.20945">
        <ele>630.6</ele>
        <time>2023-10-01T09:16:34Z</time>
      </trkpt>
      <trkpt lat="47.09952" lon="6.20943">
        <ele>632.4</ele>
        <time>2023-10-01T09:16:36Z</time>
      </trkpt>
      <trkpt lat="47.09949" lon="6.20942">
        <ele>633</ele>
        <time>2023-10-01T09:16:37Z</time>
      </trkpt>
      <trkpt lat="47.09945" lon="6.20941">
        <ele>633.6</ele>
        <time>2023-10-01T09:16:38Z</time>
      </trkpt>
      <trkpt lat="47.09939" lon="6.20939">
        <ele>634.6</ele>
        <time>2023-10-01T09:16:40Z</time>
      </trkpt>
      <trkpt lat="47.09929" lon="6.20937">
        <ele>635.8</ele>
        <time>2023-10-01T09:16:43Z</time>
      </trkpt>
      <trkpt lat="47.09925" lon="6.20936">
        <ele>636</ele>
        <time>2023-10-01T09:16:44Z</time>
      </trkpt>
      <trkpt lat="47.09914" lon="6.20934">
        <ele>636.8</ele>
        <time>2023-10-01T09:16:47Z</time>
      </trkpt>
      <trkpt lat="47.09905" lon="6.20933">
        <ele>637</ele>
        <time>2023-10-01T09:16:50Z</time>
      </trkpt>
      <trkpt lat="47.09885" lon="6.2093">
        <ele>635.8</ele>
        <time>2023-10-01T09:16:55Z</time>
      </trkpt>
      <trkpt lat="47.09873" lon="6.20934">
        <ele>634</ele>
        <time>2023-10-01T09:16:58Z</time>
      </trkpt>
      <trkpt lat="47.0986" lon="6.20939">
        <ele>633.6</ele>
        <time>2023-10-01T09:17:01Z</time>
      </trkpt>
      <trkpt lat="47.09855" lon="6.20939">
        <ele>633.2</ele>
        <time>2023-10-01T09:17:02Z</time>
      </trkpt>
      <trkpt lat="47.0985" lon="6.2094">
        <ele>633</ele>
        <time>2023-10-01T09:17:03Z</time>
      </trkpt>
      <trkpt lat="47.09842" lon="6.20944">
        <ele>632.2</ele>
        <time>2023-10-01T09:17:05Z</time>
      </trkpt>
      <trkpt lat="47.09839" lon="6.20946">
        <ele>631.8</ele>
        <time>2023-10-01T09:17:06Z</time>
      </trkpt>
      <trkpt lat="47.09826" lon="6.20958">
        <ele>631.2</ele>
        <time>2023-10-01T09:17:10Z</time>
      </trkpt>
      <trkpt lat="47.09818" lon="6.20965">
        <ele>631</ele>
        <time>2023-10-01T09:17:12Z</time>
      </trkpt>
      <trkpt lat="47.09813" lon="6.20969">
        <ele>630.2</ele>
        <time>2023-10-01T09:17:13Z</time>
      </trkpt>
      <trkpt lat="47.09808" lon="6.20971">
        <ele>629.8</ele>
        <time>2023-10-01T09:17:14Z</time>
      </trkpt>
      <trkpt lat="47.09803" lon="6.20973">
        <ele>629.2</ele>
        <time>2023-10-01T09:17:15Z</time>
      </trkpt>
      <trkpt lat="47.09798" lon="6.20974">
        <ele>628.6</ele>
        <time>2023-10-01T09:17:16Z</time>
      </trkpt>
      <trkpt lat="47.09794" lon="6.20976">
        <ele>628</ele>
        <time>2023-10-01T09:17:17Z</time>
      </trkpt>
      <trkpt lat="47.09789" lon="6.20977">
        <ele>627.8</ele>
        <time>2023-10-01T09:17:18Z</time>
      </trkpt>
      <trkpt lat="47.0978" lon="6.2098">
        <ele>627.8</ele>
        <time>2023-10-01T09:17:20Z</time>
      </trkpt>
      <trkpt lat="47.09766" lon="6.2099">
        <ele>627</ele>
        <time>2023-10-01T09:17:23Z</time>
      </trkpt>
      <trkpt lat="47.09761" lon="6.20992">
        <ele>626.6</ele>
        <time>2023-10-01T09:17:24Z</time>
      </trkpt>
      <trkpt lat="47.09744" lon="6.20996">
        <ele>626</ele>
        <time>2023-10-01T09:17:27Z</time>
      </trkpt>
      <trkpt lat="47.09739" lon="6.20996">
        <ele>625.8</ele>
        <time>2023-10-01T09:17:28Z</time>
      </trkpt>
      <trkpt lat="47.09729" lon="6.20997">
        <ele>625.4</ele>
        <time>2023-10-01T09:17:30Z</time>
      </trkpt>
      <trkpt lat="47.09718" lon="6.20997">
        <ele>624.8</ele>
        <time>2023-10-01T09:17:32Z</time>
      </trkpt>
      <trkpt lat="47.09689" lon="6.21003">
        <ele>623.6</ele>
        <time>2023-10-01T09:17:37Z</time>
      </trkpt>
      <trkpt lat="47.09682" lon="6.21005">
        <ele>623.4</ele>
        <time>2023-10-01T09:17:38Z</time>
      </trkpt>
      <trkpt lat="47.09669" lon="6.21011">
        <ele>622.6</ele>
        <time>2023-10-01T09:17:40Z</time>
      </trkpt>
      <trkpt lat="47.09651" lon="6.21019">
        <ele>621.4</ele>
        <time>2023-10-01T09:17:43Z</time>
      </trkpt>
      <trkpt lat="47.09637" lon="6.21023">
        <ele>620.4</ele>
        <time>2023-10-01T09:17:45Z</time>
      </trkpt>
      <trkpt lat="47.09623" lon="6.2103">
        <ele>619.2</ele>
        <time>2023-10-01T09:17:47Z</time>
      </trkpt>
      <trkpt lat="47.09609" lon="6.21035">
        <ele>618.4</ele>
        <time>2023-10-01T09:17:49Z</time>
      </trkpt>
      <trkpt lat="47.09602" lon="6.21038">
        <ele>618</ele>
        <time>2023-10-01T09:17:50Z</time>
      </trkpt>
      <trkpt lat="47.09595" lon="6.21042">
        <ele>617.4</ele>
        <time>2023-10-01T09:17:51Z</time>
      </trkpt>
      <trkpt lat="47.09581" lon="6.21049">
        <ele>616.6</ele>
        <time>2023-10-01T09:17:53Z</time>
      </trkpt>
      <trkpt lat="47.09574" lon="6.21052">
        <ele>616.2</ele>
        <time>2023-10-01T09:17:54Z</time>
      </trkpt>
      <trkpt lat="47.0956" lon="6.21058">
        <ele>615.2</ele>
        <time>2023-10-01T09:17:56Z</time>
      </trkpt>
      <trkpt lat="47.09553" lon="6.21062">
        <ele>615</ele>
        <time>2023-10-01T09:17:57Z</time>
      </trkpt>
      <trkpt lat="47.09547" lon="6.21067">
        <ele>614.6</ele>
        <time>2023-10-01T09:17:58Z</time>
      </trkpt>
      <trkpt lat="47.09541" lon="6.21071">
        <ele>614.2</ele>
        <time>2023-10-01T09:17:59Z</time>
      </trkpt>
      <trkpt lat="47.09536" lon="6.21074">
        <ele>614</ele>
        <time>2023-10-01T09:18:00Z</time>
      </trkpt>
      <trkpt lat="47.09525" lon="6.21078">
        <ele>612.8</ele>
        <time>2023-10-01T09:18:02Z</time>
      </trkpt>
      <trkpt lat="47.09515" lon="6.21071">
        <ele>611.8</ele>
        <time>2023-10-01T09:18:04Z</time>
      </trkpt>
      <trkpt lat="47.0951" lon="6.21065">
        <ele>611.2</ele>
        <time>2023-10-01T09:18:05Z</time>
      </trkpt>
      <trkpt lat="47.09506" lon="6.2106">
        <ele>610.6</ele>
        <time>2023-10-01T09:18:06Z</time>
      </trkpt>
      <trkpt lat="47.09497" lon="6.21048">
        <ele>609.6</ele>
        <time>2023-10-01T09:18:08Z</time>
      </trkpt>
      <trkpt lat="47.09484" lon="6.21029">
        <ele>608.4</ele>
        <time>2023-10-01T09:18:11Z</time>
      </trkpt>
      <trkpt lat="47.0948" lon="6.21022">
        <ele>607.8</ele>
        <time>2023-10-01T09:18:12Z</time>
      </trkpt>
      <trkpt lat="47.09472" lon="6.21009">
        <ele>607</ele>
        <time>2023-10-01T09:18:14Z</time>
      </trkpt>
      <trkpt lat="47.09461" lon="6.20988">
        <ele>606</ele>
        <time>2023-10-01T09:18:17Z</time>
      </trkpt>
      <trkpt lat="47.09454" lon="6.20974">
        <ele>605.2</ele>
        <time>2023-10-01T09:18:19Z</time>
      </trkpt>
      <trkpt lat="47.09448" lon="6.20959">
        <ele>604.8</ele>
        <time>2023-10-01T09:18:21Z</time>
      </trkpt>
      <trkpt lat="47.09428" lon="6.20924">
        <ele>603.8</ele>
        <time>2023-10-01T09:18:26Z</time>
      </trkpt>
      <trkpt lat="47.09403" lon="6.20894">
        <ele>602.8</ele>
        <time>2023-10-01T09:18:31Z</time>
      </trkpt>
      <trkpt lat="47.09398" lon="6.20889">
        <ele>602.6</ele>
        <time>2023-10-01T09:18:32Z</time>
      </trkpt>
      <trkpt lat="47.09385" lon="6.20877">
        <ele>602.2</ele>
        <time>2023-10-01T09:18:35Z</time>
      </trkpt>
      <trkpt lat="47.09382" lon="6.20878">
        <ele>602.2</ele>
        <time>2023-10-01T09:18:36Z</time>
      </trkpt>
      <trkpt lat="47.09377" lon="6.20887">
        <ele>601.6</ele>
        <time>2023-10-01T09:18:38Z</time>
      </trkpt>
      <trkpt lat="47.09375" lon="6.20892">
        <ele>601.4</ele>
        <time>2023-10-01T09:18:39Z</time>
      </trkpt>
      <trkpt lat="47.09369" lon="6.20899">
        <ele>600.6</ele>
        <time>2023-10-01T09:18:41Z</time>
      </trkpt>
      <trkpt lat="47.09365" lon="6.209">
        <ele>600.2</ele>
        <time>2023-10-01T09:18:42Z</time>
      </trkpt>
      <trkpt lat="47.09363" lon="6.20901">
        <ele>599.6</ele>
        <time>2023-10-01T09:18:43Z</time>
      </trkpt>
      <trkpt lat="47.09358" lon="6.20903">
        <ele>598.4</ele>
        <time>2023-10-01T09:18:46Z</time>
      </trkpt>
      <trkpt lat="47.09359" lon="6.20911">
        <ele>595</ele>
        <time>2023-10-01T09:18:54Z</time>
      </trkpt>
      <trkpt lat="47.09359" lon="6.20914">
        <ele>594.4</ele>
        <time>2023-10-01T09:18:55Z</time>
      </trkpt>
      <trkpt lat="47.09359" lon="6.20917">
        <ele>594</ele>
        <time>2023-10-01T09:18:56Z</time>
      </trkpt>
      <trkpt lat="47.0936" lon="6.20924">
        <ele>592.4</ele>
        <time>2023-10-01T09:18:58Z</time>
      </trkpt>
      <trkpt lat="47.09359" lon="6.20926">
        <ele>591.6</ele>
        <time>2023-10-01T09:18:59Z</time>
      </trkpt>
      <trkpt lat="47.09358" lon="6.20927">
        <ele>590.6</ele>
        <time>2023-10-01T09:19:01Z</time>
      </trkpt>
      <trkpt lat="47.09352" lon="6.20928">
        <ele>588.8</ele>
        <time>2023-10-01T09:19:03Z</time>
      </trkpt>
      <trkpt lat="47.09346" lon="6.20925">
        <ele>587</ele>
        <time>2023-10-01T09:19:05Z</time>
      </trkpt>
      <trkpt lat="47.09342" lon="6.20924">
        <ele>585.6</ele>
        <time>2023-10-01T09:19:07Z</time>
      </trkpt>
      <trkpt lat="47.0934" lon="6.20926">
        <ele>585</ele>
        <time>2023-10-01T09:19:08Z</time>
      </trkpt>
      <trkpt lat="47.09339" lon="6.20929">
        <ele>584.4</ele>
        <time>2023-10-01T09:19:09Z</time>
      </trkpt>
      <trkpt lat="47.09334" lon="6.20934">
        <ele>582.8</ele>
        <time>2023-10-01T09:19:11Z</time>
      </trkpt>
      <trkpt lat="47.09331" lon="6.20935">
        <ele>582</ele>
        <time>2023-10-01T09:19:12Z</time>
      </trkpt>
      <trkpt lat="47.09329" lon="6.20936">
        <ele>581.6</ele>
        <time>2023-10-01T09:19:13Z</time>
      </trkpt>
      <trkpt lat="47.09324" lon="6.20936">
        <ele>580.4</ele>
        <time>2023-10-01T09:19:15Z</time>
      </trkpt>
      <trkpt lat="47.09279" lon="6.20959">
        <ele>578.6</ele>
        <time>2023-10-01T09:20:45Z</time>
      </trkpt>
      <trkpt lat="47.09266" lon="6.20965">
        <ele>577.6</ele>
        <time>2023-10-01T09:20:49Z</time>
      </trkpt>
      <trkpt lat="47.09263" lon="6.20966">
        <ele>577.2</ele>
        <time>2023-10-01T09:20:50Z</time>
      </trkpt>
      <trkpt lat="47.09247" lon="6.20968">
        <ele>576.6</ele>
        <time>2023-10-01T09:20:56Z</time>
      </trkpt>
      <trkpt lat="47.09245" lon="6.20969">
        <ele>576.4</ele>
        <time>2023-10-01T09:20:57Z</time>
      </trkpt>
      <trkpt lat="47.09235" lon="6.20977">
        <ele>575.4</ele>
        <time>2023-10-01T09:21:02Z</time>
      </trkpt>
      <trkpt lat="47.09234" lon="6.20979">
        <ele>575.2</ele>
        <time>2023-10-01T09:21:03Z</time>
      </trkpt>
      <trkpt lat="47.09224" lon="6.20987">
        <ele>574</ele>
        <time>2023-10-01T09:21:08Z</time>
      </trkpt>
      <trkpt lat="47.09214" lon="6.20995">
        <ele>572.8</ele>
        <time>2023-10-01T09:21:12Z</time>
      </trkpt>
      <trkpt lat="47.09203" lon="6.21007">
        <ele>572.2</ele>
        <time>2023-10-01T09:21:15Z</time>
      </trkpt>
      <trkpt lat="47.09185" lon="6.21031">
        <ele>571.6</ele>
        <time>2023-10-01T09:21:20Z</time>
      </trkpt>
      <trkpt lat="47.09181" lon="6.21035">
        <ele>571.4</ele>
        <time>2023-10-01T09:21:21Z</time>
      </trkpt>
      <trkpt lat="47.09162" lon="6.21057">
        <ele>570.6</ele>
        <time>2023-10-01T09:21:27Z</time>
      </trkpt>
      <trkpt lat="47.0916" lon="6.21061">
        <ele>570.4</ele>
        <time>2023-10-01T09:21:28Z</time>
      </trkpt>
      <trkpt lat="47.09159" lon="6.21065">
        <ele>570.2</ele>
        <time>2023-10-01T09:21:29Z</time>
      </trkpt>
      <trkpt lat="47.09152" lon="6.21076">
        <ele>569.2</ele>
        <time>2023-10-01T09:21:32Z</time>
      </trkpt>
      <trkpt lat="47.09149" lon="6.21079">
        <ele>569.2</ele>
        <time>2023-10-01T09:21:33Z</time>
      </trkpt>
      <trkpt lat="47.09146" lon="6.21082">
        <ele>569.2</ele>
        <time>2023-10-01T09:21:34Z</time>
      </trkpt>
      <trkpt lat="47.09132" lon="6.21091">
        <ele>568</ele>
        <time>2023-10-01T09:21:39Z</time>
      </trkpt>
      <trkpt lat="47.09123" lon="6.21094">
        <ele>568</ele>
        <time>2023-10-01T09:21:41Z</time>
      </trkpt>
      <trkpt lat="47.09114" lon="6.211">
        <ele>567</ele>
        <time>2023-10-01T09:21:44Z</time>
      </trkpt>
      <trkpt lat="47.09097" lon="6.21111">
        <ele>566</ele>
        <time>2023-10-01T09:21:49Z</time>
      </trkpt>
      <trkpt lat="47.09085" lon="6.21121">
        <ele>564.8</ele>
        <time>2023-10-01T09:21:52Z</time>
      </trkpt>
      <trkpt lat="47.09076" lon="6.21134">
        <ele>563.6</ele>
        <time>2023-10-01T09:21:55Z</time>
      </trkpt>
      <trkpt lat="47.09067" lon="6.21154">
        <ele>562.4</ele>
        <time>2023-10-01T09:21:58Z</time>
      </trkpt>
      <trkpt lat="47.0906" lon="6.21174">
        <ele>561.8</ele>
        <time>2023-10-01T09:22:01Z</time>
      </trkpt>
      <trkpt lat="47.09058" lon="6.21181">
        <ele>560.8</ele>
        <time>2023-10-01T09:22:02Z</time>
      </trkpt>
      <trkpt lat="47.09057" lon="6.21187">
        <ele>559.6</ele>
        <time>2023-10-01T09:22:03Z</time>
      </trkpt>
      <trkpt lat="47.09056" lon="6.21191">
        <ele>558.2</ele>
        <time>2023-10-01T09:22:04Z</time>
      </trkpt>
      <trkpt lat="47.09055" lon="6.21198">
        <ele>557.2</ele>
        <time>2023-10-01T09:22:05Z</time>
      </trkpt>
      <trkpt lat="47.0905" lon="6.2121">
        <ele>554.8</ele>
        <time>2023-10-01T09:22:07Z</time>
      </trkpt>
      <trkpt lat="47.09042" lon="6.21221">
        <ele>553.4</ele>
        <time>2023-10-01T09:22:09Z</time>
      </trkpt>
      <trkpt lat="47.09029" lon="6.21227">
        <ele>552</ele>
        <time>2023-10-01T09:22:12Z</time>
      </trkpt>
      <trkpt lat="47.09024" lon="6.21226">
        <ele>551.6</ele>
        <time>2023-10-01T09:22:13Z</time>
      </trkpt>
      <trkpt lat="47.09018" lon="6.21223">
        <ele>550.8</ele>
        <time>2023-10-01T09:22:14Z</time>
      </trkpt>
      <trkpt lat="47.09011" lon="6.21222">
        <ele>551.4</ele>
        <time>2023-10-01T09:22:15Z</time>
      </trkpt>
      <trkpt lat="47.08999" lon="6.21219">
        <ele>552</ele>
        <time>2023-10-01T09:22:17Z</time>
      </trkpt>
      <trkpt lat="47.08979" lon="6.2121">
        <ele>553</ele>
        <time>2023-10-01T09:22:21Z</time>
      </trkpt>
      <trkpt lat="47.08975" lon="6.21208">
        <ele>553.2</ele>
        <time>2023-10-01T09:22:22Z</time>
      </trkpt>
      <trkpt lat="47.08971" lon="6.21205">
        <ele>553.4</ele>
        <time>2023-10-01T09:22:23Z</time>
      </trkpt>
      <trkpt lat="47.0896" lon="6.21196">
        <ele>554</ele>
        <time>2023-10-01T09:22:26Z</time>
      </trkpt>
      <trkpt lat="47.08957" lon="6.21193">
        <ele>554.2</ele>
        <time>2023-10-01T09:22:27Z</time>
      </trkpt>
      <trkpt lat="47.08936" lon="6.21184">
        <ele>555</ele>
        <time>2023-10-01T09:22:32Z</time>
      </trkpt>
      <trkpt lat="47.08924" lon="6.21176">
        <ele>555</ele>
        <time>2023-10-01T09:22:35Z</time>
      </trkpt>
      <trkpt lat="47.08917" lon="6.21172">
        <ele>555.2</ele>
        <time>2023-10-01T09:22:37Z</time>
      </trkpt>
      <trkpt lat="47.0891" lon="6.21168">
        <ele>555.2</ele>
        <time>2023-10-01T09:22:39Z</time>
      </trkpt>
      <trkpt lat="47.08897" lon="6.21166">
        <ele>556</ele>
        <time>2023-10-01T09:22:42Z</time>
      </trkpt>
      <trkpt lat="47.08894" lon="6.21166">
        <ele>556.4</ele>
        <time>2023-10-01T09:22:43Z</time>
      </trkpt>
      <trkpt lat="47.08886" lon="6.21167">
        <ele>557.4</ele>
        <time>2023-10-01T09:22:45Z</time>
      </trkpt>
      <trkpt lat="47.08878" lon="6.21168">
        <ele>558</ele>
        <time>2023-10-01T09:22:47Z</time>
      </trkpt>
      <trkpt lat="47.08866" lon="6.21168">
        <ele>558.8</ele>
        <time>2023-10-01T09:22:50Z</time>
      </trkpt>
      <trkpt lat="47.08859" lon="6.21168">
        <ele>559.4</ele>
        <time>2023-10-01T09:22:52Z</time>
      </trkpt>
      <trkpt lat="47.08855" lon="6.21169">
        <ele>560</ele>
        <time>2023-10-01T09:22:53Z</time>
      </trkpt>
      <trkpt lat="47.08848" lon="6.21169">
        <ele>561</ele>
        <time>2023-10-01T09:22:55Z</time>
      </trkpt>
      <trkpt lat="47.08836" lon="6.21168">
        <ele>562.2</ele>
        <time>2023-10-01T09:22:58Z</time>
      </trkpt>
      <trkpt lat="47.08824" lon="6.21167">
        <ele>563.6</ele>
        <time>2023-10-01T09:23:01Z</time>
      </trkpt>
      <trkpt lat="47.08817" lon="6.21165">
        <ele>564.8</ele>
        <time>2023-10-01T09:23:03Z</time>
      </trkpt>
      <trkpt lat="47.08811" lon="6.21164">
        <ele>566</ele>
        <time>2023-10-01T09:23:05Z</time>
      </trkpt>
      <trkpt lat="47.08804" lon="6.21163">
        <ele>567.2</ele>
        <time>2023-10-01T09:23:07Z</time>
      </trkpt>
      <trkpt lat="47.08797" lon="6.21162">
        <ele>568.6</ele>
        <time>2023-10-01T09:23:09Z</time>
      </trkpt>
      <trkpt lat="47.0879" lon="6.2116">
        <ele>570</ele>
        <time>2023-10-01T09:23:11Z</time>
      </trkpt>
      <trkpt lat="47.08782" lon="6.21157">
        <ele>571.4</ele>
        <time>2023-10-01T09:23:13Z</time>
      </trkpt>
      <trkpt lat="47.08776" lon="6.21154">
        <ele>572.8</ele>
        <time>2023-10-01T09:23:15Z</time>
      </trkpt>
      <trkpt lat="47.08772" lon="6.21152">
        <ele>573.4</ele>
        <time>2023-10-01T09:23:16Z</time>
      </trkpt>
      <trkpt lat="47.08769" lon="6.21151">
        <ele>574</ele>
        <time>2023-10-01T09:23:17Z</time>
      </trkpt>
      <trkpt lat="47.08743" lon="6.21143">
        <ele>574.2</ele>
        <time>2023-10-01T09:23:23Z</time>
      </trkpt>
      <trkpt lat="47.0872" lon="6.21128">
        <ele>575.2</ele>
        <time>2023-10-01T09:23:29Z</time>
      </trkpt>
      <trkpt lat="47.08716" lon="6.21125">
        <ele>575.4</ele>
        <time>2023-10-01T09:23:30Z</time>
      </trkpt>
      <trkpt lat="47.08701" lon="6.21116">
        <ele>576.4</ele>
        <time>2023-10-01T09:23:34Z</time>
      </trkpt>
      <trkpt lat="47.08687" lon="6.21107">
        <ele>576.2</ele>
        <time>2023-10-01T09:23:38Z</time>
      </trkpt>
      <trkpt lat="47.08662" lon="6.21091">
        <ele>575.4</ele>
        <time>2023-10-01T09:23:45Z</time>
      </trkpt>
      <trkpt lat="47.08646" lon="6.21076">
        <ele>576</ele>
        <time>2023-10-01T09:23:50Z</time>
      </trkpt>
      <trkpt lat="47.0863" lon="6.2106">
        <ele>575.8</ele>
        <time>2023-10-01T09:23:56Z</time>
      </trkpt>
      <trkpt lat="47.08617" lon="6.21045">
        <ele>575.4</ele>
        <time>2023-10-01T09:24:00Z</time>
      </trkpt>
      <trkpt lat="47.08614" lon="6.21041">
        <ele>575.2</ele>
        <time>2023-10-01T09:24:01Z</time>
      </trkpt>
      <trkpt lat="47.08611" lon="6.21036">
        <ele>575</ele>
        <time>2023-10-01T09:24:02Z</time>
      </trkpt>
      <trkpt lat="47.08604" lon="6.21025">
        <ele>574.2</ele>
        <time>2023-10-01T09:24:04Z</time>
      </trkpt>
      <trkpt lat="47.08591" lon="6.21002">
        <ele>573.2</ele>
        <time>2023-10-01T09:24:08Z</time>
      </trkpt>
      <trkpt lat="47.08585" lon="6.2099">
        <ele>572.6</ele>
        <time>2023-10-01T09:24:10Z</time>
      </trkpt>
      <trkpt lat="47.08578" lon="6.20978">
        <ele>572.2</ele>
        <time>2023-10-01T09:24:12Z</time>
      </trkpt>
      <trkpt lat="47.08571" lon="6.20958">
        <ele>571.2</ele>
        <time>2023-10-01T09:24:15Z</time>
      </trkpt>
      <trkpt lat="47.08569" lon="6.20951">
        <ele>570.8</ele>
        <time>2023-10-01T09:24:16Z</time>
      </trkpt>
      <trkpt lat="47.08566" lon="6.20936">
        <ele>570</ele>
        <time>2023-10-01T09:24:18Z</time>
      </trkpt>
      <trkpt lat="47.08563" lon="6.20909">
        <ele>568.8</ele>
        <time>2023-10-01T09:24:22Z</time>
      </trkpt>
      <trkpt lat="47.08562" lon="6.20889">
        <ele>567.4</ele>
        <time>2023-10-01T09:24:25Z</time>
      </trkpt>
      <trkpt lat="47.08562" lon="6.20875">
        <ele>566.2</ele>
        <time>2023-10-01T09:24:27Z</time>
      </trkpt>
      <trkpt lat="47.08562" lon="6.2086">
        <ele>564.8</ele>
        <time>2023-10-01T09:24:29Z</time>
      </trkpt>
      <trkpt lat="47.08562" lon="6.20852">
        <ele>564</ele>
        <time>2023-10-01T09:24:30Z</time>
      </trkpt>
      <trkpt lat="47.08562" lon="6.20844">
        <ele>563.4</ele>
        <time>2023-10-01T09:24:31Z</time>
      </trkpt>
      <trkpt lat="47.08563" lon="6.20828">
        <ele>562.2</ele>
        <time>2023-10-01T09:24:33Z</time>
      </trkpt>
      <trkpt lat="47.08564" lon="6.20813">
        <ele>561</ele>
        <time>2023-10-01T09:24:35Z</time>
      </trkpt>
      <trkpt lat="47.08567" lon="6.20798">
        <ele>559.6</ele>
        <time>2023-10-01T09:24:37Z</time>
      </trkpt>
      <trkpt lat="47.08571" lon="6.20783">
        <ele>558.2</ele>
        <time>2023-10-01T09:24:39Z</time>
      </trkpt>
      <trkpt lat="47.08575" lon="6.20769">
        <ele>556.6</ele>
        <time>2023-10-01T09:24:41Z</time>
      </trkpt>
      <trkpt lat="47.0858" lon="6.20755">
        <ele>555</ele>
        <time>2023-10-01T09:24:43Z</time>
      </trkpt>
      <trkpt lat="47.08583" lon="6.20749">
        <ele>554.4</ele>
        <time>2023-10-01T09:24:44Z</time>
      </trkpt>
      <trkpt lat="47.08587" lon="6.20744">
        <ele>553.6</ele>
        <time>2023-10-01T09:24:45Z</time>
      </trkpt>
      <trkpt lat="47.08594" lon="6.20734">
        <ele>552.2</ele>
        <time>2023-10-01T09:24:47Z</time>
      </trkpt>
      <trkpt lat="47.08601" lon="6.20725">
        <ele>551</ele>
        <time>2023-10-01T09:24:49Z</time>
      </trkpt>
      <trkpt lat="47.08609" lon="6.20718">
        <ele>550.6</ele>
        <time>2023-10-01T09:24:51Z</time>
      </trkpt>
      <trkpt lat="47.08622" lon="6.20708">
        <ele>550.8</ele>
        <time>2023-10-01T09:24:54Z</time>
      </trkpt>
      <trkpt lat="47.08654" lon="6.20691">
        <ele>550.2</ele>
        <time>2023-10-01T09:25:01Z</time>
      </trkpt>
      <trkpt lat="47.0866" lon="6.20689">
        <ele>550</ele>
        <time>2023-10-01T09:25:02Z</time>
      </trkpt>
      <trkpt lat="47.08691" lon="6.20678">
        <ele>549</ele>
        <time>2023-10-01T09:25:08Z</time>
      </trkpt>
      <trkpt lat="47.08696" lon="6.20677">
        <ele>548.8</ele>
        <time>2023-10-01T09:25:09Z</time>
      </trkpt>
      <trkpt lat="47.08735" lon="6.2067">
        <ele>547.8</ele>
        <time>2023-10-01T09:25:16Z</time>
      </trkpt>
      <trkpt lat="47.08782" lon="6.2065">
        <ele>547</ele>
        <time>2023-10-01T09:25:24Z</time>
      </trkpt>
      <trkpt lat="47.08795" lon="6.20631">
        <ele>547</ele>
        <time>2023-10-01T09:25:27Z</time>
      </trkpt>
      <trkpt lat="47.08798" lon="6.20624">
        <ele>547</ele>
        <time>2023-10-01T09:25:28Z</time>
      </trkpt>
      <trkpt lat="47.08803" lon="6.20608">
        <ele>546.8</ele>
        <time>2023-10-01T09:25:30Z</time>
      </trkpt>
      <trkpt lat="47.0881" lon="6.20582">
        <ele>546</ele>
        <time>2023-10-01T09:25:33Z</time>
      </trkpt>
      <trkpt lat="47.08812" lon="6.20573">
        <ele>545.6</ele>
        <time>2023-10-01T09:25:34Z</time>
      </trkpt>
      <trkpt lat="47.08819" lon="6.20537">
        <ele>544.6</ele>
        <time>2023-10-01T09:25:38Z</time>
      </trkpt>
      <trkpt lat="47.0882" lon="6.20528">
        <ele>544.2</ele>
        <time>2023-10-01T09:25:39Z</time>
      </trkpt>
      <trkpt lat="47.08826" lon="6.20493">
        <ele>543.2</ele>
        <time>2023-10-01T09:25:43Z</time>
      </trkpt>
      <trkpt lat="47.08831" lon="6.20471">
        <ele>542.6</ele>
        <time>2023-10-01T09:25:46Z</time>
      </trkpt>
      <trkpt lat="47.08832" lon="6.20463">
        <ele>542.2</ele>
        <time>2023-10-01T09:25:47Z</time>
      </trkpt>
      <trkpt lat="47.08833" lon="6.20422">
        <ele>541.2</ele>
        <time>2023-10-01T09:25:52Z</time>
      </trkpt>
      <trkpt lat="47.08832" lon="6.20405">
        <ele>541.2</ele>
        <time>2023-10-01T09:25:54Z</time>
      </trkpt>
      <trkpt lat="47.08828" lon="6.20372">
        <ele>539.8</ele>
        <time>2023-10-01T09:25:58Z</time>
      </trkpt>
      <trkpt lat="47.08828" lon="6.20363">
        <ele>539.4</ele>
        <time>2023-10-01T09:25:59Z</time>
      </trkpt>
      <trkpt lat="47.08826" lon="6.20346">
        <ele>538.8</ele>
        <time>2023-10-01T09:26:01Z</time>
      </trkpt>
      <trkpt lat="47.08821" lon="6.20332">
        <ele>539</ele>
        <time>2023-10-01T09:26:03Z</time>
      </trkpt>
      <trkpt lat="47.08814" lon="6.20317">
        <ele>539.4</ele>
        <time>2023-10-01T09:26:05Z</time>
      </trkpt>
      <trkpt lat="47.08803" lon="6.20292">
        <ele>539.8</ele>
        <time>2023-10-01T09:26:08Z</time>
      </trkpt>
      <trkpt lat="47.088" lon="6.20282">
        <ele>540</ele>
        <time>2023-10-01T09:26:09Z</time>
      </trkpt>
      <trkpt lat="47.08793" lon="6.20262">
        <ele>542.2</ele>
        <time>2023-10-01T09:26:11Z</time>
      </trkpt>
      <trkpt lat="47.0879" lon="6.20252">
        <ele>543.6</ele>
        <time>2023-10-01T09:26:12Z</time>
      </trkpt>
      <trkpt lat="47.08781" lon="6.20233">
        <ele>545.2</ele>
        <time>2023-10-01T09:26:14Z</time>
      </trkpt>
      <trkpt lat="47.08774" lon="6.20215">
        <ele>546.6</ele>
        <time>2023-10-01T09:26:16Z</time>
      </trkpt>
      <trkpt lat="47.08772" lon="6.20207">
        <ele>546.6</ele>
        <time>2023-10-01T09:26:17Z</time>
      </trkpt>
      <trkpt lat="47.08772" lon="6.2019">
        <ele>546.8</ele>
        <time>2023-10-01T09:26:19Z</time>
      </trkpt>
      <trkpt lat="47.08773" lon="6.20174">
        <ele>548</ele>
        <time>2023-10-01T09:26:21Z</time>
      </trkpt>
      <trkpt lat="47.08771" lon="6.20157">
        <ele>548.6</ele>
        <time>2023-10-01T09:26:23Z</time>
      </trkpt>
      <trkpt lat="47.08768" lon="6.20149">
        <ele>549.2</ele>
        <time>2023-10-01T09:26:24Z</time>
      </trkpt>
      <trkpt lat="47.08765" lon="6.20141">
        <ele>549.4</ele>
        <time>2023-10-01T09:26:25Z</time>
      </trkpt>
      <trkpt lat="47.0876" lon="6.20122">
        <ele>549</ele>
        <time>2023-10-01T09:26:27Z</time>
      </trkpt>
      <trkpt lat="47.08746" lon="6.20073">
        <ele>547.8</ele>
        <time>2023-10-01T09:26:32Z</time>
      </trkpt>
      <trkpt lat="47.08743" lon="6.20063">
        <ele>547.4</ele>
        <time>2023-10-01T09:26:33Z</time>
      </trkpt>
      <trkpt lat="47.08739" lon="6.20048">
        <ele>546.6</ele>
        <time>2023-10-01T09:26:35Z</time>
      </trkpt>
      <trkpt lat="47.0874" lon="6.20042">
        <ele>546.2</ele>
        <time>2023-10-01T09:26:36Z</time>
      </trkpt>
      <trkpt lat="47.08747" lon="6.2003">
        <ele>545.4</ele>
        <time>2023-10-01T09:26:38Z</time>
      </trkpt>
      <trkpt lat="47.08751" lon="6.20023">
        <ele>545.2</ele>
        <time>2023-10-01T09:26:39Z</time>
      </trkpt>
      <trkpt lat="47.08758" lon="6.20009">
        <ele>544.4</ele>
        <time>2023-10-01T09:26:41Z</time>
      </trkpt>
      <trkpt lat="47.08761" lon="6.20001">
        <ele>544</ele>
        <time>2023-10-01T09:26:42Z</time>
      </trkpt>
      <trkpt lat="47.08762" lon="6.19992">
        <ele>543.6</ele>
        <time>2023-10-01T09:26:43Z</time>
      </trkpt>
      <trkpt lat="47.08761" lon="6.19984">
        <ele>543</ele>
        <time>2023-10-01T09:26:44Z</time>
      </trkpt>
      <trkpt lat="47.08758" lon="6.19965">
        <ele>542</ele>
        <time>2023-10-01T09:26:46Z</time>
      </trkpt>
      <trkpt lat="47.08754" lon="6.19945">
        <ele>540.6</ele>
        <time>2023-10-01T09:26:48Z</time>
      </trkpt>
      <trkpt lat="47.0875" lon="6.19921">
        <ele>539.4</ele>
        <time>2023-10-01T09:26:50Z</time>
      </trkpt>
      <trkpt lat="47.08747" lon="6.19908">
        <ele>538.8</ele>
        <time>2023-10-01T09:26:51Z</time>
      </trkpt>
      <trkpt lat="47.08744" lon="6.19896">
        <ele>538</ele>
        <time>2023-10-01T09:26:52Z</time>
      </trkpt>
      <trkpt lat="47.08737" lon="6.19868">
        <ele>536.4</ele>
        <time>2023-10-01T09:26:54Z</time>
      </trkpt>
      <trkpt lat="47.08732" lon="6.19854">
        <ele>535.6</ele>
        <time>2023-10-01T09:26:55Z</time>
      </trkpt>
      <trkpt lat="47.08728" lon="6.19841">
        <ele>535</ele>
        <time>2023-10-01T09:26:56Z</time>
      </trkpt>
      <trkpt lat="47.08717" lon="6.19813">
        <ele>533.6</ele>
        <time>2023-10-01T09:26:58Z</time>
      </trkpt>
      <trkpt lat="47.08708" lon="6.19785">
        <ele>532</ele>
        <time>2023-10-01T09:27:00Z</time>
      </trkpt>
      <trkpt lat="47.08702" lon="6.19758">
        <ele>530.4</ele>
        <time>2023-10-01T09:27:02Z</time>
      </trkpt>
      <trkpt lat="47.08699" lon="6.1975">
        <ele>529.6</ele>
        <time>2023-10-01T09:27:03Z</time>
      </trkpt>
      <trkpt lat="47.08694" lon="6.19744">
        <ele>529</ele>
        <time>2023-10-01T09:27:04Z</time>
      </trkpt>
      <trkpt lat="47.08683" lon="6.19734">
        <ele>527</ele>
        <time>2023-10-01T09:27:06Z</time>
      </trkpt>
      <trkpt lat="47.08677" lon="6.1973">
        <ele>526.2</ele>
        <time>2023-10-01T09:27:07Z</time>
      </trkpt>
      <trkpt lat="47.08673" lon="6.19726">
        <ele>525.4</ele>
        <time>2023-10-01T09:27:08Z</time>
      </trkpt>
      <trkpt lat="47.08673" lon="6.19719">
        <ele>524.8</ele>
        <time>2023-10-01T09:27:09Z</time>
      </trkpt>
      <trkpt lat="47.08672" lon="6.19712">
        <ele>524.2</ele>
        <time>2023-10-01T09:27:10Z</time>
      </trkpt>
      <trkpt lat="47.08675" lon="6.19697">
        <ele>523.4</ele>
        <time>2023-10-01T09:27:12Z</time>
      </trkpt>
      <trkpt lat="47.08678" lon="6.1969">
        <ele>522.6</ele>
        <time>2023-10-01T09:27:13Z</time>
      </trkpt>
      <trkpt lat="47.08677" lon="6.19682">
        <ele>521.2</ele>
        <time>2023-10-01T09:27:15Z</time>
      </trkpt>
      <trkpt lat="47.08672" lon="6.19673">
        <ele>519.4</ele>
        <time>2023-10-01T09:27:17Z</time>
      </trkpt>
      <trkpt lat="47.0867" lon="6.19668">
        <ele>518.2</ele>
        <time>2023-10-01T09:27:18Z</time>
      </trkpt>
      <trkpt lat="47.08671" lon="6.19656">
        <ele>516.2</ele>
        <time>2023-10-01T09:27:20Z</time>
      </trkpt>
      <trkpt lat="47.08671" lon="6.19652">
        <ele>515.4</ele>
        <time>2023-10-01T09:27:21Z</time>
      </trkpt>
      <trkpt lat="47.08673" lon="6.19647">
        <ele>514.6</ele>
        <time>2023-10-01T09:27:22Z</time>
      </trkpt>
      <trkpt lat="47.08674" lon="6.1964">
        <ele>513.6</ele>
        <time>2023-10-01T09:27:23Z</time>
      </trkpt>
      <trkpt lat="47.08675" lon="6.19634">
        <ele>512.4</ele>
        <time>2023-10-01T09:27:24Z</time>
      </trkpt>
      <trkpt lat="47.08678" lon="6.19629">
        <ele>511.4</ele>
        <time>2023-10-01T09:27:25Z</time>
      </trkpt>
      <trkpt lat="47.08679" lon="6.19625">
        <ele>510.2</ele>
        <time>2023-10-01T09:27:26Z</time>
      </trkpt>
      <trkpt lat="47.08679" lon="6.19618">
        <ele>508.2</ele>
        <time>2023-10-01T09:27:28Z</time>
      </trkpt>
      <trkpt lat="47.08678" lon="6.19616">
        <ele>507</ele>
        <time>2023-10-01T09:27:29Z</time>
      </trkpt>
      <trkpt lat="47.08677" lon="6.19608">
        <ele>505</ele>
        <time>2023-10-01T09:27:31Z</time>
      </trkpt>
      <trkpt lat="47.0868" lon="6.19597">
        <ele>503</ele>
        <time>2023-10-01T09:27:33Z</time>
      </trkpt>
      <trkpt lat="47.08682" lon="6.19589">
        <ele>501.4</ele>
        <time>2023-10-01T09:27:34Z</time>
      </trkpt>
      <trkpt lat="47.08681" lon="6.19581">
        <ele>499.8</ele>
        <time>2023-10-01T09:27:35Z</time>
      </trkpt>
      <trkpt lat="47.08682" lon="6.19575">
        <ele>498.2</ele>
        <time>2023-10-01T09:27:36Z</time>
      </trkpt>
      <trkpt lat="47.08684" lon="6.19572">
        <ele>496.8</ele>
        <time>2023-10-01T09:27:37Z</time>
      </trkpt>
      <trkpt lat="47.08686" lon="6.19567">
        <ele>495.4</ele>
        <time>2023-10-01T09:27:38Z</time>
      </trkpt>
      <trkpt lat="47.08686" lon="6.19561">
        <ele>494</ele>
        <time>2023-10-01T09:27:39Z</time>
      </trkpt>
      <trkpt lat="47.08684" lon="6.19557">
        <ele>492.4</ele>
        <time>2023-10-01T09:27:40Z</time>
      </trkpt>
      <trkpt lat="47.08682" lon="6.19552">
        <ele>490.8</ele>
        <time>2023-10-01T09:27:41Z</time>
      </trkpt>
      <trkpt lat="47.0868" lon="6.19547">
        <ele>489.2</ele>
        <time>2023-10-01T09:27:42Z</time>
      </trkpt>
      <trkpt lat="47.0868" lon="6.19542">
        <ele>487.4</ele>
        <time>2023-10-01T09:27:43Z</time>
      </trkpt>
      <trkpt lat="47.08679" lon="6.19539">
        <ele>485.8</ele>
        <time>2023-10-01T09:27:44Z</time>
      </trkpt>
      <trkpt lat="47.08679" lon="6.19536">
        <ele>484.6</ele>
        <time>2023-10-01T09:27:45Z</time>
      </trkpt>
      <trkpt lat="47.08677" lon="6.19534">
        <ele>484</ele>
        <time>2023-10-01T09:27:46Z</time>
      </trkpt>
      <trkpt lat="47.08677" lon="6.19531">
        <ele>483.2</ele>
        <time>2023-10-01T09:27:47Z</time>
      </trkpt>
      <trkpt lat="47.08673" lon="6.19529">
        <ele>482.2</ele>
        <time>2023-10-01T09:27:50Z</time>
      </trkpt>
      <trkpt lat="47.08672" lon="6.19528">
        <ele>481.6</ele>
        <time>2023-10-01T09:27:51Z</time>
      </trkpt>
      <trkpt lat="47.0867" lon="6.19527">
        <ele>480.2</ele>
        <time>2023-10-01T09:27:52Z</time>
      </trkpt>
      <trkpt lat="47.08665" lon="6.19519">
        <ele>477.2</ele>
        <time>2023-10-01T09:27:56Z</time>
      </trkpt>
      <trkpt lat="47.08662" lon="6.19517">
        <ele>476.4</ele>
        <time>2023-10-01T09:27:57Z</time>
      </trkpt>
      <trkpt lat="47.0866" lon="6.19519">
        <ele>475.8</ele>
        <time>2023-10-01T09:27:58Z</time>
      </trkpt>
      <trkpt lat="47.08656" lon="6.19524">
        <ele>474.8</ele>
        <time>2023-10-01T09:28:00Z</time>
      </trkpt>
      <trkpt lat="47.08653" lon="6.19529">
        <ele>473.4</ele>
        <time>2023-10-01T09:28:02Z</time>
      </trkpt>
      <trkpt lat="47.0865" lon="6.19536">
        <ele>472</ele>
        <time>2023-10-01T09:28:04Z</time>
      </trkpt>
      <trkpt lat="47.08647" lon="6.19542">
        <ele>470.8</ele>
        <time>2023-10-01T09:28:06Z</time>
      </trkpt>
      <trkpt lat="47.08639" lon="6.19553">
        <ele>469.6</ele>
        <time>2023-10-01T09:28:09Z</time>
      </trkpt>
      <trkpt lat="47.0863" lon="6.1957">
        <ele>469.2</ele>
        <time>2023-10-01T09:28:12Z</time>
      </trkpt>
      <trkpt lat="47.08626" lon="6.19576">
        <ele>469.2</ele>
        <time>2023-10-01T09:28:13Z</time>
      </trkpt>
      <trkpt lat="47.08607" lon="6.19607">
        <ele>470</ele>
        <time>2023-10-01T09:28:18Z</time>
      </trkpt>
      <trkpt lat="47.08599" lon="6.1962">
        <ele>471.2</ele>
        <time>2023-10-01T09:28:20Z</time>
      </trkpt>
      <trkpt lat="47.08591" lon="6.19634">
        <ele>472.6</ele>
        <time>2023-10-01T09:28:22Z</time>
      </trkpt>
      <trkpt lat="47.08588" lon="6.1964">
        <ele>473</ele>
        <time>2023-10-01T09:28:23Z</time>
      </trkpt>
      <trkpt lat="47.08585" lon="6.19648">
        <ele>474.2</ele>
        <time>2023-10-01T09:28:24Z</time>
      </trkpt>
      <trkpt lat="47.08583" lon="6.19655">
        <ele>475.4</ele>
        <time>2023-10-01T09:28:25Z</time>
      </trkpt>
      <trkpt lat="47.08577" lon="6.19672">
        <ele>477</ele>
        <time>2023-10-01T09:28:27Z</time>
      </trkpt>
      <trkpt lat="47.08571" lon="6.19696">
        <ele>477.8</ele>
        <time>2023-10-01T09:28:30Z</time>
      </trkpt>
      <trkpt lat="47.0857" lon="6.19704">
        <ele>477</ele>
        <time>2023-10-01T09:28:31Z</time>
      </trkpt>
      <trkpt lat="47.08567" lon="6.19742">
        <ele>476.2</ele>
        <time>2023-10-01T09:28:35Z</time>
      </trkpt>
      <trkpt lat="47.08567" lon="6.19759">
        <ele>475.8</ele>
        <time>2023-10-01T09:28:37Z</time>
      </trkpt>
      <trkpt lat="47.08566" lon="6.19782">
        <ele>475.6</ele>
        <time>2023-10-01T09:28:40Z</time>
      </trkpt>
      <trkpt lat="47.08563" lon="6.19789">
        <ele>475.8</ele>
        <time>2023-10-01T09:28:41Z</time>
      </trkpt>
      <trkpt lat="47.08552" lon="6.19805">
        <ele>476.6</ele>
        <time>2023-10-01T09:28:44Z</time>
      </trkpt>
      <trkpt lat="47.08546" lon="6.1981">
        <ele>477.4</ele>
        <time>2023-10-01T09:28:45Z</time>
      </trkpt>
      <trkpt lat="47.08534" lon="6.19815">
        <ele>478.8</ele>
        <time>2023-10-01T09:28:47Z</time>
      </trkpt>
      <trkpt lat="47.08527" lon="6.19817">
        <ele>479.4</ele>
        <time>2023-10-01T09:28:48Z</time>
      </trkpt>
      <trkpt lat="47.08513" lon="6.19821">
        <ele>480.2</ele>
        <time>2023-10-01T09:28:50Z</time>
      </trkpt>
      <trkpt lat="47.08493" lon="6.19827">
        <ele>481.4</ele>
        <time>2023-10-01T09:28:53Z</time>
      </trkpt>
      <trkpt lat="47.08481" lon="6.19831">
        <ele>482.4</ele>
        <time>2023-10-01T09:28:55Z</time>
      </trkpt>
      <trkpt lat="47.08475" lon="6.19833">
        <ele>482.8</ele>
        <time>2023-10-01T09:28:56Z</time>
      </trkpt>
      <trkpt lat="47.08461" lon="6.19836">
        <ele>483.6</ele>
        <time>2023-10-01T09:28:59Z</time>
      </trkpt>
      <trkpt lat="47.08457" lon="6.19835">
        <ele>483.8</ele>
        <time>2023-10-01T09:29:00Z</time>
      </trkpt>
      <trkpt lat="47.08445" lon="6.19826">
        <ele>483.6</ele>
        <time>2023-10-01T09:29:03Z</time>
      </trkpt>
      <trkpt lat="47.0844" lon="6.19821">
        <ele>483.4</ele>
        <time>2023-10-01T09:29:04Z</time>
      </trkpt>
      <trkpt lat="47.08416" lon="6.19793">
        <ele>481.6</ele>
        <time>2023-10-01T09:29:08Z</time>
      </trkpt>
      <trkpt lat="47.08403" lon="6.19781">
        <ele>480.4</ele>
        <time>2023-10-01T09:29:10Z</time>
      </trkpt>
      <trkpt lat="47.08391" lon="6.19772">
        <ele>479.2</ele>
        <time>2023-10-01T09:29:12Z</time>
      </trkpt>
      <trkpt lat="47.08382" lon="6.19764">
        <ele>477.6</ele>
        <time>2023-10-01T09:29:14Z</time>
      </trkpt>
      <trkpt lat="47.08374" lon="6.19757">
        <ele>476.2</ele>
        <time>2023-10-01T09:29:16Z</time>
      </trkpt>
      <trkpt lat="47.08372" lon="6.19753">
        <ele>475.4</ele>
        <time>2023-10-01T09:29:17Z</time>
      </trkpt>
      <trkpt lat="47.08371" lon="6.19748">
        <ele>474.6</ele>
        <time>2023-10-01T09:29:18Z</time>
      </trkpt>
      <trkpt lat="47.08373" lon="6.19743">
        <ele>473.4</ele>
        <time>2023-10-01T09:29:19Z</time>
      </trkpt>
      <trkpt lat="47.08376" lon="6.19739">
        <ele>472.4</ele>
        <time>2023-10-01T09:29:20Z</time>
      </trkpt>
      <trkpt lat="47.08378" lon="6.19734">
        <ele>471.4</ele>
        <time>2023-10-01T09:29:21Z</time>
      </trkpt>
      <trkpt lat="47.08379" lon="6.1973">
        <ele>470.4</ele>
        <time>2023-10-01T09:29:22Z</time>
      </trkpt>
      <trkpt lat="47.08379" lon="6.19726">
        <ele>469.2</ele>
        <time>2023-10-01T09:29:23Z</time>
      </trkpt>
      <trkpt lat="47.0838" lon="6.19723">
        <ele>468.2</ele>
        <time>2023-10-01T09:29:24Z</time>
      </trkpt>
      <trkpt lat="47.0838" lon="6.19721">
        <ele>467.2</ele>
        <time>2023-10-01T09:29:25Z</time>
      </trkpt>
      <trkpt lat="47.0838" lon="6.19718">
        <ele>466.2</ele>
        <time>2023-10-01T09:29:26Z</time>
      </trkpt>
      <trkpt lat="47.08381" lon="6.19717">
        <ele>465</ele>
        <time>2023-10-01T09:29:27Z</time>
      </trkpt>
      <trkpt lat="47.08383" lon="6.19716">
        <ele>463.8</ele>
        <time>2023-10-01T09:29:28Z</time>
      </trkpt>
      <trkpt lat="47.08384" lon="6.19716">
        <ele>462.6</ele>
        <time>2023-10-01T09:29:29Z</time>
      </trkpt>
      <trkpt lat="47.08389" lon="6.19715">
        <ele>461.4</ele>
        <time>2023-10-01T09:29:30Z</time>
      </trkpt>
      <trkpt lat="47.08393" lon="6.19714">
        <ele>460.2</ele>
        <time>2023-10-01T09:29:31Z</time>
      </trkpt>
      <trkpt lat="47.08397" lon="6.19713">
        <ele>460</ele>
        <time>2023-10-01T09:29:32Z</time>
      </trkpt>
      <trkpt lat="47.08408" lon="6.1971">
        <ele>459.6</ele>
        <time>2023-10-01T09:29:36Z</time>
      </trkpt>
      <trkpt lat="47.08418" lon="6.19708">
        <ele>459.2</ele>
        <time>2023-10-01T09:29:41Z</time>
      </trkpt>
      <trkpt lat="47.08421" lon="6.19706">
        <ele>459.2</ele>
        <time>2023-10-01T09:29:43Z</time>
      </trkpt>
      <trkpt lat="47.08432" lon="6.19703">
        <ele>458</ele>
        <time>2023-10-01T09:29:48Z</time>
      </trkpt>
      <trkpt lat="47.08434" lon="6.19688">
        <ele>457</ele>
        <time>2023-10-01T09:29:52Z</time>
      </trkpt>
      <trkpt lat="47.08432" lon="6.19685">
        <ele>456.4</ele>
        <time>2023-10-01T09:29:53Z</time>
      </trkpt>
      <trkpt lat="47.08428" lon="6.19678">
        <ele>456.2</ele>
        <time>2023-10-01T09:29:55Z</time>
      </trkpt>
      <trkpt lat="47.08426" lon="6.19673">
        <ele>455.8</ele>
        <time>2023-10-01T09:29:56Z</time>
      </trkpt>
      <trkpt lat="47.08417" lon="6.19653">
        <ele>454.8</ele>
        <time>2023-10-01T09:30:00Z</time>
      </trkpt>
      <trkpt lat="47.08408" lon="6.19633">
        <ele>453.6</ele>
        <time>2023-10-01T09:30:04Z</time>
      </trkpt>
      <trkpt lat="47.08403" lon="6.19624">
        <ele>452.8</ele>
        <time>2023-10-01T09:30:06Z</time>
      </trkpt>
      <trkpt lat="47.084" lon="6.1962">
        <ele>452.6</ele>
        <time>2023-10-01T09:30:07Z</time>
      </trkpt>
      <trkpt lat="47.08391" lon="6.19609">
        <ele>452</ele>
        <time>2023-10-01T09:30:10Z</time>
      </trkpt>
      <trkpt lat="47.08379" lon="6.19592">
        <ele>451.4</ele>
        <time>2023-10-01T09:30:14Z</time>
      </trkpt>
      <trkpt lat="47.08375" lon="6.19588">
        <ele>451.2</ele>
        <time>2023-10-01T09:30:15Z</time>
      </trkpt>
      <trkpt lat="47.08368" lon="6.19578">
        <ele>449.8</ele>
        <time>2023-10-01T09:30:17Z</time>
      </trkpt>
      <trkpt lat="47.08363" lon="6.19572">
        <ele>449.4</ele>
        <time>2023-10-01T09:30:18Z</time>
      </trkpt>
      <trkpt lat="47.08353" lon="6.19564">
        <ele>448.6</ele>
        <time>2023-10-01T09:30:20Z</time>
      </trkpt>
      <trkpt lat="47.08339" lon="6.19554">
        <ele>447.2</ele>
        <time>2023-10-01T09:30:23Z</time>
      </trkpt>
      <trkpt lat="47.08335" lon="6.19551">
        <ele>446.2</ele>
        <time>2023-10-01T09:30:24Z</time>
      </trkpt>
      <trkpt lat="47.0833" lon="6.19547">
        <ele>445.6</ele>
        <time>2023-10-01T09:30:25Z</time>
      </trkpt>
      <trkpt lat="47.08323" lon="6.19539">
        <ele>443.6</ele>
        <time>2023-10-01T09:30:27Z</time>
      </trkpt>
      <trkpt lat="47.08318" lon="6.19535">
        <ele>442.4</ele>
        <time>2023-10-01T09:30:28Z</time>
      </trkpt>
      <trkpt lat="47.08311" lon="6.19528">
        <ele>440.6</ele>
        <time>2023-10-01T09:30:30Z</time>
      </trkpt>
      <trkpt lat="47.08307" lon="6.19523">
        <ele>439.8</ele>
        <time>2023-10-01T09:30:31Z</time>
      </trkpt>
      <trkpt lat="47.08303" lon="6.19519">
        <ele>439</ele>
        <time>2023-10-01T09:30:32Z</time>
      </trkpt>
      <trkpt lat="47.08298" lon="6.19515">
        <ele>437.8</ele>
        <time>2023-10-01T09:30:33Z</time>
      </trkpt>
      <trkpt lat="47.08294" lon="6.19511">
        <ele>436.6</ele>
        <time>2023-10-01T09:30:34Z</time>
      </trkpt>
      <trkpt lat="47.0829" lon="6.19506">
        <ele>435.2</ele>
        <time>2023-10-01T09:30:35Z</time>
      </trkpt>
      <trkpt lat="47.08285" lon="6.195">
        <ele>434</ele>
        <time>2023-10-01T09:30:36Z</time>
      </trkpt>
      <trkpt lat="47.0828" lon="6.19495">
        <ele>432.4</ele>
        <time>2023-10-01T09:30:37Z</time>
      </trkpt>
      <trkpt lat="47.08275" lon="6.19488">
        <ele>430.2</ele>
        <time>2023-10-01T09:30:38Z</time>
      </trkpt>
      <trkpt lat="47.08269" lon="6.1948">
        <ele>428.8</ele>
        <time>2023-10-01T09:30:39Z</time>
      </trkpt>
      <trkpt lat="47.08262" lon="6.19472">
        <ele>426.2</ele>
        <time>2023-10-01T09:30:40Z</time>
      </trkpt>
      <trkpt lat="47.08255" lon="6.19463">
        <ele>423.4</ele>
        <time>2023-10-01T09:30:41Z</time>
      </trkpt>
      <trkpt lat="47.08247" lon="6.19454">
        <ele>419.6</ele>
        <time>2023-10-01T09:30:42Z</time>
      </trkpt>
      <trkpt lat="47.0824" lon="6.19442">
        <ele>416.2</ele>
        <time>2023-10-01T09:30:43Z</time>
      </trkpt>
      <trkpt lat="47.08233" lon="6.19429">
        <ele>412.4</ele>
        <time>2023-10-01T09:30:44Z</time>
      </trkpt>
      <trkpt lat="47.08228" lon="6.19414">
        <ele>410</ele>
        <time>2023-10-01T09:30:45Z</time>
      </trkpt>
      <trkpt lat="47.08223" lon="6.194">
        <ele>407.4</ele>
        <time>2023-10-01T09:30:46Z</time>
      </trkpt>
      <trkpt lat="47.08218" lon="6.19388">
        <ele>404.2</ele>
        <time>2023-10-01T09:30:47Z</time>
      </trkpt>
      <trkpt lat="47.08215" lon="6.19379">
        <ele>401.6</ele>
        <time>2023-10-01T09:30:48Z</time>
      </trkpt>
      <trkpt lat="47.08211" lon="6.1937">
        <ele>399.4</ele>
        <time>2023-10-01T09:30:49Z</time>
      </trkpt>
      <trkpt lat="47.08207" lon="6.19361">
        <ele>397.4</ele>
        <time>2023-10-01T09:30:50Z</time>
      </trkpt>
      <trkpt lat="47.08204" lon="6.19354">
        <ele>395.6</ele>
        <time>2023-10-01T09:30:51Z</time>
      </trkpt>
      <trkpt lat="47.08201" lon="6.19347">
        <ele>394</ele>
        <time>2023-10-01T09:30:52Z</time>
      </trkpt>
      <trkpt lat="47.08199" lon="6.19341">
        <ele>392.2</ele>
        <time>2023-10-01T09:30:53Z</time>
      </trkpt>
      <trkpt lat="47.08197" lon="6.19336">
        <ele>390.8</ele>
        <time>2023-10-01T09:30:54Z</time>
      </trkpt>
      <trkpt lat="47.08196" lon="6.19332">
        <ele>389.4</ele>
        <time>2023-10-01T09:30:55Z</time>
      </trkpt>
      <trkpt lat="47.08194" lon="6.19327">
        <ele>388.2</ele>
        <time>2023-10-01T09:30:56Z</time>
      </trkpt>
      <trkpt lat="47.08193" lon="6.19323">
        <ele>387</ele>
        <time>2023-10-01T09:30:57Z</time>
      </trkpt>
      <trkpt lat="47.08191" lon="6.1932">
        <ele>385.8</ele>
        <time>2023-10-01T09:30:58Z</time>
      </trkpt>
      <trkpt lat="47.08189" lon="6.19312">
        <ele>384</ele>
        <time>2023-10-01T09:31:00Z</time>
      </trkpt>
      <trkpt lat="47.08189" lon="6.19308">
        <ele>382.8</ele>
        <time>2023-10-01T09:31:01Z</time>
      </trkpt>
      <trkpt lat="47.08188" lon="6.19303">
        <ele>381.6</ele>
        <time>2023-10-01T09:31:02Z</time>
      </trkpt>
      <trkpt lat="47.0819" lon="6.19293">
        <ele>379.8</ele>
        <time>2023-10-01T09:31:04Z</time>
      </trkpt>
      <trkpt lat="47.08193" lon="6.19288">
        <ele>378.8</ele>
        <time>2023-10-01T09:31:05Z</time>
      </trkpt>
      <trkpt lat="47.08196" lon="6.19283">
        <ele>378</ele>
        <time>2023-10-01T09:31:06Z</time>
      </trkpt>
      <trkpt lat="47.08199" lon="6.19278">
        <ele>377</ele>
        <time>2023-10-01T09:31:07Z</time>
      </trkpt>
      <trkpt lat="47.08203" lon="6.19272">
        <ele>375.8</ele>
        <time>2023-10-01T09:31:08Z</time>
      </trkpt>
      <trkpt lat="47.08209" lon="6.1926">
        <ele>374</ele>
        <time>2023-10-01T09:31:10Z</time>
      </trkpt>
      <trkpt lat="47.08214" lon="6.19246">
        <ele>372.6</ele>
        <time>2023-10-01T09:31:12Z</time>
      </trkpt>
      <trkpt lat="47.08211" lon="6.1923">
        <ele>371.4</ele>
        <time>2023-10-01T09:31:14Z</time>
      </trkpt>
      <trkpt lat="47.08202" lon="6.19216">
        <ele>370.4</ele>
        <time>2023-10-01T09:31:16Z</time>
      </trkpt>
      <trkpt lat="47.08196" lon="6.19209">
        <ele>369.8</ele>
        <time>2023-10-01T09:31:17Z</time>
      </trkpt>
      <trkpt lat="47.0819" lon="6.19203">
        <ele>369.2</ele>
        <time>2023-10-01T09:31:18Z</time>
      </trkpt>
      <trkpt lat="47.08171" lon="6.19191">
        <ele>368.2</ele>
        <time>2023-10-01T09:31:21Z</time>
      </trkpt>
      <trkpt lat="47.08165" lon="6.19188">
        <ele>368.2</ele>
        <time>2023-10-01T09:31:22Z</time>
      </trkpt>
      <trkpt lat="47.08142" lon="6.19173">
        <ele>367.4</ele>
        <time>2023-10-01T09:31:27Z</time>
      </trkpt>
      <trkpt lat="47.08128" lon="6.19165">
        <ele>367</ele>
        <time>2023-10-01T09:31:30Z</time>
      </trkpt>
      <trkpt lat="47.08114" lon="6.19158">
        <ele>366.8</ele>
        <time>2023-10-01T09:31:33Z</time>
      </trkpt>
      <trkpt lat="47.08095" lon="6.19149">
        <ele>366.4</ele>
        <time>2023-10-01T09:31:37Z</time>
      </trkpt>
      <trkpt lat="47.08086" lon="6.19144">
        <ele>366.4</ele>
        <time>2023-10-01T09:31:39Z</time>
      </trkpt>
      <trkpt lat="47.08073" lon="6.19138">
        <ele>366.4</ele>
        <time>2023-10-01T09:31:42Z</time>
      </trkpt>
      <trkpt lat="47.08064" lon="6.19135">
        <ele>366.8</ele>
        <time>2023-10-01T09:31:44Z</time>
      </trkpt>
      <trkpt lat="47.0806" lon="6.19137">
        <ele>367.2</ele>
        <time>2023-10-01T09:31:45Z</time>
      </trkpt>
      <trkpt lat="47.08053" lon="6.19152">
        <ele>367.6</ele>
        <time>2023-10-01T09:31:48Z</time>
      </trkpt>
      <trkpt lat="47.08055" lon="6.19169">
        <ele>367.2</ele>
        <time>2023-10-01T09:31:51Z</time>
      </trkpt>
      <trkpt lat="47.08057" lon="6.19174">
        <ele>367.8</ele>
        <time>2023-10-01T09:31:52Z</time>
      </trkpt>
      <trkpt lat="47.08057" lon="6.1918">
        <ele>368</ele>
        <time>2023-10-01T09:31:53Z</time>
      </trkpt>
      <trkpt lat="47.08057" lon="6.19186">
        <ele>368.4</ele>
        <time>2023-10-01T09:31:54Z</time>
      </trkpt>
      <trkpt lat="47.08055" lon="6.19199">
        <ele>368.4</ele>
        <time>2023-10-01T09:31:57Z</time>
      </trkpt>
      <trkpt lat="47.0804" lon="6.19192">
        <ele>367.6</ele>
        <time>2023-10-01T09:32:00Z</time>
      </trkpt>
      <trkpt lat="47.08035" lon="6.19185">
        <ele>366.8</ele>
        <time>2023-10-01T09:32:01Z</time>
      </trkpt>
      <trkpt lat="47.08026" lon="6.19164">
        <ele>364.6</ele>
        <time>2023-10-01T09:32:03Z</time>
      </trkpt>
      <trkpt lat="47.08022" lon="6.19154">
        <ele>363.4</ele>
        <time>2023-10-01T09:32:04Z</time>
      </trkpt>
      <trkpt lat="47.08019" lon="6.19143">
        <ele>362</ele>
        <time>2023-10-01T09:32:05Z</time>
      </trkpt>
      <trkpt lat="47.08015" lon="6.19133">
        <ele>360.6</ele>
        <time>2023-10-01T09:32:06Z</time>
      </trkpt>
      <trkpt lat="47.08013" lon="6.19125">
        <ele>359</ele>
        <time>2023-10-01T09:32:07Z</time>
      </trkpt>
      <trkpt lat="47.0801" lon="6.19118">
        <ele>357.6</ele>
        <time>2023-10-01T09:32:08Z</time>
      </trkpt>
      <trkpt lat="47.08007" lon="6.1911">
        <ele>356.2</ele>
        <time>2023-10-01T09:32:09Z</time>
      </trkpt>
      <trkpt lat="47.08007" lon="6.19101">
        <ele>354.8</ele>
        <time>2023-10-01T09:32:10Z</time>
      </trkpt>
      <trkpt lat="47.08008" lon="6.19092">
        <ele>353.4</ele>
        <time>2023-10-01T09:32:11Z</time>
      </trkpt>
      <trkpt lat="47.0801" lon="6.19084">
        <ele>352.2</ele>
        <time>2023-10-01T09:32:12Z</time>
      </trkpt>
      <trkpt lat="47.08014" lon="6.19078">
        <ele>351</ele>
        <time>2023-10-01T09:32:13Z</time>
      </trkpt>
      <trkpt lat="47.08018" lon="6.19073">
        <ele>349.8</ele>
        <time>2023-10-01T09:32:14Z</time>
      </trkpt>
      <trkpt lat="47.08023" lon="6.19067">
        <ele>348.8</ele>
        <time>2023-10-01T09:32:15Z</time>
      </trkpt>
      <trkpt lat="47.08028" lon="6.19062">
        <ele>347.6</ele>
        <time>2023-10-01T09:32:16Z</time>
      </trkpt>
      <trkpt lat="47.08037" lon="6.19051">
        <ele>345.8</ele>
        <time>2023-10-01T09:32:18Z</time>
      </trkpt>
      <trkpt lat="47.08046" lon="6.19041">
        <ele>343.8</ele>
        <time>2023-10-01T09:32:20Z</time>
      </trkpt>
      <trkpt lat="47.08051" lon="6.19036">
        <ele>342.8</ele>
        <time>2023-10-01T09:32:21Z</time>
      </trkpt>
      <trkpt lat="47.08058" lon="6.19032">
        <ele>341.8</ele>
        <time>2023-10-01T09:32:22Z</time>
      </trkpt>
      <trkpt lat="47.08064" lon="6.19027">
        <ele>340.8</ele>
        <time>2023-10-01T09:32:23Z</time>
      </trkpt>
      <trkpt lat="47.08071" lon="6.19024">
        <ele>339.8</ele>
        <time>2023-10-01T09:32:24Z</time>
      </trkpt>
      <trkpt lat="47.08078" lon="6.19022">
        <ele>338.8</ele>
        <time>2023-10-01T09:32:25Z</time>
      </trkpt>
      <trkpt lat="47.08086" lon="6.1902">
        <ele>337.6</ele>
        <time>2023-10-01T09:32:26Z</time>
      </trkpt>
      <trkpt lat="47.08094" lon="6.1902">
        <ele>336.6</ele>
        <time>2023-10-01T09:32:27Z</time>
      </trkpt>
      <trkpt lat="47.08102" lon="6.1902">
        <ele>335.6</ele>
        <time>2023-10-01T09:32:28Z</time>
      </trkpt>
      <trkpt lat="47.08111" lon="6.19021">
        <ele>334.8</ele>
        <time>2023-10-01T09:32:29Z</time>
      </trkpt>
      <trkpt lat="47.08119" lon="6.19021">
        <ele>334</ele>
        <time>2023-10-01T09:32:30Z</time>
      </trkpt>
      <trkpt lat="47.08127" lon="6.19021">
        <ele>333.2</ele>
        <time>2023-10-01T09:32:31Z</time>
      </trkpt>
      <trkpt lat="47.0814" lon="6.19018">
        <ele>332.4</ele>
        <time>2023-10-01T09:32:33Z</time>
      </trkpt>
      <trkpt lat="47.08144" lon="6.19012">
        <ele>332</ele>
        <time>2023-10-01T09:32:34Z</time>
      </trkpt>
      <trkpt lat="47.08144" lon="6.18996">
        <ele>331.2</ele>
        <time>2023-10-01T09:32:36Z</time>
      </trkpt>
      <trkpt lat="47.08142" lon="6.1898">
        <ele>331</ele>
        <time>2023-10-01T09:32:38Z</time>
      </trkpt>
      <trkpt lat="47.08137" lon="6.18947">
        <ele>331.8</ele>
        <time>2023-10-01T09:32:42Z</time>
      </trkpt>
      <trkpt lat="47.08134" lon="6.18914">
        <ele>333</ele>
        <time>2023-10-01T09:32:46Z</time>
      </trkpt>
      <trkpt lat="47.08133" lon="6.18906">
        <ele>333.4</ele>
        <time>2023-10-01T09:32:47Z</time>
      </trkpt>
      <trkpt lat="47.08132" lon="6.18898">
        <ele>333.4</ele>
        <time>2023-10-01T09:32:48Z</time>
      </trkpt>
      <trkpt lat="47.0813" lon="6.18873">
        <ele>334.4</ele>
        <time>2023-10-01T09:32:51Z</time>
      </trkpt>
      <trkpt lat="47.08126" lon="6.18832">
        <ele>335</ele>
        <time>2023-10-01T09:32:56Z</time>
      </trkpt>
      <trkpt lat="47.08125" lon="6.18807">
        <ele>335.6</ele>
        <time>2023-10-01T09:32:59Z</time>
      </trkpt>
      <trkpt lat="47.08122" lon="6.18775">
        <ele>336.6</ele>
        <time>2023-10-01T09:33:03Z</time>
      </trkpt>
      <trkpt lat="47.08121" lon="6.18767">
        <ele>337</ele>
        <time>2023-10-01T09:33:04Z</time>
      </trkpt>
      <trkpt lat="47.08112" lon="6.18729">
        <ele>338</ele>
        <time>2023-10-01T09:33:09Z</time>
      </trkpt>
      <trkpt lat="47.08109" lon="6.18722">
        <ele>338.2</ele>
        <time>2023-10-01T09:33:10Z</time>
      </trkpt>
      <trkpt lat="47.08098" lon="6.18705">
        <ele>339.2</ele>
        <time>2023-10-01T09:33:13Z</time>
      </trkpt>
      <trkpt lat="47.0809" lon="6.18696">
        <ele>340.4</ele>
        <time>2023-10-01T09:33:15Z</time>
      </trkpt>
      <trkpt lat="47.08068" lon="6.18672">
        <ele>341.6</ele>
        <time>2023-10-01T09:33:20Z</time>
      </trkpt>
      <trkpt lat="47.08055" lon="6.18657">
        <ele>342</ele>
        <time>2023-10-01T09:33:23Z</time>
      </trkpt>
      <trkpt lat="47.08043" lon="6.18643">
        <ele>342.6</ele>
        <time>2023-10-01T09:33:26Z</time>
      </trkpt>
      <trkpt lat="47.0804" lon="6.18629">
        <ele>342.2</ele>
        <time>2023-10-01T09:33:28Z</time>
      </trkpt>
      <trkpt lat="47.08046" lon="6.18616">
        <ele>341.6</ele>
        <time>2023-10-01T09:33:30Z</time>
      </trkpt>
      <trkpt lat="47.0805" lon="6.18612">
        <ele>341</ele>
        <time>2023-10-01T09:33:31Z</time>
      </trkpt>
      <trkpt lat="47.08055" lon="6.18608">
        <ele>340.4</ele>
        <time>2023-10-01T09:33:32Z</time>
      </trkpt>
      <trkpt lat="47.08059" lon="6.18603">
        <ele>340</ele>
        <time>2023-10-01T09:33:33Z</time>
      </trkpt>
      <trkpt lat="47.08064" lon="6.18598">
        <ele>339.4</ele>
        <time>2023-10-01T09:33:34Z</time>
      </trkpt>
      <trkpt lat="47.08077" lon="6.18581">
        <ele>338.6</ele>
        <time>2023-10-01T09:33:37Z</time>
      </trkpt>
      <trkpt lat="47.0808" lon="6.18574">
        <ele>338.2</ele>
        <time>2023-10-01T09:33:38Z</time>
      </trkpt>
      <trkpt lat="47.08088" lon="6.18552">
        <ele>337.2</ele>
        <time>2023-10-01T09:33:41Z</time>
      </trkpt>
      <trkpt lat="47.08092" lon="6.18545">
        <ele>337</ele>
        <time>2023-10-01T09:33:42Z</time>
      </trkpt>
      <trkpt lat="47.08102" lon="6.18525">
        <ele>336</ele>
        <time>2023-10-01T09:33:45Z</time>
      </trkpt>
      <trkpt lat="47.0811" lon="6.18512">
        <ele>335.4</ele>
        <time>2023-10-01T09:33:47Z</time>
      </trkpt>
      <trkpt lat="47.08121" lon="6.18492">
        <ele>334.8</ele>
        <time>2023-10-01T09:33:50Z</time>
      </trkpt>
      <trkpt lat="47.08137" lon="6.18456">
        <ele>333.8</ele>
        <time>2023-10-01T09:33:55Z</time>
      </trkpt>
      <trkpt lat="47.0814" lon="6.18448">
        <ele>333.8</ele>
        <time>2023-10-01T09:33:56Z</time>
      </trkpt>
      <trkpt lat="47.08164" lon="6.18394">
        <ele>332.6</ele>
        <time>2023-10-01T09:34:03Z</time>
      </trkpt>
      <trkpt lat="47.08187" lon="6.18361">
        <ele>332.2</ele>
        <time>2023-10-01T09:34:09Z</time>
      </trkpt>
      <trkpt lat="47.08209" lon="6.18345">
        <ele>333</ele>
        <time>2023-10-01T09:34:14Z</time>
      </trkpt>
      <trkpt lat="47.08214" lon="6.18341">
        <ele>333</ele>
        <time>2023-10-01T09:34:15Z</time>
      </trkpt>
      <trkpt lat="47.08218" lon="6.18338">
        <ele>333</ele>
        <time>2023-10-01T09:34:16Z</time>
      </trkpt>
      <trkpt lat="47.08235" lon="6.18323">
        <ele>332.8</ele>
        <time>2023-10-01T09:34:20Z</time>
      </trkpt>
      <trkpt lat="47.08248" lon="6.18312">
        <ele>332.4</ele>
        <time>2023-10-01T09:34:25Z</time>
      </trkpt>
      <trkpt lat="47.08258" lon="6.18306">
        <ele>333.2</ele>
        <time>2023-10-01T09:34:35Z</time>
      </trkpt>
      <trkpt lat="47.0826" lon="6.18304">
        <ele>333.2</ele>
        <time>2023-10-01T09:34:36Z</time>
      </trkpt>
      <trkpt lat="47.08272" lon="6.18296">
        <ele>333</ele>
        <time>2023-10-01T09:34:40Z</time>
      </trkpt>
      <trkpt lat="47.083" lon="6.18279">
        <ele>333.4</ele>
        <time>2023-10-01T09:34:46Z</time>
      </trkpt>
      <trkpt lat="47.08312" lon="6.18273">
        <ele>333.6</ele>
        <time>2023-10-01T09:34:48Z</time>
      </trkpt>
      <trkpt lat="47.08339" lon="6.18258">
        <ele>334.2</ele>
        <time>2023-10-01T09:34:52Z</time>
      </trkpt>
      <trkpt lat="47.08359" lon="6.18247">
        <ele>334.6</ele>
        <time>2023-10-01T09:34:55Z</time>
      </trkpt>
      <trkpt lat="47.08381" lon="6.18235">
        <ele>334.8</ele>
        <time>2023-10-01T09:34:58Z</time>
      </trkpt>
      <trkpt lat="47.08409" lon="6.18221">
        <ele>335.6</ele>
        <time>2023-10-01T09:35:02Z</time>
      </trkpt>
      <trkpt lat="47.08416" lon="6.18217">
        <ele>335.8</ele>
        <time>2023-10-01T09:35:03Z</time>
      </trkpt>
      <trkpt lat="47.08423" lon="6.18213">
        <ele>336</ele>
        <time>2023-10-01T09:35:04Z</time>
      </trkpt>
      <trkpt lat="47.08444" lon="6.18201">
        <ele>337</ele>
        <time>2023-10-01T09:35:07Z</time>
      </trkpt>
      <trkpt lat="47.08472" lon="6.18186">
        <ele>337.6</ele>
        <time>2023-10-01T09:35:11Z</time>
      </trkpt>
      <trkpt lat="47.08492" lon="6.18175">
        <ele>338</ele>
        <time>2023-10-01T09:35:14Z</time>
      </trkpt>
      <trkpt lat="47.0852" lon="6.1816">
        <ele>338.6</ele>
        <time>2023-10-01T09:35:18Z</time>
      </trkpt>
      <trkpt lat="47.08539" lon="6.18149">
        <ele>339</ele>
        <time>2023-10-01T09:35:21Z</time>
      </trkpt>
      <trkpt lat="47.08557" lon="6.1814">
        <ele>339.4</ele>
        <time>2023-10-01T09:35:24Z</time>
      </trkpt>
      <trkpt lat="47.08599" lon="6.18115">
        <ele>339.2</ele>
        <time>2023-10-01T09:35:31Z</time>
      </trkpt>
      <trkpt lat="47.08622" lon="6.18101">
        <ele>338.8</ele>
        <time>2023-10-01T09:35:35Z</time>
      </trkpt>
      <trkpt lat="47.08634" lon="6.18092">
        <ele>338.6</ele>
        <time>2023-10-01T09:35:37Z</time>
      </trkpt>
      <trkpt lat="47.08653" lon="6.18078">
        <ele>338</ele>
        <time>2023-10-01T09:35:40Z</time>
      </trkpt>
      <trkpt lat="47.08678" lon="6.18055">
        <ele>336.8</ele>
        <time>2023-10-01T09:35:44Z</time>
      </trkpt>
      <trkpt lat="47.08727" lon="6.18006">
        <ele>336.2</ele>
        <time>2023-10-01T09:35:52Z</time>
      </trkpt>
      <trkpt lat="47.08765" lon="6.17959">
        <ele>336.6</ele>
        <time>2023-10-01T09:35:59Z</time>
      </trkpt>
      <trkpt lat="47.088" lon="6.1791">
        <ele>337</ele>
        <time>2023-10-01T09:36:06Z</time>
      </trkpt>
      <trkpt lat="47.08826" lon="6.17867">
        <ele>337.8</ele>
        <time>2023-10-01T09:36:12Z</time>
      </trkpt>
      <trkpt lat="47.0883" lon="6.17859">
        <ele>338</ele>
        <time>2023-10-01T09:36:13Z</time>
      </trkpt>
      <trkpt lat="47.08853" lon="6.17815">
        <ele>338.8</ele>
        <time>2023-10-01T09:36:19Z</time>
      </trkpt>
      <trkpt lat="47.08856" lon="6.17807">
        <ele>339</ele>
        <time>2023-10-01T09:36:20Z</time>
      </trkpt>
      <trkpt lat="47.08878" lon="6.1776">
        <ele>339.2</ele>
        <time>2023-10-01T09:36:26Z</time>
      </trkpt>
      <trkpt lat="47.08896" lon="6.17711">
        <ele>337.6</ele>
        <time>2023-10-01T09:36:32Z</time>
      </trkpt>
      <trkpt lat="47.08909" lon="6.17681">
        <ele>336.6</ele>
        <time>2023-10-01T09:36:36Z</time>
      </trkpt>
      <trkpt lat="47.08915" lon="6.17666">
        <ele>336</ele>
        <time>2023-10-01T09:36:38Z</time>
      </trkpt>
      <trkpt lat="47.08918" lon="6.17659">
        <ele>335.6</ele>
        <time>2023-10-01T09:36:39Z</time>
      </trkpt>
      <trkpt lat="47.08933" lon="6.17631">
        <ele>334.8</ele>
        <time>2023-10-01T09:36:43Z</time>
      </trkpt>
      <trkpt lat="47.08943" lon="6.17608">
        <ele>334.4</ele>
        <time>2023-10-01T09:36:46Z</time>
      </trkpt>
      <trkpt lat="47.08953" lon="6.17586">
        <ele>333.6</ele>
        <time>2023-10-01T09:36:49Z</time>
      </trkpt>
      <trkpt lat="47.08959" lon="6.17571">
        <ele>333.4</ele>
        <time>2023-10-01T09:36:51Z</time>
      </trkpt>
      <trkpt lat="47.08974" lon="6.17542">
        <ele>333.2</ele>
        <time>2023-10-01T09:36:55Z</time>
      </trkpt>
      <trkpt lat="47.09002" lon="6.1749">
        <ele>333.6</ele>
        <time>2023-10-01T09:37:02Z</time>
      </trkpt>
      <trkpt lat="47.09037" lon="6.17435">
        <ele>334.2</ele>
        <time>2023-10-01T09:37:10Z</time>
      </trkpt>
      <trkpt lat="47.09076" lon="6.17375">
        <ele>334.6</ele>
        <time>2023-10-01T09:37:19Z</time>
      </trkpt>
      <trkpt lat="47.09108" lon="6.17328">
        <ele>335.4</ele>
        <time>2023-10-01T09:37:26Z</time>
      </trkpt>
      <trkpt lat="47.09122" lon="6.17308">
        <ele>335.6</ele>
        <time>2023-10-01T09:37:29Z</time>
      </trkpt>
      <trkpt lat="47.09148" lon="6.17267">
        <ele>335.8</ele>
        <time>2023-10-01T09:37:35Z</time>
      </trkpt>
      <trkpt lat="47.09169" lon="6.17235">
        <ele>334.6</ele>
        <time>2023-10-01T09:37:40Z</time>
      </trkpt>
      <trkpt lat="47.09178" lon="6.1722">
        <ele>334.6</ele>
        <time>2023-10-01T09:37:42Z</time>
      </trkpt>
      <trkpt lat="47.09194" lon="6.17189">
        <ele>334</ele>
        <time>2023-10-01T09:37:46Z</time>
      </trkpt>
      <trkpt lat="47.09196" lon="6.1718">
        <ele>333.4</ele>
        <time>2023-10-01T09:37:47Z</time>
      </trkpt>
      <trkpt lat="47.09198" lon="6.17162">
        <ele>332.2</ele>
        <time>2023-10-01T09:37:49Z</time>
      </trkpt>
      <trkpt lat="47.09199" lon="6.17154">
        <ele>331.6</ele>
        <time>2023-10-01T09:37:50Z</time>
      </trkpt>
      <trkpt lat="47.092" lon="6.17146">
        <ele>331</ele>
        <time>2023-10-01T09:37:51Z</time>
      </trkpt>
      <trkpt lat="47.09202" lon="6.17138">
        <ele>330.6</ele>
        <time>2023-10-01T09:37:52Z</time>
      </trkpt>
      <trkpt lat="47.09205" lon="6.17121">
        <ele>330</ele>
        <time>2023-10-01T09:37:54Z</time>
      </trkpt>
      <trkpt lat="47.0921" lon="6.17094">
        <ele>328.6</ele>
        <time>2023-10-01T09:37:57Z</time>
      </trkpt>
      <trkpt lat="47.09216" lon="6.17069">
        <ele>327.6</ele>
        <time>2023-10-01T09:38:00Z</time>
      </trkpt>
      <trkpt lat="47.09218" lon="6.1706">
        <ele>327.6</ele>
        <time>2023-10-01T09:38:01Z</time>
      </trkpt>
      <trkpt lat="47.0923" lon="6.17028">
        <ele>328.6</ele>
        <time>2023-10-01T09:38:05Z</time>
      </trkpt>
      <trkpt lat="47.09237" lon="6.17012">
        <ele>329.8</ele>
        <time>2023-10-01T09:38:07Z</time>
      </trkpt>
      <trkpt lat="47.09248" lon="6.16983">
        <ele>331</ele>
        <time>2023-10-01T09:38:11Z</time>
      </trkpt>
      <trkpt lat="47.09254" lon="6.16967">
        <ele>332.2</ele>
        <time>2023-10-01T09:38:13Z</time>
      </trkpt>
      <trkpt lat="47.09263" lon="6.16944">
        <ele>333.4</ele>
        <time>2023-10-01T09:38:16Z</time>
      </trkpt>
      <trkpt lat="47.09265" lon="6.16935">
        <ele>333.8</ele>
        <time>2023-10-01T09:38:17Z</time>
      </trkpt>
      <trkpt lat="47.09274" lon="6.16902">
        <ele>334.6</ele>
        <time>2023-10-01T09:38:21Z</time>
      </trkpt>
      <trkpt lat="47.09277" lon="6.16895">
        <ele>334.8</ele>
        <time>2023-10-01T09:38:22Z</time>
      </trkpt>
      <trkpt lat="47.0929" lon="6.16875">
        <ele>335.2</ele>
        <time>2023-10-01T09:38:25Z</time>
      </trkpt>
      <trkpt lat="47.09301" lon="6.16864">
        <ele>335.6</ele>
        <time>2023-10-01T09:38:27Z</time>
      </trkpt>
      <trkpt lat="47.09317" lon="6.1685">
        <ele>336.2</ele>
        <time>2023-10-01T09:38:30Z</time>
      </trkpt>
      <trkpt lat="47.09337" lon="6.16829">
        <ele>336.2</ele>
        <time>2023-10-01T09:38:34Z</time>
      </trkpt>
      <trkpt lat="47.09341" lon="6.16824">
        <ele>336.4</ele>
        <time>2023-10-01T09:38:35Z</time>
      </trkpt>
      <trkpt lat="47.09354" lon="6.16806">
        <ele>336.6</ele>
        <time>2023-10-01T09:38:38Z</time>
      </trkpt>
      <trkpt lat="47.09362" lon="6.16801">
        <ele>336.8</ele>
        <time>2023-10-01T09:38:40Z</time>
      </trkpt>
      <trkpt lat="47.09373" lon="6.16815">
        <ele>336.8</ele>
        <time>2023-10-01T09:38:43Z</time>
      </trkpt>
      <trkpt lat="47.09386" lon="6.16832">
        <ele>337</ele>
        <time>2023-10-01T09:38:46Z</time>
      </trkpt>
      <trkpt lat="47.09396" lon="6.16843">
        <ele>336.6</ele>
        <time>2023-10-01T09:38:48Z</time>
      </trkpt>
      <trkpt lat="47.09445" lon="6.16893">
        <ele>336</ele>
        <time>2023-10-01T09:38:57Z</time>
      </trkpt>
      <trkpt lat="47.09458" lon="6.16899">
        <ele>335.8</ele>
        <time>2023-10-01T09:38:59Z</time>
      </trkpt>
      <trkpt lat="47.09471" lon="6.16895">
        <ele>335.8</ele>
        <time>2023-10-01T09:39:01Z</time>
      </trkpt>
      <trkpt lat="47.09486" lon="6.16878">
        <ele>335.6</ele>
        <time>2023-10-01T09:39:04Z</time>
      </trkpt>
      <trkpt lat="47.09491" lon="6.16872">
        <ele>335.8</ele>
        <time>2023-10-01T09:39:05Z</time>
      </trkpt>
      <trkpt lat="47.09531" lon="6.16829">
        <ele>337</ele>
        <time>2023-10-01T09:39:13Z</time>
      </trkpt>
      <trkpt lat="47.0957" lon="6.16788">
        <ele>337.4</ele>
        <time>2023-10-01T09:39:21Z</time>
      </trkpt>
      <trkpt lat="47.09613" lon="6.16745">
        <ele>337.4</ele>
        <time>2023-10-01T09:39:29Z</time>
      </trkpt>
      <trkpt lat="47.09628" lon="6.16729">
        <ele>337.6</ele>
        <time>2023-10-01T09:39:32Z</time>
      </trkpt>
      <trkpt lat="47.09666" lon="6.16692">
        <ele>337.6</ele>
        <time>2023-10-01T09:39:39Z</time>
      </trkpt>
      <trkpt lat="47.09712" lon="6.16645">
        <ele>338</ele>
        <time>2023-10-01T09:39:48Z</time>
      </trkpt>
      <trkpt lat="47.09717" lon="6.1664">
        <ele>338</ele>
        <time>2023-10-01T09:39:49Z</time>
      </trkpt>
      <trkpt lat="47.09765" lon="6.16595">
        <ele>338.6</ele>
        <time>2023-10-01T09:39:58Z</time>
      </trkpt>
      <trkpt lat="47.09811" lon="6.16547">
        <ele>339.2</ele>
        <time>2023-10-01T09:40:07Z</time>
      </trkpt>
      <trkpt lat="47.09847" lon="6.16511">
        <ele>339.6</ele>
        <time>2023-10-01T09:40:14Z</time>
      </trkpt>
      <trkpt lat="47.09852" lon="6.16506">
        <ele>339.8</ele>
        <time>2023-10-01T09:40:15Z</time>
      </trkpt>
      <trkpt lat="47.09892" lon="6.16463">
        <ele>340.2</ele>
        <time>2023-10-01T09:40:23Z</time>
      </trkpt>
      <trkpt lat="47.09929" lon="6.16426">
        <ele>340.4</ele>
        <time>2023-10-01T09:40:30Z</time>
      </trkpt>
      <trkpt lat="47.09964" lon="6.16389">
        <ele>340.6</ele>
        <time>2023-10-01T09:40:37Z</time>
      </trkpt>
      <trkpt lat="47.10004" lon="6.1635">
        <ele>340</ele>
        <time>2023-10-01T09:40:45Z</time>
      </trkpt>
      <trkpt lat="47.10049" lon="6.16308">
        <ele>339.4</ele>
        <time>2023-10-01T09:40:54Z</time>
      </trkpt>
      <trkpt lat="47.10069" lon="6.16288">
        <ele>338.6</ele>
        <time>2023-10-01T09:40:58Z</time>
      </trkpt>
      <trkpt lat="47.1008" lon="6.16281">
        <ele>338.6</ele>
        <time>2023-10-01T09:41:00Z</time>
      </trkpt>
      <trkpt lat="47.10111" lon="6.16264">
        <ele>338.8</ele>
        <time>2023-10-01T09:41:06Z</time>
      </trkpt>
      <trkpt lat="47.10121" lon="6.16255">
        <ele>338.8</ele>
        <time>2023-10-01T09:41:08Z</time>
      </trkpt>
      <trkpt lat="47.1013" lon="6.16249">
        <ele>338.8</ele>
        <time>2023-10-01T09:41:10Z</time>
      </trkpt>
      <trkpt lat="47.10136" lon="6.16249">
        <ele>338.6</ele>
        <time>2023-10-01T09:41:11Z</time>
      </trkpt>
      <trkpt lat="47.10156" lon="6.16252">
        <ele>338.2</ele>
        <time>2023-10-01T09:41:14Z</time>
      </trkpt>
      <trkpt lat="47.10162" lon="6.16251">
        <ele>338.2</ele>
        <time>2023-10-01T09:41:15Z</time>
      </trkpt>
      <trkpt lat="47.10173" lon="6.16242">
        <ele>338.2</ele>
        <time>2023-10-01T09:41:17Z</time>
      </trkpt>
      <trkpt lat="47.10183" lon="6.16218">
        <ele>337.8</ele>
        <time>2023-10-01T09:41:20Z</time>
      </trkpt>
      <trkpt lat="47.10185" lon="6.16209">
        <ele>337.6</ele>
        <time>2023-10-01T09:41:21Z</time>
      </trkpt>
      <trkpt lat="47.10184" lon="6.16189">
        <ele>337</ele>
        <time>2023-10-01T09:41:23Z</time>
      </trkpt>
      <trkpt lat="47.10184" lon="6.16177">
        <ele>337.4</ele>
        <time>2023-10-01T09:41:25Z</time>
      </trkpt>
      <trkpt lat="47.10185" lon="6.16172">
        <ele>337.6</ele>
        <time>2023-10-01T09:41:26Z</time>
      </trkpt>
      <trkpt lat="47.10195" lon="6.16159">
        <ele>338</ele>
        <time>2023-10-01T09:41:29Z</time>
      </trkpt>
      <trkpt lat="47.10199" lon="6.16155">
        <ele>338.2</ele>
        <time>2023-10-01T09:41:30Z</time>
      </trkpt>
      <trkpt lat="47.10228" lon="6.16128">
        <ele>337.8</ele>
        <time>2023-10-01T09:41:37Z</time>
      </trkpt>
      <trkpt lat="47.10249" lon="6.16107">
        <ele>337.6</ele>
        <time>2023-10-01T09:41:43Z</time>
      </trkpt>
      <trkpt lat="47.10254" lon="6.16093">
        <ele>337.2</ele>
        <time>2023-10-01T09:41:46Z</time>
      </trkpt>
      <trkpt lat="47.10252" lon="6.16088">
        <ele>337.2</ele>
        <time>2023-10-01T09:41:47Z</time>
      </trkpt>
      <trkpt lat="47.1025" lon="6.16076">
        <ele>337.4</ele>
        <time>2023-10-01T09:41:49Z</time>
      </trkpt>
      <trkpt lat="47.10253" lon="6.16057">
        <ele>337.2</ele>
        <time>2023-10-01T09:41:52Z</time>
      </trkpt>
      <trkpt lat="47.10255" lon="6.16035">
        <ele>337.2</ele>
        <time>2023-10-01T09:41:56Z</time>
      </trkpt>
      <trkpt lat="47.10246" lon="6.16024">
        <ele>337.6</ele>
        <time>2023-10-01T09:41:59Z</time>
      </trkpt>
      <trkpt lat="47.10244" lon="6.1602">
        <ele>337.8</ele>
        <time>2023-10-01T09:42:00Z</time>
      </trkpt>
      <trkpt lat="47.10238" lon="6.1601">
        <ele>335.8</ele>
        <time>2023-10-01T09:49:10Z</time>
      </trkpt>
      <trkpt lat="47.10236" lon="6.16004">
        <ele>338.2</ele>
        <time>2023-10-01T09:49:27Z</time>
      </trkpt>
      <trkpt lat="47.10231" lon="6.15999">
        <ele>339.2</ele>
        <time>2023-10-01T09:49:31Z</time>
      </trkpt>
      <trkpt lat="47.10229" lon="6.15997">
        <ele>339.6</ele>
        <time>2023-10-01T09:49:32Z</time>
      </trkpt>
      <trkpt lat="47.10228" lon="6.15996">
        <ele>340</ele>
        <time>2023-10-01T09:49:33Z</time>
      </trkpt>
      <trkpt lat="47.10226" lon="6.15995">
        <ele>340.2</ele>
        <time>2023-10-01T09:49:34Z</time>
      </trkpt>
      <trkpt lat="47.10214" lon="6.15987">
        <ele>340.2</ele>
        <time>2023-10-01T09:49:39Z</time>
      </trkpt>
      <trkpt lat="47.10197" lon="6.15974">
        <ele>340.6</ele>
        <time>2023-10-01T09:49:47Z</time>
      </trkpt>
      <trkpt lat="47.10196" lon="6.15971">
        <ele>340.4</ele>
        <time>2023-10-01T09:49:48Z</time>
      </trkpt>
      <trkpt lat="47.10193" lon="6.15959">
        <ele>340</ele>
        <time>2023-10-01T09:49:51Z</time>
      </trkpt>
      <trkpt lat="47.10187" lon="6.15935">
        <ele>340.6</ele>
        <time>2023-10-01T09:49:56Z</time>
      </trkpt>
      <trkpt lat="47.10172" lon="6.15895">
        <ele>340.4</ele>
        <time>2023-10-01T09:50:04Z</time>
      </trkpt>
      <trkpt lat="47.10162" lon="6.15868">
        <ele>340.4</ele>
        <time>2023-10-01T09:50:09Z</time>
      </trkpt>
      <trkpt lat="47.10154" lon="6.15847">
        <ele>340</ele>
        <time>2023-10-01T09:50:13Z</time>
      </trkpt>
      <trkpt lat="47.10141" lon="6.15813">
        <ele>341</ele>
        <time>2023-10-01T09:50:20Z</time>
      </trkpt>
      <trkpt lat="47.10138" lon="6.15806">
        <ele>341.6</ele>
        <time>2023-10-01T09:50:22Z</time>
      </trkpt>
      <trkpt lat="47.10134" lon="6.15796">
        <ele>342.6</ele>
        <time>2023-10-01T09:50:25Z</time>
      </trkpt>
      <trkpt lat="47.10131" lon="6.15785">
        <ele>344</ele>
        <time>2023-10-01T09:50:28Z</time>
      </trkpt>
      <trkpt lat="47.10127" lon="6.15776">
        <ele>345.2</ele>
        <time>2023-10-01T09:50:31Z</time>
      </trkpt>
      <trkpt lat="47.10124" lon="6.15765">
        <ele>345.8</ele>
        <time>2023-10-01T09:50:36Z</time>
      </trkpt>
      <trkpt lat="47.10115" lon="6.15747">
        <ele>346</ele>
        <time>2023-10-01T09:50:42Z</time>
      </trkpt>
      <trkpt lat="47.10099" lon="6.15716">
        <ele>345.2</ele>
        <time>2023-10-01T09:50:50Z</time>
      </trkpt>
      <trkpt lat="47.1008" lon="6.15678">
        <ele>344.4</ele>
        <time>2023-10-01T09:50:57Z</time>
      </trkpt>
      <trkpt lat="47.1006" lon="6.15638">
        <ele>344.8</ele>
        <time>2023-10-01T09:51:05Z</time>
      </trkpt>
      <trkpt lat="47.10048" lon="6.15624">
        <ele>345.2</ele>
        <time>2023-10-01T09:51:10Z</time>
      </trkpt>
      <trkpt lat="47.10035" lon="6.15627">
        <ele>346</ele>
        <time>2023-10-01T09:51:14Z</time>
      </trkpt>
      <trkpt lat="47.10025" lon="6.15634">
        <ele>346.4</ele>
        <time>2023-10-01T09:51:17Z</time>
      </trkpt>
      <trkpt lat="47.10015" lon="6.15638">
        <ele>346.4</ele>
        <time>2023-10-01T09:51:20Z</time>
      </trkpt>
      <trkpt lat="47.10001" lon="6.15636">
        <ele>347.4</ele>
        <time>2023-10-01T09:51:25Z</time>
      </trkpt>
      <trkpt lat="47.09988" lon="6.15625">
        <ele>347.8</ele>
        <time>2023-10-01T09:51:31Z</time>
      </trkpt>
      <trkpt lat="47.09978" lon="6.15622">
        <ele>348.6</ele>
        <time>2023-10-01T09:51:37Z</time>
      </trkpt>
      <trkpt lat="47.09967" lon="6.1563">
        <ele>349.6</ele>
        <time>2023-10-01T09:51:43Z</time>
      </trkpt>
      <trkpt lat="47.09966" lon="6.15632">
        <ele>349.8</ele>
        <time>2023-10-01T09:51:44Z</time>
      </trkpt>
      <trkpt lat="47.09959" lon="6.1564">
        <ele>351</ele>
        <time>2023-10-01T09:51:48Z</time>
      </trkpt>
      <trkpt lat="47.09953" lon="6.15647">
        <ele>351.6</ele>
        <time>2023-10-01T09:51:51Z</time>
      </trkpt>
      <trkpt lat="47.09949" lon="6.1565">
        <ele>352</ele>
        <time>2023-10-01T09:51:53Z</time>
      </trkpt>
      <trkpt lat="47.09943" lon="6.15655">
        <ele>353.2</ele>
        <time>2023-10-01T09:51:57Z</time>
      </trkpt>
      <trkpt lat="47.09938" lon="6.15661">
        <ele>354.2</ele>
        <time>2023-10-01T09:52:01Z</time>
      </trkpt>
      <trkpt lat="47.09934" lon="6.15665">
        <ele>355.4</ele>
        <time>2023-10-01T09:52:04Z</time>
      </trkpt>
      <trkpt lat="47.09931" lon="6.15667">
        <ele>356</ele>
        <time>2023-10-01T09:52:06Z</time>
      </trkpt>
      <trkpt lat="47.0993" lon="6.15669">
        <ele>356.4</ele>
        <time>2023-10-01T09:52:07Z</time>
      </trkpt>
      <trkpt lat="47.09922" lon="6.15676">
        <ele>357.6</ele>
        <time>2023-10-01T09:52:12Z</time>
      </trkpt>
      <trkpt lat="47.0992" lon="6.15678">
        <ele>358</ele>
        <time>2023-10-01T09:52:14Z</time>
      </trkpt>
      <trkpt lat="47.09862" lon="6.15715">
        <ele>367.6</ele>
        <time>2023-10-01T09:52:49Z</time>
      </trkpt>
      <trkpt lat="47.09855" lon="6.15718">
        <ele>368</ele>
        <time>2023-10-01T09:52:52Z</time>
      </trkpt>
      <trkpt lat="47.09843" lon="6.15731">
        <ele>368.2</ele>
        <time>2023-10-01T09:52:57Z</time>
      </trkpt>
      <trkpt lat="47.09825" lon="6.15745">
        <ele>367.6</ele>
        <time>2023-10-01T09:53:03Z</time>
      </trkpt>
      <trkpt lat="47.09801" lon="6.15761">
        <ele>367.4</ele>
        <time>2023-10-01T09:53:11Z</time>
      </trkpt>
      <trkpt lat="47.0978" lon="6.15775">
        <ele>366.8</ele>
        <time>2023-10-01T09:53:17Z</time>
      </trkpt>
      <trkpt lat="47.09766" lon="6.15777">
        <ele>366.8</ele>
        <time>2023-10-01T09:53:22Z</time>
      </trkpt>
      <trkpt lat="47.09746" lon="6.15785">
        <ele>367.2</ele>
        <time>2023-10-01T09:53:28Z</time>
      </trkpt>
      <trkpt lat="47.09717" lon="6.15803">
        <ele>367.2</ele>
        <time>2023-10-01T09:53:37Z</time>
      </trkpt>
      <trkpt lat="47.09697" lon="6.15814">
        <ele>367</ele>
        <time>2023-10-01T09:53:45Z</time>
      </trkpt>
      <trkpt lat="47.09687" lon="6.15819">
        <ele>366.6</ele>
        <time>2023-10-01T09:53:51Z</time>
      </trkpt>
      <trkpt lat="47.09686" lon="6.1582">
        <ele>366.6</ele>
        <time>2023-10-01T09:53:52Z</time>
      </trkpt>
      <trkpt lat="47.09681" lon="6.15825">
        <ele>366.4</ele>
        <time>2023-10-01T09:53:55Z</time>
      </trkpt>
      <trkpt lat="47.09676" lon="6.15829">
        <ele>366.4</ele>
        <time>2023-10-01T09:53:58Z</time>
      </trkpt>
      <trkpt lat="47.09664" lon="6.15836">
        <ele>366.2</ele>
        <time>2023-10-01T09:54:04Z</time>
      </trkpt>
      <trkpt lat="47.09624" lon="6.15867">
        <ele>370.4</ele>
        <time>2023-10-01T09:54:28Z</time>
      </trkpt>
      <trkpt lat="47.09622" lon="6.15869">
        <ele>371</ele>
        <time>2023-10-01T09:54:29Z</time>
      </trkpt>
      <trkpt lat="47.0962" lon="6.15872">
        <ele>371.6</ele>
        <time>2023-10-01T09:54:30Z</time>
      </trkpt>
      <trkpt lat="47.09617" lon="6.15876">
        <ele>372.8</ele>
        <time>2023-10-01T09:54:32Z</time>
      </trkpt>
      <trkpt lat="47.09612" lon="6.15882">
        <ele>374.4</ele>
        <time>2023-10-01T09:54:35Z</time>
      </trkpt>
      <trkpt lat="47.09609" lon="6.15886">
        <ele>375.4</ele>
        <time>2023-10-01T09:54:37Z</time>
      </trkpt>
      <trkpt lat="47.09606" lon="6.15891">
        <ele>376.4</ele>
        <time>2023-10-01T09:54:39Z</time>
      </trkpt>
      <trkpt lat="47.09602" lon="6.15897">
        <ele>377.8</ele>
        <time>2023-10-01T09:54:42Z</time>
      </trkpt>
      <trkpt lat="47.09601" lon="6.159">
        <ele>378.2</ele>
        <time>2023-10-01T09:54:43Z</time>
      </trkpt>
      <trkpt lat="47.09599" lon="6.15903">
        <ele>378.8</ele>
        <time>2023-10-01T09:54:44Z</time>
      </trkpt>
      <trkpt lat="47.09597" lon="6.15908">
        <ele>379.4</ele>
        <time>2023-10-01T09:54:46Z</time>
      </trkpt>
      <trkpt lat="47.09595" lon="6.15913">
        <ele>380</ele>
        <time>2023-10-01T09:54:48Z</time>
      </trkpt>
      <trkpt lat="47.09593" lon="6.15915">
        <ele>380.2</ele>
        <time>2023-10-01T09:54:49Z</time>
      </trkpt>
      <trkpt lat="47.09589" lon="6.15923">
        <ele>381</ele>
        <time>2023-10-01T09:54:52Z</time>
      </trkpt>
      <trkpt lat="47.09583" lon="6.15933">
        <ele>381.8</ele>
        <time>2023-10-01T09:54:56Z</time>
      </trkpt>
      <trkpt lat="47.0957" lon="6.15947">
        <ele>381.8</ele>
        <time>2023-10-01T09:55:03Z</time>
      </trkpt>
      <trkpt lat="47.09557" lon="6.15959">
        <ele>382</ele>
        <time>2023-10-01T09:55:09Z</time>
      </trkpt>
      <trkpt lat="47.09555" lon="6.1596">
        <ele>382.2</ele>
        <time>2023-10-01T09:55:10Z</time>
      </trkpt>
      <trkpt lat="47.09548" lon="6.15967">
        <ele>382.4</ele>
        <time>2023-10-01T09:55:13Z</time>
      </trkpt>
      <trkpt lat="47.09538" lon="6.15976">
        <ele>382.8</ele>
        <time>2023-10-01T09:55:17Z</time>
      </trkpt>
      <trkpt lat="47.09527" lon="6.15988">
        <ele>383.2</ele>
        <time>2023-10-01T09:55:22Z</time>
      </trkpt>
      <trkpt lat="47.09524" lon="6.15993">
        <ele>383.2</ele>
        <time>2023-10-01T09:55:24Z</time>
      </trkpt>
      <trkpt lat="47.09508" lon="6.16014">
        <ele>382.6</ele>
        <time>2023-10-01T09:55:31Z</time>
      </trkpt>
      <trkpt lat="47.09495" lon="6.1603">
        <ele>383</ele>
        <time>2023-10-01T09:55:38Z</time>
      </trkpt>
      <trkpt lat="47.09487" lon="6.16047">
        <ele>383.4</ele>
        <time>2023-10-01T09:55:44Z</time>
      </trkpt>
      <trkpt lat="47.09477" lon="6.16073">
        <ele>383.6</ele>
        <time>2023-10-01T09:55:50Z</time>
      </trkpt>
      <trkpt lat="47.09462" lon="6.16094">
        <ele>383.6</ele>
        <time>2023-10-01T09:55:54Z</time>
      </trkpt>
      <trkpt lat="47.09444" lon="6.16117">
        <ele>383.4</ele>
        <time>2023-10-01T09:55:59Z</time>
      </trkpt>
      <trkpt lat="47.09418" lon="6.16144">
        <ele>383.8</ele>
        <time>2023-10-01T09:56:05Z</time>
      </trkpt>
      <trkpt lat="47.09398" lon="6.16162">
        <ele>384</ele>
        <time>2023-10-01T09:56:10Z</time>
      </trkpt>
      <trkpt lat="47.09393" lon="6.16165">
        <ele>384.4</ele>
        <time>2023-10-01T09:56:11Z</time>
      </trkpt>
      <trkpt lat="47.09372" lon="6.1618">
        <ele>384.2</ele>
        <time>2023-10-01T09:56:16Z</time>
      </trkpt>
      <trkpt lat="47.09369" lon="6.16182">
        <ele>384</ele>
        <time>2023-10-01T09:56:17Z</time>
      </trkpt>
      <trkpt lat="47.0936" lon="6.16189">
        <ele>383.2</ele>
        <time>2023-10-01T09:56:19Z</time>
      </trkpt>
      <trkpt lat="47.09352" lon="6.16193">
        <ele>382.6</ele>
        <time>2023-10-01T09:56:21Z</time>
      </trkpt>
      <trkpt lat="47.0934" lon="6.16197">
        <ele>382.2</ele>
        <time>2023-10-01T09:56:24Z</time>
      </trkpt>
      <trkpt lat="47.09327" lon="6.16201">
        <ele>381</ele>
        <time>2023-10-01T09:56:27Z</time>
      </trkpt>
      <trkpt lat="47.09322" lon="6.16202">
        <ele>380.4</ele>
        <time>2023-10-01T09:56:28Z</time>
      </trkpt>
      <trkpt lat="47.09312" lon="6.16203">
        <ele>379.4</ele>
        <time>2023-10-01T09:56:30Z</time>
      </trkpt>
      <trkpt lat="47.09302" lon="6.16204">
        <ele>378.2</ele>
        <time>2023-10-01T09:56:32Z</time>
      </trkpt>
      <trkpt lat="47.09297" lon="6.16205">
        <ele>377.8</ele>
        <time>2023-10-01T09:56:33Z</time>
      </trkpt>
      <trkpt lat="47.09283" lon="6.16208">
        <ele>377.2</ele>
        <time>2023-10-01T09:56:35Z</time>
      </trkpt>
      <trkpt lat="47.09264" lon="6.16215">
        <ele>376</ele>
        <time>2023-10-01T09:56:38Z</time>
      </trkpt>
      <trkpt lat="47.0926" lon="6.16215">
        <ele>375.2</ele>
        <time>2023-10-01T09:56:39Z</time>
      </trkpt>
      <trkpt lat="47.09254" lon="6.16216">
        <ele>374.8</ele>
        <time>2023-10-01T09:56:40Z</time>
      </trkpt>
      <trkpt lat="47.09239" lon="6.16218">
        <ele>373.6</ele>
        <time>2023-10-01T09:56:43Z</time>
      </trkpt>
      <trkpt lat="47.09217" lon="6.16224">
        <ele>372.8</ele>
        <time>2023-10-01T09:56:47Z</time>
      </trkpt>
      <trkpt lat="47.09212" lon="6.16225">
        <ele>372.2</ele>
        <time>2023-10-01T09:56:48Z</time>
      </trkpt>
      <trkpt lat="47.09187" lon="6.16227">
        <ele>372.6</ele>
        <time>2023-10-01T09:56:53Z</time>
      </trkpt>
      <trkpt lat="47.09159" lon="6.16222">
        <ele>372.4</ele>
        <time>2023-10-01T09:56:58Z</time>
      </trkpt>
      <trkpt lat="47.09147" lon="6.16217">
        <ele>370.8</ele>
        <time>2023-10-01T09:57:00Z</time>
      </trkpt>
      <trkpt lat="47.09133" lon="6.16212">
        <ele>369.4</ele>
        <time>2023-10-01T09:57:02Z</time>
      </trkpt>
      <trkpt lat="47.09118" lon="6.16207">
        <ele>368.4</ele>
        <time>2023-10-01T09:57:04Z</time>
      </trkpt>
      <trkpt lat="47.09098" lon="6.16201">
        <ele>367.4</ele>
        <time>2023-10-01T09:57:07Z</time>
      </trkpt>
      <trkpt lat="47.09091" lon="6.162">
        <ele>367.2</ele>
        <time>2023-10-01T09:57:08Z</time>
      </trkpt>
      <trkpt lat="47.09054" lon="6.1619">
        <ele>366.4</ele>
        <time>2023-10-01T09:57:14Z</time>
      </trkpt>
      <trkpt lat="47.09025" lon="6.16178">
        <ele>365.8</ele>
        <time>2023-10-01T09:57:19Z</time>
      </trkpt>
      <trkpt lat="47.08993" lon="6.16159">
        <ele>365.6</ele>
        <time>2023-10-01T09:57:25Z</time>
      </trkpt>
      <trkpt lat="47.08967" lon="6.16135">
        <ele>366</ele>
        <time>2023-10-01T09:57:31Z</time>
      </trkpt>
      <trkpt lat="47.08949" lon="6.16118">
        <ele>365.2</ele>
        <time>2023-10-01T09:57:35Z</time>
      </trkpt>
      <trkpt lat="47.08933" lon="6.16107">
        <ele>364.6</ele>
        <time>2023-10-01T09:57:38Z</time>
      </trkpt>
      <trkpt lat="47.08928" lon="6.16105">
        <ele>364.4</ele>
        <time>2023-10-01T09:57:39Z</time>
      </trkpt>
      <trkpt lat="47.08923" lon="6.16104">
        <ele>364.2</ele>
        <time>2023-10-01T09:57:40Z</time>
      </trkpt>
      <trkpt lat="47.0892" lon="6.16105">
        <ele>364</ele>
        <time>2023-10-01T09:57:41Z</time>
      </trkpt>
      <trkpt lat="47.08914" lon="6.16117">
        <ele>363.4</ele>
        <time>2023-10-01T09:57:44Z</time>
      </trkpt>
      <trkpt lat="47.08913" lon="6.16123">
        <ele>363.6</ele>
        <time>2023-10-01T09:57:45Z</time>
      </trkpt>
      <trkpt lat="47.08911" lon="6.16152">
        <ele>363.6</ele>
        <time>2023-10-01T09:57:48Z</time>
      </trkpt>
      <trkpt lat="47.08915" lon="6.16205">
        <ele>363.8</ele>
        <time>2023-10-01T09:57:52Z</time>
      </trkpt>
      <trkpt lat="47.08918" lon="6.16219">
        <ele>362.6</ele>
        <time>2023-10-01T09:57:53Z</time>
      </trkpt>
      <trkpt lat="47.08922" lon="6.16268">
        <ele>361.4</ele>
        <time>2023-10-01T09:57:56Z</time>
      </trkpt>
      <trkpt lat="47.08922" lon="6.16295">
        <ele>359.8</ele>
        <time>2023-10-01T09:57:58Z</time>
      </trkpt>
      <trkpt lat="47.08919" lon="6.16314">
        <ele>358.6</ele>
        <time>2023-10-01T09:58:00Z</time>
      </trkpt>
      <trkpt lat="47.08911" lon="6.16328">
        <ele>358.8</ele>
        <time>2023-10-01T09:58:02Z</time>
      </trkpt>
      <trkpt lat="47.08905" lon="6.16332">
        <ele>358.8</ele>
        <time>2023-10-01T09:58:03Z</time>
      </trkpt>
      <trkpt lat="47.08882" lon="6.16336">
        <ele>357</ele>
        <time>2023-10-01T09:58:06Z</time>
      </trkpt>
      <trkpt lat="47.08862" lon="6.16337">
        <ele>356</ele>
        <time>2023-10-01T09:58:09Z</time>
      </trkpt>
      <trkpt lat="47.08849" lon="6.16336">
        <ele>355.8</ele>
        <time>2023-10-01T09:58:11Z</time>
      </trkpt>
      <trkpt lat="47.08817" lon="6.16335">
        <ele>354.8</ele>
        <time>2023-10-01T09:58:16Z</time>
      </trkpt>
      <trkpt lat="47.0881" lon="6.16334">
        <ele>354.6</ele>
        <time>2023-10-01T09:58:17Z</time>
      </trkpt>
      <trkpt lat="47.0878" lon="6.16332">
        <ele>354.2</ele>
        <time>2023-10-01T09:58:22Z</time>
      </trkpt>
      <trkpt lat="47.08761" lon="6.16333">
        <ele>354.4</ele>
        <time>2023-10-01T09:58:25Z</time>
      </trkpt>
      <trkpt lat="47.08736" lon="6.16339">
        <ele>354</ele>
        <time>2023-10-01T09:58:29Z</time>
      </trkpt>
      <trkpt lat="47.08724" lon="6.16344">
        <ele>353.6</ele>
        <time>2023-10-01T09:58:31Z</time>
      </trkpt>
      <trkpt lat="47.08684" lon="6.1635">
        <ele>352.8</ele>
        <time>2023-10-01T09:58:37Z</time>
      </trkpt>
      <trkpt lat="47.08672" lon="6.16348">
        <ele>352.6</ele>
        <time>2023-10-01T09:58:39Z</time>
      </trkpt>
      <trkpt lat="47.0866" lon="6.16342">
        <ele>352.6</ele>
        <time>2023-10-01T09:58:41Z</time>
      </trkpt>
      <trkpt lat="47.08621" lon="6.16319">
        <ele>353</ele>
        <time>2023-10-01T09:58:48Z</time>
      </trkpt>
      <trkpt lat="47.0858" lon="6.16301">
        <ele>353</ele>
        <time>2023-10-01T09:58:55Z</time>
      </trkpt>
      <trkpt lat="47.08565" lon="6.16306">
        <ele>353.4</ele>
        <time>2023-10-01T09:58:58Z</time>
      </trkpt>
      <trkpt lat="47.08556" lon="6.16323">
        <ele>353.4</ele>
        <time>2023-10-01T09:59:01Z</time>
      </trkpt>
      <trkpt lat="47.08551" lon="6.16329">
        <ele>353.4</ele>
        <time>2023-10-01T09:59:02Z</time>
      </trkpt>
      <trkpt lat="47.08532" lon="6.16345">
        <ele>353.2</ele>
        <time>2023-10-01T09:59:06Z</time>
      </trkpt>
      <trkpt lat="47.08527" lon="6.16348">
        <ele>353.4</ele>
        <time>2023-10-01T09:59:07Z</time>
      </trkpt>
      <trkpt lat="47.08495" lon="6.16364">
        <ele>353.6</ele>
        <time>2023-10-01T09:59:13Z</time>
      </trkpt>
      <trkpt lat="47.08463" lon="6.16365">
        <ele>354.8</ele>
        <time>2023-10-01T09:59:19Z</time>
      </trkpt>
      <trkpt lat="47.08457" lon="6.16366">
        <ele>354.8</ele>
        <time>2023-10-01T09:59:20Z</time>
      </trkpt>
      <trkpt lat="47.08424" lon="6.16368">
        <ele>355.8</ele>
        <time>2023-10-01T09:59:26Z</time>
      </trkpt>
      <trkpt lat="47.08419" lon="6.16369">
        <ele>356</ele>
        <time>2023-10-01T09:59:27Z</time>
      </trkpt>
      <trkpt lat="47.08392" lon="6.16371">
        <ele>356.2</ele>
        <time>2023-10-01T09:59:32Z</time>
      </trkpt>
      <trkpt lat="47.08381" lon="6.16374">
        <ele>356.4</ele>
        <time>2023-10-01T09:59:34Z</time>
      </trkpt>
      <trkpt lat="47.08372" lon="6.16382">
        <ele>356.8</ele>
        <time>2023-10-01T09:59:36Z</time>
      </trkpt>
      <trkpt lat="47.08363" lon="6.16403">
        <ele>356.8</ele>
        <time>2023-10-01T09:59:39Z</time>
      </trkpt>
      <trkpt lat="47.08349" lon="6.16452">
        <ele>356.8</ele>
        <time>2023-10-01T09:59:46Z</time>
      </trkpt>
      <trkpt lat="47.08339" lon="6.16489">
        <ele>356.2</ele>
        <time>2023-10-01T09:59:52Z</time>
      </trkpt>
      <trkpt lat="47.08338" lon="6.16497">
        <ele>355.8</ele>
        <time>2023-10-01T09:59:54Z</time>
      </trkpt>
      <trkpt lat="47.08339" lon="6.16501">
        <ele>355.8</ele>
        <time>2023-10-01T09:59:55Z</time>
      </trkpt>
      <trkpt lat="47.0834" lon="6.16504">
        <ele>355.4</ele>
        <time>2023-10-01T09:59:56Z</time>
      </trkpt>
      <trkpt lat="47.08344" lon="6.1651">
        <ele>354.8</ele>
        <time>2023-10-01T09:59:58Z</time>
      </trkpt>
      <trkpt lat="47.08347" lon="6.16513">
        <ele>354.6</ele>
        <time>2023-10-01T09:59:59Z</time>
      </trkpt>
      <trkpt lat="47.08353" lon="6.16518">
        <ele>354</ele>
        <time>2023-10-01T10:00:01Z</time>
      </trkpt>
      <trkpt lat="47.08361" lon="6.16515">
        <ele>354</ele>
        <time>2023-10-01T10:00:02Z</time>
      </trkpt>
      <trkpt lat="47.08381" lon="6.1651">
        <ele>353.6</ele>
        <time>2023-10-01T10:00:05Z</time>
      </trkpt>
      <trkpt lat="47.08388" lon="6.16508">
        <ele>353.6</ele>
        <time>2023-10-01T10:00:06Z</time>
      </trkpt>
      <trkpt lat="47.08427" lon="6.16502">
        <ele>352.8</ele>
        <time>2023-10-01T10:00:11Z</time>
      </trkpt>
      <trkpt lat="47.08433" lon="6.16502">
        <ele>352.6</ele>
        <time>2023-10-01T10:00:12Z</time>
      </trkpt>
      <trkpt lat="47.08452" lon="6.16502">
        <ele>352</ele>
        <time>2023-10-01T10:00:15Z</time>
      </trkpt>
      <trkpt lat="47.08458" lon="6.16503">
        <ele>351.8</ele>
        <time>2023-10-01T10:00:16Z</time>
      </trkpt>
      <trkpt lat="47.0847" lon="6.16504">
        <ele>351.4</ele>
        <time>2023-10-01T10:00:18Z</time>
      </trkpt>
      <trkpt lat="47.08494" lon="6.16501">
        <ele>350.2</ele>
        <time>2023-10-01T10:00:22Z</time>
      </trkpt>
      <trkpt lat="47.08513" lon="6.16502">
        <ele>349</ele>
        <time>2023-10-01T10:00:26Z</time>
      </trkpt>
      <trkpt lat="47.0853" lon="6.16503">
        <ele>348.6</ele>
        <time>2023-10-01T10:00:29Z</time>
      </trkpt>
      <trkpt lat="47.08543" lon="6.16504">
        <ele>348</ele>
        <time>2023-10-01T10:00:32Z</time>
      </trkpt>
      <trkpt lat="47.08553" lon="6.16503">
        <ele>347.6</ele>
        <time>2023-10-01T10:00:35Z</time>
      </trkpt>
      <trkpt lat="47.08569" lon="6.16503">
        <ele>347</ele>
        <time>2023-10-01T10:00:40Z</time>
      </trkpt>
      <trkpt lat="47.08577" lon="6.16504">
        <ele>346.6</ele>
        <time>2023-10-01T10:00:42Z</time>
      </trkpt>
      <trkpt lat="47.08597" lon="6.16505">
        <ele>345.8</ele>
        <time>2023-10-01T10:00:46Z</time>
      </trkpt>
      <trkpt lat="47.08613" lon="6.16503">
        <ele>345.2</ele>
        <time>2023-10-01T10:00:49Z</time>
      </trkpt>
      <trkpt lat="47.08622" lon="6.16502">
        <ele>344.6</ele>
        <time>2023-10-01T10:00:51Z</time>
      </trkpt>
      <trkpt lat="47.08625" lon="6.16506">
        <ele>344</ele>
        <time>2023-10-01T10:00:53Z</time>
      </trkpt>
      <trkpt lat="47.08626" lon="6.16512">
        <ele>343.2</ele>
        <time>2023-10-01T10:00:55Z</time>
      </trkpt>
      <trkpt lat="47.08629" lon="6.16526">
        <ele>342.6</ele>
        <time>2023-10-01T10:00:59Z</time>
      </trkpt>
      <trkpt lat="47.0863" lon="6.16529">
        <ele>342.2</ele>
        <time>2023-10-01T10:01:00Z</time>
      </trkpt>
      <trkpt lat="47.08634" lon="6.16541">
        <ele>342.6</ele>
        <time>2023-10-01T10:01:05Z</time>
      </trkpt>
      <trkpt lat="47.08248" lon="6.1699">
        <ele>454.4</ele>
        <time>2023-10-01T10:07:20Z</time>
      </trkpt>
      <trkpt lat="47.08245" lon="6.16989">
        <ele>454.4</ele>
        <time>2023-10-01T10:07:22Z</time>
      </trkpt>
      <trkpt lat="47.08238" lon="6.1698">
        <ele>454.8</ele>
        <time>2023-10-01T10:07:29Z</time>
      </trkpt>
      <trkpt lat="47.08231" lon="6.16969">
        <ele>455.4</ele>
        <time>2023-10-01T10:07:36Z</time>
      </trkpt>
      <trkpt lat="47.08224" lon="6.16956">
        <ele>455.4</ele>
        <time>2023-10-01T10:07:43Z</time>
      </trkpt>
      <trkpt lat="47.08218" lon="6.16944">
        <ele>456.8</ele>
        <time>2023-10-01T10:07:48Z</time>
      </trkpt>
      <trkpt lat="47.08216" lon="6.16939">
        <ele>458</ele>
        <time>2023-10-01T10:07:50Z</time>
      </trkpt>
      <trkpt lat="47.08212" lon="6.16931">
        <ele>459.2</ele>
        <time>2023-10-01T10:07:54Z</time>
      </trkpt>
      <trkpt lat="47.08208" lon="6.16925">
        <ele>460.6</ele>
        <time>2023-10-01T10:07:57Z</time>
      </trkpt>
      <trkpt lat="47.08206" lon="6.16921">
        <ele>461.4</ele>
        <time>2023-10-01T10:07:59Z</time>
      </trkpt>
      <trkpt lat="47.08205" lon="6.16919">
        <ele>461.6</ele>
        <time>2023-10-01T10:08:00Z</time>
      </trkpt>
      <trkpt lat="47.08198" lon="6.16909">
        <ele>462.2</ele>
        <time>2023-10-01T10:08:05Z</time>
      </trkpt>
      <trkpt lat="47.08195" lon="6.16905">
        <ele>462.8</ele>
        <time>2023-10-01T10:08:07Z</time>
      </trkpt>
      <trkpt lat="47.0819" lon="6.16897">
        <ele>464</ele>
        <time>2023-10-01T10:08:11Z</time>
      </trkpt>
      <trkpt lat="47.08188" lon="6.16895">
        <ele>464</ele>
        <time>2023-10-01T10:08:12Z</time>
      </trkpt>
      <trkpt lat="47.08181" lon="6.16888">
        <ele>465.2</ele>
        <time>2023-10-01T10:08:17Z</time>
      </trkpt>
      <trkpt lat="47.08176" lon="6.16883">
        <ele>466.4</ele>
        <time>2023-10-01T10:08:20Z</time>
      </trkpt>
      <trkpt lat="47.08164" lon="6.16875">
        <ele>466.6</ele>
        <time>2023-10-01T10:08:26Z</time>
      </trkpt>
      <trkpt lat="47.08148" lon="6.16871">
        <ele>466.8</ele>
        <time>2023-10-01T10:08:32Z</time>
      </trkpt>
      <trkpt lat="47.08135" lon="6.16868">
        <ele>466.4</ele>
        <time>2023-10-01T10:08:38Z</time>
      </trkpt>
      <trkpt lat="47.08122" lon="6.16866">
        <ele>466.4</ele>
        <time>2023-10-01T10:08:44Z</time>
      </trkpt>
      <trkpt lat="47.0811" lon="6.16865">
        <ele>466.8</ele>
        <time>2023-10-01T10:08:50Z</time>
      </trkpt>
      <trkpt lat="47.081" lon="6.16864">
        <ele>467</ele>
        <time>2023-10-01T10:08:55Z</time>
      </trkpt>
      <trkpt lat="47.08088" lon="6.16863">
        <ele>467</ele>
        <time>2023-10-01T10:09:01Z</time>
      </trkpt>
      <trkpt lat="47.0807" lon="6.16864">
        <ele>466</ele>
        <time>2023-10-01T10:09:09Z</time>
      </trkpt>
      <trkpt lat="47.0805" lon="6.16866">
        <ele>465.4</ele>
        <time>2023-10-01T10:09:17Z</time>
      </trkpt>
      <trkpt lat="47.08047" lon="6.16866">
        <ele>465.4</ele>
        <time>2023-10-01T10:09:18Z</time>
      </trkpt>
      <trkpt lat="47.08033" lon="6.16867">
        <ele>465</ele>
        <time>2023-10-01T10:09:25Z</time>
      </trkpt>
      <trkpt lat="47.08013" lon="6.1687">
        <ele>465.8</ele>
        <time>2023-10-01T10:09:33Z</time>
      </trkpt>
      <trkpt lat="47.08001" lon="6.1687">
        <ele>466.2</ele>
        <time>2023-10-01T10:09:38Z</time>
      </trkpt>
      <trkpt lat="47.07993" lon="6.16872">
        <ele>466.4</ele>
        <time>2023-10-01T10:09:41Z</time>
      </trkpt>
      <trkpt lat="47.07987" lon="6.16872">
        <ele>466.8</ele>
        <time>2023-10-01T10:09:44Z</time>
      </trkpt>
      <trkpt lat="47.07972" lon="6.16877">
        <ele>467.6</ele>
        <time>2023-10-01T10:09:50Z</time>
      </trkpt>
      <trkpt lat="47.07955" lon="6.16881">
        <ele>468.6</ele>
        <time>2023-10-01T10:09:56Z</time>
      </trkpt>
      <trkpt lat="47.07943" lon="6.16885">
        <ele>469.6</ele>
        <time>2023-10-01T10:10:00Z</time>
      </trkpt>
      <trkpt lat="47.07938" lon="6.16886">
        <ele>470.6</ele>
        <time>2023-10-01T10:10:02Z</time>
      </trkpt>
      <trkpt lat="47.07936" lon="6.16886">
        <ele>471</ele>
        <time>2023-10-01T10:10:03Z</time>
      </trkpt>
      <trkpt lat="47.07926" lon="6.16889">
        <ele>472.2</ele>
        <time>2023-10-01T10:10:07Z</time>
      </trkpt>
      <trkpt lat="47.07924" lon="6.16891">
        <ele>472.4</ele>
        <time>2023-10-01T10:10:08Z</time>
      </trkpt>
      <trkpt lat="47.07919" lon="6.16894">
        <ele>473.2</ele>
        <time>2023-10-01T10:10:10Z</time>
      </trkpt>
      <trkpt lat="47.0791" lon="6.16898">
        <ele>474.4</ele>
        <time>2023-10-01T10:10:14Z</time>
      </trkpt>
      <trkpt lat="47.07898" lon="6.16905">
        <ele>475.6</ele>
        <time>2023-10-01T10:10:18Z</time>
      </trkpt>
      <trkpt lat="47.07886" lon="6.16912">
        <ele>476.6</ele>
        <time>2023-10-01T10:10:23Z</time>
      </trkpt>
      <trkpt lat="47.07877" lon="6.16919">
        <ele>477.8</ele>
        <time>2023-10-01T10:10:27Z</time>
      </trkpt>
      <trkpt lat="47.07872" lon="6.16924">
        <ele>478.2</ele>
        <time>2023-10-01T10:10:29Z</time>
      </trkpt>
      <trkpt lat="47.07862" lon="6.16935">
        <ele>479</ele>
        <time>2023-10-01T10:10:33Z</time>
      </trkpt>
      <trkpt lat="47.07859" lon="6.16941">
        <ele>479.4</ele>
        <time>2023-10-01T10:10:35Z</time>
      </trkpt>
      <trkpt lat="47.07854" lon="6.16947">
        <ele>480</ele>
        <time>2023-10-01T10:10:37Z</time>
      </trkpt>
      <trkpt lat="47.07845" lon="6.16961">
        <ele>480.4</ele>
        <time>2023-10-01T10:10:42Z</time>
      </trkpt>
      <trkpt lat="47.07836" lon="6.16975">
        <ele>480.6</ele>
        <time>2023-10-01T10:10:47Z</time>
      </trkpt>
      <trkpt lat="47.07827" lon="6.16996">
        <ele>480.4</ele>
        <time>2023-10-01T10:10:54Z</time>
      </trkpt>
      <trkpt lat="47.07818" lon="6.1702">
        <ele>480.2</ele>
        <time>2023-10-01T10:11:01Z</time>
      </trkpt>
      <trkpt lat="47.07809" lon="6.17043">
        <ele>479.4</ele>
        <time>2023-10-01T10:11:08Z</time>
      </trkpt>
      <trkpt lat="47.07802" lon="6.17065">
        <ele>480.2</ele>
        <time>2023-10-01T10:11:15Z</time>
      </trkpt>
      <trkpt lat="47.07799" lon="6.17078">
        <ele>480.4</ele>
        <time>2023-10-01T10:11:21Z</time>
      </trkpt>
      <trkpt lat="47.07798" lon="6.17081">
        <ele>480.2</ele>
        <time>2023-10-01T10:11:22Z</time>
      </trkpt>
      <trkpt lat="47.07737" lon="6.17346">
        <ele>525.8</ele>
        <time>2023-10-01T10:14:15Z</time>
      </trkpt>
      <trkpt lat="47.0775" lon="6.17352">
        <ele>525.8</ele>
        <time>2023-10-01T10:14:22Z</time>
      </trkpt>
      <trkpt lat="47.07762" lon="6.17358">
        <ele>526</ele>
        <time>2023-10-01T10:14:27Z</time>
      </trkpt>
      <trkpt lat="47.07762" lon="6.1736">
        <ele>526.2</ele>
        <time>2023-10-01T10:14:28Z</time>
      </trkpt>
      <trkpt lat="47.07762" lon="6.17368">
        <ele>526.4</ele>
        <time>2023-10-01T10:14:32Z</time>
      </trkpt>
      <trkpt lat="47.07761" lon="6.17369">
        <ele>526.4</ele>
        <time>2023-10-01T10:14:33Z</time>
      </trkpt>
      <trkpt lat="47.07757" lon="6.17371">
        <ele>526.4</ele>
        <time>2023-10-01T10:14:36Z</time>
      </trkpt>
      <trkpt lat="47.07755" lon="6.17374">
        <ele>526.4</ele>
        <time>2023-10-01T10:14:38Z</time>
      </trkpt>
      <trkpt lat="47.07742" lon="6.17393">
        <ele>525.6</ele>
        <time>2023-10-01T10:14:46Z</time>
      </trkpt>
      <trkpt lat="47.07727" lon="6.17414">
        <ele>525.4</ele>
        <time>2023-10-01T10:14:54Z</time>
      </trkpt>
      <trkpt lat="47.07713" lon="6.17435">
        <ele>526.6</ele>
        <time>2023-10-01T10:15:02Z</time>
      </trkpt>
      <trkpt lat="47.07707" lon="6.17444">
        <ele>527</ele>
        <time>2023-10-01T10:15:05Z</time>
      </trkpt>
      <trkpt lat="47.07701" lon="6.17454">
        <ele>528</ele>
        <time>2023-10-01T10:15:09Z</time>
      </trkpt>
      <trkpt lat="47.077" lon="6.17457">
        <ele>528.4</ele>
        <time>2023-10-01T10:15:10Z</time>
      </trkpt>
      <trkpt lat="47.07697" lon="6.17468">
        <ele>529.2</ele>
        <time>2023-10-01T10:15:13Z</time>
      </trkpt>
      <trkpt lat="47.07691" lon="6.17487">
        <ele>529.6</ele>
        <time>2023-10-01T10:15:17Z</time>
      </trkpt>
      <trkpt lat="47.07688" lon="6.17501">
        <ele>530.6</ele>
        <time>2023-10-01T10:15:20Z</time>
      </trkpt>
      <trkpt lat="47.07686" lon="6.17518">
        <ele>531.6</ele>
        <time>2023-10-01T10:15:24Z</time>
      </trkpt>
      <trkpt lat="47.07685" lon="6.17527">
        <ele>532.2</ele>
        <time>2023-10-01T10:15:26Z</time>
      </trkpt>
      <trkpt lat="47.07685" lon="6.17537">
        <ele>532.6</ele>
        <time>2023-10-01T10:15:28Z</time>
      </trkpt>
      <trkpt lat="47.07688" lon="6.17565">
        <ele>533.6</ele>
        <time>2023-10-01T10:15:34Z</time>
      </trkpt>
      <trkpt lat="47.07693" lon="6.17602">
        <ele>534.2</ele>
        <time>2023-10-01T10:15:41Z</time>
      </trkpt>
      <trkpt lat="47.07694" lon="6.17618">
        <ele>534.8</ele>
        <time>2023-10-01T10:15:44Z</time>
      </trkpt>
      <trkpt lat="47.07698" lon="6.17648">
        <ele>535.6</ele>
        <time>2023-10-01T10:15:50Z</time>
      </trkpt>
      <trkpt lat="47.07698" lon="6.17658">
        <ele>535.8</ele>
        <time>2023-10-01T10:15:52Z</time>
      </trkpt>
      <trkpt lat="47.07701" lon="6.17683">
        <ele>537</ele>
        <time>2023-10-01T10:15:57Z</time>
      </trkpt>
      <trkpt lat="47.07703" lon="6.17708">
        <ele>537.8</ele>
        <time>2023-10-01T10:16:02Z</time>
      </trkpt>
      <trkpt lat="47.07703" lon="6.17713">
        <ele>538</ele>
        <time>2023-10-01T10:16:03Z</time>
      </trkpt>
      <trkpt lat="47.07704" lon="6.17728">
        <ele>539.4</ele>
        <time>2023-10-01T10:16:06Z</time>
      </trkpt>
      <trkpt lat="47.07704" lon="6.17747">
        <ele>540</ele>
        <time>2023-10-01T10:16:10Z</time>
      </trkpt>
      <trkpt lat="47.07705" lon="6.17766">
        <ele>540.4</ele>
        <time>2023-10-01T10:16:14Z</time>
      </trkpt>
      <trkpt lat="47.07707" lon="6.17791">
        <ele>541.2</ele>
        <time>2023-10-01T10:16:19Z</time>
      </trkpt>
      <trkpt lat="47.07709" lon="6.17806">
        <ele>541.4</ele>
        <time>2023-10-01T10:16:22Z</time>
      </trkpt>
      <trkpt lat="47.07708" lon="6.1783">
        <ele>542.2</ele>
        <time>2023-10-01T10:16:27Z</time>
      </trkpt>
      <trkpt lat="47.07706" lon="6.17836">
        <ele>542.6</ele>
        <time>2023-10-01T10:16:29Z</time>
      </trkpt>
      <trkpt lat="47.07704" lon="6.17837">
        <ele>542.8</ele>
        <time>2023-10-01T10:16:30Z</time>
      </trkpt>
      <trkpt lat="47.07701" lon="6.17837">
        <ele>543.2</ele>
        <time>2023-10-01T10:16:31Z</time>
      </trkpt>
      <trkpt lat="47.07696" lon="6.17831">
        <ele>543.8</ele>
        <time>2023-10-01T10:16:34Z</time>
      </trkpt>
      <trkpt lat="47.07695" lon="6.17829">
        <ele>544</ele>
        <time>2023-10-01T10:16:35Z</time>
      </trkpt>
      <trkpt lat="47.0769" lon="6.1782">
        <ele>545</ele>
        <time>2023-10-01T10:16:39Z</time>
      </trkpt>
      <trkpt lat="47.07686" lon="6.17809">
        <ele>546.2</ele>
        <time>2023-10-01T10:16:43Z</time>
      </trkpt>
      <trkpt lat="47.07684" lon="6.17798">
        <ele>547.4</ele>
        <time>2023-10-01T10:16:47Z</time>
      </trkpt>
      <trkpt lat="47.07681" lon="6.1779">
        <ele>548.2</ele>
        <time>2023-10-01T10:16:50Z</time>
      </trkpt>
      <trkpt lat="47.0768" lon="6.17787">
        <ele>548.6</ele>
        <time>2023-10-01T10:16:51Z</time>
      </trkpt>
      <trkpt lat="47.07677" lon="6.17779">
        <ele>549.6</ele>
        <time>2023-10-01T10:16:54Z</time>
      </trkpt>
      <trkpt lat="47.07672" lon="6.17766">
        <ele>550.6</ele>
        <time>2023-10-01T10:16:59Z</time>
      </trkpt>
      <trkpt lat="47.07667" lon="6.17756">
        <ele>551.8</ele>
        <time>2023-10-01T10:17:03Z</time>
      </trkpt>
      <trkpt lat="47.07663" lon="6.17751">
        <ele>552.4</ele>
        <time>2023-10-01T10:17:06Z</time>
      </trkpt>
      <trkpt lat="47.07662" lon="6.17749">
        <ele>552.8</ele>
        <time>2023-10-01T10:17:07Z</time>
      </trkpt>
      <trkpt lat="47.07656" lon="6.17743">
        <ele>554</ele>
        <time>2023-10-01T10:17:11Z</time>
      </trkpt>
      <trkpt lat="47.07655" lon="6.17742">
        <ele>554.4</ele>
        <time>2023-10-01T10:17:12Z</time>
      </trkpt>
      <trkpt lat="47.0765" lon="6.17736">
        <ele>555.2</ele>
        <time>2023-10-01T10:17:15Z</time>
      </trkpt>
      <trkpt lat="47.07646" lon="6.17732">
        <ele>556.4</ele>
        <time>2023-10-01T10:17:18Z</time>
      </trkpt>
      <trkpt lat="47.07645" lon="6.1773">
        <ele>556.6</ele>
        <time>2023-10-01T10:17:19Z</time>
      </trkpt>
      <trkpt lat="47.07639" lon="6.17724">
        <ele>557.4</ele>
        <time>2023-10-01T10:17:23Z</time>
      </trkpt>
      <trkpt lat="47.07633" lon="6.17718">
        <ele>558.6</ele>
        <time>2023-10-01T10:17:27Z</time>
      </trkpt>
      <trkpt lat="47.07625" lon="6.17712">
        <ele>559.8</ele>
        <time>2023-10-01T10:17:32Z</time>
      </trkpt>
      <trkpt lat="47.07621" lon="6.17708">
        <ele>560.4</ele>
        <time>2023-10-01T10:17:35Z</time>
      </trkpt>
      <trkpt lat="47.07618" lon="6.17704">
        <ele>560.8</ele>
        <time>2023-10-01T10:17:37Z</time>
      </trkpt>
      <trkpt lat="47.07607" lon="6.17694">
        <ele>561.6</ele>
        <time>2023-10-01T10:17:44Z</time>
      </trkpt>
      <trkpt lat="47.07603" lon="6.17688">
        <ele>562</ele>
        <time>2023-10-01T10:17:47Z</time>
      </trkpt>
      <trkpt lat="47.07599" lon="6.17682">
        <ele>563.4</ele>
        <time>2023-10-01T10:17:50Z</time>
      </trkpt>
      <trkpt lat="47.07598" lon="6.17681">
        <ele>563.8</ele>
        <time>2023-10-01T10:17:51Z</time>
      </trkpt>
      <trkpt lat="47.07596" lon="6.17681">
        <ele>564</ele>
        <time>2023-10-01T10:17:52Z</time>
      </trkpt>
      <trkpt lat="47.07593" lon="6.17683">
        <ele>564.8</ele>
        <time>2023-10-01T10:17:54Z</time>
      </trkpt>
      <trkpt lat="47.0759" lon="6.17689">
        <ele>565</ele>
        <time>2023-10-01T10:17:57Z</time>
      </trkpt>
      <trkpt lat="47.07589" lon="6.17692">
        <ele>565</ele>
        <time>2023-10-01T10:17:58Z</time>
      </trkpt>
      <trkpt lat="47.07587" lon="6.1771">
        <ele>565.6</ele>
        <time>2023-10-01T10:18:04Z</time>
      </trkpt>
      <trkpt lat="47.07586" lon="6.17733">
        <ele>565.8</ele>
        <time>2023-10-01T10:18:11Z</time>
      </trkpt>
      <trkpt lat="47.07585" lon="6.17738">
        <ele>565.8</ele>
        <time>2023-10-01T10:18:13Z</time>
      </trkpt>
      <trkpt lat="47.07584" lon="6.17762">
        <ele>566.6</ele>
        <time>2023-10-01T10:18:22Z</time>
      </trkpt>
      <trkpt lat="47.07581" lon="6.17786">
        <ele>566.4</ele>
        <time>2023-10-01T10:18:30Z</time>
      </trkpt>
      <trkpt lat="47.0758" lon="6.17811">
        <ele>565.8</ele>
        <time>2023-10-01T10:18:39Z</time>
      </trkpt>
      <trkpt lat="47.07577" lon="6.17833">
        <ele>564.8</ele>
        <time>2023-10-01T10:18:47Z</time>
      </trkpt>
      <trkpt lat="47.07575" lon="6.17855">
        <ele>565.4</ele>
        <time>2023-10-01T10:18:54Z</time>
      </trkpt>
      <trkpt lat="47.07572" lon="6.17864">
        <ele>566.8</ele>
        <time>2023-10-01T10:18:57Z</time>
      </trkpt>
      <trkpt lat="47.07571" lon="6.1787">
        <ele>568</ele>
        <time>2023-10-01T10:18:59Z</time>
      </trkpt>
      <trkpt lat="47.0757" lon="6.17872">
        <ele>568.8</ele>
        <time>2023-10-01T10:19:00Z</time>
      </trkpt>
      <trkpt lat="47.07569" lon="6.17875">
        <ele>569.6</ele>
        <time>2023-10-01T10:19:01Z</time>
      </trkpt>
      <trkpt lat="47.07565" lon="6.17877">
        <ele>570.8</ele>
        <time>2023-10-01T10:19:03Z</time>
      </trkpt>
      <trkpt lat="47.07561" lon="6.17878">
        <ele>572</ele>
        <time>2023-10-01T10:19:05Z</time>
      </trkpt>
      <trkpt lat="47.07559" lon="6.17878">
        <ele>572.6</ele>
        <time>2023-10-01T10:19:06Z</time>
      </trkpt>
      <trkpt lat="47.07557" lon="6.17877">
        <ele>573.4</ele>
        <time>2023-10-01T10:19:07Z</time>
      </trkpt>
      <trkpt lat="47.07553" lon="6.17873">
        <ele>574.4</ele>
        <time>2023-10-01T10:19:09Z</time>
      </trkpt>
      <trkpt lat="47.0755" lon="6.1787">
        <ele>575.4</ele>
        <time>2023-10-01T10:19:11Z</time>
      </trkpt>
      <trkpt lat="47.07545" lon="6.1786">
        <ele>577</ele>
        <time>2023-10-01T10:19:15Z</time>
      </trkpt>
      <trkpt lat="47.0754" lon="6.17848">
        <ele>578</ele>
        <time>2023-10-01T10:19:19Z</time>
      </trkpt>
      <trkpt lat="47.07536" lon="6.17839">
        <ele>579</ele>
        <time>2023-10-01T10:19:22Z</time>
      </trkpt>
      <trkpt lat="47.0753" lon="6.17821">
        <ele>579.6</ele>
        <time>2023-10-01T10:19:27Z</time>
      </trkpt>
      <trkpt lat="47.07527" lon="6.17815">
        <ele>580.2</ele>
        <time>2023-10-01T10:19:29Z</time>
      </trkpt>
      <trkpt lat="47.07521" lon="6.17799">
        <ele>581.2</ele>
        <time>2023-10-01T10:19:34Z</time>
      </trkpt>
      <trkpt lat="47.07517" lon="6.1779">
        <ele>581.8</ele>
        <time>2023-10-01T10:19:37Z</time>
      </trkpt>
      <trkpt lat="47.07514" lon="6.17784">
        <ele>582.2</ele>
        <time>2023-10-01T10:19:39Z</time>
      </trkpt>
      <trkpt lat="47.0751" lon="6.17776">
        <ele>583.4</ele>
        <time>2023-10-01T10:19:42Z</time>
      </trkpt>
      <trkpt lat="47.07505" lon="6.17768">
        <ele>584.4</ele>
        <time>2023-10-01T10:19:45Z</time>
      </trkpt>
      <trkpt lat="47.07504" lon="6.17764">
        <ele>584.6</ele>
        <time>2023-10-01T10:19:46Z</time>
      </trkpt>
      <trkpt lat="47.07495" lon="6.17746">
        <ele>585.6</ele>
        <time>2023-10-01T10:19:52Z</time>
      </trkpt>
      <trkpt lat="47.07489" lon="6.17735">
        <ele>587</ele>
        <time>2023-10-01T10:19:56Z</time>
      </trkpt>
      <trkpt lat="47.07477" lon="6.1772">
        <ele>588</ele>
        <time>2023-10-01T10:20:02Z</time>
      </trkpt>
      <trkpt lat="47.07475" lon="6.17719">
        <ele>588.2</ele>
        <time>2023-10-01T10:20:03Z</time>
      </trkpt>
      <trkpt lat="47.07459" lon="6.17716">
        <ele>588.8</ele>
        <time>2023-10-01T10:20:09Z</time>
      </trkpt>
      <trkpt lat="47.07449" lon="6.17711">
        <ele>589.2</ele>
        <time>2023-10-01T10:20:13Z</time>
      </trkpt>
      <trkpt lat="47.07443" lon="6.17705">
        <ele>589.6</ele>
        <time>2023-10-01T10:20:16Z</time>
      </trkpt>
      <trkpt lat="47.07424" lon="6.17697">
        <ele>590.2</ele>
        <time>2023-10-01T10:20:24Z</time>
      </trkpt>
      <trkpt lat="47.07417" lon="6.17696">
        <ele>590.2</ele>
        <time>2023-10-01T10:20:27Z</time>
      </trkpt>
      <trkpt lat="47.07401" lon="6.17698">
        <ele>590.6</ele>
        <time>2023-10-01T10:20:32Z</time>
      </trkpt>
      <trkpt lat="47.07386" lon="6.17704">
        <ele>590.8</ele>
        <time>2023-10-01T10:20:38Z</time>
      </trkpt>
      <trkpt lat="47.07377" lon="6.17709">
        <ele>591.4</ele>
        <time>2023-10-01T10:20:41Z</time>
      </trkpt>
      <trkpt lat="47.0737" lon="6.17713">
        <ele>591.2</ele>
        <time>2023-10-01T10:20:44Z</time>
      </trkpt>
      <trkpt lat="47.07358" lon="6.17716">
        <ele>592</ele>
        <time>2023-10-01T10:20:50Z</time>
      </trkpt>
      <trkpt lat="47.07349" lon="6.17716">
        <ele>592.4</ele>
        <time>2023-10-01T10:20:53Z</time>
      </trkpt>
      <trkpt lat="47.07341" lon="6.17715">
        <ele>592.8</ele>
        <time>2023-10-01T10:20:56Z</time>
      </trkpt>
      <trkpt lat="47.07332" lon="6.17714">
        <ele>593.8</ele>
        <time>2023-10-01T10:20:59Z</time>
      </trkpt>
      <trkpt lat="47.07321" lon="6.17712">
        <ele>594.8</ele>
        <time>2023-10-01T10:21:03Z</time>
      </trkpt>
      <trkpt lat="47.07309" lon="6.17707">
        <ele>595.8</ele>
        <time>2023-10-01T10:21:08Z</time>
      </trkpt>
      <trkpt lat="47.07304" lon="6.17708">
        <ele>596.2</ele>
        <time>2023-10-01T10:21:10Z</time>
      </trkpt>
      <trkpt lat="47.07294" lon="6.17707">
        <ele>597.2</ele>
        <time>2023-10-01T10:21:13Z</time>
      </trkpt>
      <trkpt lat="47.07278" lon="6.17711">
        <ele>597.8</ele>
        <time>2023-10-01T10:21:18Z</time>
      </trkpt>
      <trkpt lat="47.07264" lon="6.1771">
        <ele>597.8</ele>
        <time>2023-10-01T10:21:23Z</time>
      </trkpt>
      <trkpt lat="47.07252" lon="6.17709">
        <ele>598.2</ele>
        <time>2023-10-01T10:21:27Z</time>
      </trkpt>
      <trkpt lat="47.07242" lon="6.17708">
        <ele>598.4</ele>
        <time>2023-10-01T10:21:30Z</time>
      </trkpt>
      <trkpt lat="47.07233" lon="6.1771">
        <ele>599.6</ele>
        <time>2023-10-01T10:21:32Z</time>
      </trkpt>
      <trkpt lat="47.07215" lon="6.17716">
        <ele>600.8</ele>
        <time>2023-10-01T10:21:36Z</time>
      </trkpt>
      <trkpt lat="47.07193" lon="6.17718">
        <ele>602</ele>
        <time>2023-10-01T10:21:42Z</time>
      </trkpt>
      <trkpt lat="47.07185" lon="6.17718">
        <ele>601.8</ele>
        <time>2023-10-01T10:21:44Z</time>
      </trkpt>
      <trkpt lat="47.07165" lon="6.17717">
        <ele>603</ele>
        <time>2023-10-01T10:21:50Z</time>
      </trkpt>
      <trkpt lat="47.07158" lon="6.17717">
        <ele>603.8</ele>
        <time>2023-10-01T10:21:52Z</time>
      </trkpt>
      <trkpt lat="47.07154" lon="6.17717">
        <ele>604.4</ele>
        <time>2023-10-01T10:21:53Z</time>
      </trkpt>
      <trkpt lat="47.07132" lon="6.17718">
        <ele>605.6</ele>
        <time>2023-10-01T10:21:59Z</time>
      </trkpt>
      <trkpt lat="47.0712" lon="6.17718">
        <ele>606.8</ele>
        <time>2023-10-01T10:22:02Z</time>
      </trkpt>
      <trkpt lat="47.07112" lon="6.17717">
        <ele>608</ele>
        <time>2023-10-01T10:22:04Z</time>
      </trkpt>
      <trkpt lat="47.07105" lon="6.17716">
        <ele>609.2</ele>
        <time>2023-10-01T10:22:06Z</time>
      </trkpt>
      <trkpt lat="47.07088" lon="6.17713">
        <ele>610.2</ele>
        <time>2023-10-01T10:22:11Z</time>
      </trkpt>
      <trkpt lat="47.07079" lon="6.17714">
        <ele>610.4</ele>
        <time>2023-10-01T10:22:13Z</time>
      </trkpt>
      <trkpt lat="47.07047" lon="6.17715">
        <ele>610.4</ele>
        <time>2023-10-01T10:22:19Z</time>
      </trkpt>
      <trkpt lat="47.07015" lon="6.17713">
        <ele>610.6</ele>
        <time>2023-10-01T10:22:25Z</time>
      </trkpt>
      <trkpt lat="47.06978" lon="6.17709">
        <ele>611</ele>
        <time>2023-10-01T10:22:32Z</time>
      </trkpt>
      <trkpt lat="47.06969" lon="6.17707">
        <ele>611.4</ele>
        <time>2023-10-01T10:22:34Z</time>
      </trkpt>
      <trkpt lat="47.06961" lon="6.17706">
        <ele>612.2</ele>
        <time>2023-10-01T10:22:37Z</time>
      </trkpt>
      <trkpt lat="47.06958" lon="6.17706">
        <ele>612.4</ele>
        <time>2023-10-01T10:22:38Z</time>
      </trkpt>
      <trkpt lat="47.06944" lon="6.17703">
        <ele>613.6</ele>
        <time>2023-10-01T10:22:44Z</time>
      </trkpt>
      <trkpt lat="47.06929" lon="6.17701">
        <ele>614.8</ele>
        <time>2023-10-01T10:22:49Z</time>
      </trkpt>
      <trkpt lat="47.06921" lon="6.177">
        <ele>615.4</ele>
        <time>2023-10-01T10:22:51Z</time>
      </trkpt>
      <trkpt lat="47.06914" lon="6.177">
        <ele>616</ele>
        <time>2023-10-01T10:22:53Z</time>
      </trkpt>
      <trkpt lat="47.06902" lon="6.17699">
        <ele>617.2</ele>
        <time>2023-10-01T10:22:57Z</time>
      </trkpt>
      <trkpt lat="47.06882" lon="6.17697">
        <ele>617.6</ele>
        <time>2023-10-01T10:23:04Z</time>
      </trkpt>
      <trkpt lat="47.06872" lon="6.17697">
        <ele>617.4</ele>
        <time>2023-10-01T10:23:09Z</time>
      </trkpt>
      <trkpt lat="47.06856" lon="6.17694">
        <ele>618.2</ele>
        <time>2023-10-01T10:23:14Z</time>
      </trkpt>
      <trkpt lat="47.06853" lon="6.17694">
        <ele>618.2</ele>
        <time>2023-10-01T10:23:15Z</time>
      </trkpt>
      <trkpt lat="47.06834" lon="6.17693">
        <ele>619.4</ele>
        <time>2023-10-01T10:23:21Z</time>
      </trkpt>
      <trkpt lat="47.06813" lon="6.17694">
        <ele>619.8</ele>
        <time>2023-10-01T10:23:27Z</time>
      </trkpt>
      <trkpt lat="47.06797" lon="6.17699">
        <ele>620</ele>
        <time>2023-10-01T10:23:34Z</time>
      </trkpt>
      <trkpt lat="47.0678" lon="6.17704">
        <ele>620.4</ele>
        <time>2023-10-01T10:23:41Z</time>
      </trkpt>
      <trkpt lat="47.06773" lon="6.17709">
        <ele>620.8</ele>
        <time>2023-10-01T10:23:44Z</time>
      </trkpt>
      <trkpt lat="47.06769" lon="6.17718">
        <ele>620.8</ele>
        <time>2023-10-01T10:23:46Z</time>
      </trkpt>
      <trkpt lat="47.06762" lon="6.17742">
        <ele>620.8</ele>
        <time>2023-10-01T10:23:52Z</time>
      </trkpt>
      <trkpt lat="47.06753" lon="6.17768">
        <ele>620</ele>
        <time>2023-10-01T10:23:58Z</time>
      </trkpt>
      <trkpt lat="47.06748" lon="6.17788">
        <ele>619.8</ele>
        <time>2023-10-01T10:24:03Z</time>
      </trkpt>
      <trkpt lat="47.06749" lon="6.17791">
        <ele>620.2</ele>
        <time>2023-10-01T10:24:04Z</time>
      </trkpt>
      <trkpt lat="47.06747" lon="6.17806">
        <ele>619.4</ele>
        <time>2023-10-01T10:24:08Z</time>
      </trkpt>
      <trkpt lat="47.06745" lon="6.17814">
        <ele>619.2</ele>
        <time>2023-10-01T10:24:10Z</time>
      </trkpt>
      <trkpt lat="47.06744" lon="6.17818">
        <ele>619.2</ele>
        <time>2023-10-01T10:24:11Z</time>
      </trkpt>
      <trkpt lat="47.06741" lon="6.17845">
        <ele>618</ele>
        <time>2023-10-01T10:24:18Z</time>
      </trkpt>
      <trkpt lat="47.06741" lon="6.17849">
        <ele>617.8</ele>
        <time>2023-10-01T10:24:19Z</time>
      </trkpt>
      <trkpt lat="47.0674" lon="6.17857">
        <ele>617</ele>
        <time>2023-10-01T10:24:22Z</time>
      </trkpt>
      <trkpt lat="47.06738" lon="6.17868">
        <ele>615.8</ele>
        <time>2023-10-01T10:24:25Z</time>
      </trkpt>
      <trkpt lat="47.06737" lon="6.17875">
        <ele>614.8</ele>
        <time>2023-10-01T10:24:27Z</time>
      </trkpt>
      <trkpt lat="47.06734" lon="6.17899">
        <ele>614</ele>
        <time>2023-10-01T10:24:33Z</time>
      </trkpt>
      <trkpt lat="47.06734" lon="6.17923">
        <ele>618.2</ele>
        <time>2023-10-01T10:26:00Z</time>
      </trkpt>
      <trkpt lat="47.06733" lon="6.17927">
        <ele>619.2</ele>
        <time>2023-10-01T10:26:01Z</time>
      </trkpt>
      <trkpt lat="47.06733" lon="6.17931">
        <ele>620.2</ele>
        <time>2023-10-01T10:26:02Z</time>
      </trkpt>
      <trkpt lat="47.06733" lon="6.17935">
        <ele>621.2</ele>
        <time>2023-10-01T10:26:03Z</time>
      </trkpt>
      <trkpt lat="47.06732" lon="6.17939">
        <ele>622.2</ele>
        <time>2023-10-01T10:26:04Z</time>
      </trkpt>
      <trkpt lat="47.06731" lon="6.1795">
        <ele>623.8</ele>
        <time>2023-10-01T10:26:06Z</time>
      </trkpt>
      <trkpt lat="47.0673" lon="6.17959">
        <ele>625.4</ele>
        <time>2023-10-01T10:26:08Z</time>
      </trkpt>
      <trkpt lat="47.06728" lon="6.17969">
        <ele>627</ele>
        <time>2023-10-01T10:26:10Z</time>
      </trkpt>
      <trkpt lat="47.06728" lon="6.17973">
        <ele>628</ele>
        <time>2023-10-01T10:26:11Z</time>
      </trkpt>
      <trkpt lat="47.06727" lon="6.17978">
        <ele>628.8</ele>
        <time>2023-10-01T10:26:12Z</time>
      </trkpt>
      <trkpt lat="47.06727" lon="6.17983">
        <ele>630.2</ele>
        <time>2023-10-01T10:26:13Z</time>
      </trkpt>
      <trkpt lat="47.06726" lon="6.17995">
        <ele>631</ele>
        <time>2023-10-01T10:26:16Z</time>
      </trkpt>
      <trkpt lat="47.06724" lon="6.18">
        <ele>631.4</ele>
        <time>2023-10-01T10:26:17Z</time>
      </trkpt>
      <trkpt lat="47.06721" lon="6.18015">
        <ele>632.8</ele>
        <time>2023-10-01T10:26:20Z</time>
      </trkpt>
      <trkpt lat="47.06721" lon="6.18019">
        <ele>633.2</ele>
        <time>2023-10-01T10:26:21Z</time>
      </trkpt>
      <trkpt lat="47.06722" lon="6.18025">
        <ele>633.6</ele>
        <time>2023-10-01T10:26:22Z</time>
      </trkpt>
      <trkpt lat="47.06722" lon="6.18035">
        <ele>634</ele>
        <time>2023-10-01T10:26:24Z</time>
      </trkpt>
      <trkpt lat="47.06722" lon="6.1804">
        <ele>634.2</ele>
        <time>2023-10-01T10:26:25Z</time>
      </trkpt>
      <trkpt lat="47.0672" lon="6.18069">
        <ele>633.4</ele>
        <time>2023-10-01T10:26:30Z</time>
      </trkpt>
      <trkpt lat="47.06719" lon="6.18073">
        <ele>633</ele>
        <time>2023-10-01T10:26:31Z</time>
      </trkpt>
      <trkpt lat="47.06718" lon="6.18079">
        <ele>632</ele>
        <time>2023-10-01T10:26:33Z</time>
      </trkpt>
      <trkpt lat="47.06715" lon="6.18082">
        <ele>631.6</ele>
        <time>2023-10-01T10:26:35Z</time>
      </trkpt>
      <trkpt lat="47.0671" lon="6.18084">
        <ele>630.8</ele>
        <time>2023-10-01T10:26:38Z</time>
      </trkpt>
      <trkpt lat="47.06704" lon="6.18086">
        <ele>630.4</ele>
        <time>2023-10-01T10:26:41Z</time>
      </trkpt>
      <trkpt lat="47.06686" lon="6.18092">
        <ele>629.4</ele>
        <time>2023-10-01T10:26:50Z</time>
      </trkpt>
      <trkpt lat="47.06684" lon="6.18093">
        <ele>629.4</ele>
        <time>2023-10-01T10:26:51Z</time>
      </trkpt>
      <trkpt lat="47.06668" lon="6.181">
        <ele>629.8</ele>
        <time>2023-10-01T10:26:57Z</time>
      </trkpt>
      <trkpt lat="47.06647" lon="6.18111">
        <ele>629.2</ele>
        <time>2023-10-01T10:27:04Z</time>
      </trkpt>
      <trkpt lat="47.06631" lon="6.18119">
        <ele>628.4</ele>
        <time>2023-10-01T10:27:09Z</time>
      </trkpt>
      <trkpt lat="47.06627" lon="6.18122">
        <ele>628.2</ele>
        <time>2023-10-01T10:27:10Z</time>
      </trkpt>
      <trkpt lat="47.06614" lon="6.1813">
        <ele>627.6</ele>
        <time>2023-10-01T10:27:14Z</time>
      </trkpt>
      <trkpt lat="47.06608" lon="6.18137">
        <ele>627.2</ele>
        <time>2023-10-01T10:27:16Z</time>
      </trkpt>
      <trkpt lat="47.06601" lon="6.18147">
        <ele>625.8</ele>
        <time>2023-10-01T10:27:18Z</time>
      </trkpt>
      <trkpt lat="47.06589" lon="6.18157">
        <ele>624.2</ele>
        <time>2023-10-01T10:27:21Z</time>
      </trkpt>
      <trkpt lat="47.06582" lon="6.18163">
        <ele>623.2</ele>
        <time>2023-10-01T10:27:23Z</time>
      </trkpt>
      <trkpt lat="47.06578" lon="6.18166">
        <ele>621.8</ele>
        <time>2023-10-01T10:27:24Z</time>
      </trkpt>
      <trkpt lat="47.06566" lon="6.18179">
        <ele>620.4</ele>
        <time>2023-10-01T10:27:28Z</time>
      </trkpt>
      <trkpt lat="47.06559" lon="6.18189">
        <ele>618.8</ele>
        <time>2023-10-01T10:27:30Z</time>
      </trkpt>
      <trkpt lat="47.06552" lon="6.18198">
        <ele>617.6</ele>
        <time>2023-10-01T10:27:32Z</time>
      </trkpt>
      <trkpt lat="47.06546" lon="6.18206">
        <ele>617</ele>
        <time>2023-10-01T10:27:34Z</time>
      </trkpt>
      <trkpt lat="47.06526" lon="6.18228">
        <ele>616.4</ele>
        <time>2023-10-01T10:27:39Z</time>
      </trkpt>
      <trkpt lat="47.06523" lon="6.18232">
        <ele>616</ele>
        <time>2023-10-01T10:27:40Z</time>
      </trkpt>
      <trkpt lat="47.06518" lon="6.1824">
        <ele>615</ele>
        <time>2023-10-01T10:27:42Z</time>
      </trkpt>
      <trkpt lat="47.06514" lon="6.18248">
        <ele>613.8</ele>
        <time>2023-10-01T10:27:44Z</time>
      </trkpt>
      <trkpt lat="47.06512" lon="6.18252">
        <ele>613.2</ele>
        <time>2023-10-01T10:27:45Z</time>
      </trkpt>
      <trkpt lat="47.06509" lon="6.18256">
        <ele>612.4</ele>
        <time>2023-10-01T10:27:46Z</time>
      </trkpt>
      <trkpt lat="47.06505" lon="6.18263">
        <ele>611.2</ele>
        <time>2023-10-01T10:27:48Z</time>
      </trkpt>
      <trkpt lat="47.06498" lon="6.18275">
        <ele>610</ele>
        <time>2023-10-01T10:27:51Z</time>
      </trkpt>
      <trkpt lat="47.06494" lon="6.1828">
        <ele>608.8</ele>
        <time>2023-10-01T10:27:52Z</time>
      </trkpt>
      <trkpt lat="47.06487" lon="6.18292">
        <ele>607.8</ele>
        <time>2023-10-01T10:27:54Z</time>
      </trkpt>
      <trkpt lat="47.06484" lon="6.18299">
        <ele>607.2</ele>
        <time>2023-10-01T10:27:55Z</time>
      </trkpt>
      <trkpt lat="47.06473" lon="6.18329">
        <ele>606.8</ele>
        <time>2023-10-01T10:27:59Z</time>
      </trkpt>
      <trkpt lat="47.06465" lon="6.18349">
        <ele>606.2</ele>
        <time>2023-10-01T10:28:02Z</time>
      </trkpt>
      <trkpt lat="47.06455" lon="6.18373">
        <ele>605.6</ele>
        <time>2023-10-01T10:28:06Z</time>
      </trkpt>
      <trkpt lat="47.06443" lon="6.18398">
        <ele>606.8</ele>
        <time>2023-10-01T10:28:11Z</time>
      </trkpt>
      <trkpt lat="47.06435" lon="6.18425">
        <ele>606.6</ele>
        <time>2023-10-01T10:28:16Z</time>
      </trkpt>
      <trkpt lat="47.06423" lon="6.18461">
        <ele>606.4</ele>
        <time>2023-10-01T10:28:23Z</time>
      </trkpt>
      <trkpt lat="47.06414" lon="6.18481">
        <ele>607.4</ele>
        <time>2023-10-01T10:28:27Z</time>
      </trkpt>
      <trkpt lat="47.06412" lon="6.18491">
        <ele>607.4</ele>
        <time>2023-10-01T10:28:29Z</time>
      </trkpt>
      <trkpt lat="47.06413" lon="6.18496">
        <ele>608</ele>
        <time>2023-10-01T10:28:30Z</time>
      </trkpt>
      <trkpt lat="47.06419" lon="6.18508">
        <ele>608.8</ele>
        <time>2023-10-01T10:28:33Z</time>
      </trkpt>
      <trkpt lat="47.06425" lon="6.18525">
        <ele>607.2</ele>
        <time>2023-10-01T10:28:36Z</time>
      </trkpt>
      <trkpt lat="47.06427" lon="6.18533">
        <ele>606.4</ele>
        <time>2023-10-01T10:28:38Z</time>
      </trkpt>
      <trkpt lat="47.0643" lon="6.18549">
        <ele>608.2</ele>
        <time>2023-10-01T10:28:43Z</time>
      </trkpt>
      <trkpt lat="47.06427" lon="6.1855">
        <ele>609.8</ele>
        <time>2023-10-01T10:28:45Z</time>
      </trkpt>
      <trkpt lat="47.06418" lon="6.18559">
        <ele>611.4</ele>
        <time>2023-10-01T10:28:50Z</time>
      </trkpt>
      <trkpt lat="47.06416" lon="6.18561">
        <ele>611.8</ele>
        <time>2023-10-01T10:28:51Z</time>
      </trkpt>
      <trkpt lat="47.06413" lon="6.18563">
        <ele>612.6</ele>
        <time>2023-10-01T10:28:53Z</time>
      </trkpt>
      <trkpt lat="47.06403" lon="6.18566">
        <ele>614</ele>
        <time>2023-10-01T10:28:56Z</time>
      </trkpt>
      <trkpt lat="47.06394" lon="6.18571">
        <ele>615.2</ele>
        <time>2023-10-01T10:28:59Z</time>
      </trkpt>
      <trkpt lat="47.06389" lon="6.18578">
        <ele>616.4</ele>
        <time>2023-10-01T10:29:02Z</time>
      </trkpt>
      <trkpt lat="47.06388" lon="6.1858">
        <ele>616.6</ele>
        <time>2023-10-01T10:29:03Z</time>
      </trkpt>
      <trkpt lat="47.06385" lon="6.18581">
        <ele>617</ele>
        <time>2023-10-01T10:29:04Z</time>
      </trkpt>
      <trkpt lat="47.06381" lon="6.18582">
        <ele>617.4</ele>
        <time>2023-10-01T10:29:06Z</time>
      </trkpt>
      <trkpt lat="47.06374" lon="6.18585">
        <ele>618</ele>
        <time>2023-10-01T10:29:09Z</time>
      </trkpt>
      <trkpt lat="47.06357" lon="6.18595">
        <ele>618</ele>
        <time>2023-10-01T10:29:16Z</time>
      </trkpt>
      <trkpt lat="47.06351" lon="6.186">
        <ele>617.8</ele>
        <time>2023-10-01T10:29:18Z</time>
      </trkpt>
      <trkpt lat="47.06343" lon="6.18612">
        <ele>618.2</ele>
        <time>2023-10-01T10:29:21Z</time>
      </trkpt>
      <trkpt lat="47.06331" lon="6.18625">
        <ele>618.4</ele>
        <time>2023-10-01T10:29:26Z</time>
      </trkpt>
      <trkpt lat="47.06328" lon="6.18626">
        <ele>618.6</ele>
        <time>2023-10-01T10:29:27Z</time>
      </trkpt>
      <trkpt lat="47.06319" lon="6.18628">
        <ele>619.6</ele>
        <time>2023-10-01T10:29:29Z</time>
      </trkpt>
      <trkpt lat="47.0631" lon="6.18628">
        <ele>621.4</ele>
        <time>2023-10-01T10:29:31Z</time>
      </trkpt>
      <trkpt lat="47.06306" lon="6.18627">
        <ele>622</ele>
        <time>2023-10-01T10:29:32Z</time>
      </trkpt>
      <trkpt lat="47.06298" lon="6.18624">
        <ele>622.6</ele>
        <time>2023-10-01T10:29:34Z</time>
      </trkpt>
      <trkpt lat="47.06291" lon="6.1862">
        <ele>623.6</ele>
        <time>2023-10-01T10:29:36Z</time>
      </trkpt>
      <trkpt lat="47.06284" lon="6.18615">
        <ele>624.8</ele>
        <time>2023-10-01T10:29:38Z</time>
      </trkpt>
      <trkpt lat="47.06275" lon="6.18607">
        <ele>626.2</ele>
        <time>2023-10-01T10:29:41Z</time>
      </trkpt>
      <trkpt lat="47.06266" lon="6.18601">
        <ele>627.4</ele>
        <time>2023-10-01T10:29:44Z</time>
      </trkpt>
      <trkpt lat="47.06263" lon="6.18599">
        <ele>627.8</ele>
        <time>2023-10-01T10:29:45Z</time>
      </trkpt>
      <trkpt lat="47.06261" lon="6.18598">
        <ele>628.4</ele>
        <time>2023-10-01T10:29:46Z</time>
      </trkpt>
      <trkpt lat="47.06256" lon="6.18594">
        <ele>629.6</ele>
        <time>2023-10-01T10:29:48Z</time>
      </trkpt>
      <trkpt lat="47.0625" lon="6.1859">
        <ele>630.8</ele>
        <time>2023-10-01T10:29:50Z</time>
      </trkpt>
      <trkpt lat="47.06245" lon="6.18585">
        <ele>632</ele>
        <time>2023-10-01T10:29:52Z</time>
      </trkpt>
      <trkpt lat="47.06226" lon="6.18566">
        <ele>632.8</ele>
        <time>2023-10-01T10:29:57Z</time>
      </trkpt>
      <trkpt lat="47.06216" lon="6.18555">
        <ele>633.4</ele>
        <time>2023-10-01T10:30:00Z</time>
      </trkpt>
      <trkpt lat="47.06204" lon="6.18545">
        <ele>633.6</ele>
        <time>2023-10-01T10:30:03Z</time>
      </trkpt>
      <trkpt lat="47.06176" lon="6.18525">
        <ele>632.6</ele>
        <time>2023-10-01T10:30:09Z</time>
      </trkpt>
      <trkpt lat="47.06172" lon="6.18519">
        <ele>632.4</ele>
        <time>2023-10-01T10:30:10Z</time>
      </trkpt>
      <trkpt lat="47.06168" lon="6.18514">
        <ele>632.4</ele>
        <time>2023-10-01T10:30:11Z</time>
      </trkpt>
      <trkpt lat="47.06159" lon="6.18509">
        <ele>632</ele>
        <time>2023-10-01T10:30:13Z</time>
      </trkpt>
      <trkpt lat="47.06147" lon="6.18502">
        <ele>631.6</ele>
        <time>2023-10-01T10:30:16Z</time>
      </trkpt>
      <trkpt lat="47.06144" lon="6.185">
        <ele>631.4</ele>
        <time>2023-10-01T10:30:17Z</time>
      </trkpt>
      <trkpt lat="47.06141" lon="6.18498">
        <ele>631.4</ele>
        <time>2023-10-01T10:30:18Z</time>
      </trkpt>
      <trkpt lat="47.0613" lon="6.18493">
        <ele>630.6</ele>
        <time>2023-10-01T10:30:21Z</time>
      </trkpt>
      <trkpt lat="47.06127" lon="6.18491">
        <ele>630.2</ele>
        <time>2023-10-01T10:30:22Z</time>
      </trkpt>
      <trkpt lat="47.06108" lon="6.18479">
        <ele>629.4</ele>
        <time>2023-10-01T10:30:27Z</time>
      </trkpt>
      <trkpt lat="47.06104" lon="6.18477">
        <ele>629</ele>
        <time>2023-10-01T10:30:28Z</time>
      </trkpt>
      <trkpt lat="47.06089" lon="6.1847">
        <ele>627.8</ele>
        <time>2023-10-01T10:30:33Z</time>
      </trkpt>
      <trkpt lat="47.06072" lon="6.18455">
        <ele>627.2</ele>
        <time>2023-10-01T10:30:39Z</time>
      </trkpt>
      <trkpt lat="47.0606" lon="6.18433">
        <ele>627.4</ele>
        <time>2023-10-01T10:30:45Z</time>
      </trkpt>
      <trkpt lat="47.06054" lon="6.18418">
        <ele>628.8</ele>
        <time>2023-10-01T10:30:50Z</time>
      </trkpt>
      <trkpt lat="47.06054" lon="6.18404">
        <ele>629.6</ele>
        <time>2023-10-01T10:30:56Z</time>
      </trkpt>
      <trkpt lat="47.06053" lon="6.18399">
        <ele>630</ele>
        <time>2023-10-01T10:30:58Z</time>
      </trkpt>
      <trkpt lat="47.06048" lon="6.18386">
        <ele>630.6</ele>
        <time>2023-10-01T10:31:03Z</time>
      </trkpt>
      <trkpt lat="47.06039" lon="6.18372">
        <ele>630.8</ele>
        <time>2023-10-01T10:31:09Z</time>
      </trkpt>
      <trkpt lat="47.06036" lon="6.18366">
        <ele>630.8</ele>
        <time>2023-10-01T10:31:10Z</time>
      </trkpt>
      <trkpt lat="47.06026" lon="6.18354">
        <ele>630.4</ele>
        <time>2023-10-01T10:31:12Z</time>
      </trkpt>
      <trkpt lat="47.06013" lon="6.18341">
        <ele>630</ele>
        <time>2023-10-01T10:31:15Z</time>
      </trkpt>
      <trkpt lat="47.06009" lon="6.18338">
        <ele>630</ele>
        <time>2023-10-01T10:31:16Z</time>
      </trkpt>
      <trkpt lat="47.06004" lon="6.18332">
        <ele>630.2</ele>
        <time>2023-10-01T10:31:18Z</time>
      </trkpt>
      <trkpt lat="47.05998" lon="6.18325">
        <ele>631.4</ele>
        <time>2023-10-01T10:31:20Z</time>
      </trkpt>
      <trkpt lat="47.05995" lon="6.18321">
        <ele>632.8</ele>
        <time>2023-10-01T10:31:21Z</time>
      </trkpt>
      <trkpt lat="47.05992" lon="6.18317">
        <ele>634.8</ele>
        <time>2023-10-01T10:31:22Z</time>
      </trkpt>
      <trkpt lat="47.0599" lon="6.18314">
        <ele>636.8</ele>
        <time>2023-10-01T10:31:23Z</time>
      </trkpt>
      <trkpt lat="47.05988" lon="6.18311">
        <ele>638.2</ele>
        <time>2023-10-01T10:31:24Z</time>
      </trkpt>
      <trkpt lat="47.05984" lon="6.18306">
        <ele>640.2</ele>
        <time>2023-10-01T10:31:26Z</time>
      </trkpt>
      <trkpt lat="47.05982" lon="6.18303">
        <ele>641.4</ele>
        <time>2023-10-01T10:31:28Z</time>
      </trkpt>
      <trkpt lat="47.05977" lon="6.18295">
        <ele>643</ele>
        <time>2023-10-01T10:31:31Z</time>
      </trkpt>
      <trkpt lat="47.0597" lon="6.18287">
        <ele>644.2</ele>
        <time>2023-10-01T10:31:34Z</time>
      </trkpt>
      <trkpt lat="47.05956" lon="6.18276">
        <ele>645.4</ele>
        <time>2023-10-01T10:31:39Z</time>
      </trkpt>
      <trkpt lat="47.05951" lon="6.18271">
        <ele>646.2</ele>
        <time>2023-10-01T10:31:41Z</time>
      </trkpt>
      <trkpt lat="47.05947" lon="6.18269">
        <ele>646.6</ele>
        <time>2023-10-01T10:31:42Z</time>
      </trkpt>
      <trkpt lat="47.05935" lon="6.1826">
        <ele>647.6</ele>
        <time>2023-10-01T10:31:46Z</time>
      </trkpt>
      <trkpt lat="47.05926" lon="6.18256">
        <ele>647.4</ele>
        <time>2023-10-01T10:31:49Z</time>
      </trkpt>
      <trkpt lat="47.05906" lon="6.18243">
        <ele>647.6</ele>
        <time>2023-10-01T10:31:55Z</time>
      </trkpt>
      <trkpt lat="47.05884" lon="6.1823">
        <ele>648</ele>
        <time>2023-10-01T10:32:01Z</time>
      </trkpt>
      <trkpt lat="47.0588" lon="6.18227">
        <ele>648</ele>
        <time>2023-10-01T10:32:02Z</time>
      </trkpt>
      <trkpt lat="47.05865" lon="6.18211">
        <ele>648.6</ele>
        <time>2023-10-01T10:32:06Z</time>
      </trkpt>
      <trkpt lat="47.05858" lon="6.18202">
        <ele>649.4</ele>
        <time>2023-10-01T10:32:08Z</time>
      </trkpt>
      <trkpt lat="47.05854" lon="6.18199">
        <ele>649.8</ele>
        <time>2023-10-01T10:32:09Z</time>
      </trkpt>
      <trkpt lat="47.05845" lon="6.18187">
        <ele>650.4</ele>
        <time>2023-10-01T10:32:12Z</time>
      </trkpt>
      <trkpt lat="47.05836" lon="6.18176">
        <ele>651</ele>
        <time>2023-10-01T10:32:15Z</time>
      </trkpt>
      <trkpt lat="47.05829" lon="6.18166">
        <ele>651.6</ele>
        <time>2023-10-01T10:32:18Z</time>
      </trkpt>
      <trkpt lat="47.05824" lon="6.18159">
        <ele>652.2</ele>
        <time>2023-10-01T10:32:20Z</time>
      </trkpt>
      <trkpt lat="47.05813" lon="6.18148">
        <ele>652.8</ele>
        <time>2023-10-01T10:32:24Z</time>
      </trkpt>
      <trkpt lat="47.05797" lon="6.18138">
        <ele>653.4</ele>
        <time>2023-10-01T10:32:29Z</time>
      </trkpt>
      <trkpt lat="47.05783" lon="6.18131">
        <ele>653.8</ele>
        <time>2023-10-01T10:32:33Z</time>
      </trkpt>
      <trkpt lat="47.05763" lon="6.18122">
        <ele>654</ele>
        <time>2023-10-01T10:32:39Z</time>
      </trkpt>
      <trkpt lat="47.05741" lon="6.18117">
        <ele>654</ele>
        <time>2023-10-01T10:32:44Z</time>
      </trkpt>
      <trkpt lat="47.05718" lon="6.18118">
        <ele>653.6</ele>
        <time>2023-10-01T10:32:49Z</time>
      </trkpt>
      <trkpt lat="47.05699" lon="6.18111">
        <ele>652.6</ele>
        <time>2023-10-01T10:32:55Z</time>
      </trkpt>
      <trkpt lat="47.05692" lon="6.18109">
        <ele>652.2</ele>
        <time>2023-10-01T10:32:57Z</time>
      </trkpt>
      <trkpt lat="47.0568" lon="6.18101">
        <ele>651.8</ele>
        <time>2023-10-01T10:33:01Z</time>
      </trkpt>
      <trkpt lat="47.05665" lon="6.18088">
        <ele>652</ele>
        <time>2023-10-01T10:33:06Z</time>
      </trkpt>
      <trkpt lat="47.05653" lon="6.18082">
        <ele>653.6</ele>
        <time>2023-10-01T10:33:11Z</time>
      </trkpt>
      <trkpt lat="47.05643" lon="6.18079">
        <ele>655</ele>
        <time>2023-10-01T10:33:15Z</time>
      </trkpt>
      <trkpt lat="47.05639" lon="6.18077">
        <ele>655.2</ele>
        <time>2023-10-01T10:33:17Z</time>
      </trkpt>
      <trkpt lat="47.05621" lon="6.1807">
        <ele>655.4</ele>
        <time>2023-10-01T10:33:22Z</time>
      </trkpt>
      <trkpt lat="47.05617" lon="6.1807">
        <ele>656</ele>
        <time>2023-10-01T10:33:23Z</time>
      </trkpt>
      <trkpt lat="47.05611" lon="6.18068">
        <ele>657.4</ele>
        <time>2023-10-01T10:33:25Z</time>
      </trkpt>
      <trkpt lat="47.05605" lon="6.18066">
        <ele>658.4</ele>
        <time>2023-10-01T10:33:27Z</time>
      </trkpt>
      <trkpt lat="47.05588" lon="6.1806">
        <ele>659.4</ele>
        <time>2023-10-01T10:33:33Z</time>
      </trkpt>
      <trkpt lat="47.05576" lon="6.18061">
        <ele>659.6</ele>
        <time>2023-10-01T10:33:37Z</time>
      </trkpt>
      <trkpt lat="47.05573" lon="6.18062">
        <ele>659.8</ele>
        <time>2023-10-01T10:33:38Z</time>
      </trkpt>
      <trkpt lat="47.0556" lon="6.18072">
        <ele>659.4</ele>
        <time>2023-10-01T10:33:42Z</time>
      </trkpt>
      <trkpt lat="47.05551" lon="6.18077">
        <ele>659.2</ele>
        <time>2023-10-01T10:33:44Z</time>
      </trkpt>
      <trkpt lat="47.05534" lon="6.18089">
        <ele>659</ele>
        <time>2023-10-01T10:33:48Z</time>
      </trkpt>
      <trkpt lat="47.05512" lon="6.18115">
        <ele>658.8</ele>
        <time>2023-10-01T10:33:54Z</time>
      </trkpt>
      <trkpt lat="47.05504" lon="6.18125">
        <ele>658.4</ele>
        <time>2023-10-01T10:33:56Z</time>
      </trkpt>
      <trkpt lat="47.0549" lon="6.18142">
        <ele>657.8</ele>
        <time>2023-10-01T10:34:00Z</time>
      </trkpt>
      <trkpt lat="47.05481" lon="6.18151">
        <ele>657.2</ele>
        <time>2023-10-01T10:34:03Z</time>
      </trkpt>
      <trkpt lat="47.05474" lon="6.18155">
        <ele>656.6</ele>
        <time>2023-10-01T10:34:05Z</time>
      </trkpt>
      <trkpt lat="47.05466" lon="6.18158">
        <ele>656</ele>
        <time>2023-10-01T10:34:07Z</time>
      </trkpt>
      <trkpt lat="47.05456" lon="6.1816">
        <ele>655.8</ele>
        <time>2023-10-01T10:34:09Z</time>
      </trkpt>
      <trkpt lat="47.05452" lon="6.18161">
        <ele>655.8</ele>
        <time>2023-10-01T10:34:10Z</time>
      </trkpt>
      <trkpt lat="47.0543" lon="6.18172">
        <ele>655</ele>
        <time>2023-10-01T10:34:15Z</time>
      </trkpt>
      <trkpt lat="47.05426" lon="6.18172">
        <ele>654.8</ele>
        <time>2023-10-01T10:34:16Z</time>
      </trkpt>
      <trkpt lat="47.05412" lon="6.18172">
        <ele>653.8</ele>
        <time>2023-10-01T10:34:19Z</time>
      </trkpt>
      <trkpt lat="47.05407" lon="6.18171">
        <ele>653.6</ele>
        <time>2023-10-01T10:34:20Z</time>
      </trkpt>
      <trkpt lat="47.05396" lon="6.18178">
        <ele>653.6</ele>
        <time>2023-10-01T10:34:23Z</time>
      </trkpt>
      <trkpt lat="47.05388" lon="6.18186">
        <ele>653.8</ele>
        <time>2023-10-01T10:34:25Z</time>
      </trkpt>
      <trkpt lat="47.05377" lon="6.18195">
        <ele>653.6</ele>
        <time>2023-10-01T10:34:27Z</time>
      </trkpt>
      <trkpt lat="47.05355" lon="6.18212">
        <ele>652.6</ele>
        <time>2023-10-01T10:34:31Z</time>
      </trkpt>
      <trkpt lat="47.05348" lon="6.18218">
        <ele>652.2</ele>
        <time>2023-10-01T10:34:32Z</time>
      </trkpt>
      <trkpt lat="47.05328" lon="6.18236">
        <ele>651.4</ele>
        <time>2023-10-01T10:34:35Z</time>
      </trkpt>
      <trkpt lat="47.05307" lon="6.1825">
        <ele>650.6</ele>
        <time>2023-10-01T10:34:38Z</time>
      </trkpt>
      <trkpt lat="47.053" lon="6.18254">
        <ele>650.2</ele>
        <time>2023-10-01T10:34:39Z</time>
      </trkpt>
      <trkpt lat="47.05292" lon="6.18256">
        <ele>649.8</ele>
        <time>2023-10-01T10:34:40Z</time>
      </trkpt>
      <trkpt lat="47.05278" lon="6.18257">
        <ele>649.4</ele>
        <time>2023-10-01T10:34:42Z</time>
      </trkpt>
      <trkpt lat="47.05265" lon="6.18256">
        <ele>649.4</ele>
        <time>2023-10-01T10:34:44Z</time>
      </trkpt>
      <trkpt lat="47.05255" lon="6.18258">
        <ele>649.8</ele>
        <time>2023-10-01T10:34:46Z</time>
      </trkpt>
      <trkpt lat="47.05242" lon="6.18271">
        <ele>650.6</ele>
        <time>2023-10-01T10:34:49Z</time>
      </trkpt>
      <trkpt lat="47.05239" lon="6.18277">
        <ele>650.8</ele>
        <time>2023-10-01T10:34:50Z</time>
      </trkpt>
      <trkpt lat="47.05232" lon="6.18287">
        <ele>651.2</ele>
        <time>2023-10-01T10:34:52Z</time>
      </trkpt>
      <trkpt lat="47.05211" lon="6.18313">
        <ele>652</ele>
        <time>2023-10-01T10:34:57Z</time>
      </trkpt>
      <trkpt lat="47.05191" lon="6.18331">
        <ele>652.2</ele>
        <time>2023-10-01T10:35:01Z</time>
      </trkpt>
      <trkpt lat="47.05179" lon="6.18339">
        <ele>652.4</ele>
        <time>2023-10-01T10:35:03Z</time>
      </trkpt>
      <trkpt lat="47.05156" lon="6.18354">
        <ele>652</ele>
        <time>2023-10-01T10:35:07Z</time>
      </trkpt>
      <trkpt lat="47.05148" lon="6.18358">
        <ele>651.8</ele>
        <time>2023-10-01T10:35:08Z</time>
      </trkpt>
      <trkpt lat="47.05131" lon="6.18363">
        <ele>651.2</ele>
        <time>2023-10-01T10:35:10Z</time>
      </trkpt>
      <trkpt lat="47.05123" lon="6.18367">
        <ele>651.2</ele>
        <time>2023-10-01T10:35:11Z</time>
      </trkpt>
      <trkpt lat="47.0511" lon="6.18379">
        <ele>650.8</ele>
        <time>2023-10-01T10:35:13Z</time>
      </trkpt>
      <trkpt lat="47.05067" lon="6.1843">
        <ele>650.2</ele>
        <time>2023-10-01T10:35:20Z</time>
      </trkpt>
      <trkpt lat="47.05063" lon="6.18439">
        <ele>649.8</ele>
        <time>2023-10-01T10:35:21Z</time>
      </trkpt>
      <trkpt lat="47.05058" lon="6.1846">
        <ele>648.6</ele>
        <time>2023-10-01T10:35:23Z</time>
      </trkpt>
      <trkpt lat="47.05056" lon="6.1847">
        <ele>648</ele>
        <time>2023-10-01T10:35:24Z</time>
      </trkpt>
      <trkpt lat="47.05055" lon="6.18481">
        <ele>647.6</ele>
        <time>2023-10-01T10:35:25Z</time>
      </trkpt>
      <trkpt lat="47.05056" lon="6.18492">
        <ele>647.2</ele>
        <time>2023-10-01T10:35:26Z</time>
      </trkpt>
      <trkpt lat="47.05061" lon="6.18515">
        <ele>646</ele>
        <time>2023-10-01T10:35:28Z</time>
      </trkpt>
      <trkpt lat="47.05063" lon="6.18527">
        <ele>645.6</ele>
        <time>2023-10-01T10:35:29Z</time>
      </trkpt>
      <trkpt lat="47.05065" lon="6.1854">
        <ele>645.2</ele>
        <time>2023-10-01T10:35:30Z</time>
      </trkpt>
      <trkpt lat="47.05069" lon="6.18564">
        <ele>644.8</ele>
        <time>2023-10-01T10:35:32Z</time>
      </trkpt>
      <trkpt lat="47.05075" lon="6.18586">
        <ele>643.8</ele>
        <time>2023-10-01T10:35:34Z</time>
      </trkpt>
      <trkpt lat="47.05083" lon="6.18616">
        <ele>642.4</ele>
        <time>2023-10-01T10:35:37Z</time>
      </trkpt>
      <trkpt lat="47.05089" lon="6.18631">
        <ele>641.6</ele>
        <time>2023-10-01T10:35:39Z</time>
      </trkpt>
      <trkpt lat="47.05092" lon="6.18638">
        <ele>641.2</ele>
        <time>2023-10-01T10:35:40Z</time>
      </trkpt>
      <trkpt lat="47.05098" lon="6.1865">
        <ele>640.4</ele>
        <time>2023-10-01T10:35:42Z</time>
      </trkpt>
      <trkpt lat="47.05099" lon="6.18657">
        <ele>640</ele>
        <time>2023-10-01T10:35:43Z</time>
      </trkpt>
      <trkpt lat="47.05102" lon="6.18677">
        <ele>638.6</ele>
        <time>2023-10-01T10:35:46Z</time>
      </trkpt>
      <trkpt lat="47.05107" lon="6.18694">
        <ele>637.6</ele>
        <time>2023-10-01T10:35:48Z</time>
      </trkpt>
      <trkpt lat="47.05115" lon="6.18718">
        <ele>636.4</ele>
        <time>2023-10-01T10:35:51Z</time>
      </trkpt>
      <trkpt lat="47.05117" lon="6.18726">
        <ele>636.2</ele>
        <time>2023-10-01T10:35:52Z</time>
      </trkpt>
      <trkpt lat="47.05119" lon="6.18734">
        <ele>635.8</ele>
        <time>2023-10-01T10:35:53Z</time>
      </trkpt>
      <trkpt lat="47.05122" lon="6.18752">
        <ele>635.2</ele>
        <time>2023-10-01T10:35:55Z</time>
      </trkpt>
      <trkpt lat="47.05127" lon="6.18779">
        <ele>633.8</ele>
        <time>2023-10-01T10:35:58Z</time>
      </trkpt>
      <trkpt lat="47.05129" lon="6.18798">
        <ele>633</ele>
        <time>2023-10-01T10:36:00Z</time>
      </trkpt>
      <trkpt lat="47.05128" lon="6.18807">
        <ele>632.6</ele>
        <time>2023-10-01T10:36:01Z</time>
      </trkpt>
      <trkpt lat="47.05128" lon="6.18816">
        <ele>632.4</ele>
        <time>2023-10-01T10:36:02Z</time>
      </trkpt>
      <trkpt lat="47.05127" lon="6.18837">
        <ele>632</ele>
        <time>2023-10-01T10:36:06Z</time>
      </trkpt>
      <trkpt lat="47.05122" lon="6.18842">
        <ele>631.8</ele>
        <time>2023-10-01T10:36:10Z</time>
      </trkpt>
      <trkpt lat="47.05115" lon="6.18848">
        <ele>631.4</ele>
        <time>2023-10-01T10:36:16Z</time>
      </trkpt>
      <trkpt lat="47.05108" lon="6.18851">
        <ele>630.2</ele>
        <time>2023-10-01T10:36:20Z</time>
      </trkpt>
      <trkpt lat="47.05106" lon="6.18853">
        <ele>629.8</ele>
        <time>2023-10-01T10:36:21Z</time>
      </trkpt>
      <trkpt lat="47.05102" lon="6.18858">
        <ele>629.6</ele>
        <time>2023-10-01T10:36:23Z</time>
      </trkpt>
      <trkpt lat="47.05099" lon="6.18859">
        <ele>629.8</ele>
        <time>2023-10-01T10:36:24Z</time>
      </trkpt>
      <trkpt lat="47.05093" lon="6.1886">
        <ele>629.8</ele>
        <time>2023-10-01T10:36:26Z</time>
      </trkpt>
      <trkpt lat="47.05083" lon="6.18871">
        <ele>629.2</ele>
        <time>2023-10-01T10:36:31Z</time>
      </trkpt>
      <trkpt lat="47.05078" lon="6.18874">
        <ele>629</ele>
        <time>2023-10-01T10:36:33Z</time>
      </trkpt>
      <trkpt lat="47.05068" lon="6.1888">
        <ele>628.6</ele>
        <time>2023-10-01T10:36:37Z</time>
      </trkpt>
      <trkpt lat="47.05048" lon="6.18892">
        <ele>628.6</ele>
        <time>2023-10-01T10:36:45Z</time>
      </trkpt>
      <trkpt lat="47.05034" lon="6.18902">
        <ele>629</ele>
        <time>2023-10-01T10:36:50Z</time>
      </trkpt>
      <trkpt lat="47.05014" lon="6.1893">
        <ele>630</ele>
        <time>2023-10-01T10:36:56Z</time>
      </trkpt>
      <trkpt lat="47.05012" lon="6.18933">
        <ele>630.6</ele>
        <time>2023-10-01T10:36:57Z</time>
      </trkpt>
      <trkpt lat="47.05008" lon="6.18948">
        <ele>631.4</ele>
        <time>2023-10-01T10:37:01Z</time>
      </trkpt>
      <trkpt lat="47.05008" lon="6.18955">
        <ele>631.8</ele>
        <time>2023-10-01T10:37:03Z</time>
      </trkpt>
      <trkpt lat="47.05009" lon="6.18969">
        <ele>632.4</ele>
        <time>2023-10-01T10:37:07Z</time>
      </trkpt>
      <trkpt lat="47.05011" lon="6.18976">
        <ele>632.6</ele>
        <time>2023-10-01T10:37:09Z</time>
      </trkpt>
      <trkpt lat="47.05013" lon="6.19">
        <ele>633.2</ele>
        <time>2023-10-01T10:37:15Z</time>
      </trkpt>
      <trkpt lat="47.05014" lon="6.19004">
        <ele>633.6</ele>
        <time>2023-10-01T10:37:16Z</time>
      </trkpt>
      <trkpt lat="47.05018" lon="6.19014">
        <ele>634.8</ele>
        <time>2023-10-01T10:37:19Z</time>
      </trkpt>
      <trkpt lat="47.05021" lon="6.1902">
        <ele>635.4</ele>
        <time>2023-10-01T10:37:21Z</time>
      </trkpt>
      <trkpt lat="47.05024" lon="6.19026">
        <ele>636.2</ele>
        <time>2023-10-01T10:37:23Z</time>
      </trkpt>
      <trkpt lat="47.05032" lon="6.19039">
        <ele>637.2</ele>
        <time>2023-10-01T10:37:27Z</time>
      </trkpt>
      <trkpt lat="47.05033" lon="6.19043">
        <ele>637.4</ele>
        <time>2023-10-01T10:37:28Z</time>
      </trkpt>
      <trkpt lat="47.05039" lon="6.19057">
        <ele>638.4</ele>
        <time>2023-10-01T10:37:32Z</time>
      </trkpt>
      <trkpt lat="47.05041" lon="6.19066">
        <ele>638.8</ele>
        <time>2023-10-01T10:37:35Z</time>
      </trkpt>
      <trkpt lat="47.05044" lon="6.1908">
        <ele>639.6</ele>
        <time>2023-10-01T10:37:39Z</time>
      </trkpt>
      <trkpt lat="47.05045" lon="6.19087">
        <ele>640.2</ele>
        <time>2023-10-01T10:37:41Z</time>
      </trkpt>
      <trkpt lat="47.05046" lon="6.19093">
        <ele>641</ele>
        <time>2023-10-01T10:37:43Z</time>
      </trkpt>
      <trkpt lat="47.05049" lon="6.19106">
        <ele>642.2</ele>
        <time>2023-10-01T10:37:48Z</time>
      </trkpt>
      <trkpt lat="47.05055" lon="6.19124">
        <ele>643.8</ele>
        <time>2023-10-01T10:37:54Z</time>
      </trkpt>
      <trkpt lat="47.05057" lon="6.19131">
        <ele>645</ele>
        <time>2023-10-01T10:37:57Z</time>
      </trkpt>
      <trkpt lat="47.05061" lon="6.19139">
        <ele>646.2</ele>
        <time>2023-10-01T10:38:00Z</time>
      </trkpt>
      <trkpt lat="47.05063" lon="6.19142">
        <ele>646.6</ele>
        <time>2023-10-01T10:38:01Z</time>
      </trkpt>
      <trkpt lat="47.05066" lon="6.19149">
        <ele>647.6</ele>
        <time>2023-10-01T10:38:03Z</time>
      </trkpt>
      <trkpt lat="47.05071" lon="6.19162">
        <ele>648.8</ele>
        <time>2023-10-01T10:38:07Z</time>
      </trkpt>
      <trkpt lat="47.05073" lon="6.19172">
        <ele>649.8</ele>
        <time>2023-10-01T10:38:10Z</time>
      </trkpt>
      <trkpt lat="47.05075" lon="6.19178">
        <ele>650.4</ele>
        <time>2023-10-01T10:38:12Z</time>
      </trkpt>
      <trkpt lat="47.05079" lon="6.19194">
        <ele>650.6</ele>
        <time>2023-10-01T10:38:17Z</time>
      </trkpt>
      <trkpt lat="47.05084" lon="6.19214">
        <ele>651</ele>
        <time>2023-10-01T10:38:23Z</time>
      </trkpt>
      <trkpt lat="47.05084" lon="6.19229">
        <ele>652</ele>
        <time>2023-10-01T10:38:27Z</time>
      </trkpt>
      <trkpt lat="47.05085" lon="6.19232">
        <ele>652.2</ele>
        <time>2023-10-01T10:38:28Z</time>
      </trkpt>
      <trkpt lat="47.0509" lon="6.19251">
        <ele>651.4</ele>
        <time>2023-10-01T10:38:33Z</time>
      </trkpt>
      <trkpt lat="47.05098" lon="6.19277">
        <ele>651.6</ele>
        <time>2023-10-01T10:38:40Z</time>
      </trkpt>
      <trkpt lat="47.05108" lon="6.19296">
        <ele>650.8</ele>
        <time>2023-10-01T10:38:46Z</time>
      </trkpt>
      <trkpt lat="47.05121" lon="6.19308">
        <ele>650.2</ele>
        <time>2023-10-01T10:38:51Z</time>
      </trkpt>
      <trkpt lat="47.05149" lon="6.19325">
        <ele>651</ele>
        <time>2023-10-01T10:38:58Z</time>
      </trkpt>
      <trkpt lat="47.0517" lon="6.19338">
        <ele>651</ele>
        <time>2023-10-01T10:39:03Z</time>
      </trkpt>
      <trkpt lat="47.05185" lon="6.19353">
        <ele>649.6</ele>
        <time>2023-10-01T10:39:07Z</time>
      </trkpt>
      <trkpt lat="47.05188" lon="6.19358">
        <ele>649.2</ele>
        <time>2023-10-01T10:39:08Z</time>
      </trkpt>
      <trkpt lat="47.05195" lon="6.19365">
        <ele>648.6</ele>
        <time>2023-10-01T10:39:10Z</time>
      </trkpt>
      <trkpt lat="47.05202" lon="6.19372">
        <ele>648</ele>
        <time>2023-10-01T10:39:12Z</time>
      </trkpt>
      <trkpt lat="47.05208" lon="6.19378">
        <ele>647.4</ele>
        <time>2023-10-01T10:39:14Z</time>
      </trkpt>
      <trkpt lat="47.05215" lon="6.19384">
        <ele>646.8</ele>
        <time>2023-10-01T10:39:16Z</time>
      </trkpt>
      <trkpt lat="47.05219" lon="6.19387">
        <ele>646.4</ele>
        <time>2023-10-01T10:39:17Z</time>
      </trkpt>
      <trkpt lat="47.05235" lon="6.19402">
        <ele>645.4</ele>
        <time>2023-10-01T10:39:21Z</time>
      </trkpt>
      <trkpt lat="47.05239" lon="6.19406">
        <ele>645.2</ele>
        <time>2023-10-01T10:39:22Z</time>
      </trkpt>
      <trkpt lat="47.05242" lon="6.19411">
        <ele>644.8</ele>
        <time>2023-10-01T10:39:23Z</time>
      </trkpt>
      <trkpt lat="47.05251" lon="6.19426">
        <ele>644.6</ele>
        <time>2023-10-01T10:39:26Z</time>
      </trkpt>
      <trkpt lat="47.05255" lon="6.19432">
        <ele>644.8</ele>
        <time>2023-10-01T10:39:27Z</time>
      </trkpt>
      <trkpt lat="47.05264" lon="6.19449">
        <ele>644.2</ele>
        <time>2023-10-01T10:39:30Z</time>
      </trkpt>
      <trkpt lat="47.05266" lon="6.19455">
        <ele>643.8</ele>
        <time>2023-10-01T10:39:31Z</time>
      </trkpt>
      <trkpt lat="47.05268" lon="6.19462">
        <ele>643.2</ele>
        <time>2023-10-01T10:39:32Z</time>
      </trkpt>
      <trkpt lat="47.05276" lon="6.19482">
        <ele>641.8</ele>
        <time>2023-10-01T10:39:35Z</time>
      </trkpt>
      <trkpt lat="47.05277" lon="6.19489">
        <ele>641.2</ele>
        <time>2023-10-01T10:39:36Z</time>
      </trkpt>
      <trkpt lat="47.05281" lon="6.19504">
        <ele>640.4</ele>
        <time>2023-10-01T10:39:38Z</time>
      </trkpt>
      <trkpt lat="47.05282" lon="6.19518">
        <ele>639.2</ele>
        <time>2023-10-01T10:39:40Z</time>
      </trkpt>
      <trkpt lat="47.0528" lon="6.19526">
        <ele>638.2</ele>
        <time>2023-10-01T10:39:41Z</time>
      </trkpt>
      <trkpt lat="47.05278" lon="6.19534">
        <ele>637</ele>
        <time>2023-10-01T10:39:42Z</time>
      </trkpt>
      <trkpt lat="47.05276" lon="6.19543">
        <ele>635.8</ele>
        <time>2023-10-01T10:39:43Z</time>
      </trkpt>
      <trkpt lat="47.05271" lon="6.19559">
        <ele>634.2</ele>
        <time>2023-10-01T10:39:45Z</time>
      </trkpt>
      <trkpt lat="47.05266" lon="6.19576">
        <ele>632.4</ele>
        <time>2023-10-01T10:39:47Z</time>
      </trkpt>
      <trkpt lat="47.05264" lon="6.19585">
        <ele>631.4</ele>
        <time>2023-10-01T10:39:48Z</time>
      </trkpt>
      <trkpt lat="47.05261" lon="6.19601">
        <ele>629.6</ele>
        <time>2023-10-01T10:39:50Z</time>
      </trkpt>
      <trkpt lat="47.05261" lon="6.19608">
        <ele>629</ele>
        <time>2023-10-01T10:39:51Z</time>
      </trkpt>
      <trkpt lat="47.05261" lon="6.19616">
        <ele>628.2</ele>
        <time>2023-10-01T10:39:52Z</time>
      </trkpt>
      <trkpt lat="47.0526" lon="6.19631">
        <ele>626.8</ele>
        <time>2023-10-01T10:39:54Z</time>
      </trkpt>
      <trkpt lat="47.0526" lon="6.19639">
        <ele>626</ele>
        <time>2023-10-01T10:39:55Z</time>
      </trkpt>
      <trkpt lat="47.0526" lon="6.19647">
        <ele>625.2</ele>
        <time>2023-10-01T10:39:56Z</time>
      </trkpt>
      <trkpt lat="47.0526" lon="6.19664">
        <ele>623.6</ele>
        <time>2023-10-01T10:39:58Z</time>
      </trkpt>
      <trkpt lat="47.05262" lon="6.19679">
        <ele>621.8</ele>
        <time>2023-10-01T10:40:00Z</time>
      </trkpt>
      <trkpt lat="47.05263" lon="6.19687">
        <ele>620.8</ele>
        <time>2023-10-01T10:40:01Z</time>
      </trkpt>
      <trkpt lat="47.05265" lon="6.19696">
        <ele>619.6</ele>
        <time>2023-10-01T10:40:02Z</time>
      </trkpt>
      <trkpt lat="47.05266" lon="6.19704">
        <ele>618.2</ele>
        <time>2023-10-01T10:40:03Z</time>
      </trkpt>
      <trkpt lat="47.05267" lon="6.19713">
        <ele>617</ele>
        <time>2023-10-01T10:40:04Z</time>
      </trkpt>
      <trkpt lat="47.0527" lon="6.19722">
        <ele>615.6</ele>
        <time>2023-10-01T10:40:05Z</time>
      </trkpt>
      <trkpt lat="47.05271" lon="6.1973">
        <ele>614.6</ele>
        <time>2023-10-01T10:40:06Z</time>
      </trkpt>
      <trkpt lat="47.05274" lon="6.19738">
        <ele>613.2</ele>
        <time>2023-10-01T10:40:07Z</time>
      </trkpt>
      <trkpt lat="47.05276" lon="6.19745">
        <ele>611.8</ele>
        <time>2023-10-01T10:40:08Z</time>
      </trkpt>
      <trkpt lat="47.05279" lon="6.19751">
        <ele>610.6</ele>
        <time>2023-10-01T10:40:09Z</time>
      </trkpt>
      <trkpt lat="47.05281" lon="6.1976">
        <ele>610</ele>
        <time>2023-10-01T10:40:10Z</time>
      </trkpt>
      <trkpt lat="47.05284" lon="6.19766">
        <ele>609.4</ele>
        <time>2023-10-01T10:40:11Z</time>
      </trkpt>
      <trkpt lat="47.05287" lon="6.1977">
        <ele>608</ele>
        <time>2023-10-01T10:40:12Z</time>
      </trkpt>
      <trkpt lat="47.05288" lon="6.19775">
        <ele>607.6</ele>
        <time>2023-10-01T10:40:13Z</time>
      </trkpt>
      <trkpt lat="47.0529" lon="6.19784">
        <ele>606.8</ele>
        <time>2023-10-01T10:40:14Z</time>
      </trkpt>
      <trkpt lat="47.05295" lon="6.19791">
        <ele>605.2</ele>
        <time>2023-10-01T10:40:16Z</time>
      </trkpt>
      <trkpt lat="47.05297" lon="6.19791">
        <ele>604</ele>
        <time>2023-10-01T10:40:17Z</time>
      </trkpt>
      <trkpt lat="47.05299" lon="6.19791">
        <ele>602.8</ele>
        <time>2023-10-01T10:40:18Z</time>
      </trkpt>
      <trkpt lat="47.05301" lon="6.19792">
        <ele>601.8</ele>
        <time>2023-10-01T10:40:19Z</time>
      </trkpt>
      <trkpt lat="47.05304" lon="6.19791">
        <ele>600.2</ele>
        <time>2023-10-01T10:40:21Z</time>
      </trkpt>
      <trkpt lat="47.05307" lon="6.19788">
        <ele>598.6</ele>
        <time>2023-10-01T10:40:23Z</time>
      </trkpt>
      <trkpt lat="47.05308" lon="6.19785">
        <ele>597.6</ele>
        <time>2023-10-01T10:40:24Z</time>
      </trkpt>
      <trkpt lat="47.05314" lon="6.19772">
        <ele>595.8</ele>
        <time>2023-10-01T10:40:28Z</time>
      </trkpt>
      <trkpt lat="47.05317" lon="6.19765">
        <ele>594</ele>
        <time>2023-10-01T10:40:30Z</time>
      </trkpt>
      <trkpt lat="47.0532" lon="6.19752">
        <ele>593</ele>
        <time>2023-10-01T10:40:33Z</time>
      </trkpt>
      <trkpt lat="47.0532" lon="6.19748">
        <ele>592.2</ele>
        <time>2023-10-01T10:40:34Z</time>
      </trkpt>
      <trkpt lat="47.0532" lon="6.19744">
        <ele>591.6</ele>
        <time>2023-10-01T10:40:35Z</time>
      </trkpt>
      <trkpt lat="47.05321" lon="6.19737">
        <ele>590.4</ele>
        <time>2023-10-01T10:40:37Z</time>
      </trkpt>
      <trkpt lat="47.05326" lon="6.19729">
        <ele>588.4</ele>
        <time>2023-10-01T10:40:39Z</time>
      </trkpt>
      <trkpt lat="47.0534" lon="6.19711">
        <ele>588</ele>
        <time>2023-10-01T10:40:43Z</time>
      </trkpt>
      <trkpt lat="47.05352" lon="6.19696">
        <ele>587.8</ele>
        <time>2023-10-01T10:40:46Z</time>
      </trkpt>
      <trkpt lat="47.05357" lon="6.19692">
        <ele>587.8</ele>
        <time>2023-10-01T10:40:47Z</time>
      </trkpt>
      <trkpt lat="47.05383" lon="6.19676">
        <ele>587.2</ele>
        <time>2023-10-01T10:40:53Z</time>
      </trkpt>
      <trkpt lat="47.05402" lon="6.19665">
        <ele>586</ele>
        <time>2023-10-01T10:40:57Z</time>
      </trkpt>
      <trkpt lat="47.05406" lon="6.19663">
        <ele>585.6</ele>
        <time>2023-10-01T10:40:58Z</time>
      </trkpt>
      <trkpt lat="47.05422" lon="6.19656">
        <ele>585.6</ele>
        <time>2023-10-01T10:41:01Z</time>
      </trkpt>
      <trkpt lat="47.05438" lon="6.19654">
        <ele>585.8</ele>
        <time>2023-10-01T10:41:04Z</time>
      </trkpt>
      <trkpt lat="47.05462" lon="6.19652">
        <ele>585.6</ele>
        <time>2023-10-01T10:41:08Z</time>
      </trkpt>
      <trkpt lat="47.05469" lon="6.19652">
        <ele>585</ele>
        <time>2023-10-01T10:41:09Z</time>
      </trkpt>
      <trkpt lat="47.05489" lon="6.1965">
        <ele>583.8</ele>
        <time>2023-10-01T10:41:12Z</time>
      </trkpt>
      <trkpt lat="47.05501" lon="6.19652">
        <ele>583</ele>
        <time>2023-10-01T10:41:14Z</time>
      </trkpt>
      <trkpt lat="47.0551" lon="6.19654">
        <ele>582.6</ele>
        <time>2023-10-01T10:41:16Z</time>
      </trkpt>
      <trkpt lat="47.05519" lon="6.19655">
        <ele>581.8</ele>
        <time>2023-10-01T10:41:19Z</time>
      </trkpt>
      <trkpt lat="47.05521" lon="6.19655">
        <ele>581.6</ele>
        <time>2023-10-01T10:41:20Z</time>
      </trkpt>
      <trkpt lat="47.05528" lon="6.19658">
        <ele>580.2</ele>
        <time>2023-10-01T10:41:23Z</time>
      </trkpt>
      <trkpt lat="47.05531" lon="6.19659">
        <ele>579.8</ele>
        <time>2023-10-01T10:41:24Z</time>
      </trkpt>
      <trkpt lat="47.05534" lon="6.19659">
        <ele>578.8</ele>
        <time>2023-10-01T10:41:26Z</time>
      </trkpt>
      <trkpt lat="47.05539" lon="6.19664">
        <ele>577.4</ele>
        <time>2023-10-01T10:41:28Z</time>
      </trkpt>
      <trkpt lat="47.05542" lon="6.19666">
        <ele>575.8</ele>
        <time>2023-10-01T10:41:30Z</time>
      </trkpt>
      <trkpt lat="47.0554" lon="6.19668">
        <ele>573.8</ele>
        <time>2023-10-01T10:41:44Z</time>
      </trkpt>
      <trkpt lat="47.05538" lon="6.1967">
        <ele>572.6</ele>
        <time>2023-10-01T10:41:45Z</time>
      </trkpt>
      <trkpt lat="47.05536" lon="6.19671">
        <ele>571.6</ele>
        <time>2023-10-01T10:41:46Z</time>
      </trkpt>
      <trkpt lat="47.05533" lon="6.19673">
        <ele>569.6</ele>
        <time>2023-10-01T10:41:48Z</time>
      </trkpt>
      <trkpt lat="47.05531" lon="6.19676">
        <ele>568.4</ele>
        <time>2023-10-01T10:41:49Z</time>
      </trkpt>
      <trkpt lat="47.05529" lon="6.19678">
        <ele>567.2</ele>
        <time>2023-10-01T10:41:50Z</time>
      </trkpt>
      <trkpt lat="47.05526" lon="6.19681">
        <ele>566</ele>
        <time>2023-10-01T10:41:51Z</time>
      </trkpt>
      <trkpt lat="47.05523" lon="6.19684">
        <ele>564.4</ele>
        <time>2023-10-01T10:41:52Z</time>
      </trkpt>
      <trkpt lat="47.05521" lon="6.19686">
        <ele>563</ele>
        <time>2023-10-01T10:41:53Z</time>
      </trkpt>
      <trkpt lat="47.05519" lon="6.19688">
        <ele>561.8</ele>
        <time>2023-10-01T10:41:54Z</time>
      </trkpt>
      <trkpt lat="47.05517" lon="6.1969">
        <ele>560.2</ele>
        <time>2023-10-01T10:41:55Z</time>
      </trkpt>
      <trkpt lat="47.05516" lon="6.19691">
        <ele>559</ele>
        <time>2023-10-01T10:41:56Z</time>
      </trkpt>
      <trkpt lat="47.05514" lon="6.19693">
        <ele>556.8</ele>
        <time>2023-10-01T10:42:05Z</time>
      </trkpt>
      <trkpt lat="47.05513" lon="6.19695">
        <ele>555.2</ele>
        <time>2023-10-01T10:42:06Z</time>
      </trkpt>
      <trkpt lat="47.05511" lon="6.19696">
        <ele>553.8</ele>
        <time>2023-10-01T10:42:07Z</time>
      </trkpt>
      <trkpt lat="47.05509" lon="6.19698">
        <ele>552.2</ele>
        <time>2023-10-01T10:42:08Z</time>
      </trkpt>
      <trkpt lat="47.05507" lon="6.19701">
        <ele>550.6</ele>
        <time>2023-10-01T10:42:09Z</time>
      </trkpt>
      <trkpt lat="47.05506" lon="6.19702">
        <ele>548.8</ele>
        <time>2023-10-01T10:42:10Z</time>
      </trkpt>
      <trkpt lat="47.05504" lon="6.19704">
        <ele>547</ele>
        <time>2023-10-01T10:42:11Z</time>
      </trkpt>
      <trkpt lat="47.05504" lon="6.19706">
        <ele>545.2</ele>
        <time>2023-10-01T10:42:12Z</time>
      </trkpt>
      <trkpt lat="47.05503" lon="6.1971">
        <ele>543.4</ele>
        <time>2023-10-01T10:42:13Z</time>
      </trkpt>
      <trkpt lat="47.05501" lon="6.19713">
        <ele>541.4</ele>
        <time>2023-10-01T10:42:14Z</time>
      </trkpt>
      <trkpt lat="47.05499" lon="6.19717">
        <ele>539.4</ele>
        <time>2023-10-01T10:42:15Z</time>
      </trkpt>
      <trkpt lat="47.05497" lon="6.19721">
        <ele>537.6</ele>
        <time>2023-10-01T10:42:16Z</time>
      </trkpt>
      <trkpt lat="47.05496" lon="6.19724">
        <ele>535.8</ele>
        <time>2023-10-01T10:42:17Z</time>
      </trkpt>
      <trkpt lat="47.05494" lon="6.19728">
        <ele>534.2</ele>
        <time>2023-10-01T10:42:18Z</time>
      </trkpt>
      <trkpt lat="47.05494" lon="6.19731">
        <ele>532.6</ele>
        <time>2023-10-01T10:42:19Z</time>
      </trkpt>
      <trkpt lat="47.05495" lon="6.19736">
        <ele>531</ele>
        <time>2023-10-01T10:42:20Z</time>
      </trkpt>
      <trkpt lat="47.05496" lon="6.19741">
        <ele>529.6</ele>
        <time>2023-10-01T10:42:21Z</time>
      </trkpt>
      <trkpt lat="47.055" lon="6.19747">
        <ele>525.4</ele>
        <time>2023-10-01T10:42:33Z</time>
      </trkpt>
      <trkpt lat="47.05501" lon="6.19748">
        <ele>524.2</ele>
        <time>2023-10-01T10:42:34Z</time>
      </trkpt>
      <trkpt lat="47.05502" lon="6.19749">
        <ele>523</ele>
        <time>2023-10-01T10:42:35Z</time>
      </trkpt>
      <trkpt lat="47.05505" lon="6.19753">
        <ele>520.6</ele>
        <time>2023-10-01T10:42:46Z</time>
      </trkpt>
      <trkpt lat="47.05512" lon="6.19759">
        <ele>518.8</ele>
        <time>2023-10-01T10:42:48Z</time>
      </trkpt>
      <trkpt lat="47.05519" lon="6.19766">
        <ele>516.8</ele>
        <time>2023-10-01T10:42:50Z</time>
      </trkpt>
      <trkpt lat="47.05522" lon="6.19769">
        <ele>515.8</ele>
        <time>2023-10-01T10:42:51Z</time>
      </trkpt>
      <trkpt lat="47.05528" lon="6.19775">
        <ele>513.8</ele>
        <time>2023-10-01T10:42:53Z</time>
      </trkpt>
      <trkpt lat="47.05531" lon="6.19777">
        <ele>512.8</ele>
        <time>2023-10-01T10:42:54Z</time>
      </trkpt>
      <trkpt lat="47.05534" lon="6.19779">
        <ele>511.8</ele>
        <time>2023-10-01T10:42:55Z</time>
      </trkpt>
      <trkpt lat="47.05536" lon="6.19781">
        <ele>510.6</ele>
        <time>2023-10-01T10:42:56Z</time>
      </trkpt>
      <trkpt lat="47.05539" lon="6.19783">
        <ele>509.4</ele>
        <time>2023-10-01T10:42:57Z</time>
      </trkpt>
      <trkpt lat="47.05543" lon="6.19786">
        <ele>508.2</ele>
        <time>2023-10-01T10:42:58Z</time>
      </trkpt>
      <trkpt lat="47.05546" lon="6.19788">
        <ele>506.6</ele>
        <time>2023-10-01T10:42:59Z</time>
      </trkpt>
      <trkpt lat="47.0555" lon="6.19792">
        <ele>505.2</ele>
        <time>2023-10-01T10:43:00Z</time>
      </trkpt>
      <trkpt lat="47.05554" lon="6.19796">
        <ele>503.8</ele>
        <time>2023-10-01T10:43:01Z</time>
      </trkpt>
      <trkpt lat="47.05559" lon="6.19805">
        <ele>501.8</ele>
        <time>2023-10-01T10:43:03Z</time>
      </trkpt>
      <trkpt lat="47.05561" lon="6.19809">
        <ele>500.4</ele>
        <time>2023-10-01T10:43:04Z</time>
      </trkpt>
      <trkpt lat="47.05563" lon="6.19812">
        <ele>499.2</ele>
        <time>2023-10-01T10:43:05Z</time>
      </trkpt>
      <trkpt lat="47.05567" lon="6.19816">
        <ele>498</ele>
        <time>2023-10-01T10:43:06Z</time>
      </trkpt>
      <trkpt lat="47.0557" lon="6.19818">
        <ele>496.8</ele>
        <time>2023-10-01T10:43:07Z</time>
      </trkpt>
      <trkpt lat="47.05574" lon="6.19822">
        <ele>495.4</ele>
        <time>2023-10-01T10:43:08Z</time>
      </trkpt>
      <trkpt lat="47.0559" lon="6.19836">
        <ele>494.2</ele>
        <time>2023-10-01T10:43:12Z</time>
      </trkpt>
      <trkpt lat="47.056" lon="6.19843">
        <ele>492.8</ele>
        <time>2023-10-01T10:43:14Z</time>
      </trkpt>
      <trkpt lat="47.05612" lon="6.19852">
        <ele>491.8</ele>
        <time>2023-10-01T10:43:17Z</time>
      </trkpt>
      <trkpt lat="47.05615" lon="6.19853">
        <ele>491.6</ele>
        <time>2023-10-01T10:43:18Z</time>
      </trkpt>
      <trkpt lat="47.05622" lon="6.19856">
        <ele>490.4</ele>
        <time>2023-10-01T10:43:21Z</time>
      </trkpt>
      <trkpt lat="47.05629" lon="6.19863">
        <ele>489.4</ele>
        <time>2023-10-01T10:43:24Z</time>
      </trkpt>
      <trkpt lat="47.05642" lon="6.19886">
        <ele>488</ele>
        <time>2023-10-01T10:43:32Z</time>
      </trkpt>
      <trkpt lat="47.05654" lon="6.19898">
        <ele>487</ele>
        <time>2023-10-01T10:43:35Z</time>
      </trkpt>
      <trkpt lat="47.05659" lon="6.19903">
        <ele>486.2</ele>
        <time>2023-10-01T10:43:36Z</time>
      </trkpt>
      <trkpt lat="47.05663" lon="6.19908">
        <ele>485.4</ele>
        <time>2023-10-01T10:43:37Z</time>
      </trkpt>
      <trkpt lat="47.0567" lon="6.19918">
        <ele>483.6</ele>
        <time>2023-10-01T10:43:39Z</time>
      </trkpt>
      <trkpt lat="47.05679" lon="6.19926">
        <ele>482.2</ele>
        <time>2023-10-01T10:43:41Z</time>
      </trkpt>
      <trkpt lat="47.05684" lon="6.19931">
        <ele>481.4</ele>
        <time>2023-10-01T10:43:42Z</time>
      </trkpt>
      <trkpt lat="47.05689" lon="6.19936">
        <ele>480.4</ele>
        <time>2023-10-01T10:43:43Z</time>
      </trkpt>
      <trkpt lat="47.05698" lon="6.19942">
        <ele>478.8</ele>
        <time>2023-10-01T10:43:45Z</time>
      </trkpt>
      <trkpt lat="47.05707" lon="6.19953">
        <ele>477.4</ele>
        <time>2023-10-01T10:43:48Z</time>
      </trkpt>
      <trkpt lat="47.05715" lon="6.1996">
        <ele>476.6</ele>
        <time>2023-10-01T10:43:50Z</time>
      </trkpt>
      <trkpt lat="47.0572" lon="6.19963">
        <ele>475.2</ele>
        <time>2023-10-01T10:43:51Z</time>
      </trkpt>
      <trkpt lat="47.05729" lon="6.19968">
        <ele>474.4</ele>
        <time>2023-10-01T10:43:53Z</time>
      </trkpt>
      <trkpt lat="47.05733" lon="6.19969">
        <ele>474.2</ele>
        <time>2023-10-01T10:43:54Z</time>
      </trkpt>
      <trkpt lat="47.05744" lon="6.1997">
        <ele>472.6</ele>
        <time>2023-10-01T10:43:56Z</time>
      </trkpt>
      <trkpt lat="47.05749" lon="6.1997">
        <ele>471.6</ele>
        <time>2023-10-01T10:43:57Z</time>
      </trkpt>
      <trkpt lat="47.05754" lon="6.1997">
        <ele>470.2</ele>
        <time>2023-10-01T10:43:58Z</time>
      </trkpt>
      <trkpt lat="47.05758" lon="6.19971">
        <ele>469.2</ele>
        <time>2023-10-01T10:43:59Z</time>
      </trkpt>
      <trkpt lat="47.05762" lon="6.19972">
        <ele>468.2</ele>
        <time>2023-10-01T10:44:00Z</time>
      </trkpt>
      <trkpt lat="47.05767" lon="6.19973">
        <ele>467.6</ele>
        <time>2023-10-01T10:44:01Z</time>
      </trkpt>
      <trkpt lat="47.05778" lon="6.19975">
        <ele>465.2</ele>
        <time>2023-10-01T10:44:03Z</time>
      </trkpt>
      <trkpt lat="47.05786" lon="6.19977">
        <ele>463.2</ele>
        <time>2023-10-01T10:44:05Z</time>
      </trkpt>
      <trkpt lat="47.05791" lon="6.19977">
        <ele>462</ele>
        <time>2023-10-01T10:44:06Z</time>
      </trkpt>
      <trkpt lat="47.05796" lon="6.19978">
        <ele>460.6</ele>
        <time>2023-10-01T10:44:07Z</time>
      </trkpt>
      <trkpt lat="47.058" lon="6.19978">
        <ele>459.2</ele>
        <time>2023-10-01T10:44:08Z</time>
      </trkpt>
      <trkpt lat="47.05802" lon="6.19979">
        <ele>457.8</ele>
        <time>2023-10-01T10:44:09Z</time>
      </trkpt>
      <trkpt lat="47.05802" lon="6.19981">
        <ele>456.4</ele>
        <time>2023-10-01T10:44:10Z</time>
      </trkpt>
      <trkpt lat="47.058" lon="6.19983">
        <ele>454.2</ele>
        <time>2023-10-01T10:44:11Z</time>
      </trkpt>
      <trkpt lat="47.05799" lon="6.19987">
        <ele>453.2</ele>
        <time>2023-10-01T10:44:12Z</time>
      </trkpt>
      <trkpt lat="47.05795" lon="6.19991">
        <ele>450.8</ele>
        <time>2023-10-01T10:44:14Z</time>
      </trkpt>
      <trkpt lat="47.05792" lon="6.19992">
        <ele>449.2</ele>
        <time>2023-10-01T10:44:15Z</time>
      </trkpt>
      <trkpt lat="47.05789" lon="6.19993">
        <ele>448</ele>
        <time>2023-10-01T10:44:16Z</time>
      </trkpt>
      <trkpt lat="47.05786" lon="6.19996">
        <ele>446.2</ele>
        <time>2023-10-01T10:44:17Z</time>
      </trkpt>
      <trkpt lat="47.05782" lon="6.19999">
        <ele>444.8</ele>
        <time>2023-10-01T10:44:18Z</time>
      </trkpt>
      <trkpt lat="47.05779" lon="6.20002">
        <ele>443.8</ele>
        <time>2023-10-01T10:44:19Z</time>
      </trkpt>
      <trkpt lat="47.05775" lon="6.20004">
        <ele>442.6</ele>
        <time>2023-10-01T10:44:20Z</time>
      </trkpt>
      <trkpt lat="47.05771" lon="6.20007">
        <ele>441.6</ele>
        <time>2023-10-01T10:44:21Z</time>
      </trkpt>
      <trkpt lat="47.05768" lon="6.2001">
        <ele>440.4</ele>
        <time>2023-10-01T10:44:22Z</time>
      </trkpt>
      <trkpt lat="47.05764" lon="6.20012">
        <ele>439.4</ele>
        <time>2023-10-01T10:44:23Z</time>
      </trkpt>
      <trkpt lat="47.05758" lon="6.20014">
        <ele>437.8</ele>
        <time>2023-10-01T10:44:25Z</time>
      </trkpt>
      <trkpt lat="47.05755" lon="6.20015">
        <ele>437.4</ele>
        <time>2023-10-01T10:44:26Z</time>
      </trkpt>
      <trkpt lat="47.05752" lon="6.20016">
        <ele>436.6</ele>
        <time>2023-10-01T10:44:27Z</time>
      </trkpt>
      <trkpt lat="47.05748" lon="6.20018">
        <ele>435.6</ele>
        <time>2023-10-01T10:44:28Z</time>
      </trkpt>
      <trkpt lat="47.05745" lon="6.2002">
        <ele>434.6</ele>
        <time>2023-10-01T10:44:29Z</time>
      </trkpt>
      <trkpt lat="47.05741" lon="6.20022">
        <ele>433.4</ele>
        <time>2023-10-01T10:44:30Z</time>
      </trkpt>
      <trkpt lat="47.05738" lon="6.20024">
        <ele>432.8</ele>
        <time>2023-10-01T10:44:31Z</time>
      </trkpt>
      <trkpt lat="47.05728" lon="6.20026">
        <ele>432.4</ele>
        <time>2023-10-01T10:44:35Z</time>
      </trkpt>
      <trkpt lat="47.0573" lon="6.2003">
        <ele>432.2</ele>
        <time>2023-10-01T10:44:38Z</time>
      </trkpt>
      <trkpt lat="47.05738" lon="6.20037">
        <ele>431.6</ele>
        <time>2023-10-01T10:44:42Z</time>
      </trkpt>
      <trkpt lat="47.05741" lon="6.20038">
        <ele>431.2</ele>
        <time>2023-10-01T10:44:43Z</time>
      </trkpt>
      <trkpt lat="47.05753" lon="6.2004">
        <ele>430.4</ele>
        <time>2023-10-01T10:44:47Z</time>
      </trkpt>
      <trkpt lat="47.05757" lon="6.20041">
        <ele>429.8</ele>
        <time>2023-10-01T10:44:48Z</time>
      </trkpt>
      <trkpt lat="47.05765" lon="6.20044">
        <ele>428.4</ele>
        <time>2023-10-01T10:44:50Z</time>
      </trkpt>
      <trkpt lat="47.05777" lon="6.20046">
        <ele>428.2</ele>
        <time>2023-10-01T10:44:53Z</time>
      </trkpt>
      <trkpt lat="47.05782" lon="6.20047">
        <ele>427.4</ele>
        <time>2023-10-01T10:44:54Z</time>
      </trkpt>
      <trkpt lat="47.0579" lon="6.20049">
        <ele>426.6</ele>
        <time>2023-10-01T10:44:55Z</time>
      </trkpt>
      <trkpt lat="47.058" lon="6.20054">
        <ele>425.6</ele>
        <time>2023-10-01T10:44:57Z</time>
      </trkpt>
      <trkpt lat="47.05809" lon="6.20058">
        <ele>425</ele>
        <time>2023-10-01T10:44:59Z</time>
      </trkpt>
      <trkpt lat="47.05818" lon="6.20064">
        <ele>424</ele>
        <time>2023-10-01T10:45:01Z</time>
      </trkpt>
      <trkpt lat="47.05826" lon="6.20068">
        <ele>422.8</ele>
        <time>2023-10-01T10:45:03Z</time>
      </trkpt>
      <trkpt lat="47.05834" lon="6.20081">
        <ele>421.4</ele>
        <time>2023-10-01T10:45:07Z</time>
      </trkpt>
      <trkpt lat="47.05835" lon="6.20091">
        <ele>420.4</ele>
        <time>2023-10-01T10:45:10Z</time>
      </trkpt>
      <trkpt lat="47.05836" lon="6.20098">
        <ele>419.2</ele>
        <time>2023-10-01T10:45:12Z</time>
      </trkpt>
      <trkpt lat="47.05837" lon="6.20102">
        <ele>418.4</ele>
        <time>2023-10-01T10:45:13Z</time>
      </trkpt>
      <trkpt lat="47.05837" lon="6.20106">
        <ele>417.8</ele>
        <time>2023-10-01T10:45:14Z</time>
      </trkpt>
      <trkpt lat="47.05837" lon="6.2011">
        <ele>416.8</ele>
        <time>2023-10-01T10:45:15Z</time>
      </trkpt>
      <trkpt lat="47.05837" lon="6.20111">
        <ele>415</ele>
        <time>2023-10-01T10:45:16Z</time>
      </trkpt>
      <trkpt lat="47.05837" lon="6.20113">
        <ele>413.4</ele>
        <time>2023-10-01T10:45:18Z</time>
      </trkpt>
      <trkpt lat="47.05846" lon="6.20121">
        <ele>405</ele>
        <time>2023-10-01T10:45:37Z</time>
      </trkpt>
      <trkpt lat="47.05849" lon="6.20122">
        <ele>403.6</ele>
        <time>2023-10-01T10:45:39Z</time>
      </trkpt>
      <trkpt lat="47.05853" lon="6.20121">
        <ele>402.4</ele>
        <time>2023-10-01T10:45:41Z</time>
      </trkpt>
      <trkpt lat="47.05854" lon="6.2012">
        <ele>401.8</ele>
        <time>2023-10-01T10:45:42Z</time>
      </trkpt>
      <trkpt lat="47.05856" lon="6.20121">
        <ele>401</ele>
        <time>2023-10-01T10:45:43Z</time>
      </trkpt>
      <trkpt lat="47.0586" lon="6.2012">
        <ele>399.8</ele>
        <time>2023-10-01T10:45:45Z</time>
      </trkpt>
      <trkpt lat="47.05862" lon="6.20121">
        <ele>398.6</ele>
        <time>2023-10-01T10:45:47Z</time>
      </trkpt>
      <trkpt lat="47.05866" lon="6.20121">
        <ele>397.6</ele>
        <time>2023-10-01T10:45:49Z</time>
      </trkpt>
      <trkpt lat="47.05872" lon="6.20122">
        <ele>396</ele>
        <time>2023-10-01T10:45:52Z</time>
      </trkpt>
      <trkpt lat="47.05878" lon="6.20124">
        <ele>394.4</ele>
        <time>2023-10-01T10:45:55Z</time>
      </trkpt>
      <trkpt lat="47.05883" lon="6.20124">
        <ele>393</ele>
        <time>2023-10-01T10:45:57Z</time>
      </trkpt>
      <trkpt lat="47.05889" lon="6.20123">
        <ele>391.6</ele>
        <time>2023-10-01T10:46:00Z</time>
      </trkpt>
      <trkpt lat="47.05893" lon="6.20125">
        <ele>390.4</ele>
        <time>2023-10-01T10:46:03Z</time>
      </trkpt>
      <trkpt lat="47.05907" lon="6.20128">
        <ele>387.8</ele>
        <time>2023-10-01T10:46:11Z</time>
      </trkpt>
      <trkpt lat="47.05917" lon="6.20131">
        <ele>386.8</ele>
        <time>2023-10-01T10:46:17Z</time>
      </trkpt>
      <trkpt lat="47.05923" lon="6.2013">
        <ele>386</ele>
        <time>2023-10-01T10:46:20Z</time>
      </trkpt>
      <trkpt lat="47.05978" lon="6.20131">
        <ele>389.2</ele>
        <time>2023-10-01T10:46:58Z</time>
      </trkpt>
      <trkpt lat="47.05989" lon="6.20133">
        <ele>389</ele>
        <time>2023-10-01T10:47:05Z</time>
      </trkpt>
      <trkpt lat="47.05994" lon="6.20133">
        <ele>389.6</ele>
        <time>2023-10-01T10:47:08Z</time>
      </trkpt>
      <trkpt lat="47.06001" lon="6.20132">
        <ele>390</ele>
        <time>2023-10-01T10:47:12Z</time>
      </trkpt>
      <trkpt lat="47.06007" lon="6.20131">
        <ele>390</ele>
        <time>2023-10-01T10:47:16Z</time>
      </trkpt>
      <trkpt lat="47.06011" lon="6.20131">
        <ele>390.2</ele>
        <time>2023-10-01T10:47:18Z</time>
      </trkpt>
      <trkpt lat="47.06022" lon="6.20131">
        <ele>390.8</ele>
        <time>2023-10-01T10:47:25Z</time>
      </trkpt>
      <trkpt lat="47.06034" lon="6.20135">
        <ele>391.6</ele>
        <time>2023-10-01T10:47:32Z</time>
      </trkpt>
      <trkpt lat="47.06044" lon="6.20137">
        <ele>392.6</ele>
        <time>2023-10-01T10:47:37Z</time>
      </trkpt>
      <trkpt lat="47.06049" lon="6.20138">
        <ele>393.2</ele>
        <time>2023-10-01T10:47:40Z</time>
      </trkpt>
      <trkpt lat="47.06056" lon="6.20141">
        <ele>393.2</ele>
        <time>2023-10-01T10:47:45Z</time>
      </trkpt>
      <trkpt lat="47.06066" lon="6.20145">
        <ele>393.6</ele>
        <time>2023-10-01T10:47:52Z</time>
      </trkpt>
      <trkpt lat="47.06073" lon="6.20146">
        <ele>393.8</ele>
        <time>2023-10-01T10:47:56Z</time>
      </trkpt>
      <trkpt lat="47.06079" lon="6.20149">
        <ele>394</ele>
        <time>2023-10-01T10:47:59Z</time>
      </trkpt>
      <trkpt lat="47.0609" lon="6.20151">
        <ele>394.4</ele>
        <time>2023-10-01T10:48:06Z</time>
      </trkpt>
      <trkpt lat="47.06093" lon="6.20151">
        <ele>395</ele>
        <time>2023-10-01T10:48:08Z</time>
      </trkpt>
      <trkpt lat="47.06104" lon="6.20154">
        <ele>395.8</ele>
        <time>2023-10-01T10:48:14Z</time>
      </trkpt>
      <trkpt lat="47.06108" lon="6.20154">
        <ele>396.2</ele>
        <time>2023-10-01T10:48:17Z</time>
      </trkpt>
      <trkpt lat="47.06112" lon="6.20155">
        <ele>396.6</ele>
        <time>2023-10-01T10:48:20Z</time>
      </trkpt>
      <trkpt lat="47.06117" lon="6.20155">
        <ele>397.2</ele>
        <time>2023-10-01T10:48:23Z</time>
      </trkpt>
      <trkpt lat="47.06125" lon="6.20156">
        <ele>397.8</ele>
        <time>2023-10-01T10:48:28Z</time>
      </trkpt>
      <trkpt lat="47.06131" lon="6.20157">
        <ele>399</ele>
        <time>2023-10-01T10:48:32Z</time>
      </trkpt>
      <trkpt lat="47.06138" lon="6.20158">
        <ele>400.8</ele>
        <time>2023-10-01T10:48:34Z</time>
      </trkpt>
      <trkpt lat="47.0614" lon="6.20158">
        <ele>401.4</ele>
        <time>2023-10-01T10:48:35Z</time>
      </trkpt>
      <trkpt lat="47.06142" lon="6.20159">
        <ele>402.4</ele>
        <time>2023-10-01T10:48:36Z</time>
      </trkpt>
      <trkpt lat="47.06207" lon="6.20165">
        <ele>424</ele>
        <time>2023-10-01T10:49:10Z</time>
      </trkpt>
      <trkpt lat="47.06212" lon="6.20165">
        <ele>424.2</ele>
        <time>2023-10-01T10:49:13Z</time>
      </trkpt>
      <trkpt lat="47.06216" lon="6.20166">
        <ele>425.4</ele>
        <time>2023-10-01T10:49:16Z</time>
      </trkpt>
      <trkpt lat="47.06221" lon="6.20166">
        <ele>426.4</ele>
        <time>2023-10-01T10:49:19Z</time>
      </trkpt>
      <trkpt lat="47.06224" lon="6.20165">
        <ele>427.6</ele>
        <time>2023-10-01T10:49:21Z</time>
      </trkpt>
      <trkpt lat="47.06226" lon="6.20164">
        <ele>428</ele>
        <time>2023-10-01T10:49:22Z</time>
      </trkpt>
      <trkpt lat="47.06227" lon="6.20163">
        <ele>428.6</ele>
        <time>2023-10-01T10:49:23Z</time>
      </trkpt>
      <trkpt lat="47.06232" lon="6.20161">
        <ele>429.8</ele>
        <time>2023-10-01T10:49:26Z</time>
      </trkpt>
      <trkpt lat="47.06237" lon="6.20157">
        <ele>430</ele>
        <time>2023-10-01T10:49:30Z</time>
      </trkpt>
      <trkpt lat="47.06247" lon="6.20151">
        <ele>430.8</ele>
        <time>2023-10-01T10:49:36Z</time>
      </trkpt>
      <trkpt lat="47.06249" lon="6.20153">
        <ele>431.4</ele>
        <time>2023-10-01T10:49:38Z</time>
      </trkpt>
      <trkpt lat="47.0625" lon="6.20163">
        <ele>431.6</ele>
        <time>2023-10-01T10:49:43Z</time>
      </trkpt>
      <trkpt lat="47.06249" lon="6.20165">
        <ele>431.8</ele>
        <time>2023-10-01T10:49:44Z</time>
      </trkpt>
      <trkpt lat="47.06242" lon="6.20173">
        <ele>432.8</ele>
        <time>2023-10-01T10:49:49Z</time>
      </trkpt>
      <trkpt lat="47.0624" lon="6.20175">
        <ele>433</ele>
        <time>2023-10-01T10:49:50Z</time>
      </trkpt>
      <trkpt lat="47.06229" lon="6.20183">
        <ele>432.8</ele>
        <time>2023-10-01T10:49:56Z</time>
      </trkpt>
      <trkpt lat="47.06222" lon="6.20187">
        <ele>434</ele>
        <time>2023-10-01T10:50:01Z</time>
      </trkpt>
      <trkpt lat="47.06218" lon="6.20189">
        <ele>434.2</ele>
        <time>2023-10-01T10:50:03Z</time>
      </trkpt>
      <trkpt lat="47.06207" lon="6.20191">
        <ele>435</ele>
        <time>2023-10-01T10:50:08Z</time>
      </trkpt>
      <trkpt lat="47.06206" lon="6.20191">
        <ele>435.2</ele>
        <time>2023-10-01T10:50:09Z</time>
      </trkpt>
      <trkpt lat="47.062" lon="6.20192">
        <ele>436</ele>
        <time>2023-10-01T10:50:12Z</time>
      </trkpt>
      <trkpt lat="47.06193" lon="6.20192">
        <ele>436</ele>
        <time>2023-10-01T10:50:16Z</time>
      </trkpt>
      <trkpt lat="47.06178" lon="6.20196">
        <ele>436.6</ele>
        <time>2023-10-01T10:50:24Z</time>
      </trkpt>
      <trkpt lat="47.06178" lon="6.20207">
        <ele>436.6</ele>
        <time>2023-10-01T10:50:30Z</time>
      </trkpt>
      <trkpt lat="47.06183" lon="6.20206">
        <ele>437</ele>
        <time>2023-10-01T10:50:34Z</time>
      </trkpt>
      <trkpt lat="47.06186" lon="6.20206">
        <ele>436.6</ele>
        <time>2023-10-01T10:50:36Z</time>
      </trkpt>
      <trkpt lat="47.06197" lon="6.20205">
        <ele>437</ele>
        <time>2023-10-01T10:50:40Z</time>
      </trkpt>
      <trkpt lat="47.06199" lon="6.20206">
        <ele>437</ele>
        <time>2023-10-01T10:50:41Z</time>
      </trkpt>
      <trkpt lat="47.06214" lon="6.20206">
        <ele>437.2</ele>
        <time>2023-10-01T10:50:47Z</time>
      </trkpt>
      <trkpt lat="47.0623" lon="6.20208">
        <ele>437.2</ele>
        <time>2023-10-01T10:50:53Z</time>
      </trkpt>
      <trkpt lat="47.06243" lon="6.20205">
        <ele>438.2</ele>
        <time>2023-10-01T10:50:58Z</time>
      </trkpt>
      <trkpt lat="47.06255" lon="6.20199">
        <ele>439.4</ele>
        <time>2023-10-01T10:51:02Z</time>
      </trkpt>
      <trkpt lat="47.06263" lon="6.20195">
        <ele>440.8</ele>
        <time>2023-10-01T10:51:05Z</time>
      </trkpt>
      <trkpt lat="47.06269" lon="6.20192">
        <ele>442</ele>
        <time>2023-10-01T10:51:07Z</time>
      </trkpt>
      <trkpt lat="47.06283" lon="6.20192">
        <ele>443.2</ele>
        <time>2023-10-01T10:51:13Z</time>
      </trkpt>
      <trkpt lat="47.06297" lon="6.20199">
        <ele>444</ele>
        <time>2023-10-01T10:51:20Z</time>
      </trkpt>
      <trkpt lat="47.06309" lon="6.20206">
        <ele>444.2</ele>
        <time>2023-10-01T10:51:25Z</time>
      </trkpt>
      <trkpt lat="47.06316" lon="6.20209">
        <ele>444.6</ele>
        <time>2023-10-01T10:51:27Z</time>
      </trkpt>
      <trkpt lat="47.06331" lon="6.20215">
        <ele>445.2</ele>
        <time>2023-10-01T10:51:32Z</time>
      </trkpt>
      <trkpt lat="47.06338" lon="6.20219">
        <ele>445.6</ele>
        <time>2023-10-01T10:51:35Z</time>
      </trkpt>
      <trkpt lat="47.06347" lon="6.20224">
        <ele>446.4</ele>
        <time>2023-10-01T10:51:39Z</time>
      </trkpt>
      <trkpt lat="47.06351" lon="6.20227">
        <ele>447.2</ele>
        <time>2023-10-01T10:51:41Z</time>
      </trkpt>
      <trkpt lat="47.06353" lon="6.20229">
        <ele>447.6</ele>
        <time>2023-10-01T10:51:42Z</time>
      </trkpt>
      <trkpt lat="47.06359" lon="6.20235">
        <ele>449</ele>
        <time>2023-10-01T10:51:45Z</time>
      </trkpt>
      <trkpt lat="47.0636" lon="6.20239">
        <ele>449.4</ele>
        <time>2023-10-01T10:51:46Z</time>
      </trkpt>
      <trkpt lat="47.0636" lon="6.20243">
        <ele>450</ele>
        <time>2023-10-01T10:51:47Z</time>
      </trkpt>
      <trkpt lat="47.0636" lon="6.20246">
        <ele>450.2</ele>
        <time>2023-10-01T10:51:48Z</time>
      </trkpt>
      <trkpt lat="47.06355" lon="6.20256">
        <ele>450.2</ele>
        <time>2023-10-01T10:51:52Z</time>
      </trkpt>
      <trkpt lat="47.06354" lon="6.20266">
        <ele>449.8</ele>
        <time>2023-10-01T10:52:05Z</time>
      </trkpt>
      <trkpt lat="47.06353" lon="6.20268">
        <ele>450</ele>
        <time>2023-10-01T10:52:06Z</time>
      </trkpt>
      <trkpt lat="47.06348" lon="6.20268">
        <ele>450.8</ele>
        <time>2023-10-01T10:52:10Z</time>
      </trkpt>
      <trkpt lat="47.0634" lon="6.20271">
        <ele>450.8</ele>
        <time>2023-10-01T10:52:15Z</time>
      </trkpt>
      <trkpt lat="47.06338" lon="6.20273">
        <ele>450.6</ele>
        <time>2023-10-01T10:52:16Z</time>
      </trkpt>
      <trkpt lat="47.0633" lon="6.2028">
        <ele>451.2</ele>
        <time>2023-10-01T10:52:21Z</time>
      </trkpt>
      <trkpt lat="47.06327" lon="6.20283">
        <ele>451.8</ele>
        <time>2023-10-01T10:52:23Z</time>
      </trkpt>
      <trkpt lat="47.06324" lon="6.20286">
        <ele>452.6</ele>
        <time>2023-10-01T10:52:25Z</time>
      </trkpt>
      <trkpt lat="47.06319" lon="6.20293">
        <ele>453.6</ele>
        <time>2023-10-01T10:52:29Z</time>
      </trkpt>
      <trkpt lat="47.06317" lon="6.20297">
        <ele>454.4</ele>
        <time>2023-10-01T10:52:31Z</time>
      </trkpt>
      <trkpt lat="47.06317" lon="6.20299">
        <ele>454.6</ele>
        <time>2023-10-01T10:52:32Z</time>
      </trkpt>
      <trkpt lat="47.06315" lon="6.20303">
        <ele>456</ele>
        <time>2023-10-01T10:52:35Z</time>
      </trkpt>
      <trkpt lat="47.06312" lon="6.20309">
        <ele>457</ele>
        <time>2023-10-01T10:52:39Z</time>
      </trkpt>
      <trkpt lat="47.06311" lon="6.2031">
        <ele>457.2</ele>
        <time>2023-10-01T10:52:40Z</time>
      </trkpt>
      <trkpt lat="47.06306" lon="6.20312">
        <ele>458.2</ele>
        <time>2023-10-01T10:52:44Z</time>
      </trkpt>
      <trkpt lat="47.06304" lon="6.20312">
        <ele>459</ele>
        <time>2023-10-01T10:52:46Z</time>
      </trkpt>
      <trkpt lat="47.06302" lon="6.20312">
        <ele>459.4</ele>
        <time>2023-10-01T10:52:47Z</time>
      </trkpt>
      <trkpt lat="47.06295" lon="6.2031">
        <ele>460.4</ele>
        <time>2023-10-01T10:52:53Z</time>
      </trkpt>
      <trkpt lat="47.06288" lon="6.20307">
        <ele>461.8</ele>
        <time>2023-10-01T10:52:58Z</time>
      </trkpt>
      <trkpt lat="47.06285" lon="6.20306">
        <ele>462.8</ele>
        <time>2023-10-01T10:53:01Z</time>
      </trkpt>
      <trkpt lat="47.06284" lon="6.20305">
        <ele>463</ele>
        <time>2023-10-01T10:53:02Z</time>
      </trkpt>
      <trkpt lat="47.06263" lon="6.20297">
        <ele>467</ele>
        <time>2023-10-01T10:53:19Z</time>
      </trkpt>
      <trkpt lat="47.06256" lon="6.20296">
        <ele>467.4</ele>
        <time>2023-10-01T10:53:23Z</time>
      </trkpt>
      <trkpt lat="47.06249" lon="6.20295">
        <ele>468.2</ele>
        <time>2023-10-01T10:53:27Z</time>
      </trkpt>
      <trkpt lat="47.06242" lon="6.20293">
        <ele>469.2</ele>
        <time>2023-10-01T10:53:31Z</time>
      </trkpt>
      <trkpt lat="47.06241" lon="6.20292">
        <ele>469.2</ele>
        <time>2023-10-01T10:53:32Z</time>
      </trkpt>
      <trkpt lat="47.0623" lon="6.2029">
        <ele>470.2</ele>
        <time>2023-10-01T10:53:38Z</time>
      </trkpt>
      <trkpt lat="47.06228" lon="6.20289">
        <ele>470.2</ele>
        <time>2023-10-01T10:53:39Z</time>
      </trkpt>
      <trkpt lat="47.06219" lon="6.20286">
        <ele>471.4</ele>
        <time>2023-10-01T10:53:44Z</time>
      </trkpt>
      <trkpt lat="47.06216" lon="6.20285">
        <ele>471.4</ele>
        <time>2023-10-01T10:53:46Z</time>
      </trkpt>
      <trkpt lat="47.06202" lon="6.20283">
        <ele>471.8</ele>
        <time>2023-10-01T10:53:53Z</time>
      </trkpt>
      <trkpt lat="47.06189" lon="6.20282">
        <ele>472</ele>
        <time>2023-10-01T10:53:59Z</time>
      </trkpt>
      <trkpt lat="47.0618" lon="6.20283">
        <ele>472.6</ele>
        <time>2023-10-01T10:54:04Z</time>
      </trkpt>
      <trkpt lat="47.06178" lon="6.20283">
        <ele>473</ele>
        <time>2023-10-01T10:54:05Z</time>
      </trkpt>
      <trkpt lat="47.06173" lon="6.20286">
        <ele>473.8</ele>
        <time>2023-10-01T10:54:08Z</time>
      </trkpt>
      <trkpt lat="47.0617" lon="6.20289">
        <ele>474.8</ele>
        <time>2023-10-01T10:54:10Z</time>
      </trkpt>
      <trkpt lat="47.0617" lon="6.20291">
        <ele>475.2</ele>
        <time>2023-10-01T10:54:11Z</time>
      </trkpt>
      <trkpt lat="47.0617" lon="6.20294">
        <ele>476</ele>
        <time>2023-10-01T10:54:13Z</time>
      </trkpt>
      <trkpt lat="47.06171" lon="6.20299">
        <ele>477.2</ele>
        <time>2023-10-01T10:54:16Z</time>
      </trkpt>
      <trkpt lat="47.06174" lon="6.20303">
        <ele>477.4</ele>
        <time>2023-10-01T10:54:20Z</time>
      </trkpt>
      <trkpt lat="47.06176" lon="6.20305">
        <ele>477.8</ele>
        <time>2023-10-01T10:54:22Z</time>
      </trkpt>
      <trkpt lat="47.06179" lon="6.20307">
        <ele>478.4</ele>
        <time>2023-10-01T10:54:25Z</time>
      </trkpt>
      <trkpt lat="47.06186" lon="6.20314">
        <ele>479</ele>
        <time>2023-10-01T10:54:31Z</time>
      </trkpt>
      <trkpt lat="47.0619" lon="6.20318">
        <ele>479.6</ele>
        <time>2023-10-01T10:54:34Z</time>
      </trkpt>
      <trkpt lat="47.06194" lon="6.20321">
        <ele>479.8</ele>
        <time>2023-10-01T10:54:37Z</time>
      </trkpt>
      <trkpt lat="47.06201" lon="6.20328">
        <ele>479.8</ele>
        <time>2023-10-01T10:54:43Z</time>
      </trkpt>
      <trkpt lat="47.06207" lon="6.20338">
        <ele>480.4</ele>
        <time>2023-10-01T10:54:49Z</time>
      </trkpt>
      <trkpt lat="47.06208" lon="6.2034">
        <ele>480.6</ele>
        <time>2023-10-01T10:54:50Z</time>
      </trkpt>
      <trkpt lat="47.06217" lon="6.20351">
        <ele>481.8</ele>
        <time>2023-10-01T10:54:57Z</time>
      </trkpt>
      <trkpt lat="47.06227" lon="6.2036">
        <ele>482.2</ele>
        <time>2023-10-01T10:55:05Z</time>
      </trkpt>
      <trkpt lat="47.06234" lon="6.20371">
        <ele>482.2</ele>
        <time>2023-10-01T10:55:13Z</time>
      </trkpt>
      <trkpt lat="47.06242" lon="6.20383">
        <ele>482.6</ele>
        <time>2023-10-01T10:55:20Z</time>
      </trkpt>
      <trkpt lat="47.06243" lon="6.20384">
        <ele>483</ele>
        <time>2023-10-01T10:55:21Z</time>
      </trkpt>
      <trkpt lat="47.06249" lon="6.20395">
        <ele>483.8</ele>
        <time>2023-10-01T10:55:28Z</time>
      </trkpt>
      <trkpt lat="47.0625" lon="6.20396">
        <ele>484</ele>
        <time>2023-10-01T10:55:29Z</time>
      </trkpt>
      <trkpt lat="47.06255" lon="6.20402">
        <ele>485.2</ele>
        <time>2023-10-01T10:55:33Z</time>
      </trkpt>
      <trkpt lat="47.06261" lon="6.20414">
        <ele>486.2</ele>
        <time>2023-10-01T10:55:40Z</time>
      </trkpt>
      <trkpt lat="47.06261" lon="6.20416">
        <ele>486.6</ele>
        <time>2023-10-01T10:55:41Z</time>
      </trkpt>
      <trkpt lat="47.06263" lon="6.20423">
        <ele>486.6</ele>
        <time>2023-10-01T10:55:46Z</time>
      </trkpt>
      <trkpt lat="47.06264" lon="6.20425">
        <ele>486.4</ele>
        <time>2023-10-01T10:55:47Z</time>
      </trkpt>
      <trkpt lat="47.06265" lon="6.20431">
        <ele>486.2</ele>
        <time>2023-10-01T10:55:50Z</time>
      </trkpt>
      <trkpt lat="47.06265" lon="6.20437">
        <ele>486.4</ele>
        <time>2023-10-01T10:55:53Z</time>
      </trkpt>
      <trkpt lat="47.06246" lon="6.20464">
        <ele>492.4</ele>
        <time>2023-10-01T10:56:14Z</time>
      </trkpt>
      <trkpt lat="47.06244" lon="6.20464">
        <ele>492.6</ele>
        <time>2023-10-01T10:56:15Z</time>
      </trkpt>
      <trkpt lat="47.06242" lon="6.20464">
        <ele>493.6</ele>
        <time>2023-10-01T10:56:17Z</time>
      </trkpt>
      <trkpt lat="47.0624" lon="6.20463">
        <ele>494.8</ele>
        <time>2023-10-01T10:56:19Z</time>
      </trkpt>
      <trkpt lat="47.06237" lon="6.20461">
        <ele>495.6</ele>
        <time>2023-10-01T10:56:22Z</time>
      </trkpt>
      <trkpt lat="47.06236" lon="6.2046">
        <ele>495.8</ele>
        <time>2023-10-01T10:56:23Z</time>
      </trkpt>
      <trkpt lat="47.06233" lon="6.20455">
        <ele>497.4</ele>
        <time>2023-10-01T10:56:26Z</time>
      </trkpt>
      <trkpt lat="47.06227" lon="6.2045">
        <ele>498.4</ele>
        <time>2023-10-01T10:56:29Z</time>
      </trkpt>
      <trkpt lat="47.06224" lon="6.20446">
        <ele>499.6</ele>
        <time>2023-10-01T10:56:32Z</time>
      </trkpt>
      <trkpt lat="47.06221" lon="6.20443">
        <ele>500.8</ele>
        <time>2023-10-01T10:56:35Z</time>
      </trkpt>
      <trkpt lat="47.06219" lon="6.20442">
        <ele>501.4</ele>
        <time>2023-10-01T10:56:36Z</time>
      </trkpt>
      <trkpt lat="47.06218" lon="6.20441">
        <ele>501.8</ele>
        <time>2023-10-01T10:56:37Z</time>
      </trkpt>
      <trkpt lat="47.06214" lon="6.20438">
        <ele>503.4</ele>
        <time>2023-10-01T10:56:40Z</time>
      </trkpt>
      <trkpt lat="47.06212" lon="6.20436">
        <ele>504</ele>
        <time>2023-10-01T10:56:42Z</time>
      </trkpt>
      <trkpt lat="47.06209" lon="6.20434">
        <ele>504.6</ele>
        <time>2023-10-01T10:56:44Z</time>
      </trkpt>
      <trkpt lat="47.06204" lon="6.20429">
        <ele>505.6</ele>
        <time>2023-10-01T10:56:48Z</time>
      </trkpt>
      <trkpt lat="47.062" lon="6.20426">
        <ele>507</ele>
        <time>2023-10-01T10:56:51Z</time>
      </trkpt>
      <trkpt lat="47.06197" lon="6.20423">
        <ele>508</ele>
        <time>2023-10-01T10:56:53Z</time>
      </trkpt>
      <trkpt lat="47.06194" lon="6.20421">
        <ele>509.6</ele>
        <time>2023-10-01T10:56:56Z</time>
      </trkpt>
      <trkpt lat="47.06192" lon="6.20418">
        <ele>511</ele>
        <time>2023-10-01T10:56:58Z</time>
      </trkpt>
      <trkpt lat="47.06189" lon="6.20416">
        <ele>512</ele>
        <time>2023-10-01T10:57:00Z</time>
      </trkpt>
      <trkpt lat="47.06183" lon="6.20411">
        <ele>513</ele>
        <time>2023-10-01T10:57:05Z</time>
      </trkpt>
      <trkpt lat="47.06177" lon="6.20408">
        <ele>514</ele>
        <time>2023-10-01T10:57:10Z</time>
      </trkpt>
      <trkpt lat="47.06176" lon="6.20407">
        <ele>514.2</ele>
        <time>2023-10-01T10:57:11Z</time>
      </trkpt>
      <trkpt lat="47.06161" lon="6.20404">
        <ele>514</ele>
        <time>2023-10-01T10:57:18Z</time>
      </trkpt>
      <trkpt lat="47.06147" lon="6.20404">
        <ele>514.6</ele>
        <time>2023-10-01T10:57:25Z</time>
      </trkpt>
      <trkpt lat="47.0614" lon="6.20404">
        <ele>515.4</ele>
        <time>2023-10-01T10:57:30Z</time>
      </trkpt>
      <trkpt lat="47.06136" lon="6.20404">
        <ele>516.2</ele>
        <time>2023-10-01T10:57:33Z</time>
      </trkpt>
      <trkpt lat="47.06135" lon="6.20404">
        <ele>516.6</ele>
        <time>2023-10-01T10:57:34Z</time>
      </trkpt>
      <trkpt lat="47.06012" lon="6.2045">
        <ele>531</ele>
        <time>2023-10-01T10:58:59Z</time>
      </trkpt>
      <trkpt lat="47.06013" lon="6.20452">
        <ele>531.6</ele>
        <time>2023-10-01T10:59:01Z</time>
      </trkpt>
      <trkpt lat="47.06022" lon="6.20467">
        <ele>532.6</ele>
        <time>2023-10-01T10:59:13Z</time>
      </trkpt>
      <trkpt lat="47.06024" lon="6.2047">
        <ele>533.2</ele>
        <time>2023-10-01T10:59:15Z</time>
      </trkpt>
      <trkpt lat="47.06027" lon="6.20474">
        <ele>533.6</ele>
        <time>2023-10-01T10:59:18Z</time>
      </trkpt>
      <trkpt lat="47.0603" lon="6.20478">
        <ele>533.8</ele>
        <time>2023-10-01T10:59:21Z</time>
      </trkpt>
      <trkpt lat="47.06037" lon="6.20485">
        <ele>534.8</ele>
        <time>2023-10-01T10:59:27Z</time>
      </trkpt>
      <trkpt lat="47.06038" lon="6.20486">
        <ele>534.6</ele>
        <time>2023-10-01T10:59:28Z</time>
      </trkpt>
      <trkpt lat="47.06043" lon="6.20492">
        <ele>536</ele>
        <time>2023-10-01T10:59:32Z</time>
      </trkpt>
      <trkpt lat="47.0606" lon="6.20512">
        <ele>539</ele>
        <time>2023-10-01T10:59:46Z</time>
      </trkpt>
      <trkpt lat="47.06064" lon="6.2052">
        <ele>540.2</ele>
        <time>2023-10-01T10:59:51Z</time>
      </trkpt>
      <trkpt lat="47.06066" lon="6.20525">
        <ele>540.6</ele>
        <time>2023-10-01T10:59:53Z</time>
      </trkpt>
      <trkpt lat="47.06068" lon="6.20529">
        <ele>541.4</ele>
        <time>2023-10-01T10:59:55Z</time>
      </trkpt>
      <trkpt lat="47.0607" lon="6.20537">
        <ele>542.4</ele>
        <time>2023-10-01T10:59:59Z</time>
      </trkpt>
      <trkpt lat="47.06074" lon="6.2055">
        <ele>543.2</ele>
        <time>2023-10-01T11:00:05Z</time>
      </trkpt>
      <trkpt lat="47.06075" lon="6.20555">
        <ele>543.6</ele>
        <time>2023-10-01T11:00:07Z</time>
      </trkpt>
      <trkpt lat="47.0608" lon="6.20568">
        <ele>544.6</ele>
        <time>2023-10-01T11:00:12Z</time>
      </trkpt>
      <trkpt lat="47.06084" lon="6.20576">
        <ele>545.8</ele>
        <time>2023-10-01T11:00:16Z</time>
      </trkpt>
      <trkpt lat="47.06087" lon="6.20583">
        <ele>546.8</ele>
        <time>2023-10-01T11:00:19Z</time>
      </trkpt>
      <trkpt lat="47.06093" lon="6.206">
        <ele>547.8</ele>
        <time>2023-10-01T11:00:25Z</time>
      </trkpt>
      <trkpt lat="47.06095" lon="6.20605">
        <ele>548</ele>
        <time>2023-10-01T11:00:27Z</time>
      </trkpt>
      <trkpt lat="47.06096" lon="6.2061">
        <ele>548</ele>
        <time>2023-10-01T11:00:29Z</time>
      </trkpt>
      <trkpt lat="47.06096" lon="6.2062">
        <ele>548.4</ele>
        <time>2023-10-01T11:00:32Z</time>
      </trkpt>
      <trkpt lat="47.06097" lon="6.20648">
        <ele>548.8</ele>
        <time>2023-10-01T11:00:40Z</time>
      </trkpt>
      <trkpt lat="47.06098" lon="6.20654">
        <ele>549</ele>
        <time>2023-10-01T11:00:42Z</time>
      </trkpt>
      <trkpt lat="47.06101" lon="6.20671">
        <ele>549.6</ele>
        <time>2023-10-01T11:00:47Z</time>
      </trkpt>
      <trkpt lat="47.061" lon="6.20677">
        <ele>550.2</ele>
        <time>2023-10-01T11:00:49Z</time>
      </trkpt>
      <trkpt lat="47.06097" lon="6.20689">
        <ele>550.8</ele>
        <time>2023-10-01T11:00:53Z</time>
      </trkpt>
      <trkpt lat="47.06092" lon="6.20714">
        <ele>551.6</ele>
        <time>2023-10-01T11:01:01Z</time>
      </trkpt>
      <trkpt lat="47.06091" lon="6.20718">
        <ele>552</ele>
        <time>2023-10-01T11:01:02Z</time>
      </trkpt>
      <trkpt lat="47.06089" lon="6.20725">
        <ele>552.8</ele>
        <time>2023-10-01T11:01:04Z</time>
      </trkpt>
      <trkpt lat="47.06089" lon="6.20737">
        <ele>554.2</ele>
        <time>2023-10-01T11:01:08Z</time>
      </trkpt>
      <trkpt lat="47.06088" lon="6.20747">
        <ele>555.4</ele>
        <time>2023-10-01T11:01:11Z</time>
      </trkpt>
      <trkpt lat="47.06087" lon="6.20758">
        <ele>556.6</ele>
        <time>2023-10-01T11:01:15Z</time>
      </trkpt>
      <trkpt lat="47.06082" lon="6.20777">
        <ele>556</ele>
        <time>2023-10-01T11:01:21Z</time>
      </trkpt>
      <trkpt lat="47.06075" lon="6.20793">
        <ele>555.4</ele>
        <time>2023-10-01T11:01:27Z</time>
      </trkpt>
      <trkpt lat="47.06071" lon="6.20802">
        <ele>555.8</ele>
        <time>2023-10-01T11:01:29Z</time>
      </trkpt>
      <trkpt lat="47.06069" lon="6.20811">
        <ele>556.4</ele>
        <time>2023-10-01T11:01:31Z</time>
      </trkpt>
      <trkpt lat="47.06066" lon="6.2082">
        <ele>557.4</ele>
        <time>2023-10-01T11:01:33Z</time>
      </trkpt>
      <trkpt lat="47.06061" lon="6.20832">
        <ele>558.8</ele>
        <time>2023-10-01T11:01:36Z</time>
      </trkpt>
      <trkpt lat="47.06057" lon="6.20842">
        <ele>559.8</ele>
        <time>2023-10-01T11:01:39Z</time>
      </trkpt>
      <trkpt lat="47.06056" lon="6.20844">
        <ele>559.8</ele>
        <time>2023-10-01T11:01:40Z</time>
      </trkpt>
      <trkpt lat="47.06053" lon="6.20857">
        <ele>560.8</ele>
        <time>2023-10-01T11:01:44Z</time>
      </trkpt>
      <trkpt lat="47.0605" lon="6.20863">
        <ele>561.4</ele>
        <time>2023-10-01T11:01:46Z</time>
      </trkpt>
      <trkpt lat="47.06048" lon="6.20869">
        <ele>562</ele>
        <time>2023-10-01T11:01:48Z</time>
      </trkpt>
      <trkpt lat="47.06043" lon="6.20879">
        <ele>562.4</ele>
        <time>2023-10-01T11:01:52Z</time>
      </trkpt>
      <trkpt lat="47.06038" lon="6.20891">
        <ele>563.4</ele>
        <time>2023-10-01T11:01:57Z</time>
      </trkpt>
      <trkpt lat="47.06" lon="6.21004">
        <ele>584.4</ele>
        <time>2023-10-01T11:02:47Z</time>
      </trkpt>
      <trkpt lat="47.05998" lon="6.21014">
        <ele>584.6</ele>
        <time>2023-10-01T11:02:51Z</time>
      </trkpt>
      <trkpt lat="47.05991" lon="6.21035">
        <ele>584.4</ele>
        <time>2023-10-01T11:02:57Z</time>
      </trkpt>
      <trkpt lat="47.05987" lon="6.21057">
        <ele>585</ele>
        <time>2023-10-01T11:03:02Z</time>
      </trkpt>
      <trkpt lat="47.05979" lon="6.21083">
        <ele>585.2</ele>
        <time>2023-10-01T11:03:09Z</time>
      </trkpt>
      <trkpt lat="47.05976" lon="6.21091">
        <ele>585.4</ele>
        <time>2023-10-01T11:03:11Z</time>
      </trkpt>
      <trkpt lat="47.05972" lon="6.21109">
        <ele>585.8</ele>
        <time>2023-10-01T11:03:15Z</time>
      </trkpt>
      <trkpt lat="47.05964" lon="6.21136">
        <ele>585</ele>
        <time>2023-10-01T11:03:20Z</time>
      </trkpt>
      <trkpt lat="47.05955" lon="6.21166">
        <ele>585.8</ele>
        <time>2023-10-01T11:03:26Z</time>
      </trkpt>
      <trkpt lat="47.05949" lon="6.21184">
        <ele>585.4</ele>
        <time>2023-10-01T11:03:28Z</time>
      </trkpt>
      <trkpt lat="47.05942" lon="6.21202">
        <ele>584.4</ele>
        <time>2023-10-01T11:03:30Z</time>
      </trkpt>
      <trkpt lat="47.05938" lon="6.21209">
        <ele>583.8</ele>
        <time>2023-10-01T11:03:31Z</time>
      </trkpt>
      <trkpt lat="47.0593" lon="6.21226">
        <ele>583.2</ele>
        <time>2023-10-01T11:03:34Z</time>
      </trkpt>
      <trkpt lat="47.05929" lon="6.21231">
        <ele>583.2</ele>
        <time>2023-10-01T11:03:35Z</time>
      </trkpt>
      <trkpt lat="47.0592" lon="6.21258">
        <ele>584.2</ele>
        <time>2023-10-01T11:03:41Z</time>
      </trkpt>
      <trkpt lat="47.05914" lon="6.21271">
        <ele>585</ele>
        <time>2023-10-01T11:03:44Z</time>
      </trkpt>
      <trkpt lat="47.0591" lon="6.21279">
        <ele>585.4</ele>
        <time>2023-10-01T11:03:46Z</time>
      </trkpt>
      <trkpt lat="47.059" lon="6.21307">
        <ele>584.2</ele>
        <time>2023-10-01T11:03:52Z</time>
      </trkpt>
      <trkpt lat="47.05899" lon="6.21311">
        <ele>584</ele>
        <time>2023-10-01T11:03:53Z</time>
      </trkpt>
      <trkpt lat="47.05886" lon="6.21342">
        <ele>584.4</ele>
        <time>2023-10-01T11:03:58Z</time>
      </trkpt>
      <trkpt lat="47.05873" lon="6.21374">
        <ele>583.6</ele>
        <time>2023-10-01T11:04:03Z</time>
      </trkpt>
      <trkpt lat="47.05866" lon="6.21393">
        <ele>582.8</ele>
        <time>2023-10-01T11:04:06Z</time>
      </trkpt>
      <trkpt lat="47.0586" lon="6.21408">
        <ele>582.4</ele>
        <time>2023-10-01T11:04:09Z</time>
      </trkpt>
      <trkpt lat="47.05859" lon="6.21426">
        <ele>582.4</ele>
        <time>2023-10-01T11:04:14Z</time>
      </trkpt>
      <trkpt lat="47.05864" lon="6.21444">
        <ele>582.8</ele>
        <time>2023-10-01T11:04:19Z</time>
      </trkpt>
      <trkpt lat="47.05856" lon="6.21471">
        <ele>585.2</ele>
        <time>2023-10-01T11:04:24Z</time>
      </trkpt>
      <trkpt lat="47.0585" lon="6.21483">
        <ele>586.6</ele>
        <time>2023-10-01T11:04:26Z</time>
      </trkpt>
      <trkpt lat="47.05847" lon="6.21501">
        <ele>587.6</ele>
        <time>2023-10-01T11:04:30Z</time>
      </trkpt>
      <trkpt lat="47.05846" lon="6.21514">
        <ele>589.2</ele>
        <time>2023-10-01T11:04:34Z</time>
      </trkpt>
      <trkpt lat="47.05844" lon="6.21523">
        <ele>590</ele>
        <time>2023-10-01T11:04:37Z</time>
      </trkpt>
      <trkpt lat="47.05843" lon="6.21526">
        <ele>590.2</ele>
        <time>2023-10-01T11:04:38Z</time>
      </trkpt>
      <trkpt lat="47.05841" lon="6.21538">
        <ele>592.2</ele>
        <time>2023-10-01T11:04:42Z</time>
      </trkpt>
      <trkpt lat="47.05841" lon="6.21541">
        <ele>593</ele>
        <time>2023-10-01T11:04:43Z</time>
      </trkpt>
      <trkpt lat="47.05841" lon="6.21543">
        <ele>594</ele>
        <time>2023-10-01T11:04:44Z</time>
      </trkpt>
      <trkpt lat="47.0584" lon="6.2155">
        <ele>595.6</ele>
        <time>2023-10-01T11:04:47Z</time>
      </trkpt>
      <trkpt lat="47.05837" lon="6.2159">
        <ele>601.4</ele>
        <time>2023-10-01T11:05:02Z</time>
      </trkpt>
      <trkpt lat="47.05836" lon="6.21593">
        <ele>601.6</ele>
        <time>2023-10-01T11:05:03Z</time>
      </trkpt>
      <trkpt lat="47.05832" lon="6.21609">
        <ele>602</ele>
        <time>2023-10-01T11:05:11Z</time>
      </trkpt>
      <trkpt lat="47.0583" lon="6.21615">
        <ele>602.2</ele>
        <time>2023-10-01T11:05:13Z</time>
      </trkpt>
      <trkpt lat="47.0583" lon="6.21618">
        <ele>602.4</ele>
        <time>2023-10-01T11:05:14Z</time>
      </trkpt>
      <trkpt lat="47.0582" lon="6.21638">
        <ele>602.8</ele>
        <time>2023-10-01T11:05:21Z</time>
      </trkpt>
      <trkpt lat="47.05815" lon="6.2165">
        <ele>603.4</ele>
        <time>2023-10-01T11:05:25Z</time>
      </trkpt>
      <trkpt lat="47.05813" lon="6.21656">
        <ele>604</ele>
        <time>2023-10-01T11:05:27Z</time>
      </trkpt>
      <trkpt lat="47.05808" lon="6.21662">
        <ele>604.6</ele>
        <time>2023-10-01T11:05:30Z</time>
      </trkpt>
      <trkpt lat="47.05804" lon="6.21668">
        <ele>605.2</ele>
        <time>2023-10-01T11:05:33Z</time>
      </trkpt>
      <trkpt lat="47.05798" lon="6.21677">
        <ele>605.4</ele>
        <time>2023-10-01T11:05:38Z</time>
      </trkpt>
      <trkpt lat="47.05794" lon="6.21682">
        <ele>605.4</ele>
        <time>2023-10-01T11:05:40Z</time>
      </trkpt>
      <trkpt lat="47.05792" lon="6.21684">
        <ele>605.4</ele>
        <time>2023-10-01T11:05:41Z</time>
      </trkpt>
      <trkpt lat="47.05788" lon="6.21688">
        <ele>604.8</ele>
        <time>2023-10-01T11:05:44Z</time>
      </trkpt>
      <trkpt lat="47.05779" lon="6.21695">
        <ele>604.2</ele>
        <time>2023-10-01T11:05:49Z</time>
      </trkpt>
      <trkpt lat="47.05761" lon="6.21712">
        <ele>604</ele>
        <time>2023-10-01T11:05:55Z</time>
      </trkpt>
      <trkpt lat="47.05739" lon="6.21737">
        <ele>604</ele>
        <time>2023-10-01T11:06:02Z</time>
      </trkpt>
      <trkpt lat="47.0573" lon="6.21747">
        <ele>603.4</ele>
        <time>2023-10-01T11:06:04Z</time>
      </trkpt>
      <trkpt lat="47.05721" lon="6.21756">
        <ele>603.2</ele>
        <time>2023-10-01T11:06:06Z</time>
      </trkpt>
      <trkpt lat="47.05716" lon="6.21758">
        <ele>603</ele>
        <time>2023-10-01T11:06:07Z</time>
      </trkpt>
      <trkpt lat="47.05691" lon="6.21773">
        <ele>602</ele>
        <time>2023-10-01T11:06:10Z</time>
      </trkpt>
      <trkpt lat="47.05678" lon="6.21781">
        <ele>601.8</ele>
        <time>2023-10-01T11:06:12Z</time>
      </trkpt>
      <trkpt lat="47.05611" lon="6.21822">
        <ele>608.4</ele>
        <time>2023-10-01T11:06:15Z</time>
      </trkpt>
      <trkpt lat="47.0561" lon="6.2183">
        <ele>604</ele>
        <time>2023-10-01T11:06:17Z</time>
      </trkpt>
      <trkpt lat="47.05587" lon="6.2184">
        <ele>602</ele>
        <time>2023-10-01T11:06:35Z</time>
      </trkpt>
      <trkpt lat="47.05585" lon="6.21841">
        <ele>600.8</ele>
        <time>2023-10-01T11:06:36Z</time>
      </trkpt>
      <trkpt lat="47.05582" lon="6.21843">
        <ele>599</ele>
        <time>2023-10-01T11:06:38Z</time>
      </trkpt>
      <trkpt lat="47.05578" lon="6.21845">
        <ele>597.2</ele>
        <time>2023-10-01T11:06:40Z</time>
      </trkpt>
      <trkpt lat="47.05575" lon="6.21847">
        <ele>595.4</ele>
        <time>2023-10-01T11:06:42Z</time>
      </trkpt>
      <trkpt lat="47.05562" lon="6.21852">
        <ele>593.4</ele>
        <time>2023-10-01T11:06:47Z</time>
      </trkpt>
      <trkpt lat="47.05553" lon="6.21857">
        <ele>593.2</ele>
        <time>2023-10-01T11:06:50Z</time>
      </trkpt>
      <trkpt lat="47.05538" lon="6.2187">
        <ele>593.2</ele>
        <time>2023-10-01T11:06:55Z</time>
      </trkpt>
      <trkpt lat="47.05535" lon="6.21871">
        <ele>592.2</ele>
        <time>2023-10-01T11:06:56Z</time>
      </trkpt>
      <trkpt lat="47.05529" lon="6.21875">
        <ele>590.6</ele>
        <time>2023-10-01T11:06:58Z</time>
      </trkpt>
      <trkpt lat="47.05525" lon="6.21879">
        <ele>589</ele>
        <time>2023-10-01T11:07:00Z</time>
      </trkpt>
      <trkpt lat="47.05515" lon="6.21885">
        <ele>587.4</ele>
        <time>2023-10-01T11:07:04Z</time>
      </trkpt>
      <trkpt lat="47.05511" lon="6.21888">
        <ele>585.6</ele>
        <time>2023-10-01T11:07:06Z</time>
      </trkpt>
      <trkpt lat="47.05506" lon="6.21891">
        <ele>583.8</ele>
        <time>2023-10-01T11:07:08Z</time>
      </trkpt>
      <trkpt lat="47.05491" lon="6.21901">
        <ele>584</ele>
        <time>2023-10-01T11:07:13Z</time>
      </trkpt>
      <trkpt lat="47.05472" lon="6.21923">
        <ele>585</ele>
        <time>2023-10-01T11:07:19Z</time>
      </trkpt>
      <trkpt lat="47.0546" lon="6.21937">
        <ele>583.6</ele>
        <time>2023-10-01T11:07:23Z</time>
      </trkpt>
      <trkpt lat="47.05455" lon="6.21942">
        <ele>582</ele>
        <time>2023-10-01T11:07:25Z</time>
      </trkpt>
      <trkpt lat="47.05451" lon="6.21945">
        <ele>580.2</ele>
        <time>2023-10-01T11:07:27Z</time>
      </trkpt>
      <trkpt lat="47.05445" lon="6.21953">
        <ele>581.2</ele>
        <time>2023-10-01T11:07:30Z</time>
      </trkpt>
      <trkpt lat="47.05444" lon="6.21956">
        <ele>581.6</ele>
        <time>2023-10-01T11:07:31Z</time>
      </trkpt>
      <trkpt lat="47.05435" lon="6.21975">
        <ele>581.4</ele>
        <time>2023-10-01T11:07:39Z</time>
      </trkpt>
      <trkpt lat="47.0543" lon="6.21983">
        <ele>582.2</ele>
        <time>2023-10-01T11:07:41Z</time>
      </trkpt>
      <trkpt lat="47.05421" lon="6.21997">
        <ele>584</ele>
        <time>2023-10-01T11:07:44Z</time>
      </trkpt>
      <trkpt lat="47.05414" lon="6.22007">
        <ele>584.6</ele>
        <time>2023-10-01T11:07:46Z</time>
      </trkpt>
      <trkpt lat="47.05409" lon="6.22014">
        <ele>585.6</ele>
        <time>2023-10-01T11:07:47Z</time>
      </trkpt>
      <trkpt lat="47.05401" lon="6.22025">
        <ele>586.6</ele>
        <time>2023-10-01T11:07:49Z</time>
      </trkpt>
      <trkpt lat="47.05397" lon="6.22031">
        <ele>587.6</ele>
        <time>2023-10-01T11:07:50Z</time>
      </trkpt>
      <trkpt lat="47.05392" lon="6.22041">
        <ele>589.2</ele>
        <time>2023-10-01T11:07:52Z</time>
      </trkpt>
      <trkpt lat="47.05381" lon="6.22062">
        <ele>590.6</ele>
        <time>2023-10-01T11:07:58Z</time>
      </trkpt>
      <trkpt lat="47.05375" lon="6.22071">
        <ele>591.8</ele>
        <time>2023-10-01T11:08:00Z</time>
      </trkpt>
      <trkpt lat="47.05368" lon="6.2208">
        <ele>593.2</ele>
        <time>2023-10-01T11:08:02Z</time>
      </trkpt>
      <trkpt lat="47.05358" lon="6.22098">
        <ele>593.4</ele>
        <time>2023-10-01T11:08:06Z</time>
      </trkpt>
      <trkpt lat="47.05339" lon="6.22136">
        <ele>594.6</ele>
        <time>2023-10-01T11:08:13Z</time>
      </trkpt>
      <trkpt lat="47.05324" lon="6.2216">
        <ele>596.2</ele>
        <time>2023-10-01T11:08:18Z</time>
      </trkpt>
      <trkpt lat="47.05321" lon="6.22165">
        <ele>596.8</ele>
        <time>2023-10-01T11:08:19Z</time>
      </trkpt>
      <trkpt lat="47.05314" lon="6.22176">
        <ele>599</ele>
        <time>2023-10-01T11:08:21Z</time>
      </trkpt>
      <trkpt lat="47.0531" lon="6.22183">
        <ele>601.4</ele>
        <time>2023-10-01T11:08:22Z</time>
      </trkpt>
      <trkpt lat="47.05307" lon="6.22189">
        <ele>603</ele>
        <time>2023-10-01T11:08:23Z</time>
      </trkpt>
      <trkpt lat="47.05304" lon="6.22194">
        <ele>604.4</ele>
        <time>2023-10-01T11:08:24Z</time>
      </trkpt>
      <trkpt lat="47.053" lon="6.22205">
        <ele>605.8</ele>
        <time>2023-10-01T11:08:26Z</time>
      </trkpt>
      <trkpt lat="47.05282" lon="6.22237">
        <ele>606.2</ele>
        <time>2023-10-01T11:08:32Z</time>
      </trkpt>
      <trkpt lat="47.05276" lon="6.22246">
        <ele>607.4</ele>
        <time>2023-10-01T11:08:34Z</time>
      </trkpt>
      <trkpt lat="47.0527" lon="6.22254">
        <ele>608.6</ele>
        <time>2023-10-01T11:08:36Z</time>
      </trkpt>
      <trkpt lat="47.05268" lon="6.22258">
        <ele>609</ele>
        <time>2023-10-01T11:08:37Z</time>
      </trkpt>
      <trkpt lat="47.05256" lon="6.22287">
        <ele>609</ele>
        <time>2023-10-01T11:08:43Z</time>
      </trkpt>
      <trkpt lat="47.05253" lon="6.2232">
        <ele>609</ele>
        <time>2023-10-01T11:08:49Z</time>
      </trkpt>
      <trkpt lat="47.0525" lon="6.22329">
        <ele>608.8</ele>
        <time>2023-10-01T11:08:50Z</time>
      </trkpt>
      <trkpt lat="47.05244" lon="6.22347">
        <ele>608.2</ele>
        <time>2023-10-01T11:08:52Z</time>
      </trkpt>
      <trkpt lat="47.05236" lon="6.22366">
        <ele>607.4</ele>
        <time>2023-10-01T11:08:54Z</time>
      </trkpt>
      <trkpt lat="47.05221" lon="6.22404">
        <ele>606.4</ele>
        <time>2023-10-01T11:08:58Z</time>
      </trkpt>
      <trkpt lat="47.05218" lon="6.22414">
        <ele>606.4</ele>
        <time>2023-10-01T11:08:59Z</time>
      </trkpt>
      <trkpt lat="47.05193" lon="6.22474">
        <ele>606.6</ele>
        <time>2023-10-01T11:09:05Z</time>
      </trkpt>
      <trkpt lat="47.05171" lon="6.2252">
        <ele>607</ele>
        <time>2023-10-01T11:09:10Z</time>
      </trkpt>
      <trkpt lat="47.05162" lon="6.22532">
        <ele>607</ele>
        <time>2023-10-01T11:09:12Z</time>
      </trkpt>
      <trkpt lat="47.05153" lon="6.22542">
        <ele>606.8</ele>
        <time>2023-10-01T11:09:14Z</time>
      </trkpt>
      <trkpt lat="47.05143" lon="6.22552">
        <ele>606.6</ele>
        <time>2023-10-01T11:09:16Z</time>
      </trkpt>
      <trkpt lat="47.05131" lon="6.22561">
        <ele>606.4</ele>
        <time>2023-10-01T11:09:18Z</time>
      </trkpt>
      <trkpt lat="47.05124" lon="6.22569">
        <ele>606</ele>
        <time>2023-10-01T11:09:19Z</time>
      </trkpt>
      <trkpt lat="47.0511" lon="6.22591">
        <ele>605.2</ele>
        <time>2023-10-01T11:09:22Z</time>
      </trkpt>
      <trkpt lat="47.05106" lon="6.22599">
        <ele>604.8</ele>
        <time>2023-10-01T11:09:23Z</time>
      </trkpt>
      <trkpt lat="47.05089" lon="6.22633">
        <ele>604.4</ele>
        <time>2023-10-01T11:09:26Z</time>
      </trkpt>
      <trkpt lat="47.05076" lon="6.22652">
        <ele>604.2</ele>
        <time>2023-10-01T11:09:28Z</time>
      </trkpt>
      <trkpt lat="47.05062" lon="6.22671">
        <ele>604</ele>
        <time>2023-10-01T11:09:30Z</time>
      </trkpt>
      <trkpt lat="47.0502" lon="6.22727">
        <ele>603.4</ele>
        <time>2023-10-01T11:09:36Z</time>
      </trkpt>
      <trkpt lat="47.05013" lon="6.22738">
        <ele>603.4</ele>
        <time>2023-10-01T11:09:37Z</time>
      </trkpt>
      <trkpt lat="47.04998" lon="6.2276">
        <ele>603.2</ele>
        <time>2023-10-01T11:09:39Z</time>
      </trkpt>
      <trkpt lat="47.04967" lon="6.22803">
        <ele>602.8</ele>
        <time>2023-10-01T11:09:43Z</time>
      </trkpt>
      <trkpt lat="47.04943" lon="6.22849">
        <ele>602.6</ele>
        <time>2023-10-01T11:09:47Z</time>
      </trkpt>
      <trkpt lat="47.04922" lon="6.22897">
        <ele>602.4</ele>
        <time>2023-10-01T11:09:51Z</time>
      </trkpt>
      <trkpt lat="47.049" lon="6.22943">
        <ele>602</ele>
        <time>2023-10-01T11:09:56Z</time>
      </trkpt>
      <trkpt lat="47.04895" lon="6.22954">
        <ele>601.8</ele>
        <time>2023-10-01T11:09:57Z</time>
      </trkpt>
      <trkpt lat="47.04871" lon="6.23009">
        <ele>600.6</ele>
        <time>2023-10-01T11:10:02Z</time>
      </trkpt>
      <trkpt lat="47.04856" lon="6.23046">
        <ele>599.4</ele>
        <time>2023-10-01T11:10:05Z</time>
      </trkpt>
      <trkpt lat="47.04841" lon="6.23085">
        <ele>598.8</ele>
        <time>2023-10-01T11:10:08Z</time>
      </trkpt>
      <trkpt lat="47.04829" lon="6.23107">
        <ele>598.4</ele>
        <time>2023-10-01T11:10:10Z</time>
      </trkpt>
      <trkpt lat="47.04816" lon="6.23125">
        <ele>598.2</ele>
        <time>2023-10-01T11:10:12Z</time>
      </trkpt>
      <trkpt lat="47.04791" lon="6.23162">
        <ele>597.2</ele>
        <time>2023-10-01T11:10:16Z</time>
      </trkpt>
      <trkpt lat="47.04785" lon="6.23171">
        <ele>596.6</ele>
        <time>2023-10-01T11:10:17Z</time>
      </trkpt>
      <trkpt lat="47.04773" lon="6.23187">
        <ele>596</ele>
        <time>2023-10-01T11:10:19Z</time>
      </trkpt>
      <trkpt lat="47.04764" lon="6.23191">
        <ele>595.6</ele>
        <time>2023-10-01T11:10:20Z</time>
      </trkpt>
      <trkpt lat="47.04754" lon="6.23194">
        <ele>595</ele>
        <time>2023-10-01T11:10:21Z</time>
      </trkpt>
      <trkpt lat="47.04711" lon="6.23209">
        <ele>594.2</ele>
        <time>2023-10-01T11:10:25Z</time>
      </trkpt>
      <trkpt lat="47.04682" lon="6.2322">
        <ele>593.8</ele>
        <time>2023-10-01T11:10:28Z</time>
      </trkpt>
      <trkpt lat="47.04672" lon="6.23222">
        <ele>593.8</ele>
        <time>2023-10-01T11:10:29Z</time>
      </trkpt>
      <trkpt lat="47.0462" lon="6.23235">
        <ele>593.2</ele>
        <time>2023-10-01T11:10:34Z</time>
      </trkpt>
      <trkpt lat="47.04577" lon="6.23234">
        <ele>592.8</ele>
        <time>2023-10-01T11:10:38Z</time>
      </trkpt>
      <trkpt lat="47.04531" lon="6.23241">
        <ele>592.4</ele>
        <time>2023-10-01T11:10:42Z</time>
      </trkpt>
      <trkpt lat="47.04495" lon="6.23247">
        <ele>592</ele>
        <time>2023-10-01T11:10:46Z</time>
      </trkpt>
      <trkpt lat="47.0449" lon="6.23248">
        <ele>591.8</ele>
        <time>2023-10-01T11:10:47Z</time>
      </trkpt>
      <trkpt lat="47.0448" lon="6.23253">
        <ele>591.4</ele>
        <time>2023-10-01T11:10:49Z</time>
      </trkpt>
      <trkpt lat="47.04467" lon="6.23261">
        <ele>590.4</ele>
        <time>2023-10-01T11:10:51Z</time>
      </trkpt>
      <trkpt lat="47.04446" lon="6.23279">
        <ele>590</ele>
        <time>2023-10-01T11:10:54Z</time>
      </trkpt>
      <trkpt lat="47.04425" lon="6.23291">
        <ele>589.2</ele>
        <time>2023-10-01T11:10:57Z</time>
      </trkpt>
      <trkpt lat="47.04409" lon="6.23302">
        <ele>589</ele>
        <time>2023-10-01T11:10:59Z</time>
      </trkpt>
      <trkpt lat="47.04373" lon="6.23336">
        <ele>588.6</ele>
        <time>2023-10-01T11:11:03Z</time>
      </trkpt>
      <trkpt lat="47.04335" lon="6.23377">
        <ele>588.2</ele>
        <time>2023-10-01T11:11:07Z</time>
      </trkpt>
      <trkpt lat="47.04306" lon="6.23423">
        <ele>587.8</ele>
        <time>2023-10-01T11:11:11Z</time>
      </trkpt>
      <trkpt lat="47.04273" lon="6.23487">
        <ele>587.4</ele>
        <time>2023-10-01T11:11:16Z</time>
      </trkpt>
      <trkpt lat="47.04266" lon="6.23499">
        <ele>587.4</ele>
        <time>2023-10-01T11:11:17Z</time>
      </trkpt>
      <trkpt lat="47.04247" lon="6.23531">
        <ele>587.2</ele>
        <time>2023-10-01T11:11:20Z</time>
      </trkpt>
      <trkpt lat="47.04241" lon="6.2354">
        <ele>587</ele>
        <time>2023-10-01T11:11:21Z</time>
      </trkpt>
      <trkpt lat="47.04212" lon="6.23569">
        <ele>586.8</ele>
        <time>2023-10-01T11:11:25Z</time>
      </trkpt>
      <trkpt lat="47.04177" lon="6.23598">
        <ele>586.4</ele>
        <time>2023-10-01T11:11:30Z</time>
      </trkpt>
      <trkpt lat="47.04159" lon="6.23614">
        <ele>586.2</ele>
        <time>2023-10-01T11:11:33Z</time>
      </trkpt>
      <trkpt lat="47.04152" lon="6.23617">
        <ele>585.8</ele>
        <time>2023-10-01T11:11:34Z</time>
      </trkpt>
      <trkpt lat="47.04134" lon="6.23624">
        <ele>585.4</ele>
        <time>2023-10-01T11:11:36Z</time>
      </trkpt>
      <trkpt lat="47.04116" lon="6.23629">
        <ele>584.8</ele>
        <time>2023-10-01T11:11:38Z</time>
      </trkpt>
      <trkpt lat="47.04087" lon="6.23642">
        <ele>584.2</ele>
        <time>2023-10-01T11:11:42Z</time>
      </trkpt>
      <trkpt lat="47.04063" lon="6.23652">
        <ele>583.6</ele>
        <time>2023-10-01T11:11:45Z</time>
      </trkpt>
      <trkpt lat="47.04047" lon="6.23654">
        <ele>583</ele>
        <time>2023-10-01T11:11:47Z</time>
      </trkpt>
      <trkpt lat="47.04033" lon="6.23654">
        <ele>582.8</ele>
        <time>2023-10-01T11:11:49Z</time>
      </trkpt>
      <trkpt lat="47.0402" lon="6.2365">
        <ele>582.6</ele>
        <time>2023-10-01T11:11:51Z</time>
      </trkpt>
      <trkpt lat="47.04013" lon="6.23646">
        <ele>582.2</ele>
        <time>2023-10-01T11:11:52Z</time>
      </trkpt>
      <trkpt lat="47.03988" lon="6.23634">
        <ele>581.4</ele>
        <time>2023-10-01T11:11:55Z</time>
      </trkpt>
      <trkpt lat="47.03952" lon="6.2363">
        <ele>580.4</ele>
        <time>2023-10-01T11:11:59Z</time>
      </trkpt>
      <trkpt lat="47.03944" lon="6.23629">
        <ele>580</ele>
        <time>2023-10-01T11:12:00Z</time>
      </trkpt>
      <trkpt lat="47.03921" lon="6.23632">
        <ele>579.4</ele>
        <time>2023-10-01T11:12:03Z</time>
      </trkpt>
      <trkpt lat="47.03915" lon="6.23636">
        <ele>579</ele>
        <time>2023-10-01T11:12:04Z</time>
      </trkpt>
      <trkpt lat="47.03905" lon="6.23647">
        <ele>577.8</ele>
        <time>2023-10-01T11:12:06Z</time>
      </trkpt>
      <trkpt lat="47.03895" lon="6.23655">
        <ele>577.6</ele>
        <time>2023-10-01T11:12:08Z</time>
      </trkpt>
      <trkpt lat="47.03886" lon="6.23659">
        <ele>577.4</ele>
        <time>2023-10-01T11:12:10Z</time>
      </trkpt>
      <trkpt lat="47.03878" lon="6.23661">
        <ele>576.8</ele>
        <time>2023-10-01T11:12:12Z</time>
      </trkpt>
      <trkpt lat="47.03874" lon="6.23661">
        <ele>576.4</ele>
        <time>2023-10-01T11:12:13Z</time>
      </trkpt>
      <trkpt lat="47.0387" lon="6.23661">
        <ele>576.2</ele>
        <time>2023-10-01T11:12:14Z</time>
      </trkpt>
      <trkpt lat="47.03863" lon="6.23662">
        <ele>575.2</ele>
        <time>2023-10-01T11:12:16Z</time>
      </trkpt>
      <trkpt lat="47.03856" lon="6.23663">
        <ele>574.6</ele>
        <time>2023-10-01T11:12:18Z</time>
      </trkpt>
      <trkpt lat="47.0385" lon="6.23663">
        <ele>573.8</ele>
        <time>2023-10-01T11:12:20Z</time>
      </trkpt>
      <trkpt lat="47.03845" lon="6.23665">
        <ele>572.8</ele>
        <time>2023-10-01T11:12:22Z</time>
      </trkpt>
      <trkpt lat="47.03838" lon="6.23666">
        <ele>571.4</ele>
        <time>2023-10-01T11:12:25Z</time>
      </trkpt>
      <trkpt lat="47.0383" lon="6.23668">
        <ele>569.8</ele>
        <time>2023-10-01T11:12:29Z</time>
      </trkpt>
      <trkpt lat="47.03826" lon="6.23671">
        <ele>568.6</ele>
        <time>2023-10-01T11:12:31Z</time>
      </trkpt>
      <trkpt lat="47.03825" lon="6.23672">
        <ele>568.2</ele>
        <time>2023-10-01T11:12:32Z</time>
      </trkpt>
      <trkpt lat="47.03823" lon="6.23674">
        <ele>567.6</ele>
        <time>2023-10-01T11:12:33Z</time>
      </trkpt>
      <trkpt lat="47.03818" lon="6.23683">
        <ele>566.6</ele>
        <time>2023-10-01T11:12:36Z</time>
      </trkpt>
      <trkpt lat="47.03811" lon="6.23696">
        <ele>566</ele>
        <time>2023-10-01T11:12:39Z</time>
      </trkpt>
      <trkpt lat="47.0381" lon="6.23696">
        <ele>563.8</ele>
        <time>2023-10-01T11:12:40Z</time>
      </trkpt>
      <trkpt lat="47.0381" lon="6.23696">
        <ele>561.4</ele>
        <time>2023-10-01T11:12:41Z</time>
      </trkpt>
      <trkpt lat="47.03809" lon="6.23696">
        <ele>559.2</ele>
        <time>2023-10-01T11:12:42Z</time>
      </trkpt>
      <trkpt lat="47.03809" lon="6.23697">
        <ele>557.2</ele>
        <time>2023-10-01T11:12:43Z</time>
      </trkpt>
      <trkpt lat="47.03808" lon="6.23698">
        <ele>555.4</ele>
        <time>2023-10-01T11:12:44Z</time>
      </trkpt>
      <trkpt lat="47.03807" lon="6.237">
        <ele>553.4</ele>
        <time>2023-10-01T11:12:45Z</time>
      </trkpt>
      <trkpt lat="47.03806" lon="6.23701">
        <ele>551.6</ele>
        <time>2023-10-01T11:12:46Z</time>
      </trkpt>
      <trkpt lat="47.03805" lon="6.23703">
        <ele>550</ele>
        <time>2023-10-01T11:12:47Z</time>
      </trkpt>
      <trkpt lat="47.03804" lon="6.23704">
        <ele>548.4</ele>
        <time>2023-10-01T11:12:48Z</time>
      </trkpt>
      <trkpt lat="47.03803" lon="6.23706">
        <ele>546.6</ele>
        <time>2023-10-01T11:12:49Z</time>
      </trkpt>
      <trkpt lat="47.03801" lon="6.23707">
        <ele>545.2</ele>
        <time>2023-10-01T11:12:50Z</time>
      </trkpt>
      <trkpt lat="47.038" lon="6.23709">
        <ele>543.8</ele>
        <time>2023-10-01T11:12:51Z</time>
      </trkpt>
      <trkpt lat="47.03798" lon="6.23711">
        <ele>542.4</ele>
        <time>2023-10-01T11:12:52Z</time>
      </trkpt>
      <trkpt lat="47.03796" lon="6.23712">
        <ele>541</ele>
        <time>2023-10-01T11:12:53Z</time>
      </trkpt>
      <trkpt lat="47.03795" lon="6.23713">
        <ele>539.6</ele>
        <time>2023-10-01T11:12:54Z</time>
      </trkpt>
      <trkpt lat="47.03794" lon="6.23716">
        <ele>538.6</ele>
        <time>2023-10-01T11:12:55Z</time>
      </trkpt>
      <trkpt lat="47.03791" lon="6.23722">
        <ele>536.6</ele>
        <time>2023-10-01T11:12:57Z</time>
      </trkpt>
      <trkpt lat="47.03786" lon="6.2373">
        <ele>535</ele>
        <time>2023-10-01T11:12:59Z</time>
      </trkpt>
      <trkpt lat="47.03784" lon="6.23734">
        <ele>534.2</ele>
        <time>2023-10-01T11:13:00Z</time>
      </trkpt>
      <trkpt lat="47.03782" lon="6.23738">
        <ele>533.4</ele>
        <time>2023-10-01T11:13:01Z</time>
      </trkpt>
      <trkpt lat="47.0378" lon="6.23742">
        <ele>532.4</ele>
        <time>2023-10-01T11:13:02Z</time>
      </trkpt>
      <trkpt lat="47.03779" lon="6.23745">
        <ele>531.2</ele>
        <time>2023-10-01T11:13:03Z</time>
      </trkpt>
      <trkpt lat="47.03778" lon="6.23749">
        <ele>529.6</ele>
        <time>2023-10-01T11:13:04Z</time>
      </trkpt>
      <trkpt lat="47.03775" lon="6.23755">
        <ele>527.8</ele>
        <time>2023-10-01T11:13:06Z</time>
      </trkpt>
      <trkpt lat="47.03774" lon="6.23758">
        <ele>527</ele>
        <time>2023-10-01T11:13:07Z</time>
      </trkpt>
      <trkpt lat="47.03773" lon="6.23762">
        <ele>526.4</ele>
        <time>2023-10-01T11:13:08Z</time>
      </trkpt>
      <trkpt lat="47.03771" lon="6.23767">
        <ele>524.6</ele>
        <time>2023-10-01T11:13:10Z</time>
      </trkpt>
      <trkpt lat="47.0377" lon="6.23773">
        <ele>523.6</ele>
        <time>2023-10-01T11:13:12Z</time>
      </trkpt>
      <trkpt lat="47.03774" lon="6.23788">
        <ele>521.8</ele>
        <time>2023-10-01T11:13:16Z</time>
      </trkpt>
      <trkpt lat="47.03778" lon="6.23792">
        <ele>521</ele>
        <time>2023-10-01T11:13:17Z</time>
      </trkpt>
      <trkpt lat="47.03781" lon="6.23796">
        <ele>519.8</ele>
        <time>2023-10-01T11:13:18Z</time>
      </trkpt>
      <trkpt lat="47.03784" lon="6.23803">
        <ele>518.4</ele>
        <time>2023-10-01T11:13:20Z</time>
      </trkpt>
      <trkpt lat="47.03787" lon="6.23814">
        <ele>516.8</ele>
        <time>2023-10-01T11:13:23Z</time>
      </trkpt>
      <trkpt lat="47.03788" lon="6.23818">
        <ele>515.4</ele>
        <time>2023-10-01T11:13:25Z</time>
      </trkpt>
      <trkpt lat="47.03789" lon="6.23828">
        <ele>514.6</ele>
        <time>2023-10-01T11:13:29Z</time>
      </trkpt>
      <trkpt lat="47.03787" lon="6.23831">
        <ele>514.2</ele>
        <time>2023-10-01T11:13:30Z</time>
      </trkpt>
      <trkpt lat="47.03782" lon="6.23835">
        <ele>514</ele>
        <time>2023-10-01T11:13:31Z</time>
      </trkpt>
      <trkpt lat="47.03774" lon="6.23842">
        <ele>513.2</ele>
        <time>2023-10-01T11:13:33Z</time>
      </trkpt>
      <trkpt lat="47.03766" lon="6.23847">
        <ele>512</ele>
        <time>2023-10-01T11:13:35Z</time>
      </trkpt>
      <trkpt lat="47.03763" lon="6.2385">
        <ele>511.4</ele>
        <time>2023-10-01T11:13:36Z</time>
      </trkpt>
      <trkpt lat="47.0376" lon="6.23852">
        <ele>510.8</ele>
        <time>2023-10-01T11:13:37Z</time>
      </trkpt>
      <trkpt lat="47.03751" lon="6.23861">
        <ele>509.2</ele>
        <time>2023-10-01T11:13:40Z</time>
      </trkpt>
      <trkpt lat="47.03747" lon="6.23867">
        <ele>508.6</ele>
        <time>2023-10-01T11:13:42Z</time>
      </trkpt>
      <trkpt lat="47.03744" lon="6.23875">
        <ele>507.8</ele>
        <time>2023-10-01T11:13:44Z</time>
      </trkpt>
      <trkpt lat="47.03739" lon="6.23886">
        <ele>507.2</ele>
        <time>2023-10-01T11:13:47Z</time>
      </trkpt>
      <trkpt lat="47.03738" lon="6.23895">
        <ele>506.8</ele>
        <time>2023-10-01T11:13:50Z</time>
      </trkpt>
      <trkpt lat="47.03741" lon="6.239">
        <ele>506.2</ele>
        <time>2023-10-01T11:13:52Z</time>
      </trkpt>
      <trkpt lat="47.03744" lon="6.23903">
        <ele>506</ele>
        <time>2023-10-01T11:13:54Z</time>
      </trkpt>
      <trkpt lat="47.0375" lon="6.23907">
        <ele>505.8</ele>
        <time>2023-10-01T11:13:58Z</time>
      </trkpt>
      <trkpt lat="47.03768" lon="6.23923">
        <ele>506</ele>
        <time>2023-10-01T11:14:06Z</time>
      </trkpt>
      <trkpt lat="47.03772" lon="6.23926">
        <ele>505.6</ele>
        <time>2023-10-01T11:14:08Z</time>
      </trkpt>
      <trkpt lat="47.03783" lon="6.23936">
        <ele>505.4</ele>
        <time>2023-10-01T11:14:13Z</time>
      </trkpt>
      <trkpt lat="47.03796" lon="6.23942">
        <ele>505</ele>
        <time>2023-10-01T11:14:19Z</time>
      </trkpt>
      <trkpt lat="47.03809" lon="6.23947">
        <ele>505.2</ele>
        <time>2023-10-01T11:14:24Z</time>
      </trkpt>
      <trkpt lat="47.03821" lon="6.23953">
        <ele>504.6</ele>
        <time>2023-10-01T11:14:29Z</time>
      </trkpt>
      <trkpt lat="47.03831" lon="6.23957">
        <ele>504.6</ele>
        <time>2023-10-01T11:14:33Z</time>
      </trkpt>
      <trkpt lat="47.03853" lon="6.23967">
        <ele>504</ele>
        <time>2023-10-01T11:14:41Z</time>
      </trkpt>
      <trkpt lat="47.03859" lon="6.23973">
        <ele>503</ele>
        <time>2023-10-01T11:14:44Z</time>
      </trkpt>
      <trkpt lat="47.03871" lon="6.23978">
        <ele>502.8</ele>
        <time>2023-10-01T11:14:48Z</time>
      </trkpt>
      <trkpt lat="47.03887" lon="6.23985">
        <ele>501.8</ele>
        <time>2023-10-01T11:14:54Z</time>
      </trkpt>
      <trkpt lat="47.03889" lon="6.23987">
        <ele>501.2</ele>
        <time>2023-10-01T11:14:55Z</time>
      </trkpt>
      <trkpt lat="47.03899" lon="6.23992">
        <ele>500.8</ele>
        <time>2023-10-01T11:14:59Z</time>
      </trkpt>
      <trkpt lat="47.03905" lon="6.23994">
        <ele>500.6</ele>
        <time>2023-10-01T11:15:01Z</time>
      </trkpt>
      <trkpt lat="47.03927" lon="6.24004">
        <ele>499.6</ele>
        <time>2023-10-01T11:15:09Z</time>
      </trkpt>
      <trkpt lat="47.03948" lon="6.24013">
        <ele>499</ele>
        <time>2023-10-01T11:15:17Z</time>
      </trkpt>
      <trkpt lat="47.03962" lon="6.24021">
        <ele>498.8</ele>
        <time>2023-10-01T11:15:23Z</time>
      </trkpt>
      <trkpt lat="47.0398" lon="6.24031">
        <ele>498.6</ele>
        <time>2023-10-01T11:15:30Z</time>
      </trkpt>
      <trkpt lat="47.03986" lon="6.24035">
        <ele>498.4</ele>
        <time>2023-10-01T11:15:32Z</time>
      </trkpt>
      <trkpt lat="47.04" lon="6.24044">
        <ele>498.2</ele>
        <time>2023-10-01T11:15:37Z</time>
      </trkpt>
      <trkpt lat="47.04021" lon="6.24062">
        <ele>497.6</ele>
        <time>2023-10-01T11:15:44Z</time>
      </trkpt>
      <trkpt lat="47.04028" lon="6.24068">
        <ele>497.4</ele>
        <time>2023-10-01T11:15:47Z</time>
      </trkpt>
      <trkpt lat="47.04033" lon="6.24072">
        <ele>497.2</ele>
        <time>2023-10-01T11:15:49Z</time>
      </trkpt>
      <trkpt lat="47.04044" lon="6.24081">
        <ele>496.8</ele>
        <time>2023-10-01T11:15:54Z</time>
      </trkpt>
      <trkpt lat="47.04064" lon="6.24096">
        <ele>496.8</ele>
        <time>2023-10-01T11:16:01Z</time>
      </trkpt>
      <trkpt lat="47.04079" lon="6.24109">
        <ele>496.6</ele>
        <time>2023-10-01T11:16:08Z</time>
      </trkpt>
      <trkpt lat="47.04093" lon="6.24116">
        <ele>496.6</ele>
        <time>2023-10-01T11:16:13Z</time>
      </trkpt>
      <trkpt lat="47.04101" lon="6.24124">
        <ele>495.4</ele>
        <time>2023-10-01T11:16:15Z</time>
      </trkpt>
      <trkpt lat="47.04106" lon="6.24128">
        <ele>496.6</ele>
        <time>2023-10-01T11:16:17Z</time>
      </trkpt>
      <trkpt lat="47.04112" lon="6.24133">
        <ele>496.4</ele>
        <time>2023-10-01T11:16:20Z</time>
      </trkpt>
      <trkpt lat="47.04124" lon="6.24144">
        <ele>496.2</ele>
        <time>2023-10-01T11:16:26Z</time>
      </trkpt>
      <trkpt lat="47.04144" lon="6.24148">
        <ele>495.8</ele>
        <time>2023-10-01T11:16:31Z</time>
      </trkpt>
      <trkpt lat="47.0415" lon="6.2415">
        <ele>495.2</ele>
        <time>2023-10-01T11:16:32Z</time>
      </trkpt>
      <trkpt lat="47.04167" lon="6.24149">
        <ele>495</ele>
        <time>2023-10-01T11:16:35Z</time>
      </trkpt>
      <trkpt lat="47.04179" lon="6.24155">
        <ele>493</ele>
        <time>2023-10-01T11:16:38Z</time>
      </trkpt>
      <trkpt lat="47.04183" lon="6.24161">
        <ele>491.4</ele>
        <time>2023-10-01T11:16:39Z</time>
      </trkpt>
      <trkpt lat="47.04187" lon="6.24167">
        <ele>490.2</ele>
        <time>2023-10-01T11:16:40Z</time>
      </trkpt>
      <trkpt lat="47.04192" lon="6.24183">
        <ele>488.2</ele>
        <time>2023-10-01T11:16:42Z</time>
      </trkpt>
      <trkpt lat="47.04195" lon="6.24202">
        <ele>486.4</ele>
        <time>2023-10-01T11:16:44Z</time>
      </trkpt>
      <trkpt lat="47.04196" lon="6.24217">
        <ele>485.2</ele>
        <time>2023-10-01T11:16:46Z</time>
      </trkpt>
      <trkpt lat="47.04197" lon="6.24224">
        <ele>484.6</ele>
        <time>2023-10-01T11:16:47Z</time>
      </trkpt>
      <trkpt lat="47.04207" lon="6.24259">
        <ele>484</ele>
        <time>2023-10-01T11:16:51Z</time>
      </trkpt>
      <trkpt lat="47.04214" lon="6.24291">
        <ele>483.6</ele>
        <time>2023-10-01T11:16:55Z</time>
      </trkpt>
      <trkpt lat="47.04216" lon="6.24299">
        <ele>483.6</ele>
        <time>2023-10-01T11:16:56Z</time>
      </trkpt>
      <trkpt lat="47.0422" lon="6.24316">
        <ele>483</ele>
        <time>2023-10-01T11:16:58Z</time>
      </trkpt>
      <trkpt lat="47.04227" lon="6.24334">
        <ele>483</ele>
        <time>2023-10-01T11:17:00Z</time>
      </trkpt>
      <trkpt lat="47.0425" lon="6.24387">
        <ele>483</ele>
        <time>2023-10-01T11:17:06Z</time>
      </trkpt>
      <trkpt lat="47.0427" lon="6.24426">
        <ele>481.6</ele>
        <time>2023-10-01T11:17:11Z</time>
      </trkpt>
      <trkpt lat="47.04273" lon="6.24434">
        <ele>480.8</ele>
        <time>2023-10-01T11:17:12Z</time>
      </trkpt>
      <trkpt lat="47.04277" lon="6.24441">
        <ele>480.2</ele>
        <time>2023-10-01T11:17:13Z</time>
      </trkpt>
      <trkpt lat="47.0428" lon="6.24449">
        <ele>479.6</ele>
        <time>2023-10-01T11:17:14Z</time>
      </trkpt>
      <trkpt lat="47.04285" lon="6.24457">
        <ele>479</ele>
        <time>2023-10-01T11:17:15Z</time>
      </trkpt>
      <trkpt lat="47.04291" lon="6.24464">
        <ele>478.8</ele>
        <time>2023-10-01T11:17:16Z</time>
      </trkpt>
      <trkpt lat="47.04304" lon="6.24476">
        <ele>478.8</ele>
        <time>2023-10-01T11:17:18Z</time>
      </trkpt>
      <trkpt lat="47.04318" lon="6.24488">
        <ele>478.8</ele>
        <time>2023-10-01T11:17:20Z</time>
      </trkpt>
      <trkpt lat="47.04349" lon="6.24512">
        <ele>478.8</ele>
        <time>2023-10-01T11:17:24Z</time>
      </trkpt>
      <trkpt lat="47.04389" lon="6.24548">
        <ele>478.8</ele>
        <time>2023-10-01T11:17:28Z</time>
      </trkpt>
      <trkpt lat="47.04398" lon="6.24558">
        <ele>478.8</ele>
        <time>2023-10-01T11:17:29Z</time>
      </trkpt>
      <trkpt lat="47.04413" lon="6.2458">
        <ele>478.8</ele>
        <time>2023-10-01T11:17:31Z</time>
      </trkpt>
      <trkpt lat="47.04438" lon="6.24632">
        <ele>478.8</ele>
        <time>2023-10-01T11:17:35Z</time>
      </trkpt>
      <trkpt lat="47.04457" lon="6.24698">
        <ele>479</ele>
        <time>2023-10-01T11:17:40Z</time>
      </trkpt>
      <trkpt lat="47.04463" lon="6.24749">
        <ele>478.8</ele>
        <time>2023-10-01T11:17:45Z</time>
      </trkpt>
      <trkpt lat="47.04466" lon="6.24777">
        <ele>479</ele>
        <time>2023-10-01T11:17:49Z</time>
      </trkpt>
      <trkpt lat="47.04466" lon="6.24789">
        <ele>478.8</ele>
        <time>2023-10-01T11:17:52Z</time>
      </trkpt>
      <trkpt lat="47.04463" lon="6.24795">
        <ele>478.8</ele>
        <time>2023-10-01T11:17:54Z</time>
      </trkpt>
      <trkpt lat="47.04463" lon="6.24806">
        <ele>478.6</ele>
        <time>2023-10-01T11:17:56Z</time>
      </trkpt>
      <trkpt lat="47.04468" lon="6.24832">
        <ele>478</ele>
        <time>2023-10-01T11:18:00Z</time>
      </trkpt>
      <trkpt lat="47.0447" lon="6.2484">
        <ele>477.6</ele>
        <time>2023-10-01T11:18:01Z</time>
      </trkpt>
      <trkpt lat="47.04469" lon="6.2486">
        <ele>477.4</ele>
        <time>2023-10-01T11:18:03Z</time>
      </trkpt>
      <trkpt lat="47.0446" lon="6.24872">
        <ele>475.4</ele>
        <time>2023-10-01T11:18:04Z</time>
      </trkpt>
      <trkpt lat="47.0445" lon="6.24883">
        <ele>473.4</ele>
        <time>2023-10-01T11:18:05Z</time>
      </trkpt>
      <trkpt lat="47.0444" lon="6.24892">
        <ele>468</ele>
        <time>2023-10-01T11:18:06Z</time>
      </trkpt>
      <trkpt lat="47.04437" lon="6.249">
        <ele>467.8</ele>
        <time>2023-10-01T11:18:08Z</time>
      </trkpt>
      <trkpt lat="47.04432" lon="6.24907">
        <ele>466.8</ele>
        <time>2023-10-01T11:18:11Z</time>
      </trkpt>
      <trkpt lat="47.04431" lon="6.24908">
        <ele>466.6</ele>
        <time>2023-10-01T11:18:12Z</time>
      </trkpt>
      <trkpt lat="47.04424" lon="6.24909">
        <ele>465</ele>
        <time>2023-10-01T11:18:15Z</time>
      </trkpt>
      <trkpt lat="47.04345" lon="6.24932">
        <ele>376.4</ele>
        <time>2023-10-01T11:24:20Z</time>
      </trkpt>
      <trkpt lat="47.04344" lon="6.24933">
        <ele>376.2</ele>
        <time>2023-10-01T11:24:21Z</time>
      </trkpt>
      <trkpt lat="47.0434" lon="6.24939">
        <ele>375.6</ele>
        <time>2023-10-01T11:24:26Z</time>
      </trkpt>
      <trkpt lat="47.04339" lon="6.2494">
        <ele>375.2</ele>
        <time>2023-10-01T11:24:27Z</time>
      </trkpt>
      <trkpt lat="47.04336" lon="6.24943">
        <ele>375.2</ele>
        <time>2023-10-01T11:24:30Z</time>
      </trkpt>
      <trkpt lat="47.04335" lon="6.24945">
        <ele>375.4</ele>
        <time>2023-10-01T11:24:33Z</time>
      </trkpt>
      <trkpt lat="47.04335" lon="6.24939">
        <ele>375.2</ele>
        <time>2023-10-01T11:24:37Z</time>
      </trkpt>
      <trkpt lat="47.04336" lon="6.24937">
        <ele>374.4</ele>
        <time>2023-10-01T11:24:38Z</time>
      </trkpt>
      <trkpt lat="47.04337" lon="6.24936">
        <ele>373.6</ele>
        <time>2023-10-01T11:24:39Z</time>
      </trkpt>
      <trkpt lat="47.04338" lon="6.24931">
        <ele>372.4</ele>
        <time>2023-10-01T11:24:42Z</time>
      </trkpt>
      <trkpt lat="47.04345" lon="6.24922">
        <ele>371.6</ele>
        <time>2023-10-01T11:25:27Z</time>
      </trkpt>
      <trkpt lat="47.04347" lon="6.24919">
        <ele>371.8</ele>
        <time>2023-10-01T11:25:28Z</time>
      </trkpt>
      <trkpt lat="47.04347" lon="6.24916">
        <ele>372.2</ele>
        <time>2023-10-01T11:25:29Z</time>
      </trkpt>
      <trkpt lat="47.04352" lon="6.249">
        <ele>372.6</ele>
        <time>2023-10-01T11:25:34Z</time>
      </trkpt>
      <trkpt lat="47.04364" lon="6.24872">
        <ele>372.6</ele>
        <time>2023-10-01T11:25:41Z</time>
      </trkpt>
      <trkpt lat="47.04373" lon="6.24832">
        <ele>372.6</ele>
        <time>2023-10-01T11:25:49Z</time>
      </trkpt>
      <trkpt lat="47.04376" lon="6.248">
        <ele>373.4</ele>
        <time>2023-10-01T11:25:55Z</time>
      </trkpt>
      <trkpt lat="47.04377" lon="6.24795">
        <ele>373.6</ele>
        <time>2023-10-01T11:25:56Z</time>
      </trkpt>
      <trkpt lat="47.0438" lon="6.24763">
        <ele>373.6</ele>
        <time>2023-10-01T11:26:02Z</time>
      </trkpt>
      <trkpt lat="47.04383" lon="6.24731">
        <ele>373</ele>
        <time>2023-10-01T11:26:06Z</time>
      </trkpt>
      <trkpt lat="47.04383" lon="6.24721">
        <ele>372.8</ele>
        <time>2023-10-01T11:26:07Z</time>
      </trkpt>
      <trkpt lat="47.04382" lon="6.24702">
        <ele>372.2</ele>
        <time>2023-10-01T11:26:09Z</time>
      </trkpt>
      <trkpt lat="47.04379" lon="6.24672">
        <ele>371.2</ele>
        <time>2023-10-01T11:26:12Z</time>
      </trkpt>
      <trkpt lat="47.04378" lon="6.24662">
        <ele>371</ele>
        <time>2023-10-01T11:26:13Z</time>
      </trkpt>
      <trkpt lat="47.04369" lon="6.24594">
        <ele>370.2</ele>
        <time>2023-10-01T11:26:20Z</time>
      </trkpt>
      <trkpt lat="47.04368" lon="6.24584">
        <ele>370.2</ele>
        <time>2023-10-01T11:26:21Z</time>
      </trkpt>
      <trkpt lat="47.04369" lon="6.24537">
        <ele>369.4</ele>
        <time>2023-10-01T11:26:26Z</time>
      </trkpt>
      <trkpt lat="47.04371" lon="6.24515">
        <ele>369.2</ele>
        <time>2023-10-01T11:26:28Z</time>
      </trkpt>
      <trkpt lat="47.04371" lon="6.24493">
        <ele>369.2</ele>
        <time>2023-10-01T11:26:30Z</time>
      </trkpt>
      <trkpt lat="47.04371" lon="6.24482">
        <ele>369</ele>
        <time>2023-10-01T11:26:31Z</time>
      </trkpt>
      <trkpt lat="47.04368" lon="6.24435">
        <ele>369</ele>
        <time>2023-10-01T11:26:36Z</time>
      </trkpt>
      <trkpt lat="47.04359" lon="6.24404">
        <ele>369.4</ele>
        <time>2023-10-01T11:26:40Z</time>
      </trkpt>
      <trkpt lat="47.04359" lon="6.24396">
        <ele>369.4</ele>
        <time>2023-10-01T11:26:41Z</time>
      </trkpt>
      <trkpt lat="47.04359" lon="6.24375">
        <ele>369.6</ele>
        <time>2023-10-01T11:26:44Z</time>
      </trkpt>
      <trkpt lat="47.0436" lon="6.24362">
        <ele>369.8</ele>
        <time>2023-10-01T11:26:46Z</time>
      </trkpt>
      <trkpt lat="47.04363" lon="6.24342">
        <ele>370</ele>
        <time>2023-10-01T11:26:49Z</time>
      </trkpt>
      <trkpt lat="47.04364" lon="6.24335">
        <ele>370.2</ele>
        <time>2023-10-01T11:26:50Z</time>
      </trkpt>
      <trkpt lat="47.04372" lon="6.24314">
        <ele>370.2</ele>
        <time>2023-10-01T11:26:53Z</time>
      </trkpt>
      <trkpt lat="47.04389" lon="6.24279">
        <ele>371.4</ele>
        <time>2023-10-01T11:26:58Z</time>
      </trkpt>
      <trkpt lat="47.04393" lon="6.24272">
        <ele>371.6</ele>
        <time>2023-10-01T11:26:59Z</time>
      </trkpt>
      <trkpt lat="47.04398" lon="6.24257">
        <ele>372.4</ele>
        <time>2023-10-01T11:27:01Z</time>
      </trkpt>
      <trkpt lat="47.04406" lon="6.24234">
        <ele>373.6</ele>
        <time>2023-10-01T11:27:04Z</time>
      </trkpt>
      <trkpt lat="47.04408" lon="6.24221">
        <ele>374.6</ele>
        <time>2023-10-01T11:27:06Z</time>
      </trkpt>
      <trkpt lat="47.04412" lon="6.24203">
        <ele>376</ele>
        <time>2023-10-01T11:27:09Z</time>
      </trkpt>
      <trkpt lat="47.04413" lon="6.24197">
        <ele>376.4</ele>
        <time>2023-10-01T11:27:10Z</time>
      </trkpt>
      <trkpt lat="47.04417" lon="6.24184">
        <ele>377.2</ele>
        <time>2023-10-01T11:27:12Z</time>
      </trkpt>
      <trkpt lat="47.04424" lon="6.24161">
        <ele>377.4</ele>
        <time>2023-10-01T11:27:15Z</time>
      </trkpt>
      <trkpt lat="47.04434" lon="6.2413">
        <ele>375.8</ele>
        <time>2023-10-01T11:27:18Z</time>
      </trkpt>
      <trkpt lat="47.04437" lon="6.2412">
        <ele>375.2</ele>
        <time>2023-10-01T11:27:19Z</time>
      </trkpt>
      <trkpt lat="47.04444" lon="6.24104">
        <ele>374.2</ele>
        <time>2023-10-01T11:27:21Z</time>
      </trkpt>
      <trkpt lat="47.0445" lon="6.24092">
        <ele>373.4</ele>
        <time>2023-10-01T11:27:23Z</time>
      </trkpt>
      <trkpt lat="47.04454" lon="6.24087">
        <ele>373</ele>
        <time>2023-10-01T11:27:24Z</time>
      </trkpt>
      <trkpt lat="47.04465" lon="6.24076">
        <ele>372.8</ele>
        <time>2023-10-01T11:27:27Z</time>
      </trkpt>
      <trkpt lat="47.04493" lon="6.24055">
        <ele>372.8</ele>
        <time>2023-10-01T11:27:34Z</time>
      </trkpt>
      <trkpt lat="47.04526" lon="6.2402">
        <ele>372</ele>
        <time>2023-10-01T11:27:42Z</time>
      </trkpt>
      <trkpt lat="47.0453" lon="6.24014">
        <ele>371.2</ele>
        <time>2023-10-01T11:27:43Z</time>
      </trkpt>
      <trkpt lat="47.0454" lon="6.24001">
        <ele>370.2</ele>
        <time>2023-10-01T11:27:46Z</time>
      </trkpt>
      <trkpt lat="47.04541" lon="6.23999">
        <ele>370</ele>
        <time>2023-10-01T11:27:47Z</time>
      </trkpt>
      <trkpt lat="47.0455" lon="6.24004">
        <ele>368.4</ele>
        <time>2023-10-01T11:28:17Z</time>
      </trkpt>
      <trkpt lat="47.04552" lon="6.24003">
        <ele>368.4</ele>
        <time>2023-10-01T11:28:18Z</time>
      </trkpt>
      <trkpt lat="47.04563" lon="6.23993">
        <ele>367.8</ele>
        <time>2023-10-01T11:28:22Z</time>
      </trkpt>
      <trkpt lat="47.0457" lon="6.23985">
        <ele>367.2</ele>
        <time>2023-10-01T11:28:24Z</time>
      </trkpt>
      <trkpt lat="47.04582" lon="6.23964">
        <ele>367</ele>
        <time>2023-10-01T11:28:28Z</time>
      </trkpt>
      <trkpt lat="47.04584" lon="6.23958">
        <ele>367</ele>
        <time>2023-10-01T11:28:29Z</time>
      </trkpt>
      <trkpt lat="47.04594" lon="6.23926">
        <ele>367</ele>
        <time>2023-10-01T11:28:34Z</time>
      </trkpt>
      <trkpt lat="47.04608" lon="6.23878">
        <ele>367.6</ele>
        <time>2023-10-01T11:28:42Z</time>
      </trkpt>
      <trkpt lat="47.04621" lon="6.23837">
        <ele>367.6</ele>
        <time>2023-10-01T11:28:49Z</time>
      </trkpt>
      <trkpt lat="47.04635" lon="6.23787">
        <ele>367</ele>
        <time>2023-10-01T11:28:57Z</time>
      </trkpt>
      <trkpt lat="47.04649" lon="6.23735">
        <ele>366.6</ele>
        <time>2023-10-01T11:29:05Z</time>
      </trkpt>
      <trkpt lat="47.04656" lon="6.23718">
        <ele>366.2</ele>
        <time>2023-10-01T11:29:08Z</time>
      </trkpt>
      <trkpt lat="47.04667" lon="6.23696">
        <ele>365.6</ele>
        <time>2023-10-01T11:29:12Z</time>
      </trkpt>
      <trkpt lat="47.04678" lon="6.23679">
        <ele>365.2</ele>
        <time>2023-10-01T11:29:15Z</time>
      </trkpt>
      <trkpt lat="47.04689" lon="6.23664">
        <ele>364.6</ele>
        <time>2023-10-01T11:29:18Z</time>
      </trkpt>
      <trkpt lat="47.04693" lon="6.23659">
        <ele>364.4</ele>
        <time>2023-10-01T11:29:19Z</time>
      </trkpt>
      <trkpt lat="47.04711" lon="6.23643">
        <ele>364</ele>
        <time>2023-10-01T11:29:23Z</time>
      </trkpt>
      <trkpt lat="47.04726" lon="6.23634">
        <ele>363.8</ele>
        <time>2023-10-01T11:29:26Z</time>
      </trkpt>
      <trkpt lat="47.04741" lon="6.23627">
        <ele>363.4</ele>
        <time>2023-10-01T11:29:29Z</time>
      </trkpt>
      <trkpt lat="47.04752" lon="6.23625">
        <ele>363.2</ele>
        <time>2023-10-01T11:29:31Z</time>
      </trkpt>
      <trkpt lat="47.04757" lon="6.23625">
        <ele>363</ele>
        <time>2023-10-01T11:29:32Z</time>
      </trkpt>
      <trkpt lat="47.04769" lon="6.23628">
        <ele>362.8</ele>
        <time>2023-10-01T11:29:34Z</time>
      </trkpt>
      <trkpt lat="47.04781" lon="6.23632">
        <ele>362.6</ele>
        <time>2023-10-01T11:29:36Z</time>
      </trkpt>
      <trkpt lat="47.04808" lon="6.23645">
        <ele>362</ele>
        <time>2023-10-01T11:29:41Z</time>
      </trkpt>
      <trkpt lat="47.04819" lon="6.2365">
        <ele>361.8</ele>
        <time>2023-10-01T11:29:43Z</time>
      </trkpt>
      <trkpt lat="47.04841" lon="6.23662">
        <ele>361.2</ele>
        <time>2023-10-01T11:29:48Z</time>
      </trkpt>
      <trkpt lat="47.04857" lon="6.23672">
        <ele>361</ele>
        <time>2023-10-01T11:29:53Z</time>
      </trkpt>
      <trkpt lat="47.04875" lon="6.23671">
        <ele>360.8</ele>
        <time>2023-10-01T11:29:57Z</time>
      </trkpt>
      <trkpt lat="47.04897" lon="6.23658">
        <ele>360.4</ele>
        <time>2023-10-01T11:30:02Z</time>
      </trkpt>
      <trkpt lat="47.04909" lon="6.23644">
        <ele>360.2</ele>
        <time>2023-10-01T11:30:05Z</time>
      </trkpt>
      <trkpt lat="47.04917" lon="6.23632">
        <ele>359.8</ele>
        <time>2023-10-01T11:30:07Z</time>
      </trkpt>
      <trkpt lat="47.04923" lon="6.23621">
        <ele>359.6</ele>
        <time>2023-10-01T11:30:09Z</time>
      </trkpt>
      <trkpt lat="47.04927" lon="6.23606">
        <ele>359</ele>
        <time>2023-10-01T11:30:12Z</time>
      </trkpt>
      <trkpt lat="47.04928" lon="6.23598">
        <ele>358.6</ele>
        <time>2023-10-01T11:30:14Z</time>
      </trkpt>
      <trkpt lat="47.04932" lon="6.23587">
        <ele>358</ele>
        <time>2023-10-01T11:30:17Z</time>
      </trkpt>
      <trkpt lat="47.04934" lon="6.23578">
        <ele>357.4</ele>
        <time>2023-10-01T11:30:19Z</time>
      </trkpt>
      <trkpt lat="47.04936" lon="6.2356">
        <ele>356.6</ele>
        <time>2023-10-01T11:30:23Z</time>
      </trkpt>
      <trkpt lat="47.04937" lon="6.23557">
        <ele>356.4</ele>
        <time>2023-10-01T11:30:24Z</time>
      </trkpt>
      <trkpt lat="47.04937" lon="6.23537">
        <ele>355.4</ele>
        <time>2023-10-01T11:30:29Z</time>
      </trkpt>
      <trkpt lat="47.04936" lon="6.23533">
        <ele>355.2</ele>
        <time>2023-10-01T11:30:30Z</time>
      </trkpt>
      <trkpt lat="47.04934" lon="6.23515">
        <ele>356.2</ele>
        <time>2023-10-01T11:30:35Z</time>
      </trkpt>
      <trkpt lat="47.04932" lon="6.23512">
        <ele>356.6</ele>
        <time>2023-10-01T11:30:36Z</time>
      </trkpt>
      <trkpt lat="47.04928" lon="6.23501">
        <ele>357.4</ele>
        <time>2023-10-01T11:30:39Z</time>
      </trkpt>
      <trkpt lat="47.04928" lon="6.23497">
        <ele>357.6</ele>
        <time>2023-10-01T11:30:40Z</time>
      </trkpt>
      <trkpt lat="47.04929" lon="6.23493">
        <ele>357.8</ele>
        <time>2023-10-01T11:30:41Z</time>
      </trkpt>
      <trkpt lat="47.04934" lon="6.23482">
        <ele>358.2</ele>
        <time>2023-10-01T11:30:44Z</time>
      </trkpt>
      <trkpt lat="47.04941" lon="6.2347">
        <ele>358.2</ele>
        <time>2023-10-01T11:30:47Z</time>
      </trkpt>
      <trkpt lat="47.04946" lon="6.2346">
        <ele>358.4</ele>
        <time>2023-10-01T11:30:49Z</time>
      </trkpt>
      <trkpt lat="47.04956" lon="6.23431">
        <ele>359</ele>
        <time>2023-10-01T11:30:54Z</time>
      </trkpt>
      <trkpt lat="47.04959" lon="6.23425">
        <ele>360</ele>
        <time>2023-10-01T11:30:55Z</time>
      </trkpt>
      <trkpt lat="47.04961" lon="6.23419">
        <ele>360.6</ele>
        <time>2023-10-01T11:30:56Z</time>
      </trkpt>
      <trkpt lat="47.04964" lon="6.23408">
        <ele>362.2</ele>
        <time>2023-10-01T11:30:58Z</time>
      </trkpt>
      <trkpt lat="47.04966" lon="6.23399">
        <ele>363.8</ele>
        <time>2023-10-01T11:31:00Z</time>
      </trkpt>
      <trkpt lat="47.04969" lon="6.23391">
        <ele>365.6</ele>
        <time>2023-10-01T11:31:02Z</time>
      </trkpt>
      <trkpt lat="47.04971" lon="6.23384">
        <ele>367.2</ele>
        <time>2023-10-01T11:31:04Z</time>
      </trkpt>
      <trkpt lat="47.04973" lon="6.2338">
        <ele>367.4</ele>
        <time>2023-10-01T11:31:05Z</time>
      </trkpt>
      <trkpt lat="47.04977" lon="6.23361">
        <ele>367.8</ele>
        <time>2023-10-01T11:31:11Z</time>
      </trkpt>
      <trkpt lat="47.04979" lon="6.23355">
        <ele>368.4</ele>
        <time>2023-10-01T11:31:13Z</time>
      </trkpt>
      <trkpt lat="47.04983" lon="6.23345">
        <ele>368.8</ele>
        <time>2023-10-01T11:31:16Z</time>
      </trkpt>
      <trkpt lat="47.04992" lon="6.23323">
        <ele>369.6</ele>
        <time>2023-10-01T11:31:23Z</time>
      </trkpt>
      <trkpt lat="47.04993" lon="6.2332">
        <ele>369.8</ele>
        <time>2023-10-01T11:31:24Z</time>
      </trkpt>
      <trkpt lat="47.05003" lon="6.23302">
        <ele>368.8</ele>
        <time>2023-10-01T11:31:31Z</time>
      </trkpt>
      <trkpt lat="47.05004" lon="6.233">
        <ele>368.4</ele>
        <time>2023-10-01T11:31:32Z</time>
      </trkpt>
      <trkpt lat="47.05008" lon="6.23294">
        <ele>367.2</ele>
        <time>2023-10-01T11:31:35Z</time>
      </trkpt>
      <trkpt lat="47.05014" lon="6.23286">
        <ele>367</ele>
        <time>2023-10-01T11:31:39Z</time>
      </trkpt>
      <trkpt lat="47.05024" lon="6.2327">
        <ele>366</ele>
        <time>2023-10-01T11:31:43Z</time>
      </trkpt>
      <trkpt lat="47.05029" lon="6.2326">
        <ele>366</ele>
        <time>2023-10-01T11:31:45Z</time>
      </trkpt>
      <trkpt lat="47.05037" lon="6.23246">
        <ele>367</ele>
        <time>2023-10-01T11:31:48Z</time>
      </trkpt>
      <trkpt lat="47.05041" lon="6.23233">
        <ele>366</ele>
        <time>2023-10-01T11:31:52Z</time>
      </trkpt>
      <trkpt lat="47.05051" lon="6.23212">
        <ele>368.4</ele>
        <time>2023-10-01T11:31:58Z</time>
      </trkpt>
      <trkpt lat="47.05052" lon="6.23207">
        <ele>369.6</ele>
        <time>2023-10-01T11:31:59Z</time>
      </trkpt>
      <trkpt lat="47.05056" lon="6.23196">
        <ele>371</ele>
        <time>2023-10-01T11:32:02Z</time>
      </trkpt>
      <trkpt lat="47.05064" lon="6.2318">
        <ele>372.2</ele>
        <time>2023-10-01T11:32:07Z</time>
      </trkpt>
      <trkpt lat="47.05073" lon="6.23166">
        <ele>373.2</ele>
        <time>2023-10-01T11:32:14Z</time>
      </trkpt>
      <trkpt lat="47.05078" lon="6.23159">
        <ele>374.2</ele>
        <time>2023-10-01T11:32:18Z</time>
      </trkpt>
      <trkpt lat="47.05084" lon="6.23151">
        <ele>375.4</ele>
        <time>2023-10-01T11:32:22Z</time>
      </trkpt>
      <trkpt lat="47.05092" lon="6.23133">
        <ele>376.8</ele>
        <time>2023-10-01T11:32:29Z</time>
      </trkpt>
      <trkpt lat="47.05093" lon="6.23131">
        <ele>377.2</ele>
        <time>2023-10-01T11:32:30Z</time>
      </trkpt>
      <trkpt lat="47.05094" lon="6.23123">
        <ele>378.2</ele>
        <time>2023-10-01T11:32:33Z</time>
      </trkpt>
      <trkpt lat="47.05095" lon="6.23116">
        <ele>379.8</ele>
        <time>2023-10-01T11:32:36Z</time>
      </trkpt>
      <trkpt lat="47.05096" lon="6.23108">
        <ele>380.8</ele>
        <time>2023-10-01T11:32:39Z</time>
      </trkpt>
      <trkpt lat="47.05095" lon="6.23103">
        <ele>382.2</ele>
        <time>2023-10-01T11:32:41Z</time>
      </trkpt>
      <trkpt lat="47.05096" lon="6.23101">
        <ele>383</ele>
        <time>2023-10-01T11:32:42Z</time>
      </trkpt>
      <trkpt lat="47.05096" lon="6.23098">
        <ele>383.4</ele>
        <time>2023-10-01T11:32:43Z</time>
      </trkpt>
      <trkpt lat="47.05095" lon="6.23088">
        <ele>384.6</ele>
        <time>2023-10-01T11:32:47Z</time>
      </trkpt>
      <trkpt lat="47.05096" lon="6.23081">
        <ele>386</ele>
        <time>2023-10-01T11:32:50Z</time>
      </trkpt>
      <trkpt lat="47.05095" lon="6.23079">
        <ele>386.6</ele>
        <time>2023-10-01T11:32:51Z</time>
      </trkpt>
      <trkpt lat="47.05096" lon="6.23077">
        <ele>387.4</ele>
        <time>2023-10-01T11:32:52Z</time>
      </trkpt>
      <trkpt lat="47.05096" lon="6.23074">
        <ele>388</ele>
        <time>2023-10-01T11:32:53Z</time>
      </trkpt>
      <trkpt lat="47.05096" lon="6.23072">
        <ele>388.4</ele>
        <time>2023-10-01T11:32:54Z</time>
      </trkpt>
      <trkpt lat="47.05096" lon="6.2307">
        <ele>388.8</ele>
        <time>2023-10-01T11:32:55Z</time>
      </trkpt>
      <trkpt lat="47.05097" lon="6.23065">
        <ele>389.8</ele>
        <time>2023-10-01T11:32:57Z</time>
      </trkpt>
      <trkpt lat="47.05098" lon="6.23059">
        <ele>390.8</ele>
        <time>2023-10-01T11:32:59Z</time>
      </trkpt>
      <trkpt lat="47.051" lon="6.23052">
        <ele>391.2</ele>
        <time>2023-10-01T11:33:02Z</time>
      </trkpt>
      <trkpt lat="47.05105" lon="6.23039">
        <ele>391.8</ele>
        <time>2023-10-01T11:33:09Z</time>
      </trkpt>
      <trkpt lat="47.05108" lon="6.23034">
        <ele>393</ele>
        <time>2023-10-01T11:33:12Z</time>
      </trkpt>
      <trkpt lat="47.05167" lon="6.22983">
        <ele>407.4</ele>
        <time>2023-10-01T11:34:02Z</time>
      </trkpt>
      <trkpt lat="47.0517" lon="6.22982">
        <ele>407.4</ele>
        <time>2023-10-01T11:34:03Z</time>
      </trkpt>
      <trkpt lat="47.05185" lon="6.2298">
        <ele>408.6</ele>
        <time>2023-10-01T11:34:09Z</time>
      </trkpt>
      <trkpt lat="47.05187" lon="6.22979">
        <ele>408.8</ele>
        <time>2023-10-01T11:34:10Z</time>
      </trkpt>
      <trkpt lat="47.05191" lon="6.22979">
        <ele>410</ele>
        <time>2023-10-01T11:34:12Z</time>
      </trkpt>
      <trkpt lat="47.05197" lon="6.22978">
        <ele>411.4</ele>
        <time>2023-10-01T11:34:15Z</time>
      </trkpt>
      <trkpt lat="47.05199" lon="6.22978">
        <ele>412.6</ele>
        <time>2023-10-01T11:34:17Z</time>
      </trkpt>
      <trkpt lat="47.05203" lon="6.22977">
        <ele>413.6</ele>
        <time>2023-10-01T11:34:19Z</time>
      </trkpt>
      <trkpt lat="47.05213" lon="6.22974">
        <ele>415.8</ele>
        <time>2023-10-01T11:34:24Z</time>
      </trkpt>
      <trkpt lat="47.05217" lon="6.22972">
        <ele>416</ele>
        <time>2023-10-01T11:34:26Z</time>
      </trkpt>
      <trkpt lat="47.05221" lon="6.22969">
        <ele>417.2</ele>
        <time>2023-10-01T11:34:29Z</time>
      </trkpt>
      <trkpt lat="47.05226" lon="6.22963">
        <ele>418.2</ele>
        <time>2023-10-01T11:34:32Z</time>
      </trkpt>
      <trkpt lat="47.05228" lon="6.22961">
        <ele>418.4</ele>
        <time>2023-10-01T11:34:33Z</time>
      </trkpt>
      <trkpt lat="47.05232" lon="6.22953">
        <ele>419.2</ele>
        <time>2023-10-01T11:34:36Z</time>
      </trkpt>
      <trkpt lat="47.05238" lon="6.22945">
        <ele>420.4</ele>
        <time>2023-10-01T11:34:40Z</time>
      </trkpt>
      <trkpt lat="47.0525" lon="6.22926">
        <ele>420.8</ele>
        <time>2023-10-01T11:34:47Z</time>
      </trkpt>
      <trkpt lat="47.05257" lon="6.22907">
        <ele>421.6</ele>
        <time>2023-10-01T11:34:54Z</time>
      </trkpt>
      <trkpt lat="47.05258" lon="6.22905">
        <ele>421.8</ele>
        <time>2023-10-01T11:34:55Z</time>
      </trkpt>
      <trkpt lat="47.05258" lon="6.22882">
        <ele>422.4</ele>
        <time>2023-10-01T11:35:03Z</time>
      </trkpt>
      <trkpt lat="47.05258" lon="6.22879">
        <ele>422.8</ele>
        <time>2023-10-01T11:35:04Z</time>
      </trkpt>
      <trkpt lat="47.05259" lon="6.22869">
        <ele>423.8</ele>
        <time>2023-10-01T11:35:07Z</time>
      </trkpt>
      <trkpt lat="47.0526" lon="6.22864">
        <ele>424.6</ele>
        <time>2023-10-01T11:35:09Z</time>
      </trkpt>
      <trkpt lat="47.05261" lon="6.22861">
        <ele>425</ele>
        <time>2023-10-01T11:35:10Z</time>
      </trkpt>
      <trkpt lat="47.0526" lon="6.22848">
        <ele>425.6</ele>
        <time>2023-10-01T11:35:14Z</time>
      </trkpt>
      <trkpt lat="47.0526" lon="6.22844">
        <ele>425.4</ele>
        <time>2023-10-01T11:35:15Z</time>
      </trkpt>
      <trkpt lat="47.0526" lon="6.22828">
        <ele>424.8</ele>
        <time>2023-10-01T11:35:20Z</time>
      </trkpt>
      <trkpt lat="47.05261" lon="6.22812">
        <ele>426.2</ele>
        <time>2023-10-01T11:35:25Z</time>
      </trkpt>
      <trkpt lat="47.05262" lon="6.22802">
        <ele>427</ele>
        <time>2023-10-01T11:35:28Z</time>
      </trkpt>
      <trkpt lat="47.05266" lon="6.22787">
        <ele>427.4</ele>
        <time>2023-10-01T11:35:33Z</time>
      </trkpt>
      <trkpt lat="47.05267" lon="6.22783">
        <ele>427.8</ele>
        <time>2023-10-01T11:35:35Z</time>
      </trkpt>
      <trkpt lat="47.0527" lon="6.22776">
        <ele>428.4</ele>
        <time>2023-10-01T11:35:38Z</time>
      </trkpt>
      <trkpt lat="47.05275" lon="6.22766">
        <ele>427.2</ele>
        <time>2023-10-01T11:35:42Z</time>
      </trkpt>
      <trkpt lat="47.05277" lon="6.22763">
        <ele>427</ele>
        <time>2023-10-01T11:35:43Z</time>
      </trkpt>
      <trkpt lat="47.05289" lon="6.2275">
        <ele>426.2</ele>
        <time>2023-10-01T11:35:48Z</time>
      </trkpt>
      <trkpt lat="47.05295" lon="6.22744">
        <ele>425.2</ele>
        <time>2023-10-01T11:35:51Z</time>
      </trkpt>
      <trkpt lat="47.05313" lon="6.2273">
        <ele>424.2</ele>
        <time>2023-10-01T11:35:55Z</time>
      </trkpt>
      <trkpt lat="47.05318" lon="6.22727">
        <ele>424</ele>
        <time>2023-10-01T11:35:56Z</time>
      </trkpt>
      <trkpt lat="47.05323" lon="6.22724">
        <ele>424</ele>
        <time>2023-10-01T11:35:57Z</time>
      </trkpt>
      <trkpt lat="47.05351" lon="6.22708">
        <ele>422.8</ele>
        <time>2023-10-01T11:36:03Z</time>
      </trkpt>
      <trkpt lat="47.0537" lon="6.22693">
        <ele>422.6</ele>
        <time>2023-10-01T11:36:07Z</time>
      </trkpt>
      <trkpt lat="47.05378" lon="6.22683">
        <ele>422.8</ele>
        <time>2023-10-01T11:36:09Z</time>
      </trkpt>
      <trkpt lat="47.05387" lon="6.22668">
        <ele>423</ele>
        <time>2023-10-01T11:36:12Z</time>
      </trkpt>
      <trkpt lat="47.05393" lon="6.22658">
        <ele>423.2</ele>
        <time>2023-10-01T11:36:14Z</time>
      </trkpt>
      <trkpt lat="47.05408" lon="6.2263">
        <ele>422.6</ele>
        <time>2023-10-01T11:36:19Z</time>
      </trkpt>
      <trkpt lat="47.05422" lon="6.22604">
        <ele>423.2</ele>
        <time>2023-10-01T11:36:24Z</time>
      </trkpt>
      <trkpt lat="47.05425" lon="6.22599">
        <ele>423.8</ele>
        <time>2023-10-01T11:36:25Z</time>
      </trkpt>
      <trkpt lat="47.05431" lon="6.22589">
        <ele>425</ele>
        <time>2023-10-01T11:36:27Z</time>
      </trkpt>
      <trkpt lat="47.05438" lon="6.22579">
        <ele>426.2</ele>
        <time>2023-10-01T11:36:29Z</time>
      </trkpt>
      <trkpt lat="47.05444" lon="6.2257">
        <ele>427.4</ele>
        <time>2023-10-01T11:36:31Z</time>
      </trkpt>
      <trkpt lat="47.05446" lon="6.22565">
        <ele>427.6</ele>
        <time>2023-10-01T11:36:32Z</time>
      </trkpt>
      <trkpt lat="47.0546" lon="6.22536">
        <ele>428.6</ele>
        <time>2023-10-01T11:36:38Z</time>
      </trkpt>
      <trkpt lat="47.05471" lon="6.22518">
        <ele>429.8</ele>
        <time>2023-10-01T11:36:43Z</time>
      </trkpt>
      <trkpt lat="47.05489" lon="6.22503">
        <ele>430.4</ele>
        <time>2023-10-01T11:36:49Z</time>
      </trkpt>
      <trkpt lat="47.05503" lon="6.22495">
        <ele>430.8</ele>
        <time>2023-10-01T11:36:52Z</time>
      </trkpt>
      <trkpt lat="47.05514" lon="6.22489">
        <ele>430.6</ele>
        <time>2023-10-01T11:36:54Z</time>
      </trkpt>
      <trkpt lat="47.05531" lon="6.22479">
        <ele>430.2</ele>
        <time>2023-10-01T11:36:57Z</time>
      </trkpt>
      <trkpt lat="47.05544" lon="6.22468">
        <ele>430</ele>
        <time>2023-10-01T11:36:59Z</time>
      </trkpt>
      <trkpt lat="47.05591" lon="6.22428">
        <ele>429.2</ele>
        <time>2023-10-01T11:37:06Z</time>
      </trkpt>
      <trkpt lat="47.05619" lon="6.22399">
        <ele>428.8</ele>
        <time>2023-10-01T11:37:10Z</time>
      </trkpt>
      <trkpt lat="47.05626" lon="6.22393">
        <ele>428.8</ele>
        <time>2023-10-01T11:37:11Z</time>
      </trkpt>
      <trkpt lat="47.05632" lon="6.22387">
        <ele>428.6</ele>
        <time>2023-10-01T11:37:12Z</time>
      </trkpt>
      <trkpt lat="47.0566" lon="6.2236">
        <ele>428</ele>
        <time>2023-10-01T11:37:16Z</time>
      </trkpt>
      <trkpt lat="47.05677" lon="6.22344">
        <ele>427.4</ele>
        <time>2023-10-01T11:37:18Z</time>
      </trkpt>
      <trkpt lat="47.05698" lon="6.22328">
        <ele>426.6</ele>
        <time>2023-10-01T11:37:20Z</time>
      </trkpt>
      <trkpt lat="47.05708" lon="6.22319">
        <ele>426</ele>
        <time>2023-10-01T11:37:21Z</time>
      </trkpt>
      <trkpt lat="47.05729" lon="6.22302">
        <ele>425</ele>
        <time>2023-10-01T11:37:23Z</time>
      </trkpt>
      <trkpt lat="47.05748" lon="6.22284">
        <ele>423.8</ele>
        <time>2023-10-01T11:37:25Z</time>
      </trkpt>
      <trkpt lat="47.05768" lon="6.22269">
        <ele>422.6</ele>
        <time>2023-10-01T11:37:27Z</time>
      </trkpt>
      <trkpt lat="47.05788" lon="6.22254">
        <ele>421</ele>
        <time>2023-10-01T11:37:29Z</time>
      </trkpt>
      <trkpt lat="47.05809" lon="6.22242">
        <ele>420</ele>
        <time>2023-10-01T11:37:31Z</time>
      </trkpt>
      <trkpt lat="47.05819" lon="6.22239">
        <ele>419.4</ele>
        <time>2023-10-01T11:37:32Z</time>
      </trkpt>
      <trkpt lat="47.05838" lon="6.22235">
        <ele>418.8</ele>
        <time>2023-10-01T11:37:34Z</time>
      </trkpt>
      <trkpt lat="47.05854" lon="6.2223">
        <ele>418.2</ele>
        <time>2023-10-01T11:37:36Z</time>
      </trkpt>
      <trkpt lat="47.0587" lon="6.22224">
        <ele>417.6</ele>
        <time>2023-10-01T11:37:38Z</time>
      </trkpt>
      <trkpt lat="47.05897" lon="6.22209">
        <ele>416.2</ele>
        <time>2023-10-01T11:37:41Z</time>
      </trkpt>
      <trkpt lat="47.05916" lon="6.2219">
        <ele>415.6</ele>
        <time>2023-10-01T11:37:44Z</time>
      </trkpt>
      <trkpt lat="47.05922" lon="6.22185">
        <ele>415.2</ele>
        <time>2023-10-01T11:37:45Z</time>
      </trkpt>
      <trkpt lat="47.05927" lon="6.22182">
        <ele>415</ele>
        <time>2023-10-01T11:37:46Z</time>
      </trkpt>
      <trkpt lat="47.05934" lon="6.22177">
        <ele>414.4</ele>
        <time>2023-10-01T11:37:48Z</time>
      </trkpt>
      <trkpt lat="47.0594" lon="6.2217">
        <ele>413.6</ele>
        <time>2023-10-01T11:37:50Z</time>
      </trkpt>
      <trkpt lat="47.05952" lon="6.22153">
        <ele>412.4</ele>
        <time>2023-10-01T11:37:54Z</time>
      </trkpt>
      <trkpt lat="47.05955" lon="6.22149">
        <ele>412</ele>
        <time>2023-10-01T11:37:55Z</time>
      </trkpt>
      <trkpt lat="47.05962" lon="6.22139">
        <ele>411.4</ele>
        <time>2023-10-01T11:37:57Z</time>
      </trkpt>
      <trkpt lat="47.05967" lon="6.22133">
        <ele>411.2</ele>
        <time>2023-10-01T11:37:58Z</time>
      </trkpt>
      <trkpt lat="47.05983" lon="6.22112">
        <ele>410.4</ele>
        <time>2023-10-01T11:38:02Z</time>
      </trkpt>
      <trkpt lat="47.05993" lon="6.22102">
        <ele>410</ele>
        <time>2023-10-01T11:38:04Z</time>
      </trkpt>
      <trkpt lat="47.05998" lon="6.22098">
        <ele>409.8</ele>
        <time>2023-10-01T11:38:05Z</time>
      </trkpt>
      <trkpt lat="47.0601" lon="6.2209">
        <ele>409.2</ele>
        <time>2023-10-01T11:38:07Z</time>
      </trkpt>
      <trkpt lat="47.06022" lon="6.2208">
        <ele>408.4</ele>
        <time>2023-10-01T11:38:09Z</time>
      </trkpt>
      <trkpt lat="47.06028" lon="6.22073">
        <ele>408</ele>
        <time>2023-10-01T11:38:10Z</time>
      </trkpt>
      <trkpt lat="47.06042" lon="6.22062">
        <ele>406.8</ele>
        <time>2023-10-01T11:38:12Z</time>
      </trkpt>
      <trkpt lat="47.06056" lon="6.22048">
        <ele>405.8</ele>
        <time>2023-10-01T11:38:14Z</time>
      </trkpt>
      <trkpt lat="47.06073" lon="6.22033">
        <ele>404.6</ele>
        <time>2023-10-01T11:38:16Z</time>
      </trkpt>
      <trkpt lat="47.06083" lon="6.22028">
        <ele>404.2</ele>
        <time>2023-10-01T11:38:17Z</time>
      </trkpt>
      <trkpt lat="47.06092" lon="6.22024">
        <ele>403.6</ele>
        <time>2023-10-01T11:38:18Z</time>
      </trkpt>
      <trkpt lat="47.0611" lon="6.22015">
        <ele>402.2</ele>
        <time>2023-10-01T11:38:20Z</time>
      </trkpt>
      <trkpt lat="47.06119" lon="6.22009">
        <ele>400.6</ele>
        <time>2023-10-01T11:38:21Z</time>
      </trkpt>
      <trkpt lat="47.06127" lon="6.22005">
        <ele>399.4</ele>
        <time>2023-10-01T11:38:22Z</time>
      </trkpt>
      <trkpt lat="47.06133" lon="6.22002">
        <ele>398.4</ele>
        <time>2023-10-01T11:38:23Z</time>
      </trkpt>
      <trkpt lat="47.0614" lon="6.22002">
        <ele>397.4</ele>
        <time>2023-10-01T11:38:24Z</time>
      </trkpt>
      <trkpt lat="47.06154" lon="6.22003">
        <ele>395.4</ele>
        <time>2023-10-01T11:38:26Z</time>
      </trkpt>
      <trkpt lat="47.06168" lon="6.21993">
        <ele>393.4</ele>
        <time>2023-10-01T11:38:28Z</time>
      </trkpt>
      <trkpt lat="47.06173" lon="6.21984">
        <ele>392.6</ele>
        <time>2023-10-01T11:38:29Z</time>
      </trkpt>
      <trkpt lat="47.06178" lon="6.21974">
        <ele>391.8</ele>
        <time>2023-10-01T11:38:30Z</time>
      </trkpt>
      <trkpt lat="47.06182" lon="6.21964">
        <ele>391</ele>
        <time>2023-10-01T11:38:31Z</time>
      </trkpt>
      <trkpt lat="47.06186" lon="6.21954">
        <ele>390.2</ele>
        <time>2023-10-01T11:38:32Z</time>
      </trkpt>
      <trkpt lat="47.06191" lon="6.21944">
        <ele>389.6</ele>
        <time>2023-10-01T11:38:33Z</time>
      </trkpt>
      <trkpt lat="47.06196" lon="6.21933">
        <ele>388.8</ele>
        <time>2023-10-01T11:38:34Z</time>
      </trkpt>
      <trkpt lat="47.06206" lon="6.21915">
        <ele>387.6</ele>
        <time>2023-10-01T11:38:36Z</time>
      </trkpt>
      <trkpt lat="47.06217" lon="6.21897">
        <ele>386.4</ele>
        <time>2023-10-01T11:38:38Z</time>
      </trkpt>
      <trkpt lat="47.06222" lon="6.21889">
        <ele>385.8</ele>
        <time>2023-10-01T11:38:39Z</time>
      </trkpt>
      <trkpt lat="47.06228" lon="6.21882">
        <ele>385.4</ele>
        <time>2023-10-01T11:38:40Z</time>
      </trkpt>
      <trkpt lat="47.06234" lon="6.21877">
        <ele>384.6</ele>
        <time>2023-10-01T11:38:41Z</time>
      </trkpt>
      <trkpt lat="47.0624" lon="6.21875">
        <ele>384</ele>
        <time>2023-10-01T11:38:42Z</time>
      </trkpt>
      <trkpt lat="47.06246" lon="6.21873">
        <ele>383.4</ele>
        <time>2023-10-01T11:38:43Z</time>
      </trkpt>
      <trkpt lat="47.0625" lon="6.2187">
        <ele>382.8</ele>
        <time>2023-10-01T11:38:44Z</time>
      </trkpt>
      <trkpt lat="47.06253" lon="6.21869">
        <ele>382.2</ele>
        <time>2023-10-01T11:38:45Z</time>
      </trkpt>
      <trkpt lat="47.06256" lon="6.21866">
        <ele>381.6</ele>
        <time>2023-10-01T11:38:46Z</time>
      </trkpt>
      <trkpt lat="47.06263" lon="6.2186">
        <ele>380.4</ele>
        <time>2023-10-01T11:38:48Z</time>
      </trkpt>
      <trkpt lat="47.0627" lon="6.21856">
        <ele>379.2</ele>
        <time>2023-10-01T11:38:50Z</time>
      </trkpt>
      <trkpt lat="47.06273" lon="6.21857">
        <ele>378.6</ele>
        <time>2023-10-01T11:38:51Z</time>
      </trkpt>
      <trkpt lat="47.06276" lon="6.21861">
        <ele>378</ele>
        <time>2023-10-01T11:38:52Z</time>
      </trkpt>
      <trkpt lat="47.06278" lon="6.21867">
        <ele>377.2</ele>
        <time>2023-10-01T11:38:53Z</time>
      </trkpt>
      <trkpt lat="47.06277" lon="6.21873">
        <ele>376.4</ele>
        <time>2023-10-01T11:38:54Z</time>
      </trkpt>
      <trkpt lat="47.06271" lon="6.21889">
        <ele>374.6</ele>
        <time>2023-10-01T11:38:56Z</time>
      </trkpt>
      <trkpt lat="47.06267" lon="6.21898">
        <ele>373.6</ele>
        <time>2023-10-01T11:38:57Z</time>
      </trkpt>
      <trkpt lat="47.06263" lon="6.21908">
        <ele>372.6</ele>
        <time>2023-10-01T11:38:58Z</time>
      </trkpt>
      <trkpt lat="47.06257" lon="6.21929">
        <ele>371</ele>
        <time>2023-10-01T11:39:00Z</time>
      </trkpt>
      <trkpt lat="47.06254" lon="6.2194">
        <ele>370.2</ele>
        <time>2023-10-01T11:39:01Z</time>
      </trkpt>
      <trkpt lat="47.06252" lon="6.21952">
        <ele>369.4</ele>
        <time>2023-10-01T11:39:02Z</time>
      </trkpt>
      <trkpt lat="47.06252" lon="6.21976">
        <ele>367.4</ele>
        <time>2023-10-01T11:39:04Z</time>
      </trkpt>
      <trkpt lat="47.06254" lon="6.21987">
        <ele>366.2</ele>
        <time>2023-10-01T11:39:05Z</time>
      </trkpt>
      <trkpt lat="47.06261" lon="6.22006">
        <ele>364.6</ele>
        <time>2023-10-01T11:39:07Z</time>
      </trkpt>
      <trkpt lat="47.06265" lon="6.22013">
        <ele>364</ele>
        <time>2023-10-01T11:39:08Z</time>
      </trkpt>
      <trkpt lat="47.0627" lon="6.22018">
        <ele>363.4</ele>
        <time>2023-10-01T11:39:09Z</time>
      </trkpt>
      <trkpt lat="47.0628" lon="6.22025">
        <ele>362.6</ele>
        <time>2023-10-01T11:39:11Z</time>
      </trkpt>
      <trkpt lat="47.06286" lon="6.22026">
        <ele>362.2</ele>
        <time>2023-10-01T11:39:12Z</time>
      </trkpt>
      <trkpt lat="47.06293" lon="6.22016">
        <ele>361.6</ele>
        <time>2023-10-01T11:39:14Z</time>
      </trkpt>
      <trkpt lat="47.063" lon="6.21982">
        <ele>361.4</ele>
        <time>2023-10-01T11:39:18Z</time>
      </trkpt>
      <trkpt lat="47.06302" lon="6.21963">
        <ele>361.2</ele>
        <time>2023-10-01T11:39:20Z</time>
      </trkpt>
      <trkpt lat="47.06303" lon="6.21943">
        <ele>361.2</ele>
        <time>2023-10-01T11:39:22Z</time>
      </trkpt>
      <trkpt lat="47.06304" lon="6.21913">
        <ele>361</ele>
        <time>2023-10-01T11:39:25Z</time>
      </trkpt>
      <trkpt lat="47.06302" lon="6.21852">
        <ele>360.2</ele>
        <time>2023-10-01T11:39:31Z</time>
      </trkpt>
      <trkpt lat="47.06301" lon="6.21832">
        <ele>360</ele>
        <time>2023-10-01T11:39:33Z</time>
      </trkpt>
      <trkpt lat="47.06295" lon="6.2175">
        <ele>359.2</ele>
        <time>2023-10-01T11:39:41Z</time>
      </trkpt>
      <trkpt lat="47.06294" lon="6.21729">
        <ele>359.2</ele>
        <time>2023-10-01T11:39:43Z</time>
      </trkpt>
      <trkpt lat="47.06293" lon="6.21718">
        <ele>359</ele>
        <time>2023-10-01T11:39:44Z</time>
      </trkpt>
      <trkpt lat="47.06294" lon="6.21657">
        <ele>358.4</ele>
        <time>2023-10-01T11:39:50Z</time>
      </trkpt>
      <trkpt lat="47.06302" lon="6.21594">
        <ele>358</ele>
        <time>2023-10-01T11:39:56Z</time>
      </trkpt>
      <trkpt lat="47.06303" lon="6.21584">
        <ele>358</ele>
        <time>2023-10-01T11:39:57Z</time>
      </trkpt>
      <trkpt lat="47.06318" lon="6.21524">
        <ele>357.2</ele>
        <time>2023-10-01T11:40:03Z</time>
      </trkpt>
      <trkpt lat="47.06324" lon="6.21505">
        <ele>357</ele>
        <time>2023-10-01T11:40:05Z</time>
      </trkpt>
      <trkpt lat="47.0634" lon="6.21448">
        <ele>356</ele>
        <time>2023-10-01T11:40:11Z</time>
      </trkpt>
      <trkpt lat="47.06343" lon="6.21438">
        <ele>355.8</ele>
        <time>2023-10-01T11:40:12Z</time>
      </trkpt>
      <trkpt lat="47.06359" lon="6.21376">
        <ele>355.4</ele>
        <time>2023-10-01T11:40:19Z</time>
      </trkpt>
      <trkpt lat="47.06365" lon="6.21362">
        <ele>355</ele>
        <time>2023-10-01T11:40:21Z</time>
      </trkpt>
      <trkpt lat="47.06368" lon="6.21356">
        <ele>354.8</ele>
        <time>2023-10-01T11:40:22Z</time>
      </trkpt>
      <trkpt lat="47.06372" lon="6.21354">
        <ele>354.6</ele>
        <time>2023-10-01T11:40:23Z</time>
      </trkpt>
      <trkpt lat="47.0639" lon="6.21355">
        <ele>354.2</ele>
        <time>2023-10-01T11:40:26Z</time>
      </trkpt>
      <trkpt lat="47.06409" lon="6.21357">
        <ele>353.6</ele>
        <time>2023-10-01T11:40:29Z</time>
      </trkpt>
      <trkpt lat="47.06422" lon="6.21356">
        <ele>353</ele>
        <time>2023-10-01T11:40:31Z</time>
      </trkpt>
      <trkpt lat="47.06433" lon="6.21346">
        <ele>352.6</ele>
        <time>2023-10-01T11:40:33Z</time>
      </trkpt>
      <trkpt lat="47.06436" lon="6.21338">
        <ele>352.4</ele>
        <time>2023-10-01T11:40:34Z</time>
      </trkpt>
      <trkpt lat="47.0644" lon="6.21311">
        <ele>352</ele>
        <time>2023-10-01T11:40:37Z</time>
      </trkpt>
      <trkpt lat="47.06441" lon="6.21293">
        <ele>351.8</ele>
        <time>2023-10-01T11:40:39Z</time>
      </trkpt>
      <trkpt lat="47.06447" lon="6.21258">
        <ele>351.6</ele>
        <time>2023-10-01T11:40:43Z</time>
      </trkpt>
      <trkpt lat="47.06448" lon="6.2125">
        <ele>351.6</ele>
        <time>2023-10-01T11:40:44Z</time>
      </trkpt>
      <trkpt lat="47.06453" lon="6.21232">
        <ele>351.6</ele>
        <time>2023-10-01T11:40:46Z</time>
      </trkpt>
      <trkpt lat="47.06461" lon="6.21205">
        <ele>351.6</ele>
        <time>2023-10-01T11:40:49Z</time>
      </trkpt>
      <trkpt lat="47.06475" lon="6.21158">
        <ele>351.6</ele>
        <time>2023-10-01T11:40:54Z</time>
      </trkpt>
      <trkpt lat="47.06487" lon="6.21118">
        <ele>351.2</ele>
        <time>2023-10-01T11:40:58Z</time>
      </trkpt>
      <trkpt lat="47.06511" lon="6.21037">
        <ele>351</ele>
        <time>2023-10-01T11:41:06Z</time>
      </trkpt>
      <trkpt lat="47.06517" lon="6.21018">
        <ele>351</ele>
        <time>2023-10-01T11:41:08Z</time>
      </trkpt>
      <trkpt lat="47.06527" lon="6.20982">
        <ele>351.2</ele>
        <time>2023-10-01T11:41:12Z</time>
      </trkpt>
      <trkpt lat="47.0653" lon="6.20977">
        <ele>351.2</ele>
        <time>2023-10-01T11:41:13Z</time>
      </trkpt>
      <trkpt lat="47.06544" lon="6.20974">
        <ele>351.6</ele>
        <time>2023-10-01T11:41:16Z</time>
      </trkpt>
      <trkpt lat="47.06549" lon="6.20972">
        <ele>351.6</ele>
        <time>2023-10-01T11:41:17Z</time>
      </trkpt>
      <trkpt lat="47.06565" lon="6.20965">
        <ele>352.4</ele>
        <time>2023-10-01T11:41:20Z</time>
      </trkpt>
      <trkpt lat="47.0657" lon="6.20962">
        <ele>352.6</ele>
        <time>2023-10-01T11:41:21Z</time>
      </trkpt>
      <trkpt lat="47.0659" lon="6.2095">
        <ele>353.4</ele>
        <time>2023-10-01T11:41:25Z</time>
      </trkpt>
      <trkpt lat="47.06595" lon="6.20946">
        <ele>353.6</ele>
        <time>2023-10-01T11:41:26Z</time>
      </trkpt>
      <trkpt lat="47.06599" lon="6.20941">
        <ele>353.8</ele>
        <time>2023-10-01T11:41:27Z</time>
      </trkpt>
      <trkpt lat="47.0662" lon="6.20913">
        <ele>353.6</ele>
        <time>2023-10-01T11:41:32Z</time>
      </trkpt>
      <trkpt lat="47.06631" lon="6.20894">
        <ele>353</ele>
        <time>2023-10-01T11:41:35Z</time>
      </trkpt>
      <trkpt lat="47.06642" lon="6.20875">
        <ele>352.4</ele>
        <time>2023-10-01T11:41:38Z</time>
      </trkpt>
      <trkpt lat="47.06646" lon="6.2087">
        <ele>352.2</ele>
        <time>2023-10-01T11:41:39Z</time>
      </trkpt>
      <trkpt lat="47.06657" lon="6.20854">
        <ele>351.8</ele>
        <time>2023-10-01T11:41:42Z</time>
      </trkpt>
      <trkpt lat="47.06668" lon="6.20838">
        <ele>351.4</ele>
        <time>2023-10-01T11:41:45Z</time>
      </trkpt>
      <trkpt lat="47.06674" lon="6.20827">
        <ele>351.2</ele>
        <time>2023-10-01T11:41:47Z</time>
      </trkpt>
      <trkpt lat="47.06677" lon="6.20822">
        <ele>351.2</ele>
        <time>2023-10-01T11:41:48Z</time>
      </trkpt>
      <trkpt lat="47.06688" lon="6.20807">
        <ele>350.6</ele>
        <time>2023-10-01T11:41:51Z</time>
      </trkpt>
      <trkpt lat="47.06693" lon="6.20802">
        <ele>350.2</ele>
        <time>2023-10-01T11:41:52Z</time>
      </trkpt>
      <trkpt lat="47.06697" lon="6.20796">
        <ele>349.8</ele>
        <time>2023-10-01T11:41:53Z</time>
      </trkpt>
      <trkpt lat="47.06707" lon="6.20788">
        <ele>349</ele>
        <time>2023-10-01T11:41:55Z</time>
      </trkpt>
      <trkpt lat="47.06723" lon="6.20785">
        <ele>348.2</ele>
        <time>2023-10-01T11:41:58Z</time>
      </trkpt>
      <trkpt lat="47.06728" lon="6.20787">
        <ele>348</ele>
        <time>2023-10-01T11:41:59Z</time>
      </trkpt>
      <trkpt lat="47.06738" lon="6.20789">
        <ele>347.6</ele>
        <time>2023-10-01T11:42:01Z</time>
      </trkpt>
      <trkpt lat="47.06742" lon="6.20789">
        <ele>347.6</ele>
        <time>2023-10-01T11:42:02Z</time>
      </trkpt>
      <trkpt lat="47.06754" lon="6.20788">
        <ele>347.8</ele>
        <time>2023-10-01T11:42:05Z</time>
      </trkpt>
      <trkpt lat="47.06757" lon="6.20789">
        <ele>347.8</ele>
        <time>2023-10-01T11:42:06Z</time>
      </trkpt>
      <trkpt lat="47.06769" lon="6.20793">
        <ele>347.4</ele>
        <time>2023-10-01T11:42:09Z</time>
      </trkpt>
      <trkpt lat="47.06783" lon="6.20796">
        <ele>347.4</ele>
        <time>2023-10-01T11:42:12Z</time>
      </trkpt>
      <trkpt lat="47.06791" lon="6.20799">
        <ele>347.4</ele>
        <time>2023-10-01T11:42:14Z</time>
      </trkpt>
      <trkpt lat="47.06804" lon="6.20805">
        <ele>347.2</ele>
        <time>2023-10-01T11:42:17Z</time>
      </trkpt>
      <trkpt lat="47.06809" lon="6.20807">
        <ele>347</ele>
        <time>2023-10-01T11:42:18Z</time>
      </trkpt>
      <trkpt lat="47.06824" lon="6.20812">
        <ele>346.8</ele>
        <time>2023-10-01T11:42:21Z</time>
      </trkpt>
      <trkpt lat="47.06832" lon="6.20812">
        <ele>346.6</ele>
        <time>2023-10-01T11:42:23Z</time>
      </trkpt>
      <trkpt lat="47.06833" lon="6.20807">
        <ele>346.6</ele>
        <time>2023-10-01T11:42:24Z</time>
      </trkpt>
      <trkpt lat="47.06832" lon="6.20793">
        <ele>347</ele>
        <time>2023-10-01T11:42:27Z</time>
      </trkpt>
      <trkpt lat="47.06832" lon="6.20787">
        <ele>347.2</ele>
        <time>2023-10-01T11:42:28Z</time>
      </trkpt>
      <trkpt lat="47.06825" lon="6.2077">
        <ele>347.6</ele>
        <time>2023-10-01T11:42:31Z</time>
      </trkpt>
      <trkpt lat="47.06817" lon="6.20761">
        <ele>347.4</ele>
        <time>2023-10-01T11:42:33Z</time>
      </trkpt>
      <trkpt lat="47.06813" lon="6.20757">
        <ele>347.6</ele>
        <time>2023-10-01T11:42:34Z</time>
      </trkpt>
      <trkpt lat="47.06808" lon="6.20754">
        <ele>347.6</ele>
        <time>2023-10-01T11:42:35Z</time>
      </trkpt>
      <trkpt lat="47.06799" lon="6.20746">
        <ele>348</ele>
        <time>2023-10-01T11:42:37Z</time>
      </trkpt>
      <trkpt lat="47.06791" lon="6.20736">
        <ele>348</ele>
        <time>2023-10-01T11:42:39Z</time>
      </trkpt>
      <trkpt lat="47.06785" lon="6.20722">
        <ele>347.6</ele>
        <time>2023-10-01T11:42:41Z</time>
      </trkpt>
      <trkpt lat="47.0678" lon="6.20682">
        <ele>347.8</ele>
        <time>2023-10-01T11:42:46Z</time>
      </trkpt>
      <trkpt lat="47.06782" lon="6.20668">
        <ele>347.8</ele>
        <time>2023-10-01T11:42:48Z</time>
      </trkpt>
      <trkpt lat="47.06785" lon="6.20655">
        <ele>347.8</ele>
        <time>2023-10-01T11:42:50Z</time>
      </trkpt>
      <trkpt lat="47.06788" lon="6.2065">
        <ele>347.8</ele>
        <time>2023-10-01T11:42:51Z</time>
      </trkpt>
      <trkpt lat="47.06802" lon="6.20628">
        <ele>347.8</ele>
        <time>2023-10-01T11:42:55Z</time>
      </trkpt>
      <trkpt lat="47.06809" lon="6.20618">
        <ele>348</ele>
        <time>2023-10-01T11:42:57Z</time>
      </trkpt>
      <trkpt lat="47.06819" lon="6.20611">
        <ele>348</ele>
        <time>2023-10-01T11:42:59Z</time>
      </trkpt>
      <trkpt lat="47.06838" lon="6.20596">
        <ele>348.2</ele>
        <time>2023-10-01T11:43:03Z</time>
      </trkpt>
      <trkpt lat="47.06844" lon="6.20584">
        <ele>348.4</ele>
        <time>2023-10-01T11:43:05Z</time>
      </trkpt>
      <trkpt lat="47.06846" lon="6.20556">
        <ele>348.8</ele>
        <time>2023-10-01T11:43:09Z</time>
      </trkpt>
      <trkpt lat="47.06846" lon="6.20549">
        <ele>349</ele>
        <time>2023-10-01T11:43:10Z</time>
      </trkpt>
      <trkpt lat="47.06844" lon="6.20535">
        <ele>349.2</ele>
        <time>2023-10-01T11:43:12Z</time>
      </trkpt>
      <trkpt lat="47.06841" lon="6.20522">
        <ele>349.4</ele>
        <time>2023-10-01T11:43:14Z</time>
      </trkpt>
      <trkpt lat="47.06839" lon="6.20516">
        <ele>349.6</ele>
        <time>2023-10-01T11:43:15Z</time>
      </trkpt>
      <trkpt lat="47.06838" lon="6.20504">
        <ele>350.2</ele>
        <time>2023-10-01T11:43:17Z</time>
      </trkpt>
      <trkpt lat="47.06844" lon="6.20499">
        <ele>350.2</ele>
        <time>2023-10-01T11:43:19Z</time>
      </trkpt>
      <trkpt lat="47.06852" lon="6.20495">
        <ele>350.4</ele>
        <time>2023-10-01T11:43:21Z</time>
      </trkpt>
      <trkpt lat="47.06865" lon="6.20487">
        <ele>350.2</ele>
        <time>2023-10-01T11:43:24Z</time>
      </trkpt>
      <trkpt lat="47.06901" lon="6.2047">
        <ele>351</ele>
        <time>2023-10-01T11:43:32Z</time>
      </trkpt>
      <trkpt lat="47.06943" lon="6.20451">
        <ele>350.8</ele>
        <time>2023-10-01T11:43:41Z</time>
      </trkpt>
      <trkpt lat="47.06974" lon="6.20435">
        <ele>349.6</ele>
        <time>2023-10-01T11:43:47Z</time>
      </trkpt>
      <trkpt lat="47.07011" lon="6.20414">
        <ele>349.2</ele>
        <time>2023-10-01T11:43:54Z</time>
      </trkpt>
      <trkpt lat="47.07022" lon="6.20408">
        <ele>349</ele>
        <time>2023-10-01T11:43:56Z</time>
      </trkpt>
      <trkpt lat="47.07045" lon="6.20393">
        <ele>348.8</ele>
        <time>2023-10-01T11:44:00Z</time>
      </trkpt>
      <trkpt lat="47.07091" lon="6.20356">
        <ele>348.4</ele>
        <time>2023-10-01T11:44:08Z</time>
      </trkpt>
      <trkpt lat="47.07123" lon="6.20328">
        <ele>349</ele>
        <time>2023-10-01T11:44:14Z</time>
      </trkpt>
      <trkpt lat="47.07132" lon="6.20317">
        <ele>349.2</ele>
        <time>2023-10-01T11:44:16Z</time>
      </trkpt>
      <trkpt lat="47.07145" lon="6.20298">
        <ele>349.6</ele>
        <time>2023-10-01T11:44:19Z</time>
      </trkpt>
      <trkpt lat="47.07156" lon="6.20276">
        <ele>350.2</ele>
        <time>2023-10-01T11:44:22Z</time>
      </trkpt>
      <trkpt lat="47.07159" lon="6.20259">
        <ele>350.4</ele>
        <time>2023-10-01T11:44:24Z</time>
      </trkpt>
      <trkpt lat="47.07168" lon="6.20218">
        <ele>350.6</ele>
        <time>2023-10-01T11:44:29Z</time>
      </trkpt>
      <trkpt lat="47.07171" lon="6.2021">
        <ele>350.6</ele>
        <time>2023-10-01T11:44:30Z</time>
      </trkpt>
      <trkpt lat="47.07188" lon="6.20142">
        <ele>350.8</ele>
        <time>2023-10-01T11:44:38Z</time>
      </trkpt>
      <trkpt lat="47.07198" lon="6.20088">
        <ele>350.8</ele>
        <time>2023-10-01T11:44:44Z</time>
      </trkpt>
      <trkpt lat="47.07205" lon="6.20035">
        <ele>350.8</ele>
        <time>2023-10-01T11:44:50Z</time>
      </trkpt>
      <trkpt lat="47.07216" lon="6.19952">
        <ele>351.2</ele>
        <time>2023-10-01T11:44:59Z</time>
      </trkpt>
      <trkpt lat="47.07217" lon="6.19943">
        <ele>351.2</ele>
        <time>2023-10-01T11:45:00Z</time>
      </trkpt>
      <trkpt lat="47.07222" lon="6.19901">
        <ele>352.4</ele>
        <time>2023-10-01T11:45:05Z</time>
      </trkpt>
      <trkpt lat="47.07225" lon="6.19883">
        <ele>353.2</ele>
        <time>2023-10-01T11:45:07Z</time>
      </trkpt>
      <trkpt lat="47.07226" lon="6.19875">
        <ele>353.4</ele>
        <time>2023-10-01T11:45:08Z</time>
      </trkpt>
      <trkpt lat="47.07231" lon="6.19851">
        <ele>354.6</ele>
        <time>2023-10-01T11:45:11Z</time>
      </trkpt>
      <trkpt lat="47.07233" lon="6.19834">
        <ele>355.8</ele>
        <time>2023-10-01T11:45:13Z</time>
      </trkpt>
      <trkpt lat="47.07236" lon="6.19818">
        <ele>357</ele>
        <time>2023-10-01T11:45:15Z</time>
      </trkpt>
      <trkpt lat="47.07239" lon="6.19802">
        <ele>358.2</ele>
        <time>2023-10-01T11:45:17Z</time>
      </trkpt>
      <trkpt lat="47.07241" lon="6.19793">
        <ele>359</ele>
        <time>2023-10-01T11:45:18Z</time>
      </trkpt>
      <trkpt lat="47.07243" lon="6.19785">
        <ele>359.6</ele>
        <time>2023-10-01T11:45:19Z</time>
      </trkpt>
      <trkpt lat="47.07246" lon="6.19769">
        <ele>360.8</ele>
        <time>2023-10-01T11:45:21Z</time>
      </trkpt>
      <trkpt lat="47.07248" lon="6.19752">
        <ele>361.8</ele>
        <time>2023-10-01T11:45:23Z</time>
      </trkpt>
      <trkpt lat="47.07249" lon="6.19743">
        <ele>362.4</ele>
        <time>2023-10-01T11:45:24Z</time>
      </trkpt>
      <trkpt lat="47.0725" lon="6.19735">
        <ele>363</ele>
        <time>2023-10-01T11:45:25Z</time>
      </trkpt>
      <trkpt lat="47.07253" lon="6.19717">
        <ele>364.2</ele>
        <time>2023-10-01T11:45:27Z</time>
      </trkpt>
      <trkpt lat="47.07255" lon="6.197">
        <ele>365.2</ele>
        <time>2023-10-01T11:45:29Z</time>
      </trkpt>
      <trkpt lat="47.07259" lon="6.19683">
        <ele>366.2</ele>
        <time>2023-10-01T11:45:31Z</time>
      </trkpt>
      <trkpt lat="47.0726" lon="6.19674">
        <ele>366.6</ele>
        <time>2023-10-01T11:45:32Z</time>
      </trkpt>
      <trkpt lat="47.07266" lon="6.19632">
        <ele>367</ele>
        <time>2023-10-01T11:45:37Z</time>
      </trkpt>
      <trkpt lat="47.0727" lon="6.19596">
        <ele>367.8</ele>
        <time>2023-10-01T11:45:41Z</time>
      </trkpt>
      <trkpt lat="47.07273" lon="6.19578">
        <ele>368.2</ele>
        <time>2023-10-01T11:45:43Z</time>
      </trkpt>
      <trkpt lat="47.07276" lon="6.19552">
        <ele>368.4</ele>
        <time>2023-10-01T11:45:46Z</time>
      </trkpt>
      <trkpt lat="47.07279" lon="6.19535">
        <ele>368.4</ele>
        <time>2023-10-01T11:45:48Z</time>
      </trkpt>
      <trkpt lat="47.07281" lon="6.19527">
        <ele>368.8</ele>
        <time>2023-10-01T11:45:49Z</time>
      </trkpt>
      <trkpt lat="47.07282" lon="6.19518">
        <ele>368.8</ele>
        <time>2023-10-01T11:45:50Z</time>
      </trkpt>
      <trkpt lat="47.07287" lon="6.19475">
        <ele>370</ele>
        <time>2023-10-01T11:45:55Z</time>
      </trkpt>
      <trkpt lat="47.07294" lon="6.19423">
        <ele>369.4</ele>
        <time>2023-10-01T11:46:01Z</time>
      </trkpt>
      <trkpt lat="47.07298" lon="6.19396">
        <ele>368.6</ele>
        <time>2023-10-01T11:46:04Z</time>
      </trkpt>
      <trkpt lat="47.07303" lon="6.1936">
        <ele>368.2</ele>
        <time>2023-10-01T11:46:08Z</time>
      </trkpt>
      <trkpt lat="47.07304" lon="6.19344">
        <ele>368.2</ele>
        <time>2023-10-01T11:46:10Z</time>
      </trkpt>
      <trkpt lat="47.07299" lon="6.19329">
        <ele>368.2</ele>
        <time>2023-10-01T11:46:12Z</time>
      </trkpt>
      <trkpt lat="47.07291" lon="6.19318">
        <ele>367.8</ele>
        <time>2023-10-01T11:46:14Z</time>
      </trkpt>
      <trkpt lat="47.07284" lon="6.19305">
        <ele>367.4</ele>
        <time>2023-10-01T11:46:16Z</time>
      </trkpt>
      <trkpt lat="47.07275" lon="6.19276">
        <ele>367</ele>
        <time>2023-10-01T11:46:20Z</time>
      </trkpt>
      <trkpt lat="47.07273" lon="6.19269">
        <ele>367</ele>
        <time>2023-10-01T11:46:21Z</time>
      </trkpt>
      <trkpt lat="47.07272" lon="6.19262">
        <ele>367</ele>
        <time>2023-10-01T11:46:22Z</time>
      </trkpt>
      <trkpt lat="47.07274" lon="6.19239">
        <ele>366.6</ele>
        <time>2023-10-01T11:46:25Z</time>
      </trkpt>
      <trkpt lat="47.07277" lon="6.19233">
        <ele>366.4</ele>
        <time>2023-10-01T11:46:26Z</time>
      </trkpt>
      <trkpt lat="47.07284" lon="6.19223">
        <ele>366.4</ele>
        <time>2023-10-01T11:46:28Z</time>
      </trkpt>
      <trkpt lat="47.07288" lon="6.19218">
        <ele>366.2</ele>
        <time>2023-10-01T11:46:29Z</time>
      </trkpt>
      <trkpt lat="47.07297" lon="6.19207">
        <ele>365.8</ele>
        <time>2023-10-01T11:46:31Z</time>
      </trkpt>
      <trkpt lat="47.07301" lon="6.192">
        <ele>365.6</ele>
        <time>2023-10-01T11:46:32Z</time>
      </trkpt>
      <trkpt lat="47.0731" lon="6.19184">
        <ele>365.2</ele>
        <time>2023-10-01T11:46:34Z</time>
      </trkpt>
      <trkpt lat="47.07325" lon="6.1915">
        <ele>363.8</ele>
        <time>2023-10-01T11:46:38Z</time>
      </trkpt>
      <trkpt lat="47.07329" lon="6.19142">
        <ele>363.2</ele>
        <time>2023-10-01T11:46:39Z</time>
      </trkpt>
      <trkpt lat="47.07332" lon="6.19132">
        <ele>362.6</ele>
        <time>2023-10-01T11:46:40Z</time>
      </trkpt>
      <trkpt lat="47.07338" lon="6.19114">
        <ele>361.2</ele>
        <time>2023-10-01T11:46:42Z</time>
      </trkpt>
      <trkpt lat="47.07343" lon="6.19097">
        <ele>360.2</ele>
        <time>2023-10-01T11:46:44Z</time>
      </trkpt>
      <trkpt lat="47.07355" lon="6.19074">
        <ele>359</ele>
        <time>2023-10-01T11:46:47Z</time>
      </trkpt>
      <trkpt lat="47.0736" lon="6.19067">
        <ele>358.6</ele>
        <time>2023-10-01T11:46:48Z</time>
      </trkpt>
      <trkpt lat="47.07364" lon="6.19059">
        <ele>358.2</ele>
        <time>2023-10-01T11:46:49Z</time>
      </trkpt>
      <trkpt lat="47.07373" lon="6.19045">
        <ele>357.8</ele>
        <time>2023-10-01T11:46:51Z</time>
      </trkpt>
      <trkpt lat="47.07392" lon="6.19019">
        <ele>356.8</ele>
        <time>2023-10-01T11:46:55Z</time>
      </trkpt>
      <trkpt lat="47.07397" lon="6.19013">
        <ele>356.4</ele>
        <time>2023-10-01T11:46:56Z</time>
      </trkpt>
      <trkpt lat="47.0741" lon="6.18996">
        <ele>355.4</ele>
        <time>2023-10-01T11:46:59Z</time>
      </trkpt>
      <trkpt lat="47.07415" lon="6.18991">
        <ele>355.2</ele>
        <time>2023-10-01T11:47:00Z</time>
      </trkpt>
      <trkpt lat="47.07429" lon="6.18977">
        <ele>354.8</ele>
        <time>2023-10-01T11:47:03Z</time>
      </trkpt>
      <trkpt lat="47.07438" lon="6.18967">
        <ele>354.6</ele>
        <time>2023-10-01T11:47:05Z</time>
      </trkpt>
      <trkpt lat="47.07456" lon="6.18946">
        <ele>354.4</ele>
        <time>2023-10-01T11:47:09Z</time>
      </trkpt>
      <trkpt lat="47.0746" lon="6.1894">
        <ele>354.2</ele>
        <time>2023-10-01T11:47:10Z</time>
      </trkpt>
      <trkpt lat="47.07475" lon="6.18926">
        <ele>354</ele>
        <time>2023-10-01T11:47:13Z</time>
      </trkpt>
      <trkpt lat="47.07485" lon="6.18915">
        <ele>354</ele>
        <time>2023-10-01T11:47:15Z</time>
      </trkpt>
      <trkpt lat="47.07503" lon="6.1889">
        <ele>353.2</ele>
        <time>2023-10-01T11:47:19Z</time>
      </trkpt>
      <trkpt lat="47.07511" lon="6.18877">
        <ele>352.8</ele>
        <time>2023-10-01T11:47:21Z</time>
      </trkpt>
      <trkpt lat="47.07529" lon="6.18849">
        <ele>352.2</ele>
        <time>2023-10-01T11:47:25Z</time>
      </trkpt>
      <trkpt lat="47.07545" lon="6.1882">
        <ele>351.4</ele>
        <time>2023-10-01T11:47:29Z</time>
      </trkpt>
      <trkpt lat="47.07564" lon="6.18794">
        <ele>351.4</ele>
        <time>2023-10-01T11:47:33Z</time>
      </trkpt>
      <trkpt lat="47.07574" lon="6.18786">
        <ele>351.6</ele>
        <time>2023-10-01T11:47:35Z</time>
      </trkpt>
      <trkpt lat="47.076" lon="6.18761">
        <ele>352.8</ele>
        <time>2023-10-01T11:47:41Z</time>
      </trkpt>
      <trkpt lat="47.07603" lon="6.18755">
        <ele>352.8</ele>
        <time>2023-10-01T11:47:42Z</time>
      </trkpt>
      <trkpt lat="47.0761" lon="6.18746">
        <ele>353.4</ele>
        <time>2023-10-01T11:47:44Z</time>
      </trkpt>
      <trkpt lat="47.0762" lon="6.18733">
        <ele>354</ele>
        <time>2023-10-01T11:47:47Z</time>
      </trkpt>
      <trkpt lat="47.07628" lon="6.18725">
        <ele>354.4</ele>
        <time>2023-10-01T11:47:49Z</time>
      </trkpt>
      <trkpt lat="47.07646" lon="6.18712">
        <ele>355</ele>
        <time>2023-10-01T11:47:53Z</time>
      </trkpt>
      <trkpt lat="47.07663" lon="6.18706">
        <ele>355.6</ele>
        <time>2023-10-01T11:47:56Z</time>
      </trkpt>
      <trkpt lat="47.07681" lon="6.18702">
        <ele>355.8</ele>
        <time>2023-10-01T11:47:59Z</time>
      </trkpt>
      <trkpt lat="47.07731" lon="6.1869">
        <ele>354.6</ele>
        <time>2023-10-01T11:48:07Z</time>
      </trkpt>
      <trkpt lat="47.07738" lon="6.18689">
        <ele>354.6</ele>
        <time>2023-10-01T11:48:08Z</time>
      </trkpt>
      <trkpt lat="47.0777" lon="6.18682">
        <ele>353.6</ele>
        <time>2023-10-01T11:48:12Z</time>
      </trkpt>
      <trkpt lat="47.07778" lon="6.1868">
        <ele>353.4</ele>
        <time>2023-10-01T11:48:13Z</time>
      </trkpt>
      <trkpt lat="47.07813" lon="6.18671">
        <ele>352.2</ele>
        <time>2023-10-01T11:48:17Z</time>
      </trkpt>
      <trkpt lat="47.07838" lon="6.18665">
        <ele>351.6</ele>
        <time>2023-10-01T11:48:20Z</time>
      </trkpt>
      <trkpt lat="47.07862" lon="6.18659">
        <ele>351</ele>
        <time>2023-10-01T11:48:23Z</time>
      </trkpt>
      <trkpt lat="47.07901" lon="6.18648">
        <ele>349.8</ele>
        <time>2023-10-01T11:48:28Z</time>
      </trkpt>
      <trkpt lat="47.07937" lon="6.18638">
        <ele>348.8</ele>
        <time>2023-10-01T11:48:33Z</time>
      </trkpt>
      <trkpt lat="47.07951" lon="6.18635">
        <ele>348.4</ele>
        <time>2023-10-01T11:48:35Z</time>
      </trkpt>
      <trkpt lat="47.07965" lon="6.18637">
        <ele>348</ele>
        <time>2023-10-01T11:48:37Z</time>
      </trkpt>
      <trkpt lat="47.07972" lon="6.1864">
        <ele>347.8</ele>
        <time>2023-10-01T11:48:38Z</time>
      </trkpt>
      <trkpt lat="47.07989" lon="6.18658">
        <ele>348.2</ele>
        <time>2023-10-01T11:48:41Z</time>
      </trkpt>
      <trkpt lat="47.07995" lon="6.1866">
        <ele>348.2</ele>
        <time>2023-10-01T11:48:42Z</time>
      </trkpt>
      <trkpt lat="47.08007" lon="6.18655">
        <ele>348.4</ele>
        <time>2023-10-01T11:48:44Z</time>
      </trkpt>
      <trkpt lat="47.08031" lon="6.18641">
        <ele>349</ele>
        <time>2023-10-01T11:48:48Z</time>
      </trkpt>
      <trkpt lat="47.08036" lon="6.18637">
        <ele>349</ele>
        <time>2023-10-01T11:48:49Z</time>
      </trkpt>
      <trkpt lat="47.08047" lon="6.18621">
        <ele>349.6</ele>
        <time>2023-10-01T11:48:52Z</time>
      </trkpt>
      <trkpt lat="47.08052" lon="6.18614">
        <ele>349.8</ele>
        <time>2023-10-01T11:48:53Z</time>
      </trkpt>
      <trkpt lat="47.08072" lon="6.18592">
        <ele>350.2</ele>
        <time>2023-10-01T11:48:57Z</time>
      </trkpt>
      <trkpt lat="47.08081" lon="6.18579">
        <ele>350.4</ele>
        <time>2023-10-01T11:48:59Z</time>
      </trkpt>
      <trkpt lat="47.08088" lon="6.18563">
        <ele>350.4</ele>
        <time>2023-10-01T11:49:01Z</time>
      </trkpt>
      <trkpt lat="47.08108" lon="6.1852">
        <ele>350</ele>
        <time>2023-10-01T11:49:07Z</time>
      </trkpt>
      <trkpt lat="47.08135" lon="6.18468">
        <ele>348.6</ele>
        <time>2023-10-01T11:49:14Z</time>
      </trkpt>
      <trkpt lat="47.08154" lon="6.18426">
        <ele>347.6</ele>
        <time>2023-10-01T11:49:19Z</time>
      </trkpt>
      <trkpt lat="47.08162" lon="6.18409">
        <ele>347</ele>
        <time>2023-10-01T11:49:21Z</time>
      </trkpt>
      <trkpt lat="47.08169" lon="6.18393">
        <ele>346.4</ele>
        <time>2023-10-01T11:49:23Z</time>
      </trkpt>
      <trkpt lat="47.08184" lon="6.18366">
        <ele>345.4</ele>
        <time>2023-10-01T11:49:27Z</time>
      </trkpt>
      <trkpt lat="47.08189" lon="6.18362">
        <ele>345.2</ele>
        <time>2023-10-01T11:49:28Z</time>
      </trkpt>
      <trkpt lat="47.08212" lon="6.18343">
        <ele>344.8</ele>
        <time>2023-10-01T11:49:33Z</time>
      </trkpt>
      <trkpt lat="47.08221" lon="6.18336">
        <ele>344.6</ele>
        <time>2023-10-01T11:49:35Z</time>
      </trkpt>
      <trkpt lat="47.08241" lon="6.1832">
        <ele>344.2</ele>
        <time>2023-10-01T11:49:39Z</time>
      </trkpt>
      <trkpt lat="47.08246" lon="6.18316">
        <ele>344</ele>
        <time>2023-10-01T11:49:40Z</time>
      </trkpt>
      <trkpt lat="47.0827" lon="6.18299">
        <ele>344.2</ele>
        <time>2023-10-01T11:49:45Z</time>
      </trkpt>
      <trkpt lat="47.08281" lon="6.18293">
        <ele>344.2</ele>
        <time>2023-10-01T11:49:47Z</time>
      </trkpt>
      <trkpt lat="47.08314" lon="6.18274">
        <ele>344.4</ele>
        <time>2023-10-01T11:49:53Z</time>
      </trkpt>
      <trkpt lat="47.08344" lon="6.18258">
        <ele>344.6</ele>
        <time>2023-10-01T11:49:58Z</time>
      </trkpt>
      <trkpt lat="47.0835" lon="6.18255">
        <ele>344.6</ele>
        <time>2023-10-01T11:49:59Z</time>
      </trkpt>
      <trkpt lat="47.08388" lon="6.18231">
        <ele>344.8</ele>
        <time>2023-10-01T11:50:05Z</time>
      </trkpt>
      <trkpt lat="47.08402" lon="6.18224">
        <ele>345.2</ele>
        <time>2023-10-01T11:50:07Z</time>
      </trkpt>
      <trkpt lat="47.08418" lon="6.18215">
        <ele>345.8</ele>
        <time>2023-10-01T11:50:10Z</time>
      </trkpt>
      <trkpt lat="47.08442" lon="6.18201">
        <ele>346.2</ele>
        <time>2023-10-01T11:50:14Z</time>
      </trkpt>
      <trkpt lat="47.08448" lon="6.18198">
        <ele>346.4</ele>
        <time>2023-10-01T11:50:15Z</time>
      </trkpt>
      <trkpt lat="47.08501" lon="6.1817">
        <ele>347.2</ele>
        <time>2023-10-01T11:50:23Z</time>
      </trkpt>
      <trkpt lat="47.08515" lon="6.18162">
        <ele>347.2</ele>
        <time>2023-10-01T11:50:25Z</time>
      </trkpt>
      <trkpt lat="47.08533" lon="6.18152">
        <ele>347.6</ele>
        <time>2023-10-01T11:50:28Z</time>
      </trkpt>
      <trkpt lat="47.08555" lon="6.1814">
        <ele>348.4</ele>
        <time>2023-10-01T11:50:32Z</time>
      </trkpt>
      <trkpt lat="47.08571" lon="6.1813">
        <ele>348.8</ele>
        <time>2023-10-01T11:50:35Z</time>
      </trkpt>
      <trkpt lat="47.08606" lon="6.18108">
        <ele>349.4</ele>
        <time>2023-10-01T11:50:41Z</time>
      </trkpt>
      <trkpt lat="47.08645" lon="6.1808">
        <ele>350.2</ele>
        <time>2023-10-01T11:50:48Z</time>
      </trkpt>
      <trkpt lat="47.08687" lon="6.18045">
        <ele>348.8</ele>
        <time>2023-10-01T11:50:54Z</time>
      </trkpt>
      <trkpt lat="47.08701" lon="6.18033">
        <ele>348.4</ele>
        <time>2023-10-01T11:50:56Z</time>
      </trkpt>
      <trkpt lat="47.08738" lon="6.17993">
        <ele>348</ele>
        <time>2023-10-01T11:51:02Z</time>
      </trkpt>
      <trkpt lat="47.08773" lon="6.17945">
        <ele>347.8</ele>
        <time>2023-10-01T11:51:09Z</time>
      </trkpt>
      <trkpt lat="47.08794" lon="6.17918">
        <ele>348.8</ele>
        <time>2023-10-01T11:51:13Z</time>
      </trkpt>
      <trkpt lat="47.08804" lon="6.17903">
        <ele>349</ele>
        <time>2023-10-01T11:51:15Z</time>
      </trkpt>
      <trkpt lat="47.08826" lon="6.17867">
        <ele>349.4</ele>
        <time>2023-10-01T11:51:20Z</time>
      </trkpt>
      <trkpt lat="47.08834" lon="6.17852">
        <ele>349.6</ele>
        <time>2023-10-01T11:51:22Z</time>
      </trkpt>
      <trkpt lat="47.0886" lon="6.17801">
        <ele>349.4</ele>
        <time>2023-10-01T11:51:29Z</time>
      </trkpt>
      <trkpt lat="47.08888" lon="6.17753">
        <ele>348.8</ele>
        <time>2023-10-01T11:51:36Z</time>
      </trkpt>
      <trkpt lat="47.08895" lon="6.17738">
        <ele>348.4</ele>
        <time>2023-10-01T11:51:38Z</time>
      </trkpt>
      <trkpt lat="47.08912" lon="6.17698">
        <ele>348</ele>
        <time>2023-10-01T11:51:43Z</time>
      </trkpt>
      <trkpt lat="47.08927" lon="6.17668">
        <ele>347.8</ele>
        <time>2023-10-01T11:51:47Z</time>
      </trkpt>
      <trkpt lat="47.08934" lon="6.17652">
        <ele>347.6</ele>
        <time>2023-10-01T11:51:49Z</time>
      </trkpt>
      <trkpt lat="47.08938" lon="6.17645">
        <ele>347.4</ele>
        <time>2023-10-01T11:51:50Z</time>
      </trkpt>
      <trkpt lat="47.08954" lon="6.17605">
        <ele>346.8</ele>
        <time>2023-10-01T11:51:55Z</time>
      </trkpt>
      <trkpt lat="47.08957" lon="6.17597">
        <ele>346.4</ele>
        <time>2023-10-01T11:51:56Z</time>
      </trkpt>
      <trkpt lat="47.0896" lon="6.17588">
        <ele>346.2</ele>
        <time>2023-10-01T11:51:57Z</time>
      </trkpt>
      <trkpt lat="47.08978" lon="6.1755">
        <ele>345.4</ele>
        <time>2023-10-01T11:52:02Z</time>
      </trkpt>
      <trkpt lat="47.0901" lon="6.17488">
        <ele>345.6</ele>
        <time>2023-10-01T11:52:10Z</time>
      </trkpt>
      <trkpt lat="47.09031" lon="6.17447">
        <ele>345.6</ele>
        <time>2023-10-01T11:52:16Z</time>
      </trkpt>
      <trkpt lat="47.09052" lon="6.17412">
        <ele>345.6</ele>
        <time>2023-10-01T11:52:21Z</time>
      </trkpt>
      <trkpt lat="47.09087" lon="6.17361">
        <ele>345.4</ele>
        <time>2023-10-01T11:52:28Z</time>
      </trkpt>
      <trkpt lat="47.09119" lon="6.1731">
        <ele>345.6</ele>
        <time>2023-10-01T11:52:35Z</time>
      </trkpt>
      <trkpt lat="47.09146" lon="6.17269">
        <ele>345.2</ele>
        <time>2023-10-01T11:52:41Z</time>
      </trkpt>
      <trkpt lat="47.09184" lon="6.17215">
        <ele>344.6</ele>
        <time>2023-10-01T11:52:49Z</time>
      </trkpt>
      <trkpt lat="47.09192" lon="6.172">
        <ele>344.8</ele>
        <time>2023-10-01T11:52:51Z</time>
      </trkpt>
      <trkpt lat="47.09197" lon="6.17182">
        <ele>344.8</ele>
        <time>2023-10-01T11:52:53Z</time>
      </trkpt>
      <trkpt lat="47.09208" lon="6.17123">
        <ele>344.8</ele>
        <time>2023-10-01T11:52:59Z</time>
      </trkpt>
      <trkpt lat="47.09222" lon="6.17055">
        <ele>344.8</ele>
        <time>2023-10-01T11:53:06Z</time>
      </trkpt>
      <trkpt lat="47.09225" lon="6.17047">
        <ele>345</ele>
        <time>2023-10-01T11:53:07Z</time>
      </trkpt>
      <trkpt lat="47.09252" lon="6.1698">
        <ele>344.8</ele>
        <time>2023-10-01T11:53:16Z</time>
      </trkpt>
      <trkpt lat="47.0927" lon="6.16924">
        <ele>344.8</ele>
        <time>2023-10-01T11:53:23Z</time>
      </trkpt>
      <trkpt lat="47.0928" lon="6.1689">
        <ele>344.8</ele>
        <time>2023-10-01T11:53:27Z</time>
      </trkpt>
      <trkpt lat="47.09284" lon="6.16883">
        <ele>344.8</ele>
        <time>2023-10-01T11:53:28Z</time>
      </trkpt>
      <trkpt lat="47.09305" lon="6.16861">
        <ele>344.4</ele>
        <time>2023-10-01T11:53:32Z</time>
      </trkpt>
      <trkpt lat="47.09321" lon="6.16847">
        <ele>344</ele>
        <time>2023-10-01T11:53:35Z</time>
      </trkpt>
      <trkpt lat="47.09341" lon="6.16826">
        <ele>343.8</ele>
        <time>2023-10-01T11:53:39Z</time>
      </trkpt>
      <trkpt lat="47.09349" lon="6.16813">
        <ele>343.8</ele>
        <time>2023-10-01T11:53:41Z</time>
      </trkpt>
      <trkpt lat="47.09356" lon="6.16803">
        <ele>343.6</ele>
        <time>2023-10-01T11:53:43Z</time>
      </trkpt>
      <trkpt lat="47.09361" lon="6.16802">
        <ele>343.6</ele>
        <time>2023-10-01T11:53:44Z</time>
      </trkpt>
      <trkpt lat="47.09372" lon="6.16814">
        <ele>343.2</ele>
        <time>2023-10-01T11:53:47Z</time>
      </trkpt>
      <trkpt lat="47.09375" lon="6.16819">
        <ele>343.2</ele>
        <time>2023-10-01T11:53:48Z</time>
      </trkpt>
      <trkpt lat="47.09389" lon="6.16835">
        <ele>343</ele>
        <time>2023-10-01T11:53:51Z</time>
      </trkpt>
      <trkpt lat="47.09394" lon="6.16841">
        <ele>343</ele>
        <time>2023-10-01T11:53:52Z</time>
      </trkpt>
      <trkpt lat="47.09425" lon="6.16875">
        <ele>342.2</ele>
        <time>2023-10-01T11:53:58Z</time>
      </trkpt>
      <trkpt lat="47.09441" lon="6.16889">
        <ele>342</ele>
        <time>2023-10-01T11:54:01Z</time>
      </trkpt>
      <trkpt lat="47.09453" lon="6.16896">
        <ele>341.8</ele>
        <time>2023-10-01T11:54:03Z</time>
      </trkpt>
      <trkpt lat="47.09459" lon="6.16898">
        <ele>341.6</ele>
        <time>2023-10-01T11:54:04Z</time>
      </trkpt>
      <trkpt lat="47.09476" lon="6.1689">
        <ele>341</ele>
        <time>2023-10-01T11:54:07Z</time>
      </trkpt>
      <trkpt lat="47.09481" lon="6.16884">
        <ele>340.8</ele>
        <time>2023-10-01T11:54:08Z</time>
      </trkpt>
      <trkpt lat="47.09485" lon="6.16879">
        <ele>340.8</ele>
        <time>2023-10-01T11:54:09Z</time>
      </trkpt>
      <trkpt lat="47.09495" lon="6.16869">
        <ele>340.6</ele>
        <time>2023-10-01T11:54:11Z</time>
      </trkpt>
      <trkpt lat="47.0954" lon="6.16821">
        <ele>340.4</ele>
        <time>2023-10-01T11:54:20Z</time>
      </trkpt>
      <trkpt lat="47.09585" lon="6.16776">
        <ele>340.6</ele>
        <time>2023-10-01T11:54:29Z</time>
      </trkpt>
      <trkpt lat="47.09629" lon="6.16731">
        <ele>340</ele>
        <time>2023-10-01T11:54:37Z</time>
      </trkpt>
      <trkpt lat="47.0964" lon="6.1672">
        <ele>339.8</ele>
        <time>2023-10-01T11:54:39Z</time>
      </trkpt>
      <trkpt lat="47.0969" lon="6.1667">
        <ele>339.6</ele>
        <time>2023-10-01T11:54:48Z</time>
      </trkpt>
      <trkpt lat="47.09695" lon="6.16665">
        <ele>339.6</ele>
        <time>2023-10-01T11:54:49Z</time>
      </trkpt>
      <trkpt lat="47.09739" lon="6.1662">
        <ele>339.4</ele>
        <time>2023-10-01T11:54:57Z</time>
      </trkpt>
      <trkpt lat="47.09786" lon="6.16574">
        <ele>339.2</ele>
        <time>2023-10-01T11:55:06Z</time>
      </trkpt>
      <trkpt lat="47.09834" lon="6.16525">
        <ele>339.4</ele>
        <time>2023-10-01T11:55:15Z</time>
      </trkpt>
      <trkpt lat="47.09839" lon="6.16519">
        <ele>339.2</ele>
        <time>2023-10-01T11:55:16Z</time>
      </trkpt>
      <trkpt lat="47.09882" lon="6.16472">
        <ele>339.2</ele>
        <time>2023-10-01T11:55:24Z</time>
      </trkpt>
      <trkpt lat="47.09888" lon="6.16466">
        <ele>339.2</ele>
        <time>2023-10-01T11:55:25Z</time>
      </trkpt>
      <trkpt lat="47.09928" lon="6.16427">
        <ele>338.8</ele>
        <time>2023-10-01T11:55:32Z</time>
      </trkpt>
      <trkpt lat="47.09961" lon="6.16393">
        <ele>338.8</ele>
        <time>2023-10-01T11:55:38Z</time>
      </trkpt>
      <trkpt lat="47.10007" lon="6.16349">
        <ele>338.8</ele>
        <time>2023-10-01T11:55:46Z</time>
      </trkpt>
      <trkpt lat="47.10012" lon="6.16344">
        <ele>338.8</ele>
        <time>2023-10-01T11:55:47Z</time>
      </trkpt>
      <trkpt lat="47.10055" lon="6.16301">
        <ele>339.4</ele>
        <time>2023-10-01T11:55:55Z</time>
      </trkpt>
      <trkpt lat="47.10087" lon="6.16275">
        <ele>339.6</ele>
        <time>2023-10-01T11:56:01Z</time>
      </trkpt>
      <trkpt lat="47.10111" lon="6.16262">
        <ele>339.8</ele>
        <time>2023-10-01T11:56:06Z</time>
      </trkpt>
      <trkpt lat="47.10115" lon="6.16257">
        <ele>339.8</ele>
        <time>2023-10-01T11:56:07Z</time>
      </trkpt>
      <trkpt lat="47.10124" lon="6.1625">
        <ele>339.6</ele>
        <time>2023-10-01T11:56:09Z</time>
      </trkpt>
      <trkpt lat="47.10134" lon="6.16248">
        <ele>339.4</ele>
        <time>2023-10-01T11:56:11Z</time>
      </trkpt>
      <trkpt lat="47.10146" lon="6.16252">
        <ele>339.2</ele>
        <time>2023-10-01T11:56:13Z</time>
      </trkpt>
      <trkpt lat="47.10152" lon="6.16252">
        <ele>339.2</ele>
        <time>2023-10-01T11:56:14Z</time>
      </trkpt>
      <trkpt lat="47.10158" lon="6.16252">
        <ele>339.2</ele>
        <time>2023-10-01T11:56:15Z</time>
      </trkpt>
      <trkpt lat="47.10173" lon="6.16241">
        <ele>339</ele>
        <time>2023-10-01T11:56:18Z</time>
      </trkpt>
      <trkpt lat="47.10185" lon="6.16214">
        <ele>339</ele>
        <time>2023-10-01T11:56:22Z</time>
      </trkpt>
      <trkpt lat="47.10183" lon="6.16187">
        <ele>339.6</ele>
        <time>2023-10-01T11:56:25Z</time>
      </trkpt>
      <trkpt lat="47.10185" lon="6.16167">
        <ele>339.8</ele>
        <time>2023-10-01T11:56:28Z</time>
      </trkpt>
      <trkpt lat="47.10198" lon="6.16154">
        <ele>339.6</ele>
        <time>2023-10-01T11:56:31Z</time>
      </trkpt>
      <trkpt lat="47.10212" lon="6.16139">
        <ele>339.8</ele>
        <time>2023-10-01T11:56:34Z</time>
      </trkpt>
      <trkpt lat="47.10231" lon="6.16121">
        <ele>340.2</ele>
        <time>2023-10-01T11:56:38Z</time>
      </trkpt>
      <trkpt lat="47.10253" lon="6.16102">
        <ele>340.4</ele>
        <time>2023-10-01T11:56:44Z</time>
      </trkpt>
      <trkpt lat="47.10251" lon="6.16098">
        <ele>340.6</ele>
        <time>2023-10-01T11:56:45Z</time>
      </trkpt>
      <trkpt lat="47.10247" lon="6.16097">
        <ele>340.6</ele>
        <time>2023-10-01T11:56:46Z</time>
      </trkpt>
      <trkpt lat="47.10236" lon="6.16102">
        <ele>340.2</ele>
        <time>2023-10-01T11:56:49Z</time>
      </trkpt>
      <trkpt lat="47.10232" lon="6.16105">
        <ele>340.2</ele>
        <time>2023-10-01T11:56:50Z</time>
      </trkpt>
      <trkpt lat="47.10221" lon="6.16103">
        <ele>340</ele>
        <time>2023-10-01T11:56:53Z</time>
      </trkpt>
      <trkpt lat="47.10194" lon="6.16092">
        <ele>339.8</ele>
        <time>2023-10-01T11:57:00Z</time>
      </trkpt>
      <trkpt lat="47.10191" lon="6.16089">
        <ele>339.8</ele>
        <time>2023-10-01T11:57:01Z</time>
      </trkpt>
      <trkpt lat="47.10173" lon="6.16082">
        <ele>339.4</ele>
        <time>2023-10-01T11:57:05Z</time>
      </trkpt>
    </trkseg>
  </trk>
</gpx>